<?xml version="1.0" encoding="UTF-8" standalone="no" ?>
<gpx xmlns="http://www.topografix.com/GPX/1/1" xmlns:xsi="http://www.w3.org/2001/XMLSchema-instance" xsi:schemaLocation="http://www.topografix.com/GPX/1/1 http://www.topografix.com/GPX/1/1/gpx.xsd" version="1.1" creator="VisuGPX - https://www.visugpx.com">
  <metadata>
    <name>pont d\'ouilly rando</name>
    <desc><![CDATA[Pont d ouilly]]></desc>
  </metadata>
  <trk>
    <name><![CDATA[pont d\'ouilly rando_1]]></name>
    <trkseg>
      <trkpt lat="48.87348" lon="-0.41138">
        <ele>47</ele>
        <time>2014-11-23T12:45:29.000Z</time>
      </trkpt>
      <trkpt lat="48.87351" lon="-0.41135">
        <ele>47</ele>
        <time>2014-11-23T12:45:32.000Z</time>
      </trkpt>
      <trkpt lat="48.87353" lon="-0.41133">
        <ele>47.333332061768</ele>
        <time>2014-11-23T12:45:34.000Z</time>
      </trkpt>
      <trkpt lat="48.87356" lon="-0.4113">
        <ele>47.5</ele>
        <time>2014-11-23T12:45:37.000Z</time>
      </trkpt>
      <trkpt lat="48.87357" lon="-0.41127">
        <ele>47.599998474121</ele>
        <time>2014-11-23T12:45:39.000Z</time>
      </trkpt>
      <trkpt lat="48.87363" lon="-0.41111">
        <ele>47.400001525879</ele>
        <time>2014-11-23T12:45:48.000Z</time>
      </trkpt>
      <trkpt lat="48.87365" lon="-0.41108">
        <ele>47.200000762939</ele>
        <time>2014-11-23T12:45:50.000Z</time>
      </trkpt>
      <trkpt lat="48.87365" lon="-0.41105">
        <ele>47</ele>
        <time>2014-11-23T12:45:52.000Z</time>
      </trkpt>
      <trkpt lat="48.87368" lon="-0.41096">
        <ele>47.200000762939</ele>
        <time>2014-11-23T12:45:57.000Z</time>
      </trkpt>
      <trkpt lat="48.87369" lon="-0.41091">
        <ele>47.599998474121</ele>
        <time>2014-11-23T12:46:00.000Z</time>
      </trkpt>
      <trkpt lat="48.87371" lon="-0.41085">
        <ele>48.200000762939</ele>
        <time>2014-11-23T12:46:03.000Z</time>
      </trkpt>
      <trkpt lat="48.87371" lon="-0.41081">
        <ele>48.799999237061</ele>
        <time>2014-11-23T12:46:05.000Z</time>
      </trkpt>
      <trkpt lat="48.87373" lon="-0.41075">
        <ele>49.799999237061</ele>
        <time>2014-11-23T12:46:08.000Z</time>
      </trkpt>
      <trkpt lat="48.87374" lon="-0.41071">
        <ele>50.799999237061</ele>
        <time>2014-11-23T12:46:10.000Z</time>
      </trkpt>
      <trkpt lat="48.87376" lon="-0.41069">
        <ele>51.599998474121</ele>
        <time>2014-11-23T12:46:12.000Z</time>
      </trkpt>
      <trkpt lat="48.87376" lon="-0.41065">
        <ele>52</ele>
        <time>2014-11-23T12:46:15.000Z</time>
      </trkpt>
      <trkpt lat="48.87377" lon="-0.41061">
        <ele>52.599998474121</ele>
        <time>2014-11-23T12:46:17.000Z</time>
      </trkpt>
      <trkpt lat="48.8738" lon="-0.41049">
        <ele>52.400001525879</ele>
        <time>2014-11-23T12:46:25.000Z</time>
      </trkpt>
      <trkpt lat="48.87381" lon="-0.4104">
        <ele>52</ele>
        <time>2014-11-23T12:46:30.000Z</time>
      </trkpt>
      <trkpt lat="48.87382" lon="-0.41035">
        <ele>51.799999237061</ele>
        <time>2014-11-23T12:46:33.000Z</time>
      </trkpt>
      <trkpt lat="48.87383" lon="-0.41032">
        <ele>51.400001525879</ele>
        <time>2014-11-23T12:46:35.000Z</time>
      </trkpt>
      <trkpt lat="48.87384" lon="-0.41029">
        <ele>51.200000762939</ele>
        <time>2014-11-23T12:46:38.000Z</time>
      </trkpt>
      <trkpt lat="48.87385" lon="-0.41026">
        <ele>50.599998474121</ele>
        <time>2014-11-23T12:46:40.000Z</time>
      </trkpt>
      <trkpt lat="48.87386" lon="-0.41019">
        <ele>50.200000762939</ele>
        <time>2014-11-23T12:46:43.000Z</time>
      </trkpt>
      <trkpt lat="48.87387" lon="-0.41015">
        <ele>49.799999237061</ele>
        <time>2014-11-23T12:46:45.000Z</time>
      </trkpt>
      <trkpt lat="48.87389" lon="-0.41012">
        <ele>49.200000762939</ele>
        <time>2014-11-23T12:46:47.000Z</time>
      </trkpt>
      <trkpt lat="48.87391" lon="-0.41007">
        <ele>48.599998474121</ele>
        <time>2014-11-23T12:46:50.000Z</time>
      </trkpt>
      <trkpt lat="48.87393" lon="-0.41003">
        <ele>48.200000762939</ele>
        <time>2014-11-23T12:46:52.000Z</time>
      </trkpt>
      <trkpt lat="48.87395" lon="-0.40998">
        <ele>47.599998474121</ele>
        <time>2014-11-23T12:46:55.000Z</time>
      </trkpt>
      <trkpt lat="48.87397" lon="-0.40995">
        <ele>46.799999237061</ele>
        <time>2014-11-23T12:46:57.000Z</time>
      </trkpt>
      <trkpt lat="48.87399" lon="-0.40992">
        <ele>46.200000762939</ele>
        <time>2014-11-23T12:47:00.000Z</time>
      </trkpt>
      <trkpt lat="48.87398" lon="-0.40987">
        <ele>45.599998474121</ele>
        <time>2014-11-23T12:47:03.000Z</time>
      </trkpt>
      <trkpt lat="48.87397" lon="-0.40983">
        <ele>45.200000762939</ele>
        <time>2014-11-23T12:47:05.000Z</time>
      </trkpt>
      <trkpt lat="48.87396" lon="-0.40978">
        <ele>45</ele>
        <time>2014-11-23T12:47:08.000Z</time>
      </trkpt>
      <trkpt lat="48.87395" lon="-0.40971">
        <ele>44.599998474121</ele>
        <time>2014-11-23T12:47:11.000Z</time>
      </trkpt>
      <trkpt lat="48.87394" lon="-0.40966">
        <ele>44</ele>
        <time>2014-11-23T12:47:14.000Z</time>
      </trkpt>
      <trkpt lat="48.87394" lon="-0.4096">
        <ele>43.400001525879</ele>
        <time>2014-11-23T12:47:17.000Z</time>
      </trkpt>
      <trkpt lat="48.87394" lon="-0.40954">
        <ele>43</ele>
        <time>2014-11-23T12:47:20.000Z</time>
      </trkpt>
      <trkpt lat="48.87394" lon="-0.40949">
        <ele>42.599998474121</ele>
        <time>2014-11-23T12:47:23.000Z</time>
      </trkpt>
      <trkpt lat="48.87393" lon="-0.40947">
        <ele>42.599998474121</ele>
        <time>2014-11-23T12:47:25.000Z</time>
      </trkpt>
      <trkpt lat="48.87393" lon="-0.40944">
        <ele>42.799999237061</ele>
        <time>2014-11-23T12:47:28.000Z</time>
      </trkpt>
      <trkpt lat="48.87392" lon="-0.40938">
        <ele>43</ele>
        <time>2014-11-23T12:47:31.000Z</time>
      </trkpt>
      <trkpt lat="48.87391" lon="-0.40931">
        <ele>43.200000762939</ele>
        <time>2014-11-23T12:47:36.000Z</time>
      </trkpt>
      <trkpt lat="48.87388" lon="-0.40915">
        <ele>43.400001525879</ele>
        <time>2014-11-23T12:47:44.000Z</time>
      </trkpt>
      <trkpt lat="48.87386" lon="-0.40909">
        <ele>43.599998474121</ele>
        <time>2014-11-23T12:47:47.000Z</time>
      </trkpt>
      <trkpt lat="48.87386" lon="-0.40906">
        <ele>43.599998474121</ele>
        <time>2014-11-23T12:47:49.000Z</time>
      </trkpt>
      <trkpt lat="48.87384" lon="-0.40901">
        <ele>43.599998474121</ele>
        <time>2014-11-23T12:47:52.000Z</time>
      </trkpt>
      <trkpt lat="48.87383" lon="-0.40898">
        <ele>43.799999237061</ele>
        <time>2014-11-23T12:47:54.000Z</time>
      </trkpt>
      <trkpt lat="48.87383" lon="-0.40893">
        <ele>43.799999237061</ele>
        <time>2014-11-23T12:47:57.000Z</time>
      </trkpt>
      <trkpt lat="48.87384" lon="-0.40889">
        <ele>43.799999237061</ele>
        <time>2014-11-23T12:47:59.000Z</time>
      </trkpt>
      <trkpt lat="48.87386" lon="-0.40884">
        <ele>44</ele>
        <time>2014-11-23T12:48:02.000Z</time>
      </trkpt>
      <trkpt lat="48.87386" lon="-0.4088">
        <ele>44.400001525879</ele>
        <time>2014-11-23T12:48:04.000Z</time>
      </trkpt>
      <trkpt lat="48.87385" lon="-0.40874">
        <ele>44.799999237061</ele>
        <time>2014-11-23T12:48:07.000Z</time>
      </trkpt>
      <trkpt lat="48.87384" lon="-0.40869">
        <ele>45.599998474121</ele>
        <time>2014-11-23T12:48:10.000Z</time>
      </trkpt>
      <trkpt lat="48.87383" lon="-0.40862">
        <ele>46.400001525879</ele>
        <time>2014-11-23T12:48:13.000Z</time>
      </trkpt>
      <trkpt lat="48.87382" lon="-0.40856">
        <ele>46.799999237061</ele>
        <time>2014-11-23T12:48:16.000Z</time>
      </trkpt>
      <trkpt lat="48.8738" lon="-0.40849">
        <ele>47.400001525879</ele>
        <time>2014-11-23T12:48:19.000Z</time>
      </trkpt>
      <trkpt lat="48.87378" lon="-0.40844">
        <ele>48</ele>
        <time>2014-11-23T12:48:22.000Z</time>
      </trkpt>
      <trkpt lat="48.87375" lon="-0.40838">
        <ele>48.200000762939</ele>
        <time>2014-11-23T12:48:25.000Z</time>
      </trkpt>
      <trkpt lat="48.87372" lon="-0.40833">
        <ele>48.799999237061</ele>
        <time>2014-11-23T12:48:28.000Z</time>
      </trkpt>
      <trkpt lat="48.8737" lon="-0.4083">
        <ele>49.599998474121</ele>
        <time>2014-11-23T12:48:30.000Z</time>
      </trkpt>
      <trkpt lat="48.87367" lon="-0.40826">
        <ele>50.400001525879</ele>
        <time>2014-11-23T12:48:32.000Z</time>
      </trkpt>
      <trkpt lat="48.87365" lon="-0.40819">
        <ele>51.400001525879</ele>
        <time>2014-11-23T12:48:35.000Z</time>
      </trkpt>
      <trkpt lat="48.87366" lon="-0.40815">
        <ele>52.200000762939</ele>
        <time>2014-11-23T12:48:38.000Z</time>
      </trkpt>
      <trkpt lat="48.87367" lon="-0.4081">
        <ele>52.599998474121</ele>
        <time>2014-11-23T12:48:41.000Z</time>
      </trkpt>
      <trkpt lat="48.87368" lon="-0.40805">
        <ele>53.200000762939</ele>
        <time>2014-11-23T12:48:43.000Z</time>
      </trkpt>
      <trkpt lat="48.87368" lon="-0.40799">
        <ele>53.799999237061</ele>
        <time>2014-11-23T12:48:46.000Z</time>
      </trkpt>
      <trkpt lat="48.87368" lon="-0.40795">
        <ele>54</ele>
        <time>2014-11-23T12:48:48.000Z</time>
      </trkpt>
      <trkpt lat="48.8737" lon="-0.40791">
        <ele>54.599998474121</ele>
        <time>2014-11-23T12:48:51.000Z</time>
      </trkpt>
      <trkpt lat="48.87372" lon="-0.40786">
        <ele>55.200000762939</ele>
        <time>2014-11-23T12:48:54.000Z</time>
      </trkpt>
      <trkpt lat="48.87373" lon="-0.40783">
        <ele>55.599998474121</ele>
        <time>2014-11-23T12:48:56.000Z</time>
      </trkpt>
      <trkpt lat="48.87375" lon="-0.40777">
        <ele>56</ele>
        <time>2014-11-23T12:48:59.000Z</time>
      </trkpt>
      <trkpt lat="48.87378" lon="-0.40774">
        <ele>56.400001525879</ele>
        <time>2014-11-23T12:49:01.000Z</time>
      </trkpt>
      <trkpt lat="48.87384" lon="-0.40769">
        <ele>56.599998474121</ele>
        <time>2014-11-23T12:49:04.000Z</time>
      </trkpt>
      <trkpt lat="48.87387" lon="-0.40767">
        <ele>56.799999237061</ele>
        <time>2014-11-23T12:49:06.000Z</time>
      </trkpt>
      <trkpt lat="48.8739" lon="-0.40764">
        <ele>57</ele>
        <time>2014-11-23T12:49:09.000Z</time>
      </trkpt>
      <trkpt lat="48.87394" lon="-0.40761">
        <ele>56.799999237061</ele>
        <time>2014-11-23T12:49:14.000Z</time>
      </trkpt>
      <trkpt lat="48.87393" lon="-0.40759">
        <ele>56.200000762939</ele>
        <time>2014-11-23T12:49:17.000Z</time>
      </trkpt>
      <trkpt lat="48.87394" lon="-0.40758">
        <ele>55.599998474121</ele>
        <time>2014-11-23T12:49:19.000Z</time>
      </trkpt>
      <trkpt lat="48.87396" lon="-0.40755">
        <ele>55</ele>
        <time>2014-11-23T12:49:22.000Z</time>
      </trkpt>
      <trkpt lat="48.87398" lon="-0.40755">
        <ele>54.599998474121</ele>
        <time>2014-11-23T12:49:25.000Z</time>
      </trkpt>
      <trkpt lat="48.874" lon="-0.40753">
        <ele>54.599998474121</ele>
        <time>2014-11-23T12:49:28.000Z</time>
      </trkpt>
      <trkpt lat="48.87402" lon="-0.4075">
        <ele>55</ele>
        <time>2014-11-23T12:49:31.000Z</time>
      </trkpt>
      <trkpt lat="48.87404" lon="-0.40748">
        <ele>55.400001525879</ele>
        <time>2014-11-23T12:49:34.000Z</time>
      </trkpt>
      <trkpt lat="48.87408" lon="-0.40744">
        <ele>55.799999237061</ele>
        <time>2014-11-23T12:49:37.000Z</time>
      </trkpt>
      <trkpt lat="48.87411" lon="-0.40736">
        <ele>56.200000762939</ele>
        <time>2014-11-23T12:49:39.000Z</time>
      </trkpt>
      <trkpt lat="48.87415" lon="-0.40733">
        <ele>56.400001525879</ele>
        <time>2014-11-23T12:49:42.000Z</time>
      </trkpt>
      <trkpt lat="48.87418" lon="-0.40732">
        <ele>56.599998474121</ele>
        <time>2014-11-23T12:49:45.000Z</time>
      </trkpt>
      <trkpt lat="48.87421" lon="-0.40733">
        <ele>56.799999237061</ele>
        <time>2014-11-23T12:49:48.000Z</time>
      </trkpt>
      <trkpt lat="48.87423" lon="-0.40735">
        <ele>57</ele>
        <time>2014-11-23T12:49:50.000Z</time>
      </trkpt>
      <trkpt lat="48.87425" lon="-0.40736">
        <ele>57.200000762939</ele>
        <time>2014-11-23T12:49:52.000Z</time>
      </trkpt>
      <trkpt lat="48.87427" lon="-0.40739">
        <ele>57.400001525879</ele>
        <time>2014-11-23T12:49:55.000Z</time>
      </trkpt>
      <trkpt lat="48.8743" lon="-0.40742">
        <ele>57.799999237061</ele>
        <time>2014-11-23T12:49:58.000Z</time>
      </trkpt>
      <trkpt lat="48.87434" lon="-0.4074">
        <ele>58.200000762939</ele>
        <time>2014-11-23T12:50:01.000Z</time>
      </trkpt>
      <trkpt lat="48.87439" lon="-0.40738">
        <ele>58.400001525879</ele>
        <time>2014-11-23T12:50:04.000Z</time>
      </trkpt>
      <trkpt lat="48.87444" lon="-0.40736">
        <ele>58.599998474121</ele>
        <time>2014-11-23T12:50:07.000Z</time>
      </trkpt>
      <trkpt lat="48.87447" lon="-0.40735">
        <ele>58.799999237061</ele>
        <time>2014-11-23T12:50:10.000Z</time>
      </trkpt>
      <trkpt lat="48.87455" lon="-0.40734">
        <ele>59.200000762939</ele>
        <time>2014-11-23T12:50:18.000Z</time>
      </trkpt>
      <trkpt lat="48.87458" lon="-0.40735">
        <ele>59.400001525879</ele>
        <time>2014-11-23T12:50:21.000Z</time>
      </trkpt>
      <trkpt lat="48.8746" lon="-0.40734">
        <ele>59.599998474121</ele>
        <time>2014-11-23T12:50:23.000Z</time>
      </trkpt>
      <trkpt lat="48.87465" lon="-0.40731">
        <ele>59.599998474121</ele>
        <time>2014-11-23T12:50:26.000Z</time>
      </trkpt>
      <trkpt lat="48.87471" lon="-0.40728">
        <ele>59.799999237061</ele>
        <time>2014-11-23T12:50:29.000Z</time>
      </trkpt>
      <trkpt lat="48.87473" lon="-0.40727">
        <ele>59.599998474121</ele>
        <time>2014-11-23T12:50:31.000Z</time>
      </trkpt>
      <trkpt lat="48.87476" lon="-0.40727">
        <ele>59.400001525879</ele>
        <time>2014-11-23T12:50:33.000Z</time>
      </trkpt>
      <trkpt lat="48.87479" lon="-0.40727">
        <ele>59.200000762939</ele>
        <time>2014-11-23T12:50:36.000Z</time>
      </trkpt>
      <trkpt lat="48.87483" lon="-0.40726">
        <ele>59</ele>
        <time>2014-11-23T12:50:39.000Z</time>
      </trkpt>
      <trkpt lat="48.87486" lon="-0.40726">
        <ele>58.799999237061</ele>
        <time>2014-11-23T12:50:41.000Z</time>
      </trkpt>
      <trkpt lat="48.87494" lon="-0.40725">
        <ele>59.200000762939</ele>
        <time>2014-11-23T12:50:47.000Z</time>
      </trkpt>
      <trkpt lat="48.87497" lon="-0.40724">
        <ele>59.599998474121</ele>
        <time>2014-11-23T12:50:50.000Z</time>
      </trkpt>
      <trkpt lat="48.87501" lon="-0.40723">
        <ele>60.400001525879</ele>
        <time>2014-11-23T12:50:53.000Z</time>
      </trkpt>
      <trkpt lat="48.87504" lon="-0.40722">
        <ele>61.200000762939</ele>
        <time>2014-11-23T12:50:56.000Z</time>
      </trkpt>
      <trkpt lat="48.87508" lon="-0.40721">
        <ele>62</ele>
        <time>2014-11-23T12:50:58.000Z</time>
      </trkpt>
      <trkpt lat="48.87512" lon="-0.40722">
        <ele>62.200000762939</ele>
        <time>2014-11-23T12:51:01.000Z</time>
      </trkpt>
      <trkpt lat="48.87514" lon="-0.40723">
        <ele>62.400001525879</ele>
        <time>2014-11-23T12:51:03.000Z</time>
      </trkpt>
      <trkpt lat="48.87516" lon="-0.40723">
        <ele>62.400001525879</ele>
        <time>2014-11-23T12:51:05.000Z</time>
      </trkpt>
      <trkpt lat="48.87518" lon="-0.40722">
        <ele>62.400001525879</ele>
        <time>2014-11-23T12:51:08.000Z</time>
      </trkpt>
      <trkpt lat="48.87521" lon="-0.40722">
        <ele>62.400001525879</ele>
        <time>2014-11-23T12:51:11.000Z</time>
      </trkpt>
      <trkpt lat="48.87524" lon="-0.40722">
        <ele>62.599998474121</ele>
        <time>2014-11-23T12:51:14.000Z</time>
      </trkpt>
      <trkpt lat="48.87526" lon="-0.40721">
        <ele>62.799999237061</ele>
        <time>2014-11-23T12:51:16.000Z</time>
      </trkpt>
      <trkpt lat="48.87529" lon="-0.4072">
        <ele>63.200000762939</ele>
        <time>2014-11-23T12:51:19.000Z</time>
      </trkpt>
      <trkpt lat="48.87532" lon="-0.4072">
        <ele>63.400001525879</ele>
        <time>2014-11-23T12:51:21.000Z</time>
      </trkpt>
      <trkpt lat="48.87534" lon="-0.40719">
        <ele>63.799999237061</ele>
        <time>2014-11-23T12:51:24.000Z</time>
      </trkpt>
      <trkpt lat="48.87537" lon="-0.40718">
        <ele>64.400001525879</ele>
        <time>2014-11-23T12:51:26.000Z</time>
      </trkpt>
      <trkpt lat="48.87539" lon="-0.40718">
        <ele>65.199996948242</ele>
        <time>2014-11-23T12:51:28.000Z</time>
      </trkpt>
      <trkpt lat="48.87541" lon="-0.40718">
        <ele>65.800003051758</ele>
        <time>2014-11-23T12:51:30.000Z</time>
      </trkpt>
      <trkpt lat="48.87545" lon="-0.40717">
        <ele>66.800003051758</ele>
        <time>2014-11-23T12:51:33.000Z</time>
      </trkpt>
      <trkpt lat="48.87547" lon="-0.40717">
        <ele>67.400001525879</ele>
        <time>2014-11-23T12:51:35.000Z</time>
      </trkpt>
      <trkpt lat="48.87549" lon="-0.40717">
        <ele>67.800003051758</ele>
        <time>2014-11-23T12:51:37.000Z</time>
      </trkpt>
      <trkpt lat="48.87554" lon="-0.40716">
        <ele>68.400001525879</ele>
        <time>2014-11-23T12:51:40.000Z</time>
      </trkpt>
      <trkpt lat="48.87558" lon="-0.40716">
        <ele>68.800003051758</ele>
        <time>2014-11-23T12:51:43.000Z</time>
      </trkpt>
      <trkpt lat="48.87565" lon="-0.40715">
        <ele>69.199996948242</ele>
        <time>2014-11-23T12:51:48.000Z</time>
      </trkpt>
      <trkpt lat="48.87567" lon="-0.40714">
        <ele>69.599998474121</ele>
        <time>2014-11-23T12:51:51.000Z</time>
      </trkpt>
      <trkpt lat="48.87569" lon="-0.40715">
        <ele>69.800003051758</ele>
        <time>2014-11-23T12:51:53.000Z</time>
      </trkpt>
      <trkpt lat="48.87571" lon="-0.40715">
        <ele>70.400001525879</ele>
        <time>2014-11-23T12:51:56.000Z</time>
      </trkpt>
      <trkpt lat="48.87573" lon="-0.40715">
        <ele>71</ele>
        <time>2014-11-23T12:51:58.000Z</time>
      </trkpt>
      <trkpt lat="48.87576" lon="-0.40716">
        <ele>71.400001525879</ele>
        <time>2014-11-23T12:52:00.000Z</time>
      </trkpt>
      <trkpt lat="48.87579" lon="-0.40716">
        <ele>71.599998474121</ele>
        <time>2014-11-23T12:52:03.000Z</time>
      </trkpt>
      <trkpt lat="48.87583" lon="-0.40715">
        <ele>71.800003051758</ele>
        <time>2014-11-23T12:52:06.000Z</time>
      </trkpt>
      <trkpt lat="48.87587" lon="-0.40714">
        <ele>72</ele>
        <time>2014-11-23T12:52:08.000Z</time>
      </trkpt>
      <trkpt lat="48.87592" lon="-0.4071">
        <ele>72.400001525879</ele>
        <time>2014-11-23T12:52:11.000Z</time>
      </trkpt>
      <trkpt lat="48.87595" lon="-0.40707">
        <ele>72.800003051758</ele>
        <time>2014-11-23T12:52:14.000Z</time>
      </trkpt>
      <trkpt lat="48.87597" lon="-0.40705">
        <ele>73.599998474121</ele>
        <time>2014-11-23T12:52:17.000Z</time>
      </trkpt>
      <trkpt lat="48.87601" lon="-0.40704">
        <ele>74.199996948242</ele>
        <time>2014-11-23T12:52:20.000Z</time>
      </trkpt>
      <trkpt lat="48.87604" lon="-0.40704">
        <ele>74.599998474121</ele>
        <time>2014-11-23T12:52:22.000Z</time>
      </trkpt>
      <trkpt lat="48.87608" lon="-0.40704">
        <ele>74.800003051758</ele>
        <time>2014-11-23T12:52:25.000Z</time>
      </trkpt>
      <trkpt lat="48.8761" lon="-0.40704">
        <ele>75</ele>
        <time>2014-11-23T12:52:27.000Z</time>
      </trkpt>
      <trkpt lat="48.87615" lon="-0.40705">
        <ele>75.199996948242</ele>
        <time>2014-11-23T12:52:32.000Z</time>
      </trkpt>
      <trkpt lat="48.87617" lon="-0.40705">
        <ele>75.400001525879</ele>
        <time>2014-11-23T12:52:34.000Z</time>
      </trkpt>
      <trkpt lat="48.87619" lon="-0.40705">
        <ele>75.800003051758</ele>
        <time>2014-11-23T12:52:36.000Z</time>
      </trkpt>
      <trkpt lat="48.87622" lon="-0.40705">
        <ele>76.400001525879</ele>
        <time>2014-11-23T12:52:39.000Z</time>
      </trkpt>
      <trkpt lat="48.87626" lon="-0.40705">
        <ele>76.800003051758</ele>
        <time>2014-11-23T12:52:42.000Z</time>
      </trkpt>
      <trkpt lat="48.87628" lon="-0.40706">
        <ele>77</ele>
        <time>2014-11-23T12:52:44.000Z</time>
      </trkpt>
      <trkpt lat="48.8763" lon="-0.40704">
        <ele>77.199996948242</ele>
        <time>2014-11-23T12:52:47.000Z</time>
      </trkpt>
      <trkpt lat="48.8763" lon="-0.40703">
        <ele>77.400001525879</ele>
        <time>2014-11-23T12:52:49.000Z</time>
      </trkpt>
      <trkpt lat="48.87634" lon="-0.40701">
        <ele>77.400001525879</ele>
        <time>2014-11-23T12:52:52.000Z</time>
      </trkpt>
      <trkpt lat="48.87636" lon="-0.40702">
        <ele>77.599998474121</ele>
        <time>2014-11-23T12:52:55.000Z</time>
      </trkpt>
      <trkpt lat="48.87637" lon="-0.40701">
        <ele>78</ele>
        <time>2014-11-23T12:52:58.000Z</time>
      </trkpt>
      <trkpt lat="48.87639" lon="-0.40701">
        <ele>78.800003051758</ele>
        <time>2014-11-23T12:53:01.000Z</time>
      </trkpt>
      <trkpt lat="48.87641" lon="-0.407">
        <ele>79.599998474121</ele>
        <time>2014-11-23T12:53:04.000Z</time>
      </trkpt>
      <trkpt lat="48.87643" lon="-0.40701">
        <ele>80.400001525879</ele>
        <time>2014-11-23T12:53:06.000Z</time>
      </trkpt>
      <trkpt lat="48.87646" lon="-0.40699">
        <ele>81.199996948242</ele>
        <time>2014-11-23T12:53:09.000Z</time>
      </trkpt>
      <trkpt lat="48.87649" lon="-0.40698">
        <ele>82</ele>
        <time>2014-11-23T12:53:11.000Z</time>
      </trkpt>
      <trkpt lat="48.87651" lon="-0.40698">
        <ele>82.400001525879</ele>
        <time>2014-11-23T12:53:13.000Z</time>
      </trkpt>
      <trkpt lat="48.87655" lon="-0.40702">
        <ele>82.199996948242</ele>
        <time>2014-11-23T12:53:16.000Z</time>
      </trkpt>
      <trkpt lat="48.87659" lon="-0.40701">
        <ele>81.800003051758</ele>
        <time>2014-11-23T12:53:19.000Z</time>
      </trkpt>
      <trkpt lat="48.87663" lon="-0.40696">
        <ele>81.199996948242</ele>
        <time>2014-11-23T12:53:22.000Z</time>
      </trkpt>
      <trkpt lat="48.87666" lon="-0.40696">
        <ele>80.800003051758</ele>
        <time>2014-11-23T12:53:25.000Z</time>
      </trkpt>
      <trkpt lat="48.87669" lon="-0.40696">
        <ele>80.400001525879</ele>
        <time>2014-11-23T12:53:28.000Z</time>
      </trkpt>
      <trkpt lat="48.87671" lon="-0.40696">
        <ele>80.199996948242</ele>
        <time>2014-11-23T12:53:30.000Z</time>
      </trkpt>
      <trkpt lat="48.87674" lon="-0.40693">
        <ele>80.400001525879</ele>
        <time>2014-11-23T12:53:33.000Z</time>
      </trkpt>
      <trkpt lat="48.87676" lon="-0.40692">
        <ele>80.800003051758</ele>
        <time>2014-11-23T12:53:35.000Z</time>
      </trkpt>
      <trkpt lat="48.87677" lon="-0.40689">
        <ele>80.800003051758</ele>
        <time>2014-11-23T12:53:37.000Z</time>
      </trkpt>
      <trkpt lat="48.8768" lon="-0.40685">
        <ele>81</ele>
        <time>2014-11-23T12:53:40.000Z</time>
      </trkpt>
      <trkpt lat="48.87682" lon="-0.40683">
        <ele>81.599998474121</ele>
        <time>2014-11-23T12:53:43.000Z</time>
      </trkpt>
      <trkpt lat="48.87683" lon="-0.4068">
        <ele>81.800003051758</ele>
        <time>2014-11-23T12:53:45.000Z</time>
      </trkpt>
      <trkpt lat="48.87685" lon="-0.40677">
        <ele>82.199996948242</ele>
        <time>2014-11-23T12:53:48.000Z</time>
      </trkpt>
      <trkpt lat="48.87687" lon="-0.40676">
        <ele>82.400001525879</ele>
        <time>2014-11-23T12:53:51.000Z</time>
      </trkpt>
      <trkpt lat="48.8769" lon="-0.40669">
        <ele>82.599998474121</ele>
        <time>2014-11-23T12:53:54.000Z</time>
      </trkpt>
      <trkpt lat="48.87691" lon="-0.40664">
        <ele>82.400001525879</ele>
        <time>2014-11-23T12:53:56.000Z</time>
      </trkpt>
      <trkpt lat="48.87695" lon="-0.40659">
        <ele>82.599998474121</ele>
        <time>2014-11-23T12:53:59.000Z</time>
      </trkpt>
      <trkpt lat="48.87697" lon="-0.40657">
        <ele>82.599998474121</ele>
        <time>2014-11-23T12:54:01.000Z</time>
      </trkpt>
      <trkpt lat="48.87699" lon="-0.40651">
        <ele>83.199996948242</ele>
        <time>2014-11-23T12:54:04.000Z</time>
      </trkpt>
      <trkpt lat="48.87701" lon="-0.4065">
        <ele>83.599998474121</ele>
        <time>2014-11-23T12:54:06.000Z</time>
      </trkpt>
      <trkpt lat="48.87705" lon="-0.4065">
        <ele>84.199996948242</ele>
        <time>2014-11-23T12:54:08.000Z</time>
      </trkpt>
      <trkpt lat="48.87708" lon="-0.40648">
        <ele>84.599998474121</ele>
        <time>2014-11-23T12:54:10.000Z</time>
      </trkpt>
      <trkpt lat="48.87711" lon="-0.40647">
        <ele>85</ele>
        <time>2014-11-23T12:54:13.000Z</time>
      </trkpt>
      <trkpt lat="48.87713" lon="-0.40646">
        <ele>85.199996948242</ele>
        <time>2014-11-23T12:54:15.000Z</time>
      </trkpt>
      <trkpt lat="48.87716" lon="-0.40644">
        <ele>85.800003051758</ele>
        <time>2014-11-23T12:54:18.000Z</time>
      </trkpt>
      <trkpt lat="48.87719" lon="-0.40645">
        <ele>86.400001525879</ele>
        <time>2014-11-23T12:54:23.000Z</time>
      </trkpt>
      <trkpt lat="48.8772" lon="-0.40643">
        <ele>87.400001525879</ele>
        <time>2014-11-23T12:54:29.000Z</time>
      </trkpt>
      <trkpt lat="48.87721" lon="-0.40641">
        <ele>88.599998474121</ele>
        <time>2014-11-23T12:54:31.000Z</time>
      </trkpt>
      <trkpt lat="48.87724" lon="-0.40637">
        <ele>89.800003051758</ele>
        <time>2014-11-23T12:54:34.000Z</time>
      </trkpt>
      <trkpt lat="48.87726" lon="-0.40634">
        <ele>90.800003051758</ele>
        <time>2014-11-23T12:54:37.000Z</time>
      </trkpt>
      <trkpt lat="48.87728" lon="-0.40634">
        <ele>92</ele>
        <time>2014-11-23T12:54:39.000Z</time>
      </trkpt>
      <trkpt lat="48.8773" lon="-0.40632">
        <ele>93</ele>
        <time>2014-11-23T12:54:41.000Z</time>
      </trkpt>
      <trkpt lat="48.87733" lon="-0.4063">
        <ele>93.800003051758</ele>
        <time>2014-11-23T12:54:44.000Z</time>
      </trkpt>
      <trkpt lat="48.87734" lon="-0.40628">
        <ele>94.400001525879</ele>
        <time>2014-11-23T12:54:46.000Z</time>
      </trkpt>
      <trkpt lat="48.87737" lon="-0.40626">
        <ele>95</ele>
        <time>2014-11-23T12:54:49.000Z</time>
      </trkpt>
      <trkpt lat="48.8774" lon="-0.40623">
        <ele>95.400001525879</ele>
        <time>2014-11-23T12:54:52.000Z</time>
      </trkpt>
      <trkpt lat="48.87741" lon="-0.40621">
        <ele>95.599998474121</ele>
        <time>2014-11-23T12:54:54.000Z</time>
      </trkpt>
      <trkpt lat="48.87743" lon="-0.4062">
        <ele>95.800003051758</ele>
        <time>2014-11-23T12:54:56.000Z</time>
      </trkpt>
      <trkpt lat="48.87746" lon="-0.40617">
        <ele>96</ele>
        <time>2014-11-23T12:54:59.000Z</time>
      </trkpt>
      <trkpt lat="48.87747" lon="-0.40616">
        <ele>96</ele>
        <time>2014-11-23T12:55:02.000Z</time>
      </trkpt>
      <trkpt lat="48.87751" lon="-0.40616">
        <ele>95.800003051758</ele>
        <time>2014-11-23T12:55:04.000Z</time>
      </trkpt>
      <trkpt lat="48.87753" lon="-0.40615">
        <ele>96</ele>
        <time>2014-11-23T12:55:06.000Z</time>
      </trkpt>
      <trkpt lat="48.87756" lon="-0.40612">
        <ele>96</ele>
        <time>2014-11-23T12:55:09.000Z</time>
      </trkpt>
      <trkpt lat="48.87758" lon="-0.4061">
        <ele>96</ele>
        <time>2014-11-23T12:55:11.000Z</time>
      </trkpt>
      <trkpt lat="48.87762" lon="-0.40607">
        <ele>96.599998474121</ele>
        <time>2014-11-23T12:55:15.000Z</time>
      </trkpt>
      <trkpt lat="48.87767" lon="-0.40604">
        <ele>97</ele>
        <time>2014-11-23T12:55:18.000Z</time>
      </trkpt>
      <trkpt lat="48.87769" lon="-0.40603">
        <ele>97.599998474121</ele>
        <time>2014-11-23T12:55:20.000Z</time>
      </trkpt>
      <trkpt lat="48.87773" lon="-0.40602">
        <ele>98.400001525879</ele>
        <time>2014-11-23T12:55:23.000Z</time>
      </trkpt>
      <trkpt lat="48.87775" lon="-0.406">
        <ele>99.199996948242</ele>
        <time>2014-11-23T12:55:25.000Z</time>
      </trkpt>
      <trkpt lat="48.87776" lon="-0.40599">
        <ele>99.800003051758</ele>
        <time>2014-11-23T12:55:27.000Z</time>
      </trkpt>
      <trkpt lat="48.87777" lon="-0.40597">
        <ele>100.40000152588</ele>
        <time>2014-11-23T12:55:32.000Z</time>
      </trkpt>
      <trkpt lat="48.87779" lon="-0.40596">
        <ele>101</ele>
        <time>2014-11-23T12:55:34.000Z</time>
      </trkpt>
      <trkpt lat="48.87783" lon="-0.4059">
        <ele>101.19999694824</ele>
        <time>2014-11-23T12:55:39.000Z</time>
      </trkpt>
      <trkpt lat="48.87785" lon="-0.40587">
        <ele>101</ele>
        <time>2014-11-23T12:55:41.000Z</time>
      </trkpt>
      <trkpt lat="48.87789" lon="-0.40584">
        <ele>100.59999847412</ele>
        <time>2014-11-23T12:55:44.000Z</time>
      </trkpt>
      <trkpt lat="48.87791" lon="-0.40582">
        <ele>100.19999694824</ele>
        <time>2014-11-23T12:55:46.000Z</time>
      </trkpt>
      <trkpt lat="48.87793" lon="-0.40581">
        <ele>100.19999694824</ele>
        <time>2014-11-23T12:55:48.000Z</time>
      </trkpt>
      <trkpt lat="48.87798" lon="-0.40579">
        <ele>100</ele>
        <time>2014-11-23T12:55:51.000Z</time>
      </trkpt>
      <trkpt lat="48.87799" lon="-0.40576">
        <ele>100.19999694824</ele>
        <time>2014-11-23T12:55:54.000Z</time>
      </trkpt>
      <trkpt lat="48.87802" lon="-0.40573">
        <ele>100.59999847412</ele>
        <time>2014-11-23T12:55:57.000Z</time>
      </trkpt>
      <trkpt lat="48.87805" lon="-0.4057">
        <ele>101.19999694824</ele>
        <time>2014-11-23T12:56:00.000Z</time>
      </trkpt>
      <trkpt lat="48.87808" lon="-0.40565">
        <ele>102.19999694824</ele>
        <time>2014-11-23T12:56:03.000Z</time>
      </trkpt>
      <trkpt lat="48.8781" lon="-0.40563">
        <ele>103</ele>
        <time>2014-11-23T12:56:05.000Z</time>
      </trkpt>
      <trkpt lat="48.87812" lon="-0.4056">
        <ele>104.19999694824</ele>
        <time>2014-11-23T12:56:08.000Z</time>
      </trkpt>
      <trkpt lat="48.87814" lon="-0.40558">
        <ele>105.19999694824</ele>
        <time>2014-11-23T12:56:10.000Z</time>
      </trkpt>
      <trkpt lat="48.87816" lon="-0.40556">
        <ele>105.80000305176</ele>
        <time>2014-11-23T12:56:13.000Z</time>
      </trkpt>
      <trkpt lat="48.87819" lon="-0.40553">
        <ele>106.19999694824</ele>
        <time>2014-11-23T12:56:16.000Z</time>
      </trkpt>
      <trkpt lat="48.87822" lon="-0.40551">
        <ele>106.80000305176</ele>
        <time>2014-11-23T12:56:19.000Z</time>
      </trkpt>
      <trkpt lat="48.87823" lon="-0.4055">
        <ele>106.59999847412</ele>
        <time>2014-11-23T12:56:21.000Z</time>
      </trkpt>
      <trkpt lat="48.87825" lon="-0.40549">
        <ele>106.40000152588</ele>
        <time>2014-11-23T12:56:23.000Z</time>
      </trkpt>
      <trkpt lat="48.87827" lon="-0.40548">
        <ele>106.19999694824</ele>
        <time>2014-11-23T12:56:25.000Z</time>
      </trkpt>
      <trkpt lat="48.87828" lon="-0.40544">
        <ele>106</ele>
        <time>2014-11-23T12:56:28.000Z</time>
      </trkpt>
      <trkpt lat="48.8783" lon="-0.40542">
        <ele>105.80000305176</ele>
        <time>2014-11-23T12:56:30.000Z</time>
      </trkpt>
      <trkpt lat="48.87834" lon="-0.40541">
        <ele>105.80000305176</ele>
        <time>2014-11-23T12:56:33.000Z</time>
      </trkpt>
      <trkpt lat="48.87837" lon="-0.4054">
        <ele>106</ele>
        <time>2014-11-23T12:56:36.000Z</time>
      </trkpt>
      <trkpt lat="48.8784" lon="-0.40537">
        <ele>106.59999847412</ele>
        <time>2014-11-23T12:56:39.000Z</time>
      </trkpt>
      <trkpt lat="48.87843" lon="-0.40535">
        <ele>107.19999694824</ele>
        <time>2014-11-23T12:56:41.000Z</time>
      </trkpt>
      <trkpt lat="48.87844" lon="-0.40533">
        <ele>107.80000305176</ele>
        <time>2014-11-23T12:56:43.000Z</time>
      </trkpt>
      <trkpt lat="48.87847" lon="-0.40531">
        <ele>108.40000152588</ele>
        <time>2014-11-23T12:56:45.000Z</time>
      </trkpt>
      <trkpt lat="48.8785" lon="-0.40528">
        <ele>108.80000305176</ele>
        <time>2014-11-23T12:56:48.000Z</time>
      </trkpt>
      <trkpt lat="48.87854" lon="-0.40526">
        <ele>109.40000152588</ele>
        <time>2014-11-23T12:56:51.000Z</time>
      </trkpt>
      <trkpt lat="48.87857" lon="-0.40523">
        <ele>110</ele>
        <time>2014-11-23T12:56:54.000Z</time>
      </trkpt>
      <trkpt lat="48.87859" lon="-0.4052">
        <ele>110.59999847412</ele>
        <time>2014-11-23T12:56:57.000Z</time>
      </trkpt>
      <trkpt lat="48.87862" lon="-0.40517">
        <ele>111.59999847412</ele>
        <time>2014-11-23T12:57:00.000Z</time>
      </trkpt>
      <trkpt lat="48.87864" lon="-0.40516">
        <ele>112.80000305176</ele>
        <time>2014-11-23T12:57:02.000Z</time>
      </trkpt>
      <trkpt lat="48.87865" lon="-0.40514">
        <ele>113.59999847412</ele>
        <time>2014-11-23T12:57:04.000Z</time>
      </trkpt>
      <trkpt lat="48.87868" lon="-0.4051">
        <ele>114.59999847412</ele>
        <time>2014-11-23T12:57:07.000Z</time>
      </trkpt>
      <trkpt lat="48.8787" lon="-0.40508">
        <ele>116</ele>
        <time>2014-11-23T12:57:10.000Z</time>
      </trkpt>
      <trkpt lat="48.87873" lon="-0.40507">
        <ele>117.19999694824</ele>
        <time>2014-11-23T12:57:13.000Z</time>
      </trkpt>
      <trkpt lat="48.87875" lon="-0.40505">
        <ele>118.19999694824</ele>
        <time>2014-11-23T12:57:15.000Z</time>
      </trkpt>
      <trkpt lat="48.87877" lon="-0.40504">
        <ele>119.19999694824</ele>
        <time>2014-11-23T12:57:17.000Z</time>
      </trkpt>
      <trkpt lat="48.87879" lon="-0.40501">
        <ele>119.80000305176</ele>
        <time>2014-11-23T12:57:20.000Z</time>
      </trkpt>
      <trkpt lat="48.87881" lon="-0.405">
        <ele>120</ele>
        <time>2014-11-23T12:57:22.000Z</time>
      </trkpt>
      <trkpt lat="48.87884" lon="-0.40497">
        <ele>120</ele>
        <time>2014-11-23T12:57:25.000Z</time>
      </trkpt>
      <trkpt lat="48.87886" lon="-0.40493">
        <ele>120.19999694824</ele>
        <time>2014-11-23T12:57:28.000Z</time>
      </trkpt>
      <trkpt lat="48.87888" lon="-0.40491">
        <ele>120.40000152588</ele>
        <time>2014-11-23T12:57:30.000Z</time>
      </trkpt>
      <trkpt lat="48.8789" lon="-0.40489">
        <ele>120.59999847412</ele>
        <time>2014-11-23T12:57:32.000Z</time>
      </trkpt>
      <trkpt lat="48.87893" lon="-0.40487">
        <ele>120.80000305176</ele>
        <time>2014-11-23T12:57:35.000Z</time>
      </trkpt>
      <trkpt lat="48.87895" lon="-0.40484">
        <ele>121</ele>
        <time>2014-11-23T12:57:37.000Z</time>
      </trkpt>
      <trkpt lat="48.87901" lon="-0.40477">
        <ele>121.19999694824</ele>
        <time>2014-11-23T12:57:44.000Z</time>
      </trkpt>
      <trkpt lat="48.87907" lon="-0.40472">
        <ele>121.40000152588</ele>
        <time>2014-11-23T12:57:50.000Z</time>
      </trkpt>
      <trkpt lat="48.8791" lon="-0.40471">
        <ele>121.59999847412</ele>
        <time>2014-11-23T12:57:52.000Z</time>
      </trkpt>
      <trkpt lat="48.87912" lon="-0.40469">
        <ele>121.80000305176</ele>
        <time>2014-11-23T12:57:54.000Z</time>
      </trkpt>
      <trkpt lat="48.87915" lon="-0.40466">
        <ele>122</ele>
        <time>2014-11-23T12:57:57.000Z</time>
      </trkpt>
      <trkpt lat="48.87918" lon="-0.40461">
        <ele>122.19999694824</ele>
        <time>2014-11-23T12:58:00.000Z</time>
      </trkpt>
      <trkpt lat="48.87921" lon="-0.40457">
        <ele>122.19999694824</ele>
        <time>2014-11-23T12:58:03.000Z</time>
      </trkpt>
      <trkpt lat="48.87923" lon="-0.40452">
        <ele>122.19999694824</ele>
        <time>2014-11-23T12:58:06.000Z</time>
      </trkpt>
      <trkpt lat="48.87931" lon="-0.40437">
        <ele>122.40000152588</ele>
        <time>2014-11-23T12:58:15.000Z</time>
      </trkpt>
      <trkpt lat="48.87933" lon="-0.40434">
        <ele>122.59999847412</ele>
        <time>2014-11-23T12:58:17.000Z</time>
      </trkpt>
      <trkpt lat="48.87936" lon="-0.40428">
        <ele>123</ele>
        <time>2014-11-23T12:58:20.000Z</time>
      </trkpt>
      <trkpt lat="48.8794" lon="-0.40421">
        <ele>123.80000305176</ele>
        <time>2014-11-23T12:58:23.000Z</time>
      </trkpt>
      <trkpt lat="48.87944" lon="-0.40417">
        <ele>124.59999847412</ele>
        <time>2014-11-23T12:58:25.000Z</time>
      </trkpt>
      <trkpt lat="48.87947" lon="-0.40412">
        <ele>125.19999694824</ele>
        <time>2014-11-23T12:58:28.000Z</time>
      </trkpt>
      <trkpt lat="48.87952" lon="-0.40408">
        <ele>126.19999694824</ele>
        <time>2014-11-23T12:58:31.000Z</time>
      </trkpt>
      <trkpt lat="48.87954" lon="-0.40404">
        <ele>127</ele>
        <time>2014-11-23T12:58:33.000Z</time>
      </trkpt>
      <trkpt lat="48.87957" lon="-0.40399">
        <ele>127.40000152588</ele>
        <time>2014-11-23T12:58:36.000Z</time>
      </trkpt>
      <trkpt lat="48.8796" lon="-0.40394">
        <ele>127.80000305176</ele>
        <time>2014-11-23T12:58:39.000Z</time>
      </trkpt>
      <trkpt lat="48.87962" lon="-0.40389">
        <ele>128.39999389648</ele>
        <time>2014-11-23T12:58:42.000Z</time>
      </trkpt>
      <trkpt lat="48.87963" lon="-0.40385">
        <ele>128.60000610352</ele>
        <time>2014-11-23T12:58:45.000Z</time>
      </trkpt>
      <trkpt lat="48.87965" lon="-0.40382">
        <ele>128.80000305176</ele>
        <time>2014-11-23T12:58:48.000Z</time>
      </trkpt>
      <trkpt lat="48.87967" lon="-0.40378">
        <ele>129</ele>
        <time>2014-11-23T12:58:51.000Z</time>
      </trkpt>
      <trkpt lat="48.87972" lon="-0.40362">
        <ele>128.80000305176</ele>
        <time>2014-11-23T12:58:59.000Z</time>
      </trkpt>
      <trkpt lat="48.87974" lon="-0.40359">
        <ele>128.60000610352</ele>
        <time>2014-11-23T12:59:02.000Z</time>
      </trkpt>
      <trkpt lat="48.87975" lon="-0.40356">
        <ele>128.39999389648</ele>
        <time>2014-11-23T12:59:04.000Z</time>
      </trkpt>
      <trkpt lat="48.87977" lon="-0.40348">
        <ele>128.19999694824</ele>
        <time>2014-11-23T12:59:07.000Z</time>
      </trkpt>
      <trkpt lat="48.87979" lon="-0.4034">
        <ele>128</ele>
        <time>2014-11-23T12:59:10.000Z</time>
      </trkpt>
      <trkpt lat="48.87982" lon="-0.40329">
        <ele>127.80000305176</ele>
        <time>2014-11-23T12:59:17.000Z</time>
      </trkpt>
      <trkpt lat="48.87983" lon="-0.40326">
        <ele>127.59999847412</ele>
        <time>2014-11-23T12:59:20.000Z</time>
      </trkpt>
      <trkpt lat="48.87984" lon="-0.40323">
        <ele>127.19999694824</ele>
        <time>2014-11-23T12:59:22.000Z</time>
      </trkpt>
      <trkpt lat="48.87988" lon="-0.40319">
        <ele>127.19999694824</ele>
        <time>2014-11-23T12:59:25.000Z</time>
      </trkpt>
      <trkpt lat="48.8799" lon="-0.40317">
        <ele>127.19999694824</ele>
        <time>2014-11-23T12:59:27.000Z</time>
      </trkpt>
      <trkpt lat="48.87992" lon="-0.40317">
        <ele>127.40000152588</ele>
        <time>2014-11-23T12:59:29.000Z</time>
      </trkpt>
      <trkpt lat="48.87994" lon="-0.40314">
        <ele>127.59999847412</ele>
        <time>2014-11-23T12:59:32.000Z</time>
      </trkpt>
      <trkpt lat="48.87995" lon="-0.40309">
        <ele>128</ele>
        <time>2014-11-23T12:59:34.000Z</time>
      </trkpt>
      <trkpt lat="48.87996" lon="-0.40301">
        <ele>128.19999694824</ele>
        <time>2014-11-23T12:59:38.000Z</time>
      </trkpt>
      <trkpt lat="48.87996" lon="-0.40293">
        <ele>128.60000610352</ele>
        <time>2014-11-23T12:59:41.000Z</time>
      </trkpt>
      <trkpt lat="48.87997" lon="-0.4029">
        <ele>129</ele>
        <time>2014-11-23T12:59:43.000Z</time>
      </trkpt>
      <trkpt lat="48.87998" lon="-0.40286">
        <ele>129.39999389648</ele>
        <time>2014-11-23T12:59:45.000Z</time>
      </trkpt>
      <trkpt lat="48.87998" lon="-0.40282">
        <ele>129.80000305176</ele>
        <time>2014-11-23T12:59:47.000Z</time>
      </trkpt>
      <trkpt lat="48.87999" lon="-0.40276">
        <ele>130.19999694824</ele>
        <time>2014-11-23T12:59:50.000Z</time>
      </trkpt>
      <trkpt lat="48.87999" lon="-0.4027">
        <ele>130.19999694824</ele>
        <time>2014-11-23T12:59:53.000Z</time>
      </trkpt>
      <trkpt lat="48.87999" lon="-0.40263">
        <ele>130.39999389648</ele>
        <time>2014-11-23T12:59:56.000Z</time>
      </trkpt>
      <trkpt lat="48.87999" lon="-0.4026">
        <ele>130.80000305176</ele>
        <time>2014-11-23T12:59:58.000Z</time>
      </trkpt>
      <trkpt lat="48.88" lon="-0.40253">
        <ele>131.39999389648</ele>
        <time>2014-11-23T13:00:01.000Z</time>
      </trkpt>
      <trkpt lat="48.88001" lon="-0.40245">
        <ele>131.80000305176</ele>
        <time>2014-11-23T13:00:04.000Z</time>
      </trkpt>
      <trkpt lat="48.88002" lon="-0.40239">
        <ele>132.60000610352</ele>
        <time>2014-11-23T13:00:07.000Z</time>
      </trkpt>
      <trkpt lat="48.88003" lon="-0.40237">
        <ele>133.19999694824</ele>
        <time>2014-11-23T13:00:09.000Z</time>
      </trkpt>
      <trkpt lat="48.88004" lon="-0.40236">
        <ele>133.80000305176</ele>
        <time>2014-11-23T13:00:12.000Z</time>
      </trkpt>
      <trkpt lat="48.88004" lon="-0.40233">
        <ele>134.19999694824</ele>
        <time>2014-11-23T13:00:14.000Z</time>
      </trkpt>
      <trkpt lat="48.88005" lon="-0.4023">
        <ele>134.80000305176</ele>
        <time>2014-11-23T13:00:16.000Z</time>
      </trkpt>
      <trkpt lat="48.88006" lon="-0.40226">
        <ele>135.39999389648</ele>
        <time>2014-11-23T13:00:19.000Z</time>
      </trkpt>
      <trkpt lat="48.88006" lon="-0.40224">
        <ele>136</ele>
        <time>2014-11-23T13:00:21.000Z</time>
      </trkpt>
      <trkpt lat="48.88007" lon="-0.4022">
        <ele>136.19999694824</ele>
        <time>2014-11-23T13:00:24.000Z</time>
      </trkpt>
      <trkpt lat="48.88007" lon="-0.40216">
        <ele>136.60000610352</ele>
        <time>2014-11-23T13:00:27.000Z</time>
      </trkpt>
      <trkpt lat="48.88007" lon="-0.40212">
        <ele>136.39999389648</ele>
        <time>2014-11-23T13:00:31.000Z</time>
      </trkpt>
      <trkpt lat="48.88007" lon="-0.4021">
        <ele>136.19999694824</ele>
        <time>2014-11-23T13:00:36.000Z</time>
      </trkpt>
      <trkpt lat="48.88008" lon="-0.40205">
        <ele>136.80000305176</ele>
        <time>2014-11-23T13:00:39.000Z</time>
      </trkpt>
      <trkpt lat="48.88008" lon="-0.40203">
        <ele>137.19999694824</ele>
        <time>2014-11-23T13:00:42.000Z</time>
      </trkpt>
      <trkpt lat="48.88008" lon="-0.402">
        <ele>137.60000610352</ele>
        <time>2014-11-23T13:00:46.000Z</time>
      </trkpt>
      <trkpt lat="48.88007" lon="-0.40202">
        <ele>138.19999694824</ele>
        <time>2014-11-23T13:00:49.000Z</time>
      </trkpt>
      <trkpt lat="48.88008" lon="-0.402">
        <ele>139</ele>
        <time>2014-11-23T13:00:53.000Z</time>
      </trkpt>
      <trkpt lat="48.8801" lon="-0.40201">
        <ele>139.39999389648</ele>
        <time>2014-11-23T13:00:57.000Z</time>
      </trkpt>
      <trkpt lat="48.88011" lon="-0.40203">
        <ele>139.39999389648</ele>
        <time>2014-11-23T13:01:01.000Z</time>
      </trkpt>
      <trkpt lat="48.88012" lon="-0.40204">
        <ele>139.60000610352</ele>
        <time>2014-11-23T13:01:03.000Z</time>
      </trkpt>
      <trkpt lat="48.88012" lon="-0.40202">
        <ele>140.19999694824</ele>
        <time>2014-11-23T13:01:05.000Z</time>
      </trkpt>
      <trkpt lat="48.88013" lon="-0.40199">
        <ele>140.60000610352</ele>
        <time>2014-11-23T13:01:08.000Z</time>
      </trkpt>
      <trkpt lat="48.88014" lon="-0.40191">
        <ele>141</ele>
        <time>2014-11-23T13:01:11.000Z</time>
      </trkpt>
      <trkpt lat="48.88015" lon="-0.40187">
        <ele>141.80000305176</ele>
        <time>2014-11-23T13:01:13.000Z</time>
      </trkpt>
      <trkpt lat="48.88015" lon="-0.40183">
        <ele>142.60000610352</ele>
        <time>2014-11-23T13:01:15.000Z</time>
      </trkpt>
      <trkpt lat="48.88017" lon="-0.4018">
        <ele>142.60000610352</ele>
        <time>2014-11-23T13:01:18.000Z</time>
      </trkpt>
      <trkpt lat="48.88018" lon="-0.40177">
        <ele>142.80000305176</ele>
        <time>2014-11-23T13:01:20.000Z</time>
      </trkpt>
      <trkpt lat="48.88019" lon="-0.40173">
        <ele>143</ele>
        <time>2014-11-23T13:01:23.000Z</time>
      </trkpt>
      <trkpt lat="48.8802" lon="-0.4017">
        <ele>143</ele>
        <time>2014-11-23T13:01:26.000Z</time>
      </trkpt>
      <trkpt lat="48.88021" lon="-0.40167">
        <ele>143.19999694824</ele>
        <time>2014-11-23T13:01:28.000Z</time>
      </trkpt>
      <trkpt lat="48.88021" lon="-0.40164">
        <ele>143.39999389648</ele>
        <time>2014-11-23T13:01:30.000Z</time>
      </trkpt>
      <trkpt lat="48.88022" lon="-0.40159">
        <ele>143.19999694824</ele>
        <time>2014-11-23T13:01:33.000Z</time>
      </trkpt>
      <trkpt lat="48.88022" lon="-0.40155">
        <ele>142.80000305176</ele>
        <time>2014-11-23T13:01:35.000Z</time>
      </trkpt>
      <trkpt lat="48.88024" lon="-0.40152">
        <ele>143</ele>
        <time>2014-11-23T13:01:38.000Z</time>
      </trkpt>
      <trkpt lat="48.88026" lon="-0.40148">
        <ele>143.39999389648</ele>
        <time>2014-11-23T13:01:41.000Z</time>
      </trkpt>
      <trkpt lat="48.88026" lon="-0.40145">
        <ele>144.19999694824</ele>
        <time>2014-11-23T13:01:43.000Z</time>
      </trkpt>
      <trkpt lat="48.88028" lon="-0.40142">
        <ele>145.19999694824</ele>
        <time>2014-11-23T13:01:45.000Z</time>
      </trkpt>
      <trkpt lat="48.88029" lon="-0.40138">
        <ele>146.19999694824</ele>
        <time>2014-11-23T13:01:48.000Z</time>
      </trkpt>
      <trkpt lat="48.88029" lon="-0.40133">
        <ele>146.80000305176</ele>
        <time>2014-11-23T13:01:51.000Z</time>
      </trkpt>
      <trkpt lat="48.88029" lon="-0.40129">
        <ele>147</ele>
        <time>2014-11-23T13:01:53.000Z</time>
      </trkpt>
      <trkpt lat="48.88029" lon="-0.40122">
        <ele>147.19999694824</ele>
        <time>2014-11-23T13:01:56.000Z</time>
      </trkpt>
      <trkpt lat="48.8803" lon="-0.40116">
        <ele>147.19999694824</ele>
        <time>2014-11-23T13:01:59.000Z</time>
      </trkpt>
      <trkpt lat="48.8803" lon="-0.40111">
        <ele>147.39999389648</ele>
        <time>2014-11-23T13:02:01.000Z</time>
      </trkpt>
      <trkpt lat="48.88031" lon="-0.40103">
        <ele>147.39999389648</ele>
        <time>2014-11-23T13:02:04.000Z</time>
      </trkpt>
      <trkpt lat="48.88032" lon="-0.40093">
        <ele>147</ele>
        <time>2014-11-23T13:02:09.000Z</time>
      </trkpt>
      <trkpt lat="48.88032" lon="-0.40087">
        <ele>146.60000610352</ele>
        <time>2014-11-23T13:02:12.000Z</time>
      </trkpt>
      <trkpt lat="48.88032" lon="-0.4008">
        <ele>146</ele>
        <time>2014-11-23T13:02:14.000Z</time>
      </trkpt>
      <trkpt lat="48.88032" lon="-0.40075">
        <ele>145.39999389648</ele>
        <time>2014-11-23T13:02:16.000Z</time>
      </trkpt>
      <trkpt lat="48.88031" lon="-0.40068">
        <ele>144.60000610352</ele>
        <time>2014-11-23T13:02:19.000Z</time>
      </trkpt>
      <trkpt lat="48.88032" lon="-0.40063">
        <ele>143.80000305176</ele>
        <time>2014-11-23T13:02:22.000Z</time>
      </trkpt>
      <trkpt lat="48.88033" lon="-0.40056">
        <ele>143.19999694824</ele>
        <time>2014-11-23T13:02:25.000Z</time>
      </trkpt>
      <trkpt lat="48.88033" lon="-0.4005">
        <ele>142.60000610352</ele>
        <time>2014-11-23T13:02:28.000Z</time>
      </trkpt>
      <trkpt lat="48.88034" lon="-0.40042">
        <ele>142</ele>
        <time>2014-11-23T13:02:31.000Z</time>
      </trkpt>
      <trkpt lat="48.88034" lon="-0.40035">
        <ele>141.39999389648</ele>
        <time>2014-11-23T13:02:33.000Z</time>
      </trkpt>
      <trkpt lat="48.88034" lon="-0.40028">
        <ele>141</ele>
        <time>2014-11-23T13:02:36.000Z</time>
      </trkpt>
      <trkpt lat="48.88034" lon="-0.40021">
        <ele>140.60000610352</ele>
        <time>2014-11-23T13:02:39.000Z</time>
      </trkpt>
      <trkpt lat="48.88033" lon="-0.40017">
        <ele>140</ele>
        <time>2014-11-23T13:02:41.000Z</time>
      </trkpt>
      <trkpt lat="48.88033" lon="-0.40011">
        <ele>139.60000610352</ele>
        <time>2014-11-23T13:02:44.000Z</time>
      </trkpt>
      <trkpt lat="48.88033" lon="-0.40007">
        <ele>139.39999389648</ele>
        <time>2014-11-23T13:02:46.000Z</time>
      </trkpt>
      <trkpt lat="48.88032" lon="-0.40001">
        <ele>139.39999389648</ele>
        <time>2014-11-23T13:02:49.000Z</time>
      </trkpt>
      <trkpt lat="48.88032" lon="-0.39991">
        <ele>139.60000610352</ele>
        <time>2014-11-23T13:02:53.000Z</time>
      </trkpt>
      <trkpt lat="48.88031" lon="-0.39984">
        <ele>139.80000305176</ele>
        <time>2014-11-23T13:02:56.000Z</time>
      </trkpt>
      <trkpt lat="48.88032" lon="-0.39979">
        <ele>140.19999694824</ele>
        <time>2014-11-23T13:02:58.000Z</time>
      </trkpt>
      <trkpt lat="48.88033" lon="-0.39972">
        <ele>140.39999389648</ele>
        <time>2014-11-23T13:03:01.000Z</time>
      </trkpt>
      <trkpt lat="48.88033" lon="-0.39969">
        <ele>140.19999694824</ele>
        <time>2014-11-23T13:03:03.000Z</time>
      </trkpt>
      <trkpt lat="48.88032" lon="-0.39967">
        <ele>140</ele>
        <time>2014-11-23T13:03:05.000Z</time>
      </trkpt>
      <trkpt lat="48.88031" lon="-0.39962">
        <ele>139.80000305176</ele>
        <time>2014-11-23T13:03:08.000Z</time>
      </trkpt>
      <trkpt lat="48.8803" lon="-0.39958">
        <ele>139.19999694824</ele>
        <time>2014-11-23T13:03:11.000Z</time>
      </trkpt>
      <trkpt lat="48.88029" lon="-0.39952">
        <ele>138.60000610352</ele>
        <time>2014-11-23T13:03:13.000Z</time>
      </trkpt>
      <trkpt lat="48.88029" lon="-0.3995">
        <ele>138.19999694824</ele>
        <time>2014-11-23T13:03:16.000Z</time>
      </trkpt>
      <trkpt lat="48.88029" lon="-0.39948">
        <ele>137.80000305176</ele>
        <time>2014-11-23T13:03:19.000Z</time>
      </trkpt>
      <trkpt lat="48.88029" lon="-0.39947">
        <ele>137.60000610352</ele>
        <time>2014-11-23T13:03:22.000Z</time>
      </trkpt>
      <trkpt lat="48.88029" lon="-0.39942">
        <ele>137.80000305176</ele>
        <time>2014-11-23T13:03:25.000Z</time>
      </trkpt>
      <trkpt lat="48.88029" lon="-0.3994">
        <ele>138</ele>
        <time>2014-11-23T13:03:27.000Z</time>
      </trkpt>
      <trkpt lat="48.88029" lon="-0.39939">
        <ele>138.39999389648</ele>
        <time>2014-11-23T13:03:29.000Z</time>
      </trkpt>
      <trkpt lat="48.88029" lon="-0.39932">
        <ele>139</ele>
        <time>2014-11-23T13:03:32.000Z</time>
      </trkpt>
      <trkpt lat="48.88029" lon="-0.39928">
        <ele>139.39999389648</ele>
        <time>2014-11-23T13:03:34.000Z</time>
      </trkpt>
      <trkpt lat="48.88029" lon="-0.39924">
        <ele>139.60000610352</ele>
        <time>2014-11-23T13:03:36.000Z</time>
      </trkpt>
      <trkpt lat="48.88028" lon="-0.39919">
        <ele>140</ele>
        <time>2014-11-23T13:03:38.000Z</time>
      </trkpt>
      <trkpt lat="48.88027" lon="-0.39912">
        <ele>140.39999389648</ele>
        <time>2014-11-23T13:03:41.000Z</time>
      </trkpt>
      <trkpt lat="48.88027" lon="-0.39906">
        <ele>140.60000610352</ele>
        <time>2014-11-23T13:03:44.000Z</time>
      </trkpt>
      <trkpt lat="48.88027" lon="-0.39902">
        <ele>140.60000610352</ele>
        <time>2014-11-23T13:03:46.000Z</time>
      </trkpt>
      <trkpt lat="48.88027" lon="-0.39898">
        <ele>140.60000610352</ele>
        <time>2014-11-23T13:03:48.000Z</time>
      </trkpt>
      <trkpt lat="48.88027" lon="-0.39894">
        <ele>140.39999389648</ele>
        <time>2014-11-23T13:03:50.000Z</time>
      </trkpt>
      <trkpt lat="48.88026" lon="-0.39886">
        <ele>140.19999694824</ele>
        <time>2014-11-23T13:03:53.000Z</time>
      </trkpt>
      <trkpt lat="48.88027" lon="-0.39881">
        <ele>139.19999694824</ele>
        <time>2014-11-23T13:03:56.000Z</time>
      </trkpt>
      <trkpt lat="48.88027" lon="-0.39875">
        <ele>138.39999389648</ele>
        <time>2014-11-23T13:03:59.000Z</time>
      </trkpt>
      <trkpt lat="48.88027" lon="-0.39872">
        <ele>137.80000305176</ele>
        <time>2014-11-23T13:04:01.000Z</time>
      </trkpt>
      <trkpt lat="48.88029" lon="-0.39866">
        <ele>137.19999694824</ele>
        <time>2014-11-23T13:04:04.000Z</time>
      </trkpt>
      <trkpt lat="48.88031" lon="-0.3986">
        <ele>136.80000305176</ele>
        <time>2014-11-23T13:04:07.000Z</time>
      </trkpt>
      <trkpt lat="48.88032" lon="-0.39858">
        <ele>137.39999389648</ele>
        <time>2014-11-23T13:04:09.000Z</time>
      </trkpt>
      <trkpt lat="48.88033" lon="-0.39851">
        <ele>138.39999389648</ele>
        <time>2014-11-23T13:04:12.000Z</time>
      </trkpt>
      <trkpt lat="48.88035" lon="-0.39845">
        <ele>139.39999389648</ele>
        <time>2014-11-23T13:04:15.000Z</time>
      </trkpt>
      <trkpt lat="48.88037" lon="-0.39842">
        <ele>140.39999389648</ele>
        <time>2014-11-23T13:04:17.000Z</time>
      </trkpt>
      <trkpt lat="48.88041" lon="-0.39839">
        <ele>141.39999389648</ele>
        <time>2014-11-23T13:04:20.000Z</time>
      </trkpt>
      <trkpt lat="48.88044" lon="-0.39833">
        <ele>142.19999694824</ele>
        <time>2014-11-23T13:04:23.000Z</time>
      </trkpt>
      <trkpt lat="48.88046" lon="-0.3983">
        <ele>142.80000305176</ele>
        <time>2014-11-23T13:04:26.000Z</time>
      </trkpt>
      <trkpt lat="48.88049" lon="-0.39823">
        <ele>143</ele>
        <time>2014-11-23T13:04:29.000Z</time>
      </trkpt>
      <trkpt lat="48.8805" lon="-0.39821">
        <ele>143</ele>
        <time>2014-11-23T13:04:31.000Z</time>
      </trkpt>
      <trkpt lat="48.8805" lon="-0.39819">
        <ele>142.80000305176</ele>
        <time>2014-11-23T13:04:33.000Z</time>
      </trkpt>
      <trkpt lat="48.88052" lon="-0.39815">
        <ele>142.60000610352</ele>
        <time>2014-11-23T13:04:36.000Z</time>
      </trkpt>
      <trkpt lat="48.88054" lon="-0.3981">
        <ele>142.19999694824</ele>
        <time>2014-11-23T13:04:39.000Z</time>
      </trkpt>
      <trkpt lat="48.88055" lon="-0.39805">
        <ele>142</ele>
        <time>2014-11-23T13:04:41.000Z</time>
      </trkpt>
      <trkpt lat="48.88058" lon="-0.39799">
        <ele>141.80000305176</ele>
        <time>2014-11-23T13:04:44.000Z</time>
      </trkpt>
      <trkpt lat="48.8806" lon="-0.39794">
        <ele>141.80000305176</ele>
        <time>2014-11-23T13:04:47.000Z</time>
      </trkpt>
      <trkpt lat="48.88061" lon="-0.39789">
        <ele>141.80000305176</ele>
        <time>2014-11-23T13:04:49.000Z</time>
      </trkpt>
      <trkpt lat="48.88062" lon="-0.39779">
        <ele>141.60000610352</ele>
        <time>2014-11-23T13:04:54.000Z</time>
      </trkpt>
      <trkpt lat="48.88063" lon="-0.39776">
        <ele>141.39999389648</ele>
        <time>2014-11-23T13:04:56.000Z</time>
      </trkpt>
      <trkpt lat="48.88063" lon="-0.3977">
        <ele>141</ele>
        <time>2014-11-23T13:04:59.000Z</time>
      </trkpt>
      <trkpt lat="48.88064" lon="-0.39764">
        <ele>140.60000610352</ele>
        <time>2014-11-23T13:05:02.000Z</time>
      </trkpt>
      <trkpt lat="48.88065" lon="-0.39761">
        <ele>140.19999694824</ele>
        <time>2014-11-23T13:05:04.000Z</time>
      </trkpt>
      <trkpt lat="48.88066" lon="-0.3976">
        <ele>139.60000610352</ele>
        <time>2014-11-23T13:05:06.000Z</time>
      </trkpt>
      <trkpt lat="48.88067" lon="-0.39757">
        <ele>139</ele>
        <time>2014-11-23T13:05:09.000Z</time>
      </trkpt>
      <trkpt lat="48.88067" lon="-0.39751">
        <ele>138.39999389648</ele>
        <time>2014-11-23T13:05:12.000Z</time>
      </trkpt>
      <trkpt lat="48.88067" lon="-0.39747">
        <ele>137.80000305176</ele>
        <time>2014-11-23T13:05:14.000Z</time>
      </trkpt>
      <trkpt lat="48.88067" lon="-0.39741">
        <ele>137</ele>
        <time>2014-11-23T13:05:17.000Z</time>
      </trkpt>
      <trkpt lat="48.88067" lon="-0.39736">
        <ele>136.60000610352</ele>
        <time>2014-11-23T13:05:19.000Z</time>
      </trkpt>
      <trkpt lat="48.88068" lon="-0.39734">
        <ele>136.39999389648</ele>
        <time>2014-11-23T13:05:21.000Z</time>
      </trkpt>
      <trkpt lat="48.8807" lon="-0.39733">
        <ele>136</ele>
        <time>2014-11-23T13:05:24.000Z</time>
      </trkpt>
      <trkpt lat="48.88072" lon="-0.39731">
        <ele>135.80000305176</ele>
        <time>2014-11-23T13:05:26.000Z</time>
      </trkpt>
      <trkpt lat="48.88074" lon="-0.39728">
        <ele>135.60000610352</ele>
        <time>2014-11-23T13:05:28.000Z</time>
      </trkpt>
      <trkpt lat="48.88075" lon="-0.39723">
        <ele>135.39999389648</ele>
        <time>2014-11-23T13:05:31.000Z</time>
      </trkpt>
      <trkpt lat="48.88077" lon="-0.39717">
        <ele>135.19999694824</ele>
        <time>2014-11-23T13:05:34.000Z</time>
      </trkpt>
      <trkpt lat="48.88081" lon="-0.39699">
        <ele>135</ele>
        <time>2014-11-23T13:05:45.000Z</time>
      </trkpt>
      <trkpt lat="48.88083" lon="-0.39693">
        <ele>134.60000610352</ele>
        <time>2014-11-23T13:05:48.000Z</time>
      </trkpt>
      <trkpt lat="48.88084" lon="-0.39688">
        <ele>134.19999694824</ele>
        <time>2014-11-23T13:05:50.000Z</time>
      </trkpt>
      <trkpt lat="48.88085" lon="-0.39683">
        <ele>133.60000610352</ele>
        <time>2014-11-23T13:05:52.000Z</time>
      </trkpt>
      <trkpt lat="48.88086" lon="-0.39678">
        <ele>133.19999694824</ele>
        <time>2014-11-23T13:05:54.000Z</time>
      </trkpt>
      <trkpt lat="48.88087" lon="-0.39671">
        <ele>133</ele>
        <time>2014-11-23T13:05:57.000Z</time>
      </trkpt>
      <trkpt lat="48.88091" lon="-0.39647">
        <ele>132.80000305176</ele>
        <time>2014-11-23T13:06:06.000Z</time>
      </trkpt>
      <trkpt lat="48.88092" lon="-0.39642">
        <ele>132.60000610352</ele>
        <time>2014-11-23T13:06:08.000Z</time>
      </trkpt>
      <trkpt lat="48.88093" lon="-0.39637">
        <ele>132.19999694824</ele>
        <time>2014-11-23T13:06:10.000Z</time>
      </trkpt>
      <trkpt lat="48.88095" lon="-0.39629">
        <ele>131.80000305176</ele>
        <time>2014-11-23T13:06:13.000Z</time>
      </trkpt>
      <trkpt lat="48.88097" lon="-0.39623">
        <ele>131.39999389648</ele>
        <time>2014-11-23T13:06:16.000Z</time>
      </trkpt>
      <trkpt lat="48.88098" lon="-0.39618">
        <ele>131.39999389648</ele>
        <time>2014-11-23T13:06:19.000Z</time>
      </trkpt>
      <trkpt lat="48.88099" lon="-0.39611">
        <ele>131.80000305176</ele>
        <time>2014-11-23T13:06:23.000Z</time>
      </trkpt>
      <trkpt lat="48.88099" lon="-0.39607">
        <ele>132.39999389648</ele>
        <time>2014-11-23T13:06:25.000Z</time>
      </trkpt>
      <trkpt lat="48.88099" lon="-0.39604">
        <ele>133.19999694824</ele>
        <time>2014-11-23T13:06:28.000Z</time>
      </trkpt>
      <trkpt lat="48.88099" lon="-0.396">
        <ele>133.80000305176</ele>
        <time>2014-11-23T13:06:30.000Z</time>
      </trkpt>
      <trkpt lat="48.88098" lon="-0.39595">
        <ele>134.39999389648</ele>
        <time>2014-11-23T13:06:33.000Z</time>
      </trkpt>
      <trkpt lat="48.88097" lon="-0.3959">
        <ele>134.80000305176</ele>
        <time>2014-11-23T13:06:36.000Z</time>
      </trkpt>
      <trkpt lat="48.88096" lon="-0.39581">
        <ele>134.39999389648</ele>
        <time>2014-11-23T13:06:41.000Z</time>
      </trkpt>
      <trkpt lat="48.88095" lon="-0.39577">
        <ele>134.19999694824</ele>
        <time>2014-11-23T13:06:44.000Z</time>
      </trkpt>
      <trkpt lat="48.88094" lon="-0.39574">
        <ele>134</ele>
        <time>2014-11-23T13:06:46.000Z</time>
      </trkpt>
      <trkpt lat="48.88093" lon="-0.3957">
        <ele>133.80000305176</ele>
        <time>2014-11-23T13:06:48.000Z</time>
      </trkpt>
      <trkpt lat="48.88091" lon="-0.39561">
        <ele>134</ele>
        <time>2014-11-23T13:06:53.000Z</time>
      </trkpt>
      <trkpt lat="48.88089" lon="-0.39557">
        <ele>134</ele>
        <time>2014-11-23T13:06:56.000Z</time>
      </trkpt>
      <trkpt lat="48.88088" lon="-0.39554">
        <ele>134</ele>
        <time>2014-11-23T13:06:58.000Z</time>
      </trkpt>
      <trkpt lat="48.88084" lon="-0.39548">
        <ele>134.39999389648</ele>
        <time>2014-11-23T13:07:03.000Z</time>
      </trkpt>
      <trkpt lat="48.88083" lon="-0.39545">
        <ele>134.80000305176</ele>
        <time>2014-11-23T13:07:05.000Z</time>
      </trkpt>
      <trkpt lat="48.88083" lon="-0.39542">
        <ele>135.19999694824</ele>
        <time>2014-11-23T13:07:07.000Z</time>
      </trkpt>
      <trkpt lat="48.88081" lon="-0.39537">
        <ele>135.39999389648</ele>
        <time>2014-11-23T13:07:10.000Z</time>
      </trkpt>
      <trkpt lat="48.88079" lon="-0.39534">
        <ele>135.60000610352</ele>
        <time>2014-11-23T13:07:13.000Z</time>
      </trkpt>
      <trkpt lat="48.88074" lon="-0.39523">
        <ele>135.39999389648</ele>
        <time>2014-11-23T13:07:21.000Z</time>
      </trkpt>
      <trkpt lat="48.88071" lon="-0.39518">
        <ele>135.60000610352</ele>
        <time>2014-11-23T13:07:24.000Z</time>
      </trkpt>
      <trkpt lat="48.8807" lon="-0.39515">
        <ele>135.80000305176</ele>
        <time>2014-11-23T13:07:26.000Z</time>
      </trkpt>
      <trkpt lat="48.88069" lon="-0.39512">
        <ele>135.60000610352</ele>
        <time>2014-11-23T13:07:28.000Z</time>
      </trkpt>
      <trkpt lat="48.88067" lon="-0.39511">
        <ele>135.39999389648</ele>
        <time>2014-11-23T13:07:30.000Z</time>
      </trkpt>
      <trkpt lat="48.88066" lon="-0.39507">
        <ele>135.39999389648</ele>
        <time>2014-11-23T13:07:33.000Z</time>
      </trkpt>
      <trkpt lat="48.88064" lon="-0.39504">
        <ele>135.39999389648</ele>
        <time>2014-11-23T13:07:35.000Z</time>
      </trkpt>
      <trkpt lat="48.88058" lon="-0.39497">
        <ele>135.60000610352</ele>
        <time>2014-11-23T13:07:41.000Z</time>
      </trkpt>
      <trkpt lat="48.88056" lon="-0.39496">
        <ele>136</ele>
        <time>2014-11-23T13:07:43.000Z</time>
      </trkpt>
      <trkpt lat="48.88055" lon="-0.39494">
        <ele>136.19999694824</ele>
        <time>2014-11-23T13:07:45.000Z</time>
      </trkpt>
      <trkpt lat="48.88054" lon="-0.39492">
        <ele>136.39999389648</ele>
        <time>2014-11-23T13:07:48.000Z</time>
      </trkpt>
      <trkpt lat="48.88053" lon="-0.3949">
        <ele>137</ele>
        <time>2014-11-23T13:07:51.000Z</time>
      </trkpt>
      <trkpt lat="48.88054" lon="-0.39487">
        <ele>137.80000305176</ele>
        <time>2014-11-23T13:07:53.000Z</time>
      </trkpt>
      <trkpt lat="48.88054" lon="-0.39484">
        <ele>139</ele>
        <time>2014-11-23T13:08:07.000Z</time>
      </trkpt>
      <trkpt lat="48.88053" lon="-0.3948">
        <ele>140.60000610352</ele>
        <time>2014-11-23T13:08:10.000Z</time>
      </trkpt>
      <trkpt lat="48.88054" lon="-0.3948">
        <ele>142.19999694824</ele>
        <time>2014-11-23T13:08:12.000Z</time>
      </trkpt>
      <trkpt lat="48.88055" lon="-0.39482">
        <ele>143.39999389648</ele>
        <time>2014-11-23T13:08:17.000Z</time>
      </trkpt>
      <trkpt lat="48.88057" lon="-0.39483">
        <ele>144.80000305176</ele>
        <time>2014-11-23T13:08:20.000Z</time>
      </trkpt>
      <trkpt lat="48.88058" lon="-0.39485">
        <ele>145.39999389648</ele>
        <time>2014-11-23T13:08:22.000Z</time>
      </trkpt>
      <trkpt lat="48.8806" lon="-0.39488">
        <ele>145.80000305176</ele>
        <time>2014-11-23T13:08:25.000Z</time>
      </trkpt>
      <trkpt lat="48.88062" lon="-0.39493">
        <ele>145</ele>
        <time>2014-11-23T13:08:28.000Z</time>
      </trkpt>
      <trkpt lat="48.88062" lon="-0.39497">
        <ele>144</ele>
        <time>2014-11-23T13:08:31.000Z</time>
      </trkpt>
      <trkpt lat="48.88063" lon="-0.395">
        <ele>142.19999694824</ele>
        <time>2014-11-23T13:08:33.000Z</time>
      </trkpt>
      <trkpt lat="48.88067" lon="-0.39507">
        <ele>141</ele>
        <time>2014-11-23T13:08:36.000Z</time>
      </trkpt>
      <trkpt lat="48.88069" lon="-0.3951">
        <ele>139.80000305176</ele>
        <time>2014-11-23T13:08:38.000Z</time>
      </trkpt>
      <trkpt lat="48.88072" lon="-0.39513">
        <ele>139.60000610352</ele>
        <time>2014-11-23T13:08:41.000Z</time>
      </trkpt>
      <trkpt lat="48.88074" lon="-0.39516">
        <ele>140.39999389648</ele>
        <time>2014-11-23T13:08:43.000Z</time>
      </trkpt>
      <trkpt lat="48.88076" lon="-0.39519">
        <ele>141.19999694824</ele>
        <time>2014-11-23T13:08:46.000Z</time>
      </trkpt>
      <trkpt lat="48.88076" lon="-0.39522">
        <ele>141.60000610352</ele>
        <time>2014-11-23T13:08:49.000Z</time>
      </trkpt>
      <trkpt lat="48.88076" lon="-0.39525">
        <ele>142</ele>
        <time>2014-11-23T13:08:51.000Z</time>
      </trkpt>
      <trkpt lat="48.88078" lon="-0.3953">
        <ele>142.39999389648</ele>
        <time>2014-11-23T13:08:54.000Z</time>
      </trkpt>
      <trkpt lat="48.8808" lon="-0.39533">
        <ele>142</ele>
        <time>2014-11-23T13:08:56.000Z</time>
      </trkpt>
      <trkpt lat="48.88085" lon="-0.39542">
        <ele>142.19999694824</ele>
        <time>2014-11-23T13:09:02.000Z</time>
      </trkpt>
      <trkpt lat="48.88086" lon="-0.39546">
        <ele>142.19999694824</ele>
        <time>2014-11-23T13:09:04.000Z</time>
      </trkpt>
      <trkpt lat="48.88088" lon="-0.3955">
        <ele>142</ele>
        <time>2014-11-23T13:09:06.000Z</time>
      </trkpt>
      <trkpt lat="48.88089" lon="-0.39553">
        <ele>142</ele>
        <time>2014-11-23T13:09:08.000Z</time>
      </trkpt>
      <trkpt lat="48.88091" lon="-0.39558">
        <ele>142</ele>
        <time>2014-11-23T13:09:11.000Z</time>
      </trkpt>
      <trkpt lat="48.88091" lon="-0.39563">
        <ele>141.60000610352</ele>
        <time>2014-11-23T13:09:14.000Z</time>
      </trkpt>
      <trkpt lat="48.88092" lon="-0.39576">
        <ele>141.80000305176</ele>
        <time>2014-11-23T13:09:22.000Z</time>
      </trkpt>
      <trkpt lat="48.88091" lon="-0.39581">
        <ele>141.80000305176</ele>
        <time>2014-11-23T13:09:25.000Z</time>
      </trkpt>
      <trkpt lat="48.88093" lon="-0.39586">
        <ele>142</ele>
        <time>2014-11-23T13:09:27.000Z</time>
      </trkpt>
      <trkpt lat="48.88095" lon="-0.39588">
        <ele>141.80000305176</ele>
        <time>2014-11-23T13:09:29.000Z</time>
      </trkpt>
      <trkpt lat="48.88098" lon="-0.39589">
        <ele>141.19999694824</ele>
        <time>2014-11-23T13:09:32.000Z</time>
      </trkpt>
      <trkpt lat="48.88099" lon="-0.39594">
        <ele>140.19999694824</ele>
        <time>2014-11-23T13:09:35.000Z</time>
      </trkpt>
      <trkpt lat="48.88099" lon="-0.39598">
        <ele>139.19999694824</ele>
        <time>2014-11-23T13:09:37.000Z</time>
      </trkpt>
      <trkpt lat="48.88098" lon="-0.39606">
        <ele>138.39999389648</ele>
        <time>2014-11-23T13:09:40.000Z</time>
      </trkpt>
      <trkpt lat="48.88097" lon="-0.39611">
        <ele>137.60000610352</ele>
        <time>2014-11-23T13:09:42.000Z</time>
      </trkpt>
      <trkpt lat="48.88098" lon="-0.39615">
        <ele>137.39999389648</ele>
        <time>2014-11-23T13:09:44.000Z</time>
      </trkpt>
      <trkpt lat="48.88099" lon="-0.39619">
        <ele>137.39999389648</ele>
        <time>2014-11-23T13:09:47.000Z</time>
      </trkpt>
      <trkpt lat="48.88102" lon="-0.39618">
        <ele>137.60000610352</ele>
        <time>2014-11-23T13:09:50.000Z</time>
      </trkpt>
      <trkpt lat="48.88105" lon="-0.39616">
        <ele>137.39999389648</ele>
        <time>2014-11-23T13:09:52.000Z</time>
      </trkpt>
      <trkpt lat="48.88114" lon="-0.39611">
        <ele>137</ele>
        <time>2014-11-23T13:09:59.000Z</time>
      </trkpt>
      <trkpt lat="48.88117" lon="-0.3961">
        <ele>136.19999694824</ele>
        <time>2014-11-23T13:10:02.000Z</time>
      </trkpt>
      <trkpt lat="48.88119" lon="-0.39609">
        <ele>135.60000610352</ele>
        <time>2014-11-23T13:10:04.000Z</time>
      </trkpt>
      <trkpt lat="48.88123" lon="-0.39608">
        <ele>135</ele>
        <time>2014-11-23T13:10:07.000Z</time>
      </trkpt>
      <trkpt lat="48.88126" lon="-0.39607">
        <ele>134.60000610352</ele>
        <time>2014-11-23T13:10:09.000Z</time>
      </trkpt>
      <trkpt lat="48.88132" lon="-0.39607">
        <ele>134.60000610352</ele>
        <time>2014-11-23T13:10:12.000Z</time>
      </trkpt>
      <trkpt lat="48.88136" lon="-0.39606">
        <ele>134.80000305176</ele>
        <time>2014-11-23T13:10:14.000Z</time>
      </trkpt>
      <trkpt lat="48.8814" lon="-0.39603">
        <ele>135</ele>
        <time>2014-11-23T13:10:17.000Z</time>
      </trkpt>
      <trkpt lat="48.88143" lon="-0.39603">
        <ele>135.19999694824</ele>
        <time>2014-11-23T13:10:20.000Z</time>
      </trkpt>
      <trkpt lat="48.88145" lon="-0.39604">
        <ele>135.19999694824</ele>
        <time>2014-11-23T13:10:23.000Z</time>
      </trkpt>
      <trkpt lat="48.88147" lon="-0.39605">
        <ele>135.19999694824</ele>
        <time>2014-11-23T13:10:25.000Z</time>
      </trkpt>
      <trkpt lat="48.88148" lon="-0.39605">
        <ele>135.60000610352</ele>
        <time>2014-11-23T13:10:28.000Z</time>
      </trkpt>
      <trkpt lat="48.88151" lon="-0.39603">
        <ele>136.19999694824</ele>
        <time>2014-11-23T13:10:31.000Z</time>
      </trkpt>
      <trkpt lat="48.88153" lon="-0.39603">
        <ele>137</ele>
        <time>2014-11-23T13:10:33.000Z</time>
      </trkpt>
      <trkpt lat="48.88155" lon="-0.39602">
        <ele>137.60000610352</ele>
        <time>2014-11-23T13:10:36.000Z</time>
      </trkpt>
      <trkpt lat="48.88157" lon="-0.39603">
        <ele>138.19999694824</ele>
        <time>2014-11-23T13:10:38.000Z</time>
      </trkpt>
      <trkpt lat="48.88158" lon="-0.39603">
        <ele>138.60000610352</ele>
        <time>2014-11-23T13:10:40.000Z</time>
      </trkpt>
      <trkpt lat="48.88161" lon="-0.39602">
        <ele>138.60000610352</ele>
        <time>2014-11-23T13:10:43.000Z</time>
      </trkpt>
      <trkpt lat="48.88165" lon="-0.39601">
        <ele>138</ele>
        <time>2014-11-23T13:10:46.000Z</time>
      </trkpt>
      <trkpt lat="48.88167" lon="-0.39601">
        <ele>137.60000610352</ele>
        <time>2014-11-23T13:10:48.000Z</time>
      </trkpt>
      <trkpt lat="48.8817" lon="-0.39601">
        <ele>136.80000305176</ele>
        <time>2014-11-23T13:10:51.000Z</time>
      </trkpt>
      <trkpt lat="48.88174" lon="-0.39604">
        <ele>136</ele>
        <time>2014-11-23T13:10:54.000Z</time>
      </trkpt>
      <trkpt lat="48.88177" lon="-0.39605">
        <ele>135</ele>
        <time>2014-11-23T13:10:56.000Z</time>
      </trkpt>
      <trkpt lat="48.88179" lon="-0.39604">
        <ele>134.39999389648</ele>
        <time>2014-11-23T13:10:59.000Z</time>
      </trkpt>
      <trkpt lat="48.88183" lon="-0.39606">
        <ele>133.60000610352</ele>
        <time>2014-11-23T13:11:02.000Z</time>
      </trkpt>
      <trkpt lat="48.88185" lon="-0.39607">
        <ele>133.19999694824</ele>
        <time>2014-11-23T13:11:04.000Z</time>
      </trkpt>
      <trkpt lat="48.88186" lon="-0.39607">
        <ele>132.60000610352</ele>
        <time>2014-11-23T13:11:07.000Z</time>
      </trkpt>
      <trkpt lat="48.88188" lon="-0.39606">
        <ele>132.39999389648</ele>
        <time>2014-11-23T13:11:10.000Z</time>
      </trkpt>
      <trkpt lat="48.8819" lon="-0.39607">
        <ele>132</ele>
        <time>2014-11-23T13:11:12.000Z</time>
      </trkpt>
      <trkpt lat="48.88191" lon="-0.39608">
        <ele>131.60000610352</ele>
        <time>2014-11-23T13:11:17.000Z</time>
      </trkpt>
      <trkpt lat="48.88192" lon="-0.39609">
        <ele>131</ele>
        <time>2014-11-23T13:11:19.000Z</time>
      </trkpt>
      <trkpt lat="48.88194" lon="-0.3961">
        <ele>130.80000305176</ele>
        <time>2014-11-23T13:11:21.000Z</time>
      </trkpt>
      <trkpt lat="48.88194" lon="-0.39611">
        <ele>130.39999389648</ele>
        <time>2014-11-23T13:11:24.000Z</time>
      </trkpt>
      <trkpt lat="48.88197" lon="-0.39614">
        <ele>130.60000610352</ele>
        <time>2014-11-23T13:11:29.000Z</time>
      </trkpt>
      <trkpt lat="48.882" lon="-0.39614">
        <ele>130.80000305176</ele>
        <time>2014-11-23T13:11:31.000Z</time>
      </trkpt>
      <trkpt lat="48.88205" lon="-0.39615">
        <ele>130.60000610352</ele>
        <time>2014-11-23T13:11:34.000Z</time>
      </trkpt>
      <trkpt lat="48.8821" lon="-0.39616">
        <ele>130.39999389648</ele>
        <time>2014-11-23T13:11:37.000Z</time>
      </trkpt>
      <trkpt lat="48.88213" lon="-0.39616">
        <ele>129.80000305176</ele>
        <time>2014-11-23T13:11:39.000Z</time>
      </trkpt>
      <trkpt lat="48.88215" lon="-0.39617">
        <ele>129.19999694824</ele>
        <time>2014-11-23T13:11:41.000Z</time>
      </trkpt>
      <trkpt lat="48.8822" lon="-0.39618">
        <ele>128.39999389648</ele>
        <time>2014-11-23T13:11:44.000Z</time>
      </trkpt>
      <trkpt lat="48.88224" lon="-0.3962">
        <ele>127.80000305176</ele>
        <time>2014-11-23T13:11:47.000Z</time>
      </trkpt>
      <trkpt lat="48.88227" lon="-0.39622">
        <ele>127.40000152588</ele>
        <time>2014-11-23T13:11:50.000Z</time>
      </trkpt>
      <trkpt lat="48.88231" lon="-0.39622">
        <ele>127</ele>
        <time>2014-11-23T13:11:52.000Z</time>
      </trkpt>
      <trkpt lat="48.88233" lon="-0.39622">
        <ele>126.40000152588</ele>
        <time>2014-11-23T13:11:54.000Z</time>
      </trkpt>
      <trkpt lat="48.88234" lon="-0.39622">
        <ele>126</ele>
        <time>2014-11-23T13:11:56.000Z</time>
      </trkpt>
      <trkpt lat="48.88237" lon="-0.39624">
        <ele>125.40000152588</ele>
        <time>2014-11-23T13:11:59.000Z</time>
      </trkpt>
      <trkpt lat="48.8824" lon="-0.39625">
        <ele>124.80000305176</ele>
        <time>2014-11-23T13:12:01.000Z</time>
      </trkpt>
      <trkpt lat="48.88244" lon="-0.39628">
        <ele>124.59999847412</ele>
        <time>2014-11-23T13:12:04.000Z</time>
      </trkpt>
      <trkpt lat="48.88247" lon="-0.39631">
        <ele>124.19999694824</ele>
        <time>2014-11-23T13:12:07.000Z</time>
      </trkpt>
      <trkpt lat="48.8825" lon="-0.39634">
        <ele>123.80000305176</ele>
        <time>2014-11-23T13:12:09.000Z</time>
      </trkpt>
      <trkpt lat="48.88253" lon="-0.39635">
        <ele>123.59999847412</ele>
        <time>2014-11-23T13:12:11.000Z</time>
      </trkpt>
      <trkpt lat="48.88257" lon="-0.39634">
        <ele>123.59999847412</ele>
        <time>2014-11-23T13:12:14.000Z</time>
      </trkpt>
      <trkpt lat="48.8826" lon="-0.39633">
        <ele>123.40000152588</ele>
        <time>2014-11-23T13:12:16.000Z</time>
      </trkpt>
      <trkpt lat="48.88263" lon="-0.39631">
        <ele>123.80000305176</ele>
        <time>2014-11-23T13:12:18.000Z</time>
      </trkpt>
      <trkpt lat="48.88264" lon="-0.39627">
        <ele>124.19999694824</ele>
        <time>2014-11-23T13:12:21.000Z</time>
      </trkpt>
      <trkpt lat="48.88266" lon="-0.39624">
        <ele>124.59999847412</ele>
        <time>2014-11-23T13:12:23.000Z</time>
      </trkpt>
      <trkpt lat="48.88268" lon="-0.39621">
        <ele>124.80000305176</ele>
        <time>2014-11-23T13:12:25.000Z</time>
      </trkpt>
      <trkpt lat="48.88271" lon="-0.39618">
        <ele>125</ele>
        <time>2014-11-23T13:12:28.000Z</time>
      </trkpt>
      <trkpt lat="48.88273" lon="-0.39614">
        <ele>124.80000305176</ele>
        <time>2014-11-23T13:12:30.000Z</time>
      </trkpt>
      <trkpt lat="48.88274" lon="-0.39612">
        <ele>124.40000152588</ele>
        <time>2014-11-23T13:12:32.000Z</time>
      </trkpt>
      <trkpt lat="48.88275" lon="-0.39606">
        <ele>124</ele>
        <time>2014-11-23T13:12:34.000Z</time>
      </trkpt>
      <trkpt lat="48.88279" lon="-0.396">
        <ele>123.59999847412</ele>
        <time>2014-11-23T13:12:37.000Z</time>
      </trkpt>
      <trkpt lat="48.88282" lon="-0.39598">
        <ele>122.80000305176</ele>
        <time>2014-11-23T13:12:40.000Z</time>
      </trkpt>
      <trkpt lat="48.88284" lon="-0.39595">
        <ele>122.19999694824</ele>
        <time>2014-11-23T13:12:43.000Z</time>
      </trkpt>
      <trkpt lat="48.88287" lon="-0.3959">
        <ele>121.80000305176</ele>
        <time>2014-11-23T13:12:46.000Z</time>
      </trkpt>
      <trkpt lat="48.88288" lon="-0.39587">
        <ele>121.19999694824</ele>
        <time>2014-11-23T13:12:49.000Z</time>
      </trkpt>
      <trkpt lat="48.8829" lon="-0.39584">
        <ele>120.59999847412</ele>
        <time>2014-11-23T13:12:51.000Z</time>
      </trkpt>
      <trkpt lat="48.88293" lon="-0.39581">
        <ele>119.80000305176</ele>
        <time>2014-11-23T13:12:54.000Z</time>
      </trkpt>
      <trkpt lat="48.88294" lon="-0.39579">
        <ele>119</ele>
        <time>2014-11-23T13:12:56.000Z</time>
      </trkpt>
      <trkpt lat="48.88295" lon="-0.39576">
        <ele>118.40000152588</ele>
        <time>2014-11-23T13:12:59.000Z</time>
      </trkpt>
      <trkpt lat="48.88297" lon="-0.39574">
        <ele>118</ele>
        <time>2014-11-23T13:13:02.000Z</time>
      </trkpt>
      <trkpt lat="48.88298" lon="-0.39572">
        <ele>117.40000152588</ele>
        <time>2014-11-23T13:13:04.000Z</time>
      </trkpt>
      <trkpt lat="48.883" lon="-0.39569">
        <ele>117.19999694824</ele>
        <time>2014-11-23T13:13:07.000Z</time>
      </trkpt>
      <trkpt lat="48.88301" lon="-0.39567">
        <ele>116.59999847412</ele>
        <time>2014-11-23T13:13:10.000Z</time>
      </trkpt>
      <trkpt lat="48.88304" lon="-0.39565">
        <ele>115.80000305176</ele>
        <time>2014-11-23T13:13:12.000Z</time>
      </trkpt>
      <trkpt lat="48.88306" lon="-0.39564">
        <ele>114.59999847412</ele>
        <time>2014-11-23T13:13:14.000Z</time>
      </trkpt>
      <trkpt lat="48.8831" lon="-0.39564">
        <ele>113.59999847412</ele>
        <time>2014-11-23T13:13:17.000Z</time>
      </trkpt>
      <trkpt lat="48.88312" lon="-0.39563">
        <ele>112.59999847412</ele>
        <time>2014-11-23T13:13:19.000Z</time>
      </trkpt>
      <trkpt lat="48.88313" lon="-0.39562">
        <ele>112.19999694824</ele>
        <time>2014-11-23T13:13:21.000Z</time>
      </trkpt>
      <trkpt lat="48.88315" lon="-0.3956">
        <ele>111.80000305176</ele>
        <time>2014-11-23T13:13:24.000Z</time>
      </trkpt>
      <trkpt lat="48.88317" lon="-0.39558">
        <ele>112</ele>
        <time>2014-11-23T13:13:27.000Z</time>
      </trkpt>
      <trkpt lat="48.88319" lon="-0.39558">
        <ele>112.19999694824</ele>
        <time>2014-11-23T13:13:29.000Z</time>
      </trkpt>
      <trkpt lat="48.88322" lon="-0.39559">
        <ele>112.19999694824</ele>
        <time>2014-11-23T13:13:32.000Z</time>
      </trkpt>
      <trkpt lat="48.88324" lon="-0.3956">
        <ele>111.59999847412</ele>
        <time>2014-11-23T13:13:35.000Z</time>
      </trkpt>
      <trkpt lat="48.88326" lon="-0.39559">
        <ele>111</ele>
        <time>2014-11-23T13:13:37.000Z</time>
      </trkpt>
      <trkpt lat="48.88326" lon="-0.39558">
        <ele>110.19999694824</ele>
        <time>2014-11-23T13:13:41.000Z</time>
      </trkpt>
      <trkpt lat="48.88327" lon="-0.39563">
        <ele>109.80000305176</ele>
        <time>2014-11-23T13:13:44.000Z</time>
      </trkpt>
      <trkpt lat="48.88327" lon="-0.39561">
        <ele>109.80000305176</ele>
        <time>2014-11-23T13:13:46.000Z</time>
      </trkpt>
      <trkpt lat="48.88328" lon="-0.39557">
        <ele>110.19999694824</ele>
        <time>2014-11-23T13:13:49.000Z</time>
      </trkpt>
      <trkpt lat="48.88329" lon="-0.39552">
        <ele>110.40000152588</ele>
        <time>2014-11-23T13:13:52.000Z</time>
      </trkpt>
      <trkpt lat="48.88331" lon="-0.39548">
        <ele>110.40000152588</ele>
        <time>2014-11-23T13:13:55.000Z</time>
      </trkpt>
      <trkpt lat="48.88334" lon="-0.39544">
        <ele>109.80000305176</ele>
        <time>2014-11-23T13:13:57.000Z</time>
      </trkpt>
      <trkpt lat="48.88335" lon="-0.3954">
        <ele>109</ele>
        <time>2014-11-23T13:13:59.000Z</time>
      </trkpt>
      <trkpt lat="48.88337" lon="-0.39534">
        <ele>108.19999694824</ele>
        <time>2014-11-23T13:14:02.000Z</time>
      </trkpt>
      <trkpt lat="48.88339" lon="-0.3953">
        <ele>107.80000305176</ele>
        <time>2014-11-23T13:14:05.000Z</time>
      </trkpt>
      <trkpt lat="48.8834" lon="-0.39528">
        <ele>107.59999847412</ele>
        <time>2014-11-23T13:14:07.000Z</time>
      </trkpt>
      <trkpt lat="48.8834" lon="-0.39524">
        <ele>107.40000152588</ele>
        <time>2014-11-23T13:14:10.000Z</time>
      </trkpt>
      <trkpt lat="48.8834" lon="-0.39518">
        <ele>107.19999694824</ele>
        <time>2014-11-23T13:14:13.000Z</time>
      </trkpt>
      <trkpt lat="48.8834" lon="-0.39515">
        <ele>107</ele>
        <time>2014-11-23T13:14:15.000Z</time>
      </trkpt>
      <trkpt lat="48.88341" lon="-0.3951">
        <ele>106.40000152588</ele>
        <time>2014-11-23T13:14:18.000Z</time>
      </trkpt>
      <trkpt lat="48.88341" lon="-0.39506">
        <ele>105.80000305176</ele>
        <time>2014-11-23T13:14:20.000Z</time>
      </trkpt>
      <trkpt lat="48.88342" lon="-0.39503">
        <ele>105.59999847412</ele>
        <time>2014-11-23T13:14:22.000Z</time>
      </trkpt>
      <trkpt lat="48.88343" lon="-0.39501">
        <ele>105.40000152588</ele>
        <time>2014-11-23T13:14:24.000Z</time>
      </trkpt>
      <trkpt lat="48.88344" lon="-0.39495">
        <ele>105.19999694824</ele>
        <time>2014-11-23T13:14:27.000Z</time>
      </trkpt>
      <trkpt lat="48.88348" lon="-0.39485">
        <ele>105</ele>
        <time>2014-11-23T13:14:30.000Z</time>
      </trkpt>
      <trkpt lat="48.8835" lon="-0.3948">
        <ele>104.59999847412</ele>
        <time>2014-11-23T13:14:32.000Z</time>
      </trkpt>
      <trkpt lat="48.88352" lon="-0.39475">
        <ele>103.80000305176</ele>
        <time>2014-11-23T13:14:35.000Z</time>
      </trkpt>
      <trkpt lat="48.88353" lon="-0.39474">
        <ele>103</ele>
        <time>2014-11-23T13:14:37.000Z</time>
      </trkpt>
      <trkpt lat="48.88353" lon="-0.39471">
        <ele>102.19999694824</ele>
        <time>2014-11-23T13:14:40.000Z</time>
      </trkpt>
      <trkpt lat="48.88354" lon="-0.39467">
        <ele>101.40000152588</ele>
        <time>2014-11-23T13:14:42.000Z</time>
      </trkpt>
      <trkpt lat="48.88354" lon="-0.39461">
        <ele>100.80000305176</ele>
        <time>2014-11-23T13:14:45.000Z</time>
      </trkpt>
      <trkpt lat="48.88353" lon="-0.39456">
        <ele>100.80000305176</ele>
        <time>2014-11-23T13:14:48.000Z</time>
      </trkpt>
      <trkpt lat="48.88353" lon="-0.39452">
        <ele>100.59999847412</ele>
        <time>2014-11-23T13:14:50.000Z</time>
      </trkpt>
      <trkpt lat="48.88352" lon="-0.39447">
        <ele>100.40000152588</ele>
        <time>2014-11-23T13:14:53.000Z</time>
      </trkpt>
      <trkpt lat="48.88352" lon="-0.39445">
        <ele>100.19999694824</ele>
        <time>2014-11-23T13:14:55.000Z</time>
      </trkpt>
      <trkpt lat="48.88351" lon="-0.3944">
        <ele>99.400001525879</ele>
        <time>2014-11-23T13:14:58.000Z</time>
      </trkpt>
      <trkpt lat="48.88351" lon="-0.39437">
        <ele>98.599998474121</ele>
        <time>2014-11-23T13:15:00.000Z</time>
      </trkpt>
      <trkpt lat="48.88351" lon="-0.39432">
        <ele>98.400001525879</ele>
        <time>2014-11-23T13:15:03.000Z</time>
      </trkpt>
      <trkpt lat="48.88351" lon="-0.39428">
        <ele>98.199996948242</ele>
        <time>2014-11-23T13:15:05.000Z</time>
      </trkpt>
      <trkpt lat="48.88351" lon="-0.39423">
        <ele>98</ele>
        <time>2014-11-23T13:15:08.000Z</time>
      </trkpt>
      <trkpt lat="48.8835" lon="-0.3942">
        <ele>98.400001525879</ele>
        <time>2014-11-23T13:15:10.000Z</time>
      </trkpt>
      <trkpt lat="48.88347" lon="-0.39415">
        <ele>98.199996948242</ele>
        <time>2014-11-23T13:15:13.000Z</time>
      </trkpt>
      <trkpt lat="48.88348" lon="-0.39411">
        <ele>97.400001525879</ele>
        <time>2014-11-23T13:15:16.000Z</time>
      </trkpt>
      <trkpt lat="48.88351" lon="-0.39408">
        <ele>96.599998474121</ele>
        <time>2014-11-23T13:15:19.000Z</time>
      </trkpt>
      <trkpt lat="48.88354" lon="-0.39403">
        <ele>96.400001525879</ele>
        <time>2014-11-23T13:15:22.000Z</time>
      </trkpt>
      <trkpt lat="48.88356" lon="-0.39399">
        <ele>96.199996948242</ele>
        <time>2014-11-23T13:15:25.000Z</time>
      </trkpt>
      <trkpt lat="48.88356" lon="-0.39396">
        <ele>96.199996948242</ele>
        <time>2014-11-23T13:15:27.000Z</time>
      </trkpt>
      <trkpt lat="48.88359" lon="-0.39392">
        <ele>96.400001525879</ele>
        <time>2014-11-23T13:15:30.000Z</time>
      </trkpt>
      <trkpt lat="48.88361" lon="-0.39389">
        <ele>96.400001525879</ele>
        <time>2014-11-23T13:15:32.000Z</time>
      </trkpt>
      <trkpt lat="48.88363" lon="-0.39386">
        <ele>96</ele>
        <time>2014-11-23T13:15:34.000Z</time>
      </trkpt>
      <trkpt lat="48.88366" lon="-0.39384">
        <ele>95.199996948242</ele>
        <time>2014-11-23T13:15:36.000Z</time>
      </trkpt>
      <trkpt lat="48.88369" lon="-0.3938">
        <ele>94.800003051758</ele>
        <time>2014-11-23T13:15:39.000Z</time>
      </trkpt>
      <trkpt lat="48.8837" lon="-0.39378">
        <ele>94.400001525879</ele>
        <time>2014-11-23T13:15:42.000Z</time>
      </trkpt>
      <trkpt lat="48.88372" lon="-0.39377">
        <ele>94.199996948242</ele>
        <time>2014-11-23T13:15:44.000Z</time>
      </trkpt>
      <trkpt lat="48.88375" lon="-0.39374">
        <ele>94</ele>
        <time>2014-11-23T13:15:47.000Z</time>
      </trkpt>
      <trkpt lat="48.88377" lon="-0.39372">
        <ele>94</ele>
        <time>2014-11-23T13:15:49.000Z</time>
      </trkpt>
      <trkpt lat="48.8838" lon="-0.3937">
        <ele>93.599998474121</ele>
        <time>2014-11-23T13:15:51.000Z</time>
      </trkpt>
      <trkpt lat="48.88385" lon="-0.39367">
        <ele>93.599998474121</ele>
        <time>2014-11-23T13:15:54.000Z</time>
      </trkpt>
      <trkpt lat="48.88388" lon="-0.39363">
        <ele>93.800003051758</ele>
        <time>2014-11-23T13:15:57.000Z</time>
      </trkpt>
      <trkpt lat="48.88392" lon="-0.39362">
        <ele>94</ele>
        <time>2014-11-23T13:15:59.000Z</time>
      </trkpt>
      <trkpt lat="48.88396" lon="-0.39358">
        <ele>94.599998474121</ele>
        <time>2014-11-23T13:16:02.000Z</time>
      </trkpt>
      <trkpt lat="48.88398" lon="-0.39355">
        <ele>95</ele>
        <time>2014-11-23T13:16:04.000Z</time>
      </trkpt>
      <trkpt lat="48.884" lon="-0.39351">
        <ele>95.199996948242</ele>
        <time>2014-11-23T13:16:07.000Z</time>
      </trkpt>
      <trkpt lat="48.88401" lon="-0.39349">
        <ele>95.199996948242</ele>
        <time>2014-11-23T13:16:09.000Z</time>
      </trkpt>
      <trkpt lat="48.88402" lon="-0.39345">
        <ele>95.400001525879</ele>
        <time>2014-11-23T13:16:12.000Z</time>
      </trkpt>
      <trkpt lat="48.88403" lon="-0.39343">
        <ele>95.400001525879</ele>
        <time>2014-11-23T13:16:14.000Z</time>
      </trkpt>
      <trkpt lat="48.88404" lon="-0.39341">
        <ele>95.400001525879</ele>
        <time>2014-11-23T13:16:16.000Z</time>
      </trkpt>
      <trkpt lat="48.88405" lon="-0.39338">
        <ele>95.199996948242</ele>
        <time>2014-11-23T13:16:19.000Z</time>
      </trkpt>
      <trkpt lat="48.88405" lon="-0.39335">
        <ele>95</ele>
        <time>2014-11-23T13:16:21.000Z</time>
      </trkpt>
      <trkpt lat="48.88407" lon="-0.39328">
        <ele>94.199996948242</ele>
        <time>2014-11-23T13:16:24.000Z</time>
      </trkpt>
      <trkpt lat="48.88408" lon="-0.39323">
        <ele>93.199996948242</ele>
        <time>2014-11-23T13:16:27.000Z</time>
      </trkpt>
      <trkpt lat="48.88409" lon="-0.39317">
        <ele>92.400001525879</ele>
        <time>2014-11-23T13:16:30.000Z</time>
      </trkpt>
      <trkpt lat="48.8841" lon="-0.39315">
        <ele>91.800003051758</ele>
        <time>2014-11-23T13:16:32.000Z</time>
      </trkpt>
      <trkpt lat="48.88413" lon="-0.3931">
        <ele>91</ele>
        <time>2014-11-23T13:16:35.000Z</time>
      </trkpt>
      <trkpt lat="48.88415" lon="-0.39306">
        <ele>90.599998474121</ele>
        <time>2014-11-23T13:16:38.000Z</time>
      </trkpt>
      <trkpt lat="48.88415" lon="-0.39305">
        <ele>90.199996948242</ele>
        <time>2014-11-23T13:16:40.000Z</time>
      </trkpt>
      <trkpt lat="48.88415" lon="-0.39302">
        <ele>89.599998474121</ele>
        <time>2014-11-23T13:16:43.000Z</time>
      </trkpt>
      <trkpt lat="48.88415" lon="-0.393">
        <ele>89.199996948242</ele>
        <time>2014-11-23T13:16:45.000Z</time>
      </trkpt>
      <trkpt lat="48.88416" lon="-0.39296">
        <ele>88.800003051758</ele>
        <time>2014-11-23T13:16:48.000Z</time>
      </trkpt>
      <trkpt lat="48.88417" lon="-0.39292">
        <ele>88.400001525879</ele>
        <time>2014-11-23T13:16:50.000Z</time>
      </trkpt>
      <trkpt lat="48.88416" lon="-0.39284">
        <ele>88</ele>
        <time>2014-11-23T13:16:53.000Z</time>
      </trkpt>
      <trkpt lat="48.88416" lon="-0.39278">
        <ele>88</ele>
        <time>2014-11-23T13:16:55.000Z</time>
      </trkpt>
      <trkpt lat="48.88416" lon="-0.39272">
        <ele>87.800003051758</ele>
        <time>2014-11-23T13:16:58.000Z</time>
      </trkpt>
      <trkpt lat="48.88417" lon="-0.39265">
        <ele>87.800003051758</ele>
        <time>2014-11-23T13:17:01.000Z</time>
      </trkpt>
      <trkpt lat="48.88419" lon="-0.39255">
        <ele>88</ele>
        <time>2014-11-23T13:17:06.000Z</time>
      </trkpt>
      <trkpt lat="48.88419" lon="-0.3925">
        <ele>87.800003051758</ele>
        <time>2014-11-23T13:17:08.000Z</time>
      </trkpt>
      <trkpt lat="48.8842" lon="-0.39246">
        <ele>87.599998474121</ele>
        <time>2014-11-23T13:17:10.000Z</time>
      </trkpt>
      <trkpt lat="48.8842" lon="-0.39243">
        <ele>87.599998474121</ele>
        <time>2014-11-23T13:17:13.000Z</time>
      </trkpt>
      <trkpt lat="48.88422" lon="-0.3924">
        <ele>87.400001525879</ele>
        <time>2014-11-23T13:17:16.000Z</time>
      </trkpt>
      <trkpt lat="48.88422" lon="-0.39238">
        <ele>87.599998474121</ele>
        <time>2014-11-23T13:17:19.000Z</time>
      </trkpt>
      <trkpt lat="48.88423" lon="-0.39234">
        <ele>88</ele>
        <time>2014-11-23T13:17:22.000Z</time>
      </trkpt>
      <trkpt lat="48.88423" lon="-0.39232">
        <ele>88.400001525879</ele>
        <time>2014-11-23T13:17:25.000Z</time>
      </trkpt>
      <trkpt lat="48.88424" lon="-0.39229">
        <ele>88.599998474121</ele>
        <time>2014-11-23T13:17:28.000Z</time>
      </trkpt>
      <trkpt lat="48.88427" lon="-0.39226">
        <ele>89.199996948242</ele>
        <time>2014-11-23T13:17:30.000Z</time>
      </trkpt>
      <trkpt lat="48.88427" lon="-0.39223">
        <ele>89.599998474121</ele>
        <time>2014-11-23T13:17:33.000Z</time>
      </trkpt>
      <trkpt lat="48.88429" lon="-0.3922">
        <ele>90</ele>
        <time>2014-11-23T13:17:44.000Z</time>
      </trkpt>
      <trkpt lat="48.8843" lon="-0.39222">
        <ele>90.599998474121</ele>
        <time>2014-11-23T13:17:47.000Z</time>
      </trkpt>
      <trkpt lat="48.88429" lon="-0.3922">
        <ele>91.400001525879</ele>
        <time>2014-11-23T13:17:59.000Z</time>
      </trkpt>
      <trkpt lat="48.8843" lon="-0.39218">
        <ele>92</ele>
        <time>2014-11-23T13:18:02.000Z</time>
      </trkpt>
      <trkpt lat="48.88431" lon="-0.39213">
        <ele>92.599998474121</ele>
        <time>2014-11-23T13:18:05.000Z</time>
      </trkpt>
      <trkpt lat="48.88432" lon="-0.3921">
        <ele>93.800003051758</ele>
        <time>2014-11-23T13:18:07.000Z</time>
      </trkpt>
      <trkpt lat="48.88433" lon="-0.39207">
        <ele>94.599998474121</ele>
        <time>2014-11-23T13:18:10.000Z</time>
      </trkpt>
      <trkpt lat="48.88434" lon="-0.39205">
        <ele>95.199996948242</ele>
        <time>2014-11-23T13:18:12.000Z</time>
      </trkpt>
      <trkpt lat="48.88435" lon="-0.39203">
        <ele>95.400001525879</ele>
        <time>2014-11-23T13:18:14.000Z</time>
      </trkpt>
      <trkpt lat="48.88435" lon="-0.39199">
        <ele>95.599998474121</ele>
        <time>2014-11-23T13:18:17.000Z</time>
      </trkpt>
      <trkpt lat="48.88435" lon="-0.39195">
        <ele>94.599998474121</ele>
        <time>2014-11-23T13:18:19.000Z</time>
      </trkpt>
      <trkpt lat="48.88435" lon="-0.3919">
        <ele>93.599998474121</ele>
        <time>2014-11-23T13:18:22.000Z</time>
      </trkpt>
      <trkpt lat="48.88436" lon="-0.39186">
        <ele>92.199996948242</ele>
        <time>2014-11-23T13:18:25.000Z</time>
      </trkpt>
      <trkpt lat="48.88436" lon="-0.39184">
        <ele>91.199996948242</ele>
        <time>2014-11-23T13:18:27.000Z</time>
      </trkpt>
      <trkpt lat="48.88438" lon="-0.39183">
        <ele>89.400001525879</ele>
        <time>2014-11-23T13:18:30.000Z</time>
      </trkpt>
      <trkpt lat="48.88438" lon="-0.39182">
        <ele>88.199996948242</ele>
        <time>2014-11-23T13:18:33.000Z</time>
      </trkpt>
      <trkpt lat="48.88439" lon="-0.39179">
        <ele>87.199996948242</ele>
        <time>2014-11-23T13:18:35.000Z</time>
      </trkpt>
      <trkpt lat="48.88439" lon="-0.39175">
        <ele>86.400001525879</ele>
        <time>2014-11-23T13:18:38.000Z</time>
      </trkpt>
      <trkpt lat="48.8844" lon="-0.39174">
        <ele>85.400001525879</ele>
        <time>2014-11-23T13:18:40.000Z</time>
      </trkpt>
      <trkpt lat="48.88441" lon="-0.3917">
        <ele>85</ele>
        <time>2014-11-23T13:18:43.000Z</time>
      </trkpt>
      <trkpt lat="48.88441" lon="-0.39168">
        <ele>84.800003051758</ele>
        <time>2014-11-23T13:18:46.000Z</time>
      </trkpt>
      <trkpt lat="48.88441" lon="-0.39164">
        <ele>84.400001525879</ele>
        <time>2014-11-23T13:18:48.000Z</time>
      </trkpt>
      <trkpt lat="48.88441" lon="-0.3916">
        <ele>84.199996948242</ele>
        <time>2014-11-23T13:18:53.000Z</time>
      </trkpt>
      <trkpt lat="48.88443" lon="-0.3916">
        <ele>83.800003051758</ele>
        <time>2014-11-23T13:18:56.000Z</time>
      </trkpt>
      <trkpt lat="48.88445" lon="-0.39159">
        <ele>83.599998474121</ele>
        <time>2014-11-23T13:19:04.000Z</time>
      </trkpt>
      <trkpt lat="48.88447" lon="-0.39156">
        <ele>83.599998474121</ele>
        <time>2014-11-23T13:19:07.000Z</time>
      </trkpt>
      <trkpt lat="48.88448" lon="-0.39154">
        <ele>83.599998474121</ele>
        <time>2014-11-23T13:19:10.000Z</time>
      </trkpt>
      <trkpt lat="48.88449" lon="-0.39154">
        <ele>84.400001525879</ele>
        <time>2014-11-23T13:19:12.000Z</time>
      </trkpt>
      <trkpt lat="48.88451" lon="-0.39154">
        <ele>85.800003051758</ele>
        <time>2014-11-23T13:19:14.000Z</time>
      </trkpt>
      <trkpt lat="48.88453" lon="-0.39155">
        <ele>87</ele>
        <time>2014-11-23T13:19:17.000Z</time>
      </trkpt>
      <trkpt lat="48.88455" lon="-0.39155">
        <ele>88</ele>
        <time>2014-11-23T13:19:19.000Z</time>
      </trkpt>
      <trkpt lat="48.88457" lon="-0.39156">
        <ele>88.800003051758</ele>
        <time>2014-11-23T13:19:22.000Z</time>
      </trkpt>
      <trkpt lat="48.88458" lon="-0.39161">
        <ele>89.199996948242</ele>
        <time>2014-11-23T13:19:25.000Z</time>
      </trkpt>
      <trkpt lat="48.88461" lon="-0.39166">
        <ele>88.800003051758</ele>
        <time>2014-11-23T13:19:30.000Z</time>
      </trkpt>
      <trkpt lat="48.88464" lon="-0.39166">
        <ele>88.400001525879</ele>
        <time>2014-11-23T13:19:33.000Z</time>
      </trkpt>
      <trkpt lat="48.88465" lon="-0.39168">
        <ele>87.400001525879</ele>
        <time>2014-11-23T13:19:36.000Z</time>
      </trkpt>
      <trkpt lat="48.88465" lon="-0.3917">
        <ele>86.400001525879</ele>
        <time>2014-11-23T13:19:39.000Z</time>
      </trkpt>
      <trkpt lat="48.88465" lon="-0.39173">
        <ele>85.599998474121</ele>
        <time>2014-11-23T13:19:42.000Z</time>
      </trkpt>
      <trkpt lat="48.88465" lon="-0.39176">
        <ele>84.800003051758</ele>
        <time>2014-11-23T13:19:44.000Z</time>
      </trkpt>
      <trkpt lat="48.88467" lon="-0.39177">
        <ele>84.599998474121</ele>
        <time>2014-11-23T13:19:46.000Z</time>
      </trkpt>
      <trkpt lat="48.88469" lon="-0.39179">
        <ele>85.599998474121</ele>
        <time>2014-11-23T13:19:49.000Z</time>
      </trkpt>
      <trkpt lat="48.88471" lon="-0.39181">
        <ele>86.800003051758</ele>
        <time>2014-11-23T13:19:52.000Z</time>
      </trkpt>
      <trkpt lat="48.88471" lon="-0.39183">
        <ele>88</ele>
        <time>2014-11-23T13:19:54.000Z</time>
      </trkpt>
      <trkpt lat="48.88472" lon="-0.39186">
        <ele>89.599998474121</ele>
        <time>2014-11-23T13:19:57.000Z</time>
      </trkpt>
      <trkpt lat="48.88475" lon="-0.39189">
        <ele>90</ele>
        <time>2014-11-23T13:20:00.000Z</time>
      </trkpt>
      <trkpt lat="48.88476" lon="-0.3919">
        <ele>89.800003051758</ele>
        <time>2014-11-23T13:20:02.000Z</time>
      </trkpt>
      <trkpt lat="48.88477" lon="-0.39192">
        <ele>89.599998474121</ele>
        <time>2014-11-23T13:20:05.000Z</time>
      </trkpt>
      <trkpt lat="48.8848" lon="-0.39192">
        <ele>89.400001525879</ele>
        <time>2014-11-23T13:20:07.000Z</time>
      </trkpt>
      <trkpt lat="48.88483" lon="-0.39192">
        <ele>88.599998474121</ele>
        <time>2014-11-23T13:20:09.000Z</time>
      </trkpt>
      <trkpt lat="48.88487" lon="-0.39192">
        <ele>88.400001525879</ele>
        <time>2014-11-23T13:20:12.000Z</time>
      </trkpt>
      <trkpt lat="48.88488" lon="-0.39193">
        <ele>88</ele>
        <time>2014-11-23T13:20:14.000Z</time>
      </trkpt>
      <trkpt lat="48.88489" lon="-0.39195">
        <ele>87.800003051758</ele>
        <time>2014-11-23T13:20:16.000Z</time>
      </trkpt>
      <trkpt lat="48.88491" lon="-0.39196">
        <ele>87.599998474121</ele>
        <time>2014-11-23T13:20:19.000Z</time>
      </trkpt>
      <trkpt lat="48.88493" lon="-0.39198">
        <ele>88.599998474121</ele>
        <time>2014-11-23T13:20:22.000Z</time>
      </trkpt>
      <trkpt lat="48.88493" lon="-0.392">
        <ele>90.400001525879</ele>
        <time>2014-11-23T13:20:25.000Z</time>
      </trkpt>
      <trkpt lat="48.88495" lon="-0.39201">
        <ele>92.199996948242</ele>
        <time>2014-11-23T13:20:27.000Z</time>
      </trkpt>
      <trkpt lat="48.88497" lon="-0.39204">
        <ele>93.800003051758</ele>
        <time>2014-11-23T13:20:30.000Z</time>
      </trkpt>
      <trkpt lat="48.88498" lon="-0.39204">
        <ele>95.199996948242</ele>
        <time>2014-11-23T13:20:32.000Z</time>
      </trkpt>
      <trkpt lat="48.885" lon="-0.39206">
        <ele>96.400001525879</ele>
        <time>2014-11-23T13:20:35.000Z</time>
      </trkpt>
      <trkpt lat="48.88502" lon="-0.39206">
        <ele>96.599998474121</ele>
        <time>2014-11-23T13:20:38.000Z</time>
      </trkpt>
      <trkpt lat="48.88504" lon="-0.39205">
        <ele>97.199996948242</ele>
        <time>2014-11-23T13:20:40.000Z</time>
      </trkpt>
      <trkpt lat="48.88506" lon="-0.39205">
        <ele>97.800003051758</ele>
        <time>2014-11-23T13:20:43.000Z</time>
      </trkpt>
      <trkpt lat="48.88507" lon="-0.39205">
        <ele>98.400001525879</ele>
        <time>2014-11-23T13:20:45.000Z</time>
      </trkpt>
      <trkpt lat="48.88511" lon="-0.39204">
        <ele>98.400001525879</ele>
        <time>2014-11-23T13:20:48.000Z</time>
      </trkpt>
      <trkpt lat="48.88512" lon="-0.39203">
        <ele>98.599998474121</ele>
        <time>2014-11-23T13:20:51.000Z</time>
      </trkpt>
      <trkpt lat="48.88514" lon="-0.39204">
        <ele>98.599998474121</ele>
        <time>2014-11-23T13:20:53.000Z</time>
      </trkpt>
      <trkpt lat="48.88514" lon="-0.39206">
        <ele>98.599998474121</ele>
        <time>2014-11-23T13:20:56.000Z</time>
      </trkpt>
      <trkpt lat="48.88516" lon="-0.39208">
        <ele>98.599998474121</ele>
        <time>2014-11-23T13:20:59.000Z</time>
      </trkpt>
      <trkpt lat="48.88517" lon="-0.39208">
        <ele>98.800003051758</ele>
        <time>2014-11-23T13:21:02.000Z</time>
      </trkpt>
      <trkpt lat="48.88519" lon="-0.39207">
        <ele>98.400001525879</ele>
        <time>2014-11-23T13:21:06.000Z</time>
      </trkpt>
      <trkpt lat="48.8852" lon="-0.39208">
        <ele>98.199996948242</ele>
        <time>2014-11-23T13:21:08.000Z</time>
      </trkpt>
      <trkpt lat="48.88523" lon="-0.39208">
        <ele>97.800003051758</ele>
        <time>2014-11-23T13:21:11.000Z</time>
      </trkpt>
      <trkpt lat="48.88526" lon="-0.39205">
        <ele>97.599998474121</ele>
        <time>2014-11-23T13:21:14.000Z</time>
      </trkpt>
      <trkpt lat="48.88528" lon="-0.39204">
        <ele>97.599998474121</ele>
        <time>2014-11-23T13:21:17.000Z</time>
      </trkpt>
      <trkpt lat="48.88531" lon="-0.39204">
        <ele>98.800003051758</ele>
        <time>2014-11-23T13:21:19.000Z</time>
      </trkpt>
      <trkpt lat="48.88533" lon="-0.39205">
        <ele>100</ele>
        <time>2014-11-23T13:21:21.000Z</time>
      </trkpt>
      <trkpt lat="48.88537" lon="-0.39206">
        <ele>101.40000152588</ele>
        <time>2014-11-23T13:21:24.000Z</time>
      </trkpt>
      <trkpt lat="48.88539" lon="-0.39206">
        <ele>102.59999847412</ele>
        <time>2014-11-23T13:21:26.000Z</time>
      </trkpt>
      <trkpt lat="48.88542" lon="-0.39206">
        <ele>103.59999847412</ele>
        <time>2014-11-23T13:21:29.000Z</time>
      </trkpt>
      <trkpt lat="48.88544" lon="-0.39206">
        <ele>104.40000152588</ele>
        <time>2014-11-23T13:21:31.000Z</time>
      </trkpt>
      <trkpt lat="48.88546" lon="-0.39207">
        <ele>105</ele>
        <time>2014-11-23T13:21:33.000Z</time>
      </trkpt>
      <trkpt lat="48.88549" lon="-0.39208">
        <ele>105.40000152588</ele>
        <time>2014-11-23T13:21:36.000Z</time>
      </trkpt>
      <trkpt lat="48.88553" lon="-0.39208">
        <ele>106.19999694824</ele>
        <time>2014-11-23T13:21:39.000Z</time>
      </trkpt>
      <trkpt lat="48.88558" lon="-0.39209">
        <ele>106.80000305176</ele>
        <time>2014-11-23T13:21:42.000Z</time>
      </trkpt>
      <trkpt lat="48.8856" lon="-0.39208">
        <ele>107.40000152588</ele>
        <time>2014-11-23T13:21:44.000Z</time>
      </trkpt>
      <trkpt lat="48.88562" lon="-0.39208">
        <ele>108</ele>
        <time>2014-11-23T13:21:46.000Z</time>
      </trkpt>
      <trkpt lat="48.88563" lon="-0.39209">
        <ele>108.80000305176</ele>
        <time>2014-11-23T13:21:49.000Z</time>
      </trkpt>
      <trkpt lat="48.88564" lon="-0.3921">
        <ele>109</ele>
        <time>2014-11-23T13:21:52.000Z</time>
      </trkpt>
      <trkpt lat="48.88567" lon="-0.3921">
        <ele>109.59999847412</ele>
        <time>2014-11-23T13:21:55.000Z</time>
      </trkpt>
      <trkpt lat="48.88568" lon="-0.39211">
        <ele>110</ele>
        <time>2014-11-23T13:21:58.000Z</time>
      </trkpt>
      <trkpt lat="48.88571" lon="-0.39211">
        <ele>110.59999847412</ele>
        <time>2014-11-23T13:22:02.000Z</time>
      </trkpt>
      <trkpt lat="48.88573" lon="-0.39211">
        <ele>111.19999694824</ele>
        <time>2014-11-23T13:22:05.000Z</time>
      </trkpt>
      <trkpt lat="48.88575" lon="-0.3921">
        <ele>112</ele>
        <time>2014-11-23T13:22:07.000Z</time>
      </trkpt>
      <trkpt lat="48.88578" lon="-0.3921">
        <ele>112.80000305176</ele>
        <time>2014-11-23T13:22:10.000Z</time>
      </trkpt>
      <trkpt lat="48.88579" lon="-0.3921">
        <ele>113.59999847412</ele>
        <time>2014-11-23T13:22:12.000Z</time>
      </trkpt>
      <trkpt lat="48.88581" lon="-0.3921">
        <ele>114.19999694824</ele>
        <time>2014-11-23T13:22:14.000Z</time>
      </trkpt>
      <trkpt lat="48.88584" lon="-0.39209">
        <ele>114.59999847412</ele>
        <time>2014-11-23T13:22:17.000Z</time>
      </trkpt>
      <trkpt lat="48.88586" lon="-0.39209">
        <ele>115</ele>
        <time>2014-11-23T13:22:19.000Z</time>
      </trkpt>
      <trkpt lat="48.88588" lon="-0.39207">
        <ele>115</ele>
        <time>2014-11-23T13:22:21.000Z</time>
      </trkpt>
      <trkpt lat="48.88591" lon="-0.39207">
        <ele>115</ele>
        <time>2014-11-23T13:22:24.000Z</time>
      </trkpt>
      <trkpt lat="48.88593" lon="-0.39207">
        <ele>115</ele>
        <time>2014-11-23T13:22:26.000Z</time>
      </trkpt>
      <trkpt lat="48.88595" lon="-0.39208">
        <ele>115</ele>
        <time>2014-11-23T13:22:28.000Z</time>
      </trkpt>
      <trkpt lat="48.88597" lon="-0.39208">
        <ele>115.19999694824</ele>
        <time>2014-11-23T13:22:31.000Z</time>
      </trkpt>
      <trkpt lat="48.88599" lon="-0.39208">
        <ele>115.40000152588</ele>
        <time>2014-11-23T13:22:33.000Z</time>
      </trkpt>
      <trkpt lat="48.88602" lon="-0.39209">
        <ele>115.59999847412</ele>
        <time>2014-11-23T13:22:36.000Z</time>
      </trkpt>
      <trkpt lat="48.88605" lon="-0.39209">
        <ele>116</ele>
        <time>2014-11-23T13:22:39.000Z</time>
      </trkpt>
      <trkpt lat="48.88607" lon="-0.39209">
        <ele>116.40000152588</ele>
        <time>2014-11-23T13:22:41.000Z</time>
      </trkpt>
      <trkpt lat="48.8861" lon="-0.39208">
        <ele>116.80000305176</ele>
        <time>2014-11-23T13:22:44.000Z</time>
      </trkpt>
      <trkpt lat="48.88614" lon="-0.39208">
        <ele>117.19999694824</ele>
        <time>2014-11-23T13:22:47.000Z</time>
      </trkpt>
      <trkpt lat="48.88617" lon="-0.39208">
        <ele>117.80000305176</ele>
        <time>2014-11-23T13:22:50.000Z</time>
      </trkpt>
      <trkpt lat="48.88619" lon="-0.39208">
        <ele>118</ele>
        <time>2014-11-23T13:22:52.000Z</time>
      </trkpt>
      <trkpt lat="48.88621" lon="-0.39208">
        <ele>118.40000152588</ele>
        <time>2014-11-23T13:22:54.000Z</time>
      </trkpt>
      <trkpt lat="48.88625" lon="-0.39212">
        <ele>118.80000305176</ele>
        <time>2014-11-23T13:22:57.000Z</time>
      </trkpt>
      <trkpt lat="48.88626" lon="-0.39213">
        <ele>119.40000152588</ele>
        <time>2014-11-23T13:22:59.000Z</time>
      </trkpt>
      <trkpt lat="48.8863" lon="-0.39212">
        <ele>120.19999694824</ele>
        <time>2014-11-23T13:23:02.000Z</time>
      </trkpt>
      <trkpt lat="48.88633" lon="-0.39211">
        <ele>121</ele>
        <time>2014-11-23T13:23:05.000Z</time>
      </trkpt>
      <trkpt lat="48.88636" lon="-0.39211">
        <ele>121.59999847412</ele>
        <time>2014-11-23T13:23:07.000Z</time>
      </trkpt>
      <trkpt lat="48.8864" lon="-0.39212">
        <ele>122.19999694824</ele>
        <time>2014-11-23T13:23:10.000Z</time>
      </trkpt>
      <trkpt lat="48.88643" lon="-0.39213">
        <ele>122.59999847412</ele>
        <time>2014-11-23T13:23:13.000Z</time>
      </trkpt>
      <trkpt lat="48.88648" lon="-0.39215">
        <ele>123</ele>
        <time>2014-11-23T13:23:18.000Z</time>
      </trkpt>
      <trkpt lat="48.88651" lon="-0.39215">
        <ele>123.40000152588</ele>
        <time>2014-11-23T13:23:20.000Z</time>
      </trkpt>
      <trkpt lat="48.88654" lon="-0.39215">
        <ele>123.59999847412</ele>
        <time>2014-11-23T13:23:23.000Z</time>
      </trkpt>
      <trkpt lat="48.88655" lon="-0.39216">
        <ele>124</ele>
        <time>2014-11-23T13:23:25.000Z</time>
      </trkpt>
      <trkpt lat="48.88657" lon="-0.39218">
        <ele>124.40000152588</ele>
        <time>2014-11-23T13:23:27.000Z</time>
      </trkpt>
      <trkpt lat="48.88661" lon="-0.3922">
        <ele>124.80000305176</ele>
        <time>2014-11-23T13:23:30.000Z</time>
      </trkpt>
      <trkpt lat="48.88664" lon="-0.3922">
        <ele>125.40000152588</ele>
        <time>2014-11-23T13:23:33.000Z</time>
      </trkpt>
      <trkpt lat="48.88669" lon="-0.39222">
        <ele>126.19999694824</ele>
        <time>2014-11-23T13:23:36.000Z</time>
      </trkpt>
      <trkpt lat="48.88671" lon="-0.39222">
        <ele>126.80000305176</ele>
        <time>2014-11-23T13:23:38.000Z</time>
      </trkpt>
      <trkpt lat="48.88674" lon="-0.39222">
        <ele>127.40000152588</ele>
        <time>2014-11-23T13:23:40.000Z</time>
      </trkpt>
      <trkpt lat="48.88678" lon="-0.39222">
        <ele>127.80000305176</ele>
        <time>2014-11-23T13:23:43.000Z</time>
      </trkpt>
      <trkpt lat="48.88681" lon="-0.39223">
        <ele>128</ele>
        <time>2014-11-23T13:23:46.000Z</time>
      </trkpt>
      <trkpt lat="48.88684" lon="-0.39223">
        <ele>128.19999694824</ele>
        <time>2014-11-23T13:23:49.000Z</time>
      </trkpt>
      <trkpt lat="48.88686" lon="-0.39222">
        <ele>128.60000610352</ele>
        <time>2014-11-23T13:23:51.000Z</time>
      </trkpt>
      <trkpt lat="48.88687" lon="-0.39223">
        <ele>129</ele>
        <time>2014-11-23T13:23:53.000Z</time>
      </trkpt>
      <trkpt lat="48.88689" lon="-0.39224">
        <ele>129.39999389648</ele>
        <time>2014-11-23T13:23:56.000Z</time>
      </trkpt>
      <trkpt lat="48.88692" lon="-0.39225">
        <ele>129.80000305176</ele>
        <time>2014-11-23T13:23:59.000Z</time>
      </trkpt>
      <trkpt lat="48.88695" lon="-0.39225">
        <ele>130.19999694824</ele>
        <time>2014-11-23T13:24:02.000Z</time>
      </trkpt>
      <trkpt lat="48.88699" lon="-0.39228">
        <ele>130.19999694824</ele>
        <time>2014-11-23T13:24:05.000Z</time>
      </trkpt>
      <trkpt lat="48.887" lon="-0.39229">
        <ele>130</ele>
        <time>2014-11-23T13:24:07.000Z</time>
      </trkpt>
      <trkpt lat="48.88704" lon="-0.3923">
        <ele>129.80000305176</ele>
        <time>2014-11-23T13:24:10.000Z</time>
      </trkpt>
      <trkpt lat="48.88707" lon="-0.39231">
        <ele>130</ele>
        <time>2014-11-23T13:24:13.000Z</time>
      </trkpt>
      <trkpt lat="48.88709" lon="-0.39232">
        <ele>130</ele>
        <time>2014-11-23T13:24:15.000Z</time>
      </trkpt>
      <trkpt lat="48.88713" lon="-0.39234">
        <ele>130.19999694824</ele>
        <time>2014-11-23T13:24:18.000Z</time>
      </trkpt>
      <trkpt lat="48.88718" lon="-0.39235">
        <ele>130.80000305176</ele>
        <time>2014-11-23T13:24:21.000Z</time>
      </trkpt>
      <trkpt lat="48.88722" lon="-0.39236">
        <ele>131.60000610352</ele>
        <time>2014-11-23T13:24:24.000Z</time>
      </trkpt>
      <trkpt lat="48.88725" lon="-0.39237">
        <ele>132.19999694824</ele>
        <time>2014-11-23T13:24:26.000Z</time>
      </trkpt>
      <trkpt lat="48.88728" lon="-0.39238">
        <ele>133</ele>
        <time>2014-11-23T13:24:28.000Z</time>
      </trkpt>
      <trkpt lat="48.88729" lon="-0.39239">
        <ele>134</ele>
        <time>2014-11-23T13:24:31.000Z</time>
      </trkpt>
      <trkpt lat="48.88731" lon="-0.39242">
        <ele>134.60000610352</ele>
        <time>2014-11-23T13:24:34.000Z</time>
      </trkpt>
      <trkpt lat="48.88734" lon="-0.39243">
        <ele>135</ele>
        <time>2014-11-23T13:24:37.000Z</time>
      </trkpt>
      <trkpt lat="48.88736" lon="-0.39245">
        <ele>135.19999694824</ele>
        <time>2014-11-23T13:24:39.000Z</time>
      </trkpt>
      <trkpt lat="48.88738" lon="-0.39247">
        <ele>135.39999389648</ele>
        <time>2014-11-23T13:24:42.000Z</time>
      </trkpt>
      <trkpt lat="48.8874" lon="-0.39248">
        <ele>135.60000610352</ele>
        <time>2014-11-23T13:24:44.000Z</time>
      </trkpt>
      <trkpt lat="48.88741" lon="-0.3925">
        <ele>136</ele>
        <time>2014-11-23T13:24:46.000Z</time>
      </trkpt>
      <trkpt lat="48.88744" lon="-0.39252">
        <ele>136.39999389648</ele>
        <time>2014-11-23T13:24:49.000Z</time>
      </trkpt>
      <trkpt lat="48.88746" lon="-0.39252">
        <ele>136.80000305176</ele>
        <time>2014-11-23T13:24:52.000Z</time>
      </trkpt>
      <trkpt lat="48.88749" lon="-0.39253">
        <ele>137.19999694824</ele>
        <time>2014-11-23T13:24:54.000Z</time>
      </trkpt>
      <trkpt lat="48.88753" lon="-0.39253">
        <ele>137.60000610352</ele>
        <time>2014-11-23T13:24:57.000Z</time>
      </trkpt>
      <trkpt lat="48.88757" lon="-0.39254">
        <ele>138.60000610352</ele>
        <time>2014-11-23T13:25:00.000Z</time>
      </trkpt>
      <trkpt lat="48.88762" lon="-0.39255">
        <ele>139.60000610352</ele>
        <time>2014-11-23T13:25:03.000Z</time>
      </trkpt>
      <trkpt lat="48.88765" lon="-0.39256">
        <ele>140.60000610352</ele>
        <time>2014-11-23T13:25:05.000Z</time>
      </trkpt>
      <trkpt lat="48.88767" lon="-0.39257">
        <ele>141.60000610352</ele>
        <time>2014-11-23T13:25:07.000Z</time>
      </trkpt>
      <trkpt lat="48.88768" lon="-0.39257">
        <ele>142.39999389648</ele>
        <time>2014-11-23T13:25:10.000Z</time>
      </trkpt>
      <trkpt lat="48.8877" lon="-0.39258">
        <ele>143</ele>
        <time>2014-11-23T13:25:12.000Z</time>
      </trkpt>
      <trkpt lat="48.88773" lon="-0.3926">
        <ele>143.60000610352</ele>
        <time>2014-11-23T13:25:15.000Z</time>
      </trkpt>
      <trkpt lat="48.88774" lon="-0.39261">
        <ele>144.39999389648</ele>
        <time>2014-11-23T13:25:17.000Z</time>
      </trkpt>
      <trkpt lat="48.88778" lon="-0.39263">
        <ele>145</ele>
        <time>2014-11-23T13:25:20.000Z</time>
      </trkpt>
      <trkpt lat="48.88781" lon="-0.39264">
        <ele>145.60000610352</ele>
        <time>2014-11-23T13:25:26.000Z</time>
      </trkpt>
      <trkpt lat="48.88781" lon="-0.39266">
        <ele>145.80000305176</ele>
        <time>2014-11-23T13:25:29.000Z</time>
      </trkpt>
      <trkpt lat="48.88781" lon="-0.39266">
        <ele>145.80000305176</ele>
        <time>2014-11-23T13:25:49.000Z</time>
      </trkpt>
      <trkpt lat="48.8878" lon="-0.39267">
        <ele>145.80000305176</ele>
        <time>2014-11-23T13:25:52.000Z</time>
      </trkpt>
      <trkpt lat="48.8878" lon="-0.39267">
        <ele>145.80000305176</ele>
        <time>2014-11-23T13:26:12.000Z</time>
      </trkpt>
      <trkpt lat="48.8878" lon="-0.39265">
        <ele>145.60000610352</ele>
        <time>2014-11-23T13:26:32.000Z</time>
      </trkpt>
      <trkpt lat="48.88779" lon="-0.39264">
        <ele>145.60000610352</ele>
        <time>2014-11-23T13:26:49.000Z</time>
      </trkpt>
      <trkpt lat="48.88779" lon="-0.39264">
        <ele>145.60000610352</ele>
        <time>2014-11-23T13:27:09.000Z</time>
      </trkpt>
      <trkpt lat="48.8878" lon="-0.39265">
        <ele>145.39999389648</ele>
        <time>2014-11-23T13:27:22.000Z</time>
      </trkpt>
      <trkpt lat="48.88781" lon="-0.39266">
        <ele>145.39999389648</ele>
        <time>2014-11-23T13:27:24.000Z</time>
      </trkpt>
      <trkpt lat="48.88784" lon="-0.39266">
        <ele>145.60000610352</ele>
        <time>2014-11-23T13:27:26.000Z</time>
      </trkpt>
      <trkpt lat="48.88786" lon="-0.39266">
        <ele>145.80000305176</ele>
        <time>2014-11-23T13:27:29.000Z</time>
      </trkpt>
      <trkpt lat="48.88791" lon="-0.39265">
        <ele>146</ele>
        <time>2014-11-23T13:27:33.000Z</time>
      </trkpt>
      <trkpt lat="48.88794" lon="-0.39263">
        <ele>146.39999389648</ele>
        <time>2014-11-23T13:27:36.000Z</time>
      </trkpt>
      <trkpt lat="48.88797" lon="-0.39261">
        <ele>147</ele>
        <time>2014-11-23T13:27:39.000Z</time>
      </trkpt>
      <trkpt lat="48.888" lon="-0.39259">
        <ele>147.60000610352</ele>
        <time>2014-11-23T13:27:42.000Z</time>
      </trkpt>
      <trkpt lat="48.88802" lon="-0.39255">
        <ele>148.19999694824</ele>
        <time>2014-11-23T13:27:45.000Z</time>
      </trkpt>
      <trkpt lat="48.88803" lon="-0.39253">
        <ele>149</ele>
        <time>2014-11-23T13:27:47.000Z</time>
      </trkpt>
      <trkpt lat="48.88805" lon="-0.39251">
        <ele>149.60000610352</ele>
        <time>2014-11-23T13:27:49.000Z</time>
      </trkpt>
      <trkpt lat="48.88807" lon="-0.39248">
        <ele>150</ele>
        <time>2014-11-23T13:27:52.000Z</time>
      </trkpt>
      <trkpt lat="48.8881" lon="-0.39244">
        <ele>150.19999694824</ele>
        <time>2014-11-23T13:27:55.000Z</time>
      </trkpt>
      <trkpt lat="48.88811" lon="-0.39241">
        <ele>150.39999389648</ele>
        <time>2014-11-23T13:27:57.000Z</time>
      </trkpt>
      <trkpt lat="48.88816" lon="-0.39237">
        <ele>150.39999389648</ele>
        <time>2014-11-23T13:28:00.000Z</time>
      </trkpt>
      <trkpt lat="48.88818" lon="-0.39235">
        <ele>150.19999694824</ele>
        <time>2014-11-23T13:28:02.000Z</time>
      </trkpt>
      <trkpt lat="48.88822" lon="-0.39231">
        <ele>150</ele>
        <time>2014-11-23T13:28:05.000Z</time>
      </trkpt>
      <trkpt lat="48.88826" lon="-0.39225">
        <ele>149.60000610352</ele>
        <time>2014-11-23T13:28:11.000Z</time>
      </trkpt>
      <trkpt lat="48.88828" lon="-0.39223">
        <ele>149.19999694824</ele>
        <time>2014-11-23T13:28:14.000Z</time>
      </trkpt>
      <trkpt lat="48.8883" lon="-0.39222">
        <ele>148.80000305176</ele>
        <time>2014-11-23T13:28:16.000Z</time>
      </trkpt>
      <trkpt lat="48.88832" lon="-0.39221">
        <ele>148.60000610352</ele>
        <time>2014-11-23T13:28:19.000Z</time>
      </trkpt>
      <trkpt lat="48.88834" lon="-0.39221">
        <ele>148.60000610352</ele>
        <time>2014-11-23T13:28:21.000Z</time>
      </trkpt>
      <trkpt lat="48.88839" lon="-0.3922">
        <ele>149</ele>
        <time>2014-11-23T13:28:24.000Z</time>
      </trkpt>
      <trkpt lat="48.88841" lon="-0.39219">
        <ele>149.60000610352</ele>
        <time>2014-11-23T13:28:26.000Z</time>
      </trkpt>
      <trkpt lat="48.88843" lon="-0.39219">
        <ele>150.39999389648</ele>
        <time>2014-11-23T13:28:28.000Z</time>
      </trkpt>
      <trkpt lat="48.88846" lon="-0.3922">
        <ele>151</ele>
        <time>2014-11-23T13:28:31.000Z</time>
      </trkpt>
      <trkpt lat="48.88849" lon="-0.39221">
        <ele>151.39999389648</ele>
        <time>2014-11-23T13:28:34.000Z</time>
      </trkpt>
      <trkpt lat="48.88851" lon="-0.39221">
        <ele>151.60000610352</ele>
        <time>2014-11-23T13:28:36.000Z</time>
      </trkpt>
      <trkpt lat="48.88855" lon="-0.39221">
        <ele>151.39999389648</ele>
        <time>2014-11-23T13:28:41.000Z</time>
      </trkpt>
      <trkpt lat="48.88858" lon="-0.39222">
        <ele>151.19999694824</ele>
        <time>2014-11-23T13:28:44.000Z</time>
      </trkpt>
      <trkpt lat="48.88863" lon="-0.39223">
        <ele>151.39999389648</ele>
        <time>2014-11-23T13:28:49.000Z</time>
      </trkpt>
      <trkpt lat="48.88865" lon="-0.39223">
        <ele>151.80000305176</ele>
        <time>2014-11-23T13:28:51.000Z</time>
      </trkpt>
      <trkpt lat="48.88868" lon="-0.39224">
        <ele>152.39999389648</ele>
        <time>2014-11-23T13:28:54.000Z</time>
      </trkpt>
      <trkpt lat="48.8887" lon="-0.39224">
        <ele>153</ele>
        <time>2014-11-23T13:28:56.000Z</time>
      </trkpt>
      <trkpt lat="48.88873" lon="-0.39225">
        <ele>153.39999389648</ele>
        <time>2014-11-23T13:28:59.000Z</time>
      </trkpt>
      <trkpt lat="48.88877" lon="-0.39226">
        <ele>154.19999694824</ele>
        <time>2014-11-23T13:29:02.000Z</time>
      </trkpt>
      <trkpt lat="48.8888" lon="-0.39226">
        <ele>154.80000305176</ele>
        <time>2014-11-23T13:29:05.000Z</time>
      </trkpt>
      <trkpt lat="48.88883" lon="-0.39226">
        <ele>155.19999694824</ele>
        <time>2014-11-23T13:29:08.000Z</time>
      </trkpt>
      <trkpt lat="48.88885" lon="-0.39226">
        <ele>155.60000610352</ele>
        <time>2014-11-23T13:29:10.000Z</time>
      </trkpt>
      <trkpt lat="48.88889" lon="-0.39226">
        <ele>156.19999694824</ele>
        <time>2014-11-23T13:29:13.000Z</time>
      </trkpt>
      <trkpt lat="48.88891" lon="-0.39226">
        <ele>156.39999389648</ele>
        <time>2014-11-23T13:29:15.000Z</time>
      </trkpt>
      <trkpt lat="48.88895" lon="-0.39226">
        <ele>156.80000305176</ele>
        <time>2014-11-23T13:29:18.000Z</time>
      </trkpt>
      <trkpt lat="48.88897" lon="-0.39225">
        <ele>157</ele>
        <time>2014-11-23T13:29:20.000Z</time>
      </trkpt>
      <trkpt lat="48.889" lon="-0.39225">
        <ele>157.19999694824</ele>
        <time>2014-11-23T13:29:22.000Z</time>
      </trkpt>
      <trkpt lat="48.88904" lon="-0.39226">
        <ele>157.39999389648</ele>
        <time>2014-11-23T13:29:25.000Z</time>
      </trkpt>
      <trkpt lat="48.88908" lon="-0.39228">
        <ele>157.60000610352</ele>
        <time>2014-11-23T13:29:28.000Z</time>
      </trkpt>
      <trkpt lat="48.88911" lon="-0.39229">
        <ele>158</ele>
        <time>2014-11-23T13:29:33.000Z</time>
      </trkpt>
      <trkpt lat="48.88913" lon="-0.39228">
        <ele>158.60000610352</ele>
        <time>2014-11-23T13:29:36.000Z</time>
      </trkpt>
      <trkpt lat="48.88916" lon="-0.39229">
        <ele>159</ele>
        <time>2014-11-23T13:29:39.000Z</time>
      </trkpt>
      <trkpt lat="48.88919" lon="-0.3923">
        <ele>159.60000610352</ele>
        <time>2014-11-23T13:29:42.000Z</time>
      </trkpt>
      <trkpt lat="48.88921" lon="-0.3923">
        <ele>160</ele>
        <time>2014-11-23T13:29:44.000Z</time>
      </trkpt>
      <trkpt lat="48.88926" lon="-0.3923">
        <ele>160.39999389648</ele>
        <time>2014-11-23T13:29:47.000Z</time>
      </trkpt>
      <trkpt lat="48.88931" lon="-0.3923">
        <ele>160.60000610352</ele>
        <time>2014-11-23T13:29:50.000Z</time>
      </trkpt>
      <trkpt lat="48.88937" lon="-0.39229">
        <ele>161.19999694824</ele>
        <time>2014-11-23T13:29:53.000Z</time>
      </trkpt>
      <trkpt lat="48.88941" lon="-0.39227">
        <ele>161.60000610352</ele>
        <time>2014-11-23T13:29:56.000Z</time>
      </trkpt>
      <trkpt lat="48.88943" lon="-0.39227">
        <ele>162.19999694824</ele>
        <time>2014-11-23T13:29:58.000Z</time>
      </trkpt>
      <trkpt lat="48.88945" lon="-0.39226">
        <ele>162.60000610352</ele>
        <time>2014-11-23T13:30:00.000Z</time>
      </trkpt>
      <trkpt lat="48.88948" lon="-0.39225">
        <ele>162.80000305176</ele>
        <time>2014-11-23T13:30:02.000Z</time>
      </trkpt>
      <trkpt lat="48.88953" lon="-0.39224">
        <ele>163</ele>
        <time>2014-11-23T13:30:05.000Z</time>
      </trkpt>
      <trkpt lat="48.88955" lon="-0.39224">
        <ele>163.19999694824</ele>
        <time>2014-11-23T13:30:07.000Z</time>
      </trkpt>
      <trkpt lat="48.88958" lon="-0.39223">
        <ele>163.19999694824</ele>
        <time>2014-11-23T13:30:09.000Z</time>
      </trkpt>
      <trkpt lat="48.8896" lon="-0.39222">
        <ele>163.19999694824</ele>
        <time>2014-11-23T13:30:11.000Z</time>
      </trkpt>
      <trkpt lat="48.88961" lon="-0.39221">
        <ele>163.60000610352</ele>
        <time>2014-11-23T13:30:14.000Z</time>
      </trkpt>
      <trkpt lat="48.88965" lon="-0.3922">
        <ele>164</ele>
        <time>2014-11-23T13:30:16.000Z</time>
      </trkpt>
      <trkpt lat="48.88968" lon="-0.3922">
        <ele>164.39999389648</ele>
        <time>2014-11-23T13:30:19.000Z</time>
      </trkpt>
      <trkpt lat="48.88971" lon="-0.3922">
        <ele>165.19999694824</ele>
        <time>2014-11-23T13:30:22.000Z</time>
      </trkpt>
      <trkpt lat="48.88974" lon="-0.3922">
        <ele>166.39999389648</ele>
        <time>2014-11-23T13:30:25.000Z</time>
      </trkpt>
      <trkpt lat="48.88976" lon="-0.3922">
        <ele>167.39999389648</ele>
        <time>2014-11-23T13:30:27.000Z</time>
      </trkpt>
      <trkpt lat="48.8898" lon="-0.3922">
        <ele>168.19999694824</ele>
        <time>2014-11-23T13:30:30.000Z</time>
      </trkpt>
      <trkpt lat="48.88983" lon="-0.39219">
        <ele>169.19999694824</ele>
        <time>2014-11-23T13:30:32.000Z</time>
      </trkpt>
      <trkpt lat="48.88984" lon="-0.39219">
        <ele>170.19999694824</ele>
        <time>2014-11-23T13:30:34.000Z</time>
      </trkpt>
      <trkpt lat="48.88985" lon="-0.39221">
        <ele>171</ele>
        <time>2014-11-23T13:30:36.000Z</time>
      </trkpt>
      <trkpt lat="48.88989" lon="-0.39222">
        <ele>171.80000305176</ele>
        <time>2014-11-23T13:30:39.000Z</time>
      </trkpt>
      <trkpt lat="48.88993" lon="-0.39222">
        <ele>172.60000610352</ele>
        <time>2014-11-23T13:30:41.000Z</time>
      </trkpt>
      <trkpt lat="48.88997" lon="-0.39222">
        <ele>173.19999694824</ele>
        <time>2014-11-23T13:30:44.000Z</time>
      </trkpt>
      <trkpt lat="48.89001" lon="-0.39222">
        <ele>173.39999389648</ele>
        <time>2014-11-23T13:30:47.000Z</time>
      </trkpt>
      <trkpt lat="48.89005" lon="-0.39222">
        <ele>173.39999389648</ele>
        <time>2014-11-23T13:30:50.000Z</time>
      </trkpt>
      <trkpt lat="48.89014" lon="-0.39223">
        <ele>173.60000610352</ele>
        <time>2014-11-23T13:30:56.000Z</time>
      </trkpt>
      <trkpt lat="48.89016" lon="-0.39222">
        <ele>173.80000305176</ele>
        <time>2014-11-23T13:30:58.000Z</time>
      </trkpt>
      <trkpt lat="48.89017" lon="-0.39223">
        <ele>174.19999694824</ele>
        <time>2014-11-23T13:31:01.000Z</time>
      </trkpt>
      <trkpt lat="48.89022" lon="-0.39222">
        <ele>174.60000610352</ele>
        <time>2014-11-23T13:31:04.000Z</time>
      </trkpt>
      <trkpt lat="48.89024" lon="-0.3922">
        <ele>175.19999694824</ele>
        <time>2014-11-23T13:31:06.000Z</time>
      </trkpt>
      <trkpt lat="48.89027" lon="-0.39218">
        <ele>175.39999389648</ele>
        <time>2014-11-23T13:31:09.000Z</time>
      </trkpt>
      <trkpt lat="48.8903" lon="-0.39217">
        <ele>175.60000610352</ele>
        <time>2014-11-23T13:31:12.000Z</time>
      </trkpt>
      <trkpt lat="48.89033" lon="-0.39217">
        <ele>176</ele>
        <time>2014-11-23T13:31:15.000Z</time>
      </trkpt>
      <trkpt lat="48.8904" lon="-0.39217">
        <ele>176.60000610352</ele>
        <time>2014-11-23T13:31:18.000Z</time>
      </trkpt>
      <trkpt lat="48.89043" lon="-0.39216">
        <ele>177</ele>
        <time>2014-11-23T13:31:20.000Z</time>
      </trkpt>
      <trkpt lat="48.89045" lon="-0.39215">
        <ele>177.19999694824</ele>
        <time>2014-11-23T13:31:22.000Z</time>
      </trkpt>
      <trkpt lat="48.89047" lon="-0.39214">
        <ele>177.39999389648</ele>
        <time>2014-11-23T13:31:24.000Z</time>
      </trkpt>
      <trkpt lat="48.89051" lon="-0.39211">
        <ele>177.39999389648</ele>
        <time>2014-11-23T13:31:29.000Z</time>
      </trkpt>
      <trkpt lat="48.89054" lon="-0.39209">
        <ele>177.19999694824</ele>
        <time>2014-11-23T13:31:31.000Z</time>
      </trkpt>
      <trkpt lat="48.89058" lon="-0.39207">
        <ele>177.39999389648</ele>
        <time>2014-11-23T13:31:34.000Z</time>
      </trkpt>
      <trkpt lat="48.89062" lon="-0.39207">
        <ele>177.80000305176</ele>
        <time>2014-11-23T13:31:36.000Z</time>
      </trkpt>
      <trkpt lat="48.89067" lon="-0.39206">
        <ele>178.19999694824</ele>
        <time>2014-11-23T13:31:39.000Z</time>
      </trkpt>
      <trkpt lat="48.8907" lon="-0.39205">
        <ele>178.39999389648</ele>
        <time>2014-11-23T13:31:41.000Z</time>
      </trkpt>
      <trkpt lat="48.89075" lon="-0.39205">
        <ele>179</ele>
        <time>2014-11-23T13:31:44.000Z</time>
      </trkpt>
      <trkpt lat="48.89079" lon="-0.39203">
        <ele>179.19999694824</ele>
        <time>2014-11-23T13:31:47.000Z</time>
      </trkpt>
      <trkpt lat="48.89081" lon="-0.392">
        <ele>179.19999694824</ele>
        <time>2014-11-23T13:31:50.000Z</time>
      </trkpt>
      <trkpt lat="48.89083" lon="-0.39199">
        <ele>179.19999694824</ele>
        <time>2014-11-23T13:31:52.000Z</time>
      </trkpt>
      <trkpt lat="48.89088" lon="-0.39196">
        <ele>179.60000610352</ele>
        <time>2014-11-23T13:31:55.000Z</time>
      </trkpt>
      <trkpt lat="48.89091" lon="-0.39195">
        <ele>179.39999389648</ele>
        <time>2014-11-23T13:31:57.000Z</time>
      </trkpt>
      <trkpt lat="48.89096" lon="-0.39193">
        <ele>179.60000610352</ele>
        <time>2014-11-23T13:32:00.000Z</time>
      </trkpt>
      <trkpt lat="48.891" lon="-0.39191">
        <ele>180</ele>
        <time>2014-11-23T13:32:03.000Z</time>
      </trkpt>
      <trkpt lat="48.89105" lon="-0.3919">
        <ele>180.39999389648</ele>
        <time>2014-11-23T13:32:05.000Z</time>
      </trkpt>
      <trkpt lat="48.89111" lon="-0.39189">
        <ele>180.80000305176</ele>
        <time>2014-11-23T13:32:09.000Z</time>
      </trkpt>
      <trkpt lat="48.89123" lon="-0.39184">
        <ele>181.19999694824</ele>
        <time>2014-11-23T13:32:18.000Z</time>
      </trkpt>
      <trkpt lat="48.89126" lon="-0.3918">
        <ele>181.60000610352</ele>
        <time>2014-11-23T13:32:21.000Z</time>
      </trkpt>
      <trkpt lat="48.89128" lon="-0.39177">
        <ele>181.80000305176</ele>
        <time>2014-11-23T13:32:24.000Z</time>
      </trkpt>
      <trkpt lat="48.89131" lon="-0.39175">
        <ele>182.19999694824</ele>
        <time>2014-11-23T13:32:26.000Z</time>
      </trkpt>
      <trkpt lat="48.89135" lon="-0.39172">
        <ele>182.60000610352</ele>
        <time>2014-11-23T13:32:29.000Z</time>
      </trkpt>
      <trkpt lat="48.89137" lon="-0.3917">
        <ele>182.80000305176</ele>
        <time>2014-11-23T13:32:31.000Z</time>
      </trkpt>
      <trkpt lat="48.8914" lon="-0.39167">
        <ele>183.60000610352</ele>
        <time>2014-11-23T13:32:33.000Z</time>
      </trkpt>
      <trkpt lat="48.89143" lon="-0.39166">
        <ele>184.80000305176</ele>
        <time>2014-11-23T13:32:36.000Z</time>
      </trkpt>
      <trkpt lat="48.89147" lon="-0.39163">
        <ele>185.80000305176</ele>
        <time>2014-11-23T13:32:39.000Z</time>
      </trkpt>
      <trkpt lat="48.89149" lon="-0.39162">
        <ele>186.80000305176</ele>
        <time>2014-11-23T13:32:41.000Z</time>
      </trkpt>
      <trkpt lat="48.89152" lon="-0.3916">
        <ele>187.80000305176</ele>
        <time>2014-11-23T13:32:43.000Z</time>
      </trkpt>
      <trkpt lat="48.89155" lon="-0.39159">
        <ele>188.19999694824</ele>
        <time>2014-11-23T13:32:46.000Z</time>
      </trkpt>
      <trkpt lat="48.89159" lon="-0.39157">
        <ele>188.60000610352</ele>
        <time>2014-11-23T13:32:49.000Z</time>
      </trkpt>
      <trkpt lat="48.89162" lon="-0.39156">
        <ele>189.39999389648</ele>
        <time>2014-11-23T13:32:51.000Z</time>
      </trkpt>
      <trkpt lat="48.89165" lon="-0.39155">
        <ele>190</ele>
        <time>2014-11-23T13:32:54.000Z</time>
      </trkpt>
      <trkpt lat="48.89167" lon="-0.39153">
        <ele>190.60000610352</ele>
        <time>2014-11-23T13:32:56.000Z</time>
      </trkpt>
      <trkpt lat="48.8917" lon="-0.39151">
        <ele>191</ele>
        <time>2014-11-23T13:32:59.000Z</time>
      </trkpt>
      <trkpt lat="48.89171" lon="-0.39151">
        <ele>190.80000305176</ele>
        <time>2014-11-23T13:33:01.000Z</time>
      </trkpt>
      <trkpt lat="48.89172" lon="-0.3915">
        <ele>190.19999694824</ele>
        <time>2014-11-23T13:33:03.000Z</time>
      </trkpt>
      <trkpt lat="48.89173" lon="-0.39147">
        <ele>189.60000610352</ele>
        <time>2014-11-23T13:33:06.000Z</time>
      </trkpt>
      <trkpt lat="48.89174" lon="-0.39149">
        <ele>188.60000610352</ele>
        <time>2014-11-23T13:33:14.000Z</time>
      </trkpt>
      <trkpt lat="48.89175" lon="-0.39153">
        <ele>188</ele>
        <time>2014-11-23T13:33:17.000Z</time>
      </trkpt>
      <trkpt lat="48.89177" lon="-0.39156">
        <ele>187.60000610352</ele>
        <time>2014-11-23T13:33:19.000Z</time>
      </trkpt>
      <trkpt lat="48.89177" lon="-0.3916">
        <ele>186.80000305176</ele>
        <time>2014-11-23T13:33:21.000Z</time>
      </trkpt>
      <trkpt lat="48.89177" lon="-0.39165">
        <ele>185.80000305176</ele>
        <time>2014-11-23T13:33:24.000Z</time>
      </trkpt>
      <trkpt lat="48.89179" lon="-0.39168">
        <ele>185.19999694824</ele>
        <time>2014-11-23T13:33:26.000Z</time>
      </trkpt>
      <trkpt lat="48.89182" lon="-0.39172">
        <ele>184.19999694824</ele>
        <time>2014-11-23T13:33:29.000Z</time>
      </trkpt>
      <trkpt lat="48.89184" lon="-0.39178">
        <ele>182.80000305176</ele>
        <time>2014-11-23T13:33:32.000Z</time>
      </trkpt>
      <trkpt lat="48.89186" lon="-0.39183">
        <ele>182.19999694824</ele>
        <time>2014-11-23T13:33:35.000Z</time>
      </trkpt>
      <trkpt lat="48.89188" lon="-0.39185">
        <ele>181.60000610352</ele>
        <time>2014-11-23T13:33:37.000Z</time>
      </trkpt>
      <trkpt lat="48.89191" lon="-0.39189">
        <ele>181</ele>
        <time>2014-11-23T13:33:40.000Z</time>
      </trkpt>
      <trkpt lat="48.89193" lon="-0.39191">
        <ele>180.39999389648</ele>
        <time>2014-11-23T13:33:42.000Z</time>
      </trkpt>
      <trkpt lat="48.89198" lon="-0.39198">
        <ele>179.80000305176</ele>
        <time>2014-11-23T13:33:47.000Z</time>
      </trkpt>
      <trkpt lat="48.89199" lon="-0.39203">
        <ele>179.19999694824</ele>
        <time>2014-11-23T13:33:50.000Z</time>
      </trkpt>
      <trkpt lat="48.89199" lon="-0.39208">
        <ele>178.39999389648</ele>
        <time>2014-11-23T13:33:52.000Z</time>
      </trkpt>
      <trkpt lat="48.89201" lon="-0.39212">
        <ele>177.80000305176</ele>
        <time>2014-11-23T13:33:54.000Z</time>
      </trkpt>
      <trkpt lat="48.89204" lon="-0.39217">
        <ele>177.19999694824</ele>
        <time>2014-11-23T13:33:57.000Z</time>
      </trkpt>
      <trkpt lat="48.89207" lon="-0.39222">
        <ele>177</ele>
        <time>2014-11-23T13:34:00.000Z</time>
      </trkpt>
      <trkpt lat="48.89207" lon="-0.39226">
        <ele>177</ele>
        <time>2014-11-23T13:34:02.000Z</time>
      </trkpt>
      <trkpt lat="48.89209" lon="-0.39233">
        <ele>176.60000610352</ele>
        <time>2014-11-23T13:34:05.000Z</time>
      </trkpt>
      <trkpt lat="48.89211" lon="-0.39235">
        <ele>176.39999389648</ele>
        <time>2014-11-23T13:34:07.000Z</time>
      </trkpt>
      <trkpt lat="48.89213" lon="-0.39238">
        <ele>176.19999694824</ele>
        <time>2014-11-23T13:34:09.000Z</time>
      </trkpt>
      <trkpt lat="48.89216" lon="-0.3924">
        <ele>176</ele>
        <time>2014-11-23T13:34:11.000Z</time>
      </trkpt>
      <trkpt lat="48.89219" lon="-0.39245">
        <ele>175.60000610352</ele>
        <time>2014-11-23T13:34:14.000Z</time>
      </trkpt>
      <trkpt lat="48.8922" lon="-0.39249">
        <ele>175.80000305176</ele>
        <time>2014-11-23T13:34:16.000Z</time>
      </trkpt>
      <trkpt lat="48.89223" lon="-0.39253">
        <ele>175.60000610352</ele>
        <time>2014-11-23T13:34:19.000Z</time>
      </trkpt>
      <trkpt lat="48.89227" lon="-0.39254">
        <ele>175.39999389648</ele>
        <time>2014-11-23T13:34:22.000Z</time>
      </trkpt>
      <trkpt lat="48.8923" lon="-0.39256">
        <ele>175.19999694824</ele>
        <time>2014-11-23T13:34:25.000Z</time>
      </trkpt>
      <trkpt lat="48.89234" lon="-0.39259">
        <ele>175.19999694824</ele>
        <time>2014-11-23T13:34:28.000Z</time>
      </trkpt>
      <trkpt lat="48.89239" lon="-0.39261">
        <ele>174.60000610352</ele>
        <time>2014-11-23T13:34:31.000Z</time>
      </trkpt>
      <trkpt lat="48.89244" lon="-0.39263">
        <ele>174</ele>
        <time>2014-11-23T13:34:34.000Z</time>
      </trkpt>
      <trkpt lat="48.89249" lon="-0.39263">
        <ele>173.39999389648</ele>
        <time>2014-11-23T13:34:37.000Z</time>
      </trkpt>
      <trkpt lat="48.89254" lon="-0.39261">
        <ele>172.80000305176</ele>
        <time>2014-11-23T13:34:40.000Z</time>
      </trkpt>
      <trkpt lat="48.89257" lon="-0.3926">
        <ele>172.19999694824</ele>
        <time>2014-11-23T13:34:42.000Z</time>
      </trkpt>
      <trkpt lat="48.89263" lon="-0.39261">
        <ele>172.19999694824</ele>
        <time>2014-11-23T13:34:45.000Z</time>
      </trkpt>
      <trkpt lat="48.89266" lon="-0.39263">
        <ele>172.39999389648</ele>
        <time>2014-11-23T13:34:47.000Z</time>
      </trkpt>
      <trkpt lat="48.8927" lon="-0.39263">
        <ele>172.60000610352</ele>
        <time>2014-11-23T13:34:49.000Z</time>
      </trkpt>
      <trkpt lat="48.89273" lon="-0.39264">
        <ele>172.80000305176</ele>
        <time>2014-11-23T13:34:51.000Z</time>
      </trkpt>
      <trkpt lat="48.89279" lon="-0.39266">
        <ele>173</ele>
        <time>2014-11-23T13:34:54.000Z</time>
      </trkpt>
      <trkpt lat="48.89283" lon="-0.39266">
        <ele>172.80000305176</ele>
        <time>2014-11-23T13:34:57.000Z</time>
      </trkpt>
      <trkpt lat="48.89289" lon="-0.39266">
        <ele>172.80000305176</ele>
        <time>2014-11-23T13:35:00.000Z</time>
      </trkpt>
      <trkpt lat="48.89292" lon="-0.39266">
        <ele>172.60000610352</ele>
        <time>2014-11-23T13:35:02.000Z</time>
      </trkpt>
      <trkpt lat="48.89296" lon="-0.39266">
        <ele>172.39999389648</ele>
        <time>2014-11-23T13:35:07.000Z</time>
      </trkpt>
      <trkpt lat="48.89303" lon="-0.39268">
        <ele>172.19999694824</ele>
        <time>2014-11-23T13:35:13.000Z</time>
      </trkpt>
      <trkpt lat="48.89305" lon="-0.39269">
        <ele>172.19999694824</ele>
        <time>2014-11-23T13:35:15.000Z</time>
      </trkpt>
      <trkpt lat="48.89307" lon="-0.39271">
        <ele>171.80000305176</ele>
        <time>2014-11-23T13:35:17.000Z</time>
      </trkpt>
      <trkpt lat="48.8931" lon="-0.39272">
        <ele>171.60000610352</ele>
        <time>2014-11-23T13:35:20.000Z</time>
      </trkpt>
      <trkpt lat="48.89314" lon="-0.39272">
        <ele>171.19999694824</ele>
        <time>2014-11-23T13:35:22.000Z</time>
      </trkpt>
      <trkpt lat="48.89316" lon="-0.39272">
        <ele>170.80000305176</ele>
        <time>2014-11-23T13:35:24.000Z</time>
      </trkpt>
      <trkpt lat="48.89319" lon="-0.3927">
        <ele>170.60000610352</ele>
        <time>2014-11-23T13:35:26.000Z</time>
      </trkpt>
      <trkpt lat="48.89322" lon="-0.39267">
        <ele>170.80000305176</ele>
        <time>2014-11-23T13:35:29.000Z</time>
      </trkpt>
      <trkpt lat="48.89326" lon="-0.39268">
        <ele>170.80000305176</ele>
        <time>2014-11-23T13:35:32.000Z</time>
      </trkpt>
      <trkpt lat="48.8933" lon="-0.39269">
        <ele>170.60000610352</ele>
        <time>2014-11-23T13:35:35.000Z</time>
      </trkpt>
      <trkpt lat="48.89335" lon="-0.3927">
        <ele>170.39999389648</ele>
        <time>2014-11-23T13:35:38.000Z</time>
      </trkpt>
      <trkpt lat="48.89338" lon="-0.39271">
        <ele>169.80000305176</ele>
        <time>2014-11-23T13:35:41.000Z</time>
      </trkpt>
      <trkpt lat="48.89342" lon="-0.39271">
        <ele>169</ele>
        <time>2014-11-23T13:35:44.000Z</time>
      </trkpt>
      <trkpt lat="48.89344" lon="-0.39272">
        <ele>168.39999389648</ele>
        <time>2014-11-23T13:35:46.000Z</time>
      </trkpt>
      <trkpt lat="48.89347" lon="-0.39271">
        <ele>167.80000305176</ele>
        <time>2014-11-23T13:35:49.000Z</time>
      </trkpt>
      <trkpt lat="48.89349" lon="-0.39271">
        <ele>167.39999389648</ele>
        <time>2014-11-23T13:35:51.000Z</time>
      </trkpt>
      <trkpt lat="48.89351" lon="-0.39271">
        <ele>167.39999389648</ele>
        <time>2014-11-23T13:35:53.000Z</time>
      </trkpt>
      <trkpt lat="48.89353" lon="-0.39271">
        <ele>167.39999389648</ele>
        <time>2014-11-23T13:35:55.000Z</time>
      </trkpt>
      <trkpt lat="48.89356" lon="-0.39271">
        <ele>167.19999694824</ele>
        <time>2014-11-23T13:35:57.000Z</time>
      </trkpt>
      <trkpt lat="48.8936" lon="-0.3927">
        <ele>167.19999694824</ele>
        <time>2014-11-23T13:36:01.000Z</time>
      </trkpt>
      <trkpt lat="48.89363" lon="-0.39269">
        <ele>167</ele>
        <time>2014-11-23T13:36:03.000Z</time>
      </trkpt>
      <trkpt lat="48.89366" lon="-0.3927">
        <ele>166.60000610352</ele>
        <time>2014-11-23T13:36:06.000Z</time>
      </trkpt>
      <trkpt lat="48.89368" lon="-0.39272">
        <ele>166.19999694824</ele>
        <time>2014-11-23T13:36:09.000Z</time>
      </trkpt>
      <trkpt lat="48.8937" lon="-0.39274">
        <ele>166</ele>
        <time>2014-11-23T13:36:11.000Z</time>
      </trkpt>
      <trkpt lat="48.89373" lon="-0.39281">
        <ele>165.80000305176</ele>
        <time>2014-11-23T13:36:15.000Z</time>
      </trkpt>
      <trkpt lat="48.89373" lon="-0.39286">
        <ele>165.60000610352</ele>
        <time>2014-11-23T13:36:18.000Z</time>
      </trkpt>
      <trkpt lat="48.89372" lon="-0.39291">
        <ele>165.60000610352</ele>
        <time>2014-11-23T13:36:21.000Z</time>
      </trkpt>
      <trkpt lat="48.8937" lon="-0.39296">
        <ele>165.39999389648</ele>
        <time>2014-11-23T13:36:23.000Z</time>
      </trkpt>
      <trkpt lat="48.89367" lon="-0.393">
        <ele>165.39999389648</ele>
        <time>2014-11-23T13:36:25.000Z</time>
      </trkpt>
      <trkpt lat="48.8936" lon="-0.39309">
        <ele>165.19999694824</ele>
        <time>2014-11-23T13:36:31.000Z</time>
      </trkpt>
      <trkpt lat="48.89358" lon="-0.39312">
        <ele>164.80000305176</ele>
        <time>2014-11-23T13:36:33.000Z</time>
      </trkpt>
      <trkpt lat="48.89352" lon="-0.39318">
        <ele>164.39999389648</ele>
        <time>2014-11-23T13:36:39.000Z</time>
      </trkpt>
      <trkpt lat="48.89349" lon="-0.39321">
        <ele>164.39999389648</ele>
        <time>2014-11-23T13:36:41.000Z</time>
      </trkpt>
      <trkpt lat="48.8934" lon="-0.39331">
        <ele>164.19999694824</ele>
        <time>2014-11-23T13:36:50.000Z</time>
      </trkpt>
      <trkpt lat="48.8934" lon="-0.39334">
        <ele>164</ele>
        <time>2014-11-23T13:36:52.000Z</time>
      </trkpt>
      <trkpt lat="48.89338" lon="-0.3934">
        <ele>163.60000610352</ele>
        <time>2014-11-23T13:36:55.000Z</time>
      </trkpt>
      <trkpt lat="48.89336" lon="-0.39343">
        <ele>163.19999694824</ele>
        <time>2014-11-23T13:36:57.000Z</time>
      </trkpt>
      <trkpt lat="48.89333" lon="-0.39345">
        <ele>162.39999389648</ele>
        <time>2014-11-23T13:37:00.000Z</time>
      </trkpt>
      <trkpt lat="48.8933" lon="-0.39347">
        <ele>161.39999389648</ele>
        <time>2014-11-23T13:37:03.000Z</time>
      </trkpt>
      <trkpt lat="48.89327" lon="-0.39349">
        <ele>160.60000610352</ele>
        <time>2014-11-23T13:37:05.000Z</time>
      </trkpt>
      <trkpt lat="48.89325" lon="-0.39351">
        <ele>159.60000610352</ele>
        <time>2014-11-23T13:37:07.000Z</time>
      </trkpt>
      <trkpt lat="48.89323" lon="-0.39353">
        <ele>158.60000610352</ele>
        <time>2014-11-23T13:37:09.000Z</time>
      </trkpt>
      <trkpt lat="48.89319" lon="-0.39356">
        <ele>157.80000305176</ele>
        <time>2014-11-23T13:37:12.000Z</time>
      </trkpt>
      <trkpt lat="48.89316" lon="-0.3936">
        <ele>157.19999694824</ele>
        <time>2014-11-23T13:37:15.000Z</time>
      </trkpt>
      <trkpt lat="48.89314" lon="-0.39365">
        <ele>156.80000305176</ele>
        <time>2014-11-23T13:37:18.000Z</time>
      </trkpt>
      <trkpt lat="48.89311" lon="-0.39367">
        <ele>156.60000610352</ele>
        <time>2014-11-23T13:37:20.000Z</time>
      </trkpt>
      <trkpt lat="48.89308" lon="-0.3937">
        <ele>156.60000610352</ele>
        <time>2014-11-23T13:37:22.000Z</time>
      </trkpt>
      <trkpt lat="48.89304" lon="-0.39376">
        <ele>157</ele>
        <time>2014-11-23T13:37:25.000Z</time>
      </trkpt>
      <trkpt lat="48.89302" lon="-0.39379">
        <ele>157.19999694824</ele>
        <time>2014-11-23T13:37:28.000Z</time>
      </trkpt>
      <trkpt lat="48.89299" lon="-0.39384">
        <ele>157.19999694824</ele>
        <time>2014-11-23T13:37:31.000Z</time>
      </trkpt>
      <trkpt lat="48.89296" lon="-0.39387">
        <ele>157.60000610352</ele>
        <time>2014-11-23T13:37:33.000Z</time>
      </trkpt>
      <trkpt lat="48.89293" lon="-0.3939">
        <ele>158.39999389648</ele>
        <time>2014-11-23T13:37:36.000Z</time>
      </trkpt>
      <trkpt lat="48.89291" lon="-0.39391">
        <ele>159.19999694824</ele>
        <time>2014-11-23T13:37:38.000Z</time>
      </trkpt>
      <trkpt lat="48.89287" lon="-0.39394">
        <ele>160.60000610352</ele>
        <time>2014-11-23T13:37:41.000Z</time>
      </trkpt>
      <trkpt lat="48.89286" lon="-0.39394">
        <ele>162</ele>
        <time>2014-11-23T13:37:43.000Z</time>
      </trkpt>
      <trkpt lat="48.89284" lon="-0.39396">
        <ele>163</ele>
        <time>2014-11-23T13:37:45.000Z</time>
      </trkpt>
      <trkpt lat="48.89282" lon="-0.39398">
        <ele>163.60000610352</ele>
        <time>2014-11-23T13:37:48.000Z</time>
      </trkpt>
      <trkpt lat="48.8928" lon="-0.39401">
        <ele>164</ele>
        <time>2014-11-23T13:37:50.000Z</time>
      </trkpt>
      <trkpt lat="48.89279" lon="-0.39404">
        <ele>164.19999694824</ele>
        <time>2014-11-23T13:37:52.000Z</time>
      </trkpt>
      <trkpt lat="48.89275" lon="-0.39411">
        <ele>164</ele>
        <time>2014-11-23T13:37:57.000Z</time>
      </trkpt>
      <trkpt lat="48.89272" lon="-0.39415">
        <ele>163.80000305176</ele>
        <time>2014-11-23T13:38:00.000Z</time>
      </trkpt>
      <trkpt lat="48.89268" lon="-0.3942">
        <ele>163.60000610352</ele>
        <time>2014-11-23T13:38:03.000Z</time>
      </trkpt>
      <trkpt lat="48.89265" lon="-0.39423">
        <ele>163.19999694824</ele>
        <time>2014-11-23T13:38:06.000Z</time>
      </trkpt>
      <trkpt lat="48.89264" lon="-0.39425">
        <ele>163.19999694824</ele>
        <time>2014-11-23T13:38:08.000Z</time>
      </trkpt>
      <trkpt lat="48.89262" lon="-0.39427">
        <ele>162.60000610352</ele>
        <time>2014-11-23T13:38:10.000Z</time>
      </trkpt>
      <trkpt lat="48.89259" lon="-0.39432">
        <ele>162.19999694824</ele>
        <time>2014-11-23T13:38:13.000Z</time>
      </trkpt>
      <trkpt lat="48.89258" lon="-0.39435">
        <ele>161.80000305176</ele>
        <time>2014-11-23T13:38:15.000Z</time>
      </trkpt>
      <trkpt lat="48.89257" lon="-0.3944">
        <ele>161.19999694824</ele>
        <time>2014-11-23T13:38:17.000Z</time>
      </trkpt>
      <trkpt lat="48.89254" lon="-0.39445">
        <ele>160.39999389648</ele>
        <time>2014-11-23T13:38:20.000Z</time>
      </trkpt>
      <trkpt lat="48.89252" lon="-0.3945">
        <ele>160.39999389648</ele>
        <time>2014-11-23T13:38:23.000Z</time>
      </trkpt>
      <trkpt lat="48.89251" lon="-0.39453">
        <ele>160</ele>
        <time>2014-11-23T13:38:25.000Z</time>
      </trkpt>
      <trkpt lat="48.89249" lon="-0.39456">
        <ele>159.60000610352</ele>
        <time>2014-11-23T13:38:28.000Z</time>
      </trkpt>
      <trkpt lat="48.89246" lon="-0.3946">
        <ele>159.39999389648</ele>
        <time>2014-11-23T13:38:30.000Z</time>
      </trkpt>
      <trkpt lat="48.89244" lon="-0.39465">
        <ele>159</ele>
        <time>2014-11-23T13:38:32.000Z</time>
      </trkpt>
      <trkpt lat="48.89243" lon="-0.39471">
        <ele>158.60000610352</ele>
        <time>2014-11-23T13:38:35.000Z</time>
      </trkpt>
      <trkpt lat="48.89241" lon="-0.39479">
        <ele>158.19999694824</ele>
        <time>2014-11-23T13:38:38.000Z</time>
      </trkpt>
      <trkpt lat="48.89238" lon="-0.39483">
        <ele>158</ele>
        <time>2014-11-23T13:38:40.000Z</time>
      </trkpt>
      <trkpt lat="48.89236" lon="-0.39485">
        <ele>157.80000305176</ele>
        <time>2014-11-23T13:38:42.000Z</time>
      </trkpt>
      <trkpt lat="48.89233" lon="-0.39488">
        <ele>157.80000305176</ele>
        <time>2014-11-23T13:38:45.000Z</time>
      </trkpt>
      <trkpt lat="48.89231" lon="-0.3949">
        <ele>157.80000305176</ele>
        <time>2014-11-23T13:38:47.000Z</time>
      </trkpt>
      <trkpt lat="48.8923" lon="-0.39492">
        <ele>157.80000305176</ele>
        <time>2014-11-23T13:38:49.000Z</time>
      </trkpt>
      <trkpt lat="48.89223" lon="-0.39502">
        <ele>158</ele>
        <time>2014-11-23T13:38:59.000Z</time>
      </trkpt>
      <trkpt lat="48.89221" lon="-0.39506">
        <ele>158.39999389648</ele>
        <time>2014-11-23T13:39:02.000Z</time>
      </trkpt>
      <trkpt lat="48.89219" lon="-0.3951">
        <ele>158.60000610352</ele>
        <time>2014-11-23T13:39:04.000Z</time>
      </trkpt>
      <trkpt lat="48.89217" lon="-0.39515">
        <ele>159.19999694824</ele>
        <time>2014-11-23T13:39:07.000Z</time>
      </trkpt>
      <trkpt lat="48.89216" lon="-0.39519">
        <ele>159.60000610352</ele>
        <time>2014-11-23T13:39:09.000Z</time>
      </trkpt>
      <trkpt lat="48.89214" lon="-0.39524">
        <ele>159.80000305176</ele>
        <time>2014-11-23T13:39:11.000Z</time>
      </trkpt>
      <trkpt lat="48.89212" lon="-0.39526">
        <ele>159.80000305176</ele>
        <time>2014-11-23T13:39:13.000Z</time>
      </trkpt>
      <trkpt lat="48.89207" lon="-0.39534">
        <ele>159.39999389648</ele>
        <time>2014-11-23T13:39:18.000Z</time>
      </trkpt>
      <trkpt lat="48.89206" lon="-0.39538">
        <ele>159.19999694824</ele>
        <time>2014-11-23T13:39:20.000Z</time>
      </trkpt>
      <trkpt lat="48.89204" lon="-0.39544">
        <ele>159</ele>
        <time>2014-11-23T13:39:23.000Z</time>
      </trkpt>
      <trkpt lat="48.89202" lon="-0.39551">
        <ele>159.39999389648</ele>
        <time>2014-11-23T13:39:26.000Z</time>
      </trkpt>
      <trkpt lat="48.892" lon="-0.39554">
        <ele>159.60000610352</ele>
        <time>2014-11-23T13:39:28.000Z</time>
      </trkpt>
      <trkpt lat="48.89199" lon="-0.39555">
        <ele>160</ele>
        <time>2014-11-23T13:39:30.000Z</time>
      </trkpt>
      <trkpt lat="48.89196" lon="-0.39561">
        <ele>160.19999694824</ele>
        <time>2014-11-23T13:39:33.000Z</time>
      </trkpt>
      <trkpt lat="48.89194" lon="-0.39564">
        <ele>160.60000610352</ele>
        <time>2014-11-23T13:39:35.000Z</time>
      </trkpt>
      <trkpt lat="48.89194" lon="-0.39568">
        <ele>160.60000610352</ele>
        <time>2014-11-23T13:39:37.000Z</time>
      </trkpt>
      <trkpt lat="48.89193" lon="-0.39573">
        <ele>160.80000305176</ele>
        <time>2014-11-23T13:39:40.000Z</time>
      </trkpt>
      <trkpt lat="48.89192" lon="-0.39577">
        <ele>160.60000610352</ele>
        <time>2014-11-23T13:39:42.000Z</time>
      </trkpt>
      <trkpt lat="48.89191" lon="-0.3958">
        <ele>160.19999694824</ele>
        <time>2014-11-23T13:39:44.000Z</time>
      </trkpt>
      <trkpt lat="48.8919" lon="-0.39582">
        <ele>159.80000305176</ele>
        <time>2014-11-23T13:39:46.000Z</time>
      </trkpt>
      <trkpt lat="48.89188" lon="-0.39587">
        <ele>159.39999389648</ele>
        <time>2014-11-23T13:39:49.000Z</time>
      </trkpt>
      <trkpt lat="48.89187" lon="-0.3959">
        <ele>159</ele>
        <time>2014-11-23T13:39:51.000Z</time>
      </trkpt>
      <trkpt lat="48.89186" lon="-0.39593">
        <ele>158.60000610352</ele>
        <time>2014-11-23T13:39:53.000Z</time>
      </trkpt>
      <trkpt lat="48.89184" lon="-0.39598">
        <ele>158.80000305176</ele>
        <time>2014-11-23T13:39:56.000Z</time>
      </trkpt>
      <trkpt lat="48.89181" lon="-0.39603">
        <ele>158.60000610352</ele>
        <time>2014-11-23T13:39:59.000Z</time>
      </trkpt>
      <trkpt lat="48.89179" lon="-0.39605">
        <ele>158.39999389648</ele>
        <time>2014-11-23T13:40:01.000Z</time>
      </trkpt>
      <trkpt lat="48.89178" lon="-0.39607">
        <ele>158.60000610352</ele>
        <time>2014-11-23T13:40:04.000Z</time>
      </trkpt>
      <trkpt lat="48.89177" lon="-0.3961">
        <ele>159.19999694824</ele>
        <time>2014-11-23T13:40:06.000Z</time>
      </trkpt>
      <trkpt lat="48.89175" lon="-0.39616">
        <ele>159.39999389648</ele>
        <time>2014-11-23T13:40:09.000Z</time>
      </trkpt>
      <trkpt lat="48.89171" lon="-0.39621">
        <ele>159.80000305176</ele>
        <time>2014-11-23T13:40:12.000Z</time>
      </trkpt>
      <trkpt lat="48.89169" lon="-0.39624">
        <ele>160.19999694824</ele>
        <time>2014-11-23T13:40:14.000Z</time>
      </trkpt>
      <trkpt lat="48.89168" lon="-0.39626">
        <ele>160.19999694824</ele>
        <time>2014-11-23T13:40:16.000Z</time>
      </trkpt>
      <trkpt lat="48.89166" lon="-0.39629">
        <ele>160</ele>
        <time>2014-11-23T13:40:18.000Z</time>
      </trkpt>
      <trkpt lat="48.89164" lon="-0.39634">
        <ele>159.80000305176</ele>
        <time>2014-11-23T13:40:21.000Z</time>
      </trkpt>
      <trkpt lat="48.89162" lon="-0.39637">
        <ele>159.60000610352</ele>
        <time>2014-11-23T13:40:23.000Z</time>
      </trkpt>
      <trkpt lat="48.89161" lon="-0.39643">
        <ele>159.39999389648</ele>
        <time>2014-11-23T13:40:26.000Z</time>
      </trkpt>
      <trkpt lat="48.89159" lon="-0.39645">
        <ele>159.39999389648</ele>
        <time>2014-11-23T13:40:28.000Z</time>
      </trkpt>
      <trkpt lat="48.89156" lon="-0.39647">
        <ele>159.39999389648</ele>
        <time>2014-11-23T13:40:30.000Z</time>
      </trkpt>
      <trkpt lat="48.89152" lon="-0.39652">
        <ele>159.80000305176</ele>
        <time>2014-11-23T13:40:33.000Z</time>
      </trkpt>
      <trkpt lat="48.89149" lon="-0.39658">
        <ele>160</ele>
        <time>2014-11-23T13:40:36.000Z</time>
      </trkpt>
      <trkpt lat="48.89146" lon="-0.39668">
        <ele>159.80000305176</ele>
        <time>2014-11-23T13:40:41.000Z</time>
      </trkpt>
      <trkpt lat="48.89145" lon="-0.39672">
        <ele>159.60000610352</ele>
        <time>2014-11-23T13:40:43.000Z</time>
      </trkpt>
      <trkpt lat="48.89143" lon="-0.39676">
        <ele>159.19999694824</ele>
        <time>2014-11-23T13:40:45.000Z</time>
      </trkpt>
      <trkpt lat="48.89141" lon="-0.39679">
        <ele>159</ele>
        <time>2014-11-23T13:40:47.000Z</time>
      </trkpt>
      <trkpt lat="48.89132" lon="-0.39708">
        <ele>158.80000305176</ele>
        <time>2014-11-23T13:41:01.000Z</time>
      </trkpt>
      <trkpt lat="48.89132" lon="-0.39712">
        <ele>158.19999694824</ele>
        <time>2014-11-23T13:41:03.000Z</time>
      </trkpt>
      <trkpt lat="48.89132" lon="-0.39717">
        <ele>157.39999389648</ele>
        <time>2014-11-23T13:41:06.000Z</time>
      </trkpt>
      <trkpt lat="48.89132" lon="-0.39722">
        <ele>156.60000610352</ele>
        <time>2014-11-23T13:41:09.000Z</time>
      </trkpt>
      <trkpt lat="48.89131" lon="-0.39726">
        <ele>155.80000305176</ele>
        <time>2014-11-23T13:41:12.000Z</time>
      </trkpt>
      <trkpt lat="48.8913" lon="-0.3973">
        <ele>155.19999694824</ele>
        <time>2014-11-23T13:41:14.000Z</time>
      </trkpt>
      <trkpt lat="48.89128" lon="-0.39735">
        <ele>154.80000305176</ele>
        <time>2014-11-23T13:41:17.000Z</time>
      </trkpt>
      <trkpt lat="48.89127" lon="-0.3974">
        <ele>154.39999389648</ele>
        <time>2014-11-23T13:41:20.000Z</time>
      </trkpt>
      <trkpt lat="48.89126" lon="-0.39745">
        <ele>154</ele>
        <time>2014-11-23T13:41:22.000Z</time>
      </trkpt>
      <trkpt lat="48.89125" lon="-0.3975">
        <ele>153.80000305176</ele>
        <time>2014-11-23T13:41:25.000Z</time>
      </trkpt>
      <trkpt lat="48.89124" lon="-0.39755">
        <ele>153.39999389648</ele>
        <time>2014-11-23T13:41:28.000Z</time>
      </trkpt>
      <trkpt lat="48.89122" lon="-0.39761">
        <ele>153.60000610352</ele>
        <time>2014-11-23T13:41:31.000Z</time>
      </trkpt>
      <trkpt lat="48.8912" lon="-0.39768">
        <ele>153.80000305176</ele>
        <time>2014-11-23T13:41:34.000Z</time>
      </trkpt>
      <trkpt lat="48.89119" lon="-0.39773">
        <ele>154</ele>
        <time>2014-11-23T13:41:37.000Z</time>
      </trkpt>
      <trkpt lat="48.89119" lon="-0.39777">
        <ele>154</ele>
        <time>2014-11-23T13:41:39.000Z</time>
      </trkpt>
      <trkpt lat="48.89118" lon="-0.3978">
        <ele>154.39999389648</ele>
        <time>2014-11-23T13:41:41.000Z</time>
      </trkpt>
      <trkpt lat="48.89117" lon="-0.39784">
        <ele>154.19999694824</ele>
        <time>2014-11-23T13:41:43.000Z</time>
      </trkpt>
      <trkpt lat="48.89116" lon="-0.3979">
        <ele>154</ele>
        <time>2014-11-23T13:41:46.000Z</time>
      </trkpt>
      <trkpt lat="48.89112" lon="-0.398">
        <ele>153.60000610352</ele>
        <time>2014-11-23T13:41:53.000Z</time>
      </trkpt>
      <trkpt lat="48.89111" lon="-0.39806">
        <ele>153.80000305176</ele>
        <time>2014-11-23T13:41:58.000Z</time>
      </trkpt>
      <trkpt lat="48.89109" lon="-0.39813">
        <ele>153.19999694824</ele>
        <time>2014-11-23T13:42:01.000Z</time>
      </trkpt>
      <trkpt lat="48.89108" lon="-0.39817">
        <ele>152.60000610352</ele>
        <time>2014-11-23T13:42:03.000Z</time>
      </trkpt>
      <trkpt lat="48.89105" lon="-0.39825">
        <ele>152</ele>
        <time>2014-11-23T13:42:06.000Z</time>
      </trkpt>
      <trkpt lat="48.89104" lon="-0.3983">
        <ele>151</ele>
        <time>2014-11-23T13:42:09.000Z</time>
      </trkpt>
      <trkpt lat="48.89104" lon="-0.39834">
        <ele>150.39999389648</ele>
        <time>2014-11-23T13:42:12.000Z</time>
      </trkpt>
      <trkpt lat="48.891" lon="-0.39854">
        <ele>151</ele>
        <time>2014-11-23T13:42:22.000Z</time>
      </trkpt>
      <trkpt lat="48.89099" lon="-0.39857">
        <ele>151.19999694824</ele>
        <time>2014-11-23T13:42:24.000Z</time>
      </trkpt>
      <trkpt lat="48.89096" lon="-0.39863">
        <ele>151.39999389648</ele>
        <time>2014-11-23T13:42:27.000Z</time>
      </trkpt>
      <trkpt lat="48.89095" lon="-0.39869">
        <ele>151.39999389648</ele>
        <time>2014-11-23T13:42:30.000Z</time>
      </trkpt>
      <trkpt lat="48.89094" lon="-0.39876">
        <ele>151.80000305176</ele>
        <time>2014-11-23T13:42:33.000Z</time>
      </trkpt>
      <trkpt lat="48.89093" lon="-0.39881">
        <ele>151.80000305176</ele>
        <time>2014-11-23T13:42:35.000Z</time>
      </trkpt>
      <trkpt lat="48.89089" lon="-0.39894">
        <ele>152</ele>
        <time>2014-11-23T13:42:42.000Z</time>
      </trkpt>
      <trkpt lat="48.89085" lon="-0.39904">
        <ele>152</ele>
        <time>2014-11-23T13:42:47.000Z</time>
      </trkpt>
      <trkpt lat="48.89082" lon="-0.39911">
        <ele>151.80000305176</ele>
        <time>2014-11-23T13:42:50.000Z</time>
      </trkpt>
      <trkpt lat="48.89082" lon="-0.39917">
        <ele>151.39999389648</ele>
        <time>2014-11-23T13:42:53.000Z</time>
      </trkpt>
      <trkpt lat="48.89081" lon="-0.3992">
        <ele>150.80000305176</ele>
        <time>2014-11-23T13:42:55.000Z</time>
      </trkpt>
      <trkpt lat="48.89079" lon="-0.39926">
        <ele>150</ele>
        <time>2014-11-23T13:42:58.000Z</time>
      </trkpt>
      <trkpt lat="48.89078" lon="-0.39932">
        <ele>149</ele>
        <time>2014-11-23T13:43:01.000Z</time>
      </trkpt>
      <trkpt lat="48.89077" lon="-0.39936">
        <ele>148.19999694824</ele>
        <time>2014-11-23T13:43:03.000Z</time>
      </trkpt>
      <trkpt lat="48.89076" lon="-0.39942">
        <ele>147.39999389648</ele>
        <time>2014-11-23T13:43:06.000Z</time>
      </trkpt>
      <trkpt lat="48.89075" lon="-0.39946">
        <ele>146.60000610352</ele>
        <time>2014-11-23T13:43:08.000Z</time>
      </trkpt>
      <trkpt lat="48.89074" lon="-0.39949">
        <ele>146</ele>
        <time>2014-11-23T13:43:10.000Z</time>
      </trkpt>
      <trkpt lat="48.89073" lon="-0.39954">
        <ele>145.39999389648</ele>
        <time>2014-11-23T13:43:13.000Z</time>
      </trkpt>
      <trkpt lat="48.89072" lon="-0.39962">
        <ele>145</ele>
        <time>2014-11-23T13:43:16.000Z</time>
      </trkpt>
      <trkpt lat="48.89068" lon="-0.39982">
        <ele>145.39999389648</ele>
        <time>2014-11-23T13:43:26.000Z</time>
      </trkpt>
      <trkpt lat="48.89067" lon="-0.39989">
        <ele>145.60000610352</ele>
        <time>2014-11-23T13:43:29.000Z</time>
      </trkpt>
      <trkpt lat="48.89065" lon="-0.39995">
        <ele>145.39999389648</ele>
        <time>2014-11-23T13:43:32.000Z</time>
      </trkpt>
      <trkpt lat="48.89064" lon="-0.39998">
        <ele>145.60000610352</ele>
        <time>2014-11-23T13:43:34.000Z</time>
      </trkpt>
      <trkpt lat="48.89061" lon="-0.40005">
        <ele>145.19999694824</ele>
        <time>2014-11-23T13:43:39.000Z</time>
      </trkpt>
      <trkpt lat="48.89059" lon="-0.40011">
        <ele>144.80000305176</ele>
        <time>2014-11-23T13:43:42.000Z</time>
      </trkpt>
      <trkpt lat="48.89058" lon="-0.40015">
        <ele>144.60000610352</ele>
        <time>2014-11-23T13:43:44.000Z</time>
      </trkpt>
      <trkpt lat="48.89054" lon="-0.40022">
        <ele>144.19999694824</ele>
        <time>2014-11-23T13:43:47.000Z</time>
      </trkpt>
      <trkpt lat="48.89052" lon="-0.40029">
        <ele>144</ele>
        <time>2014-11-23T13:43:50.000Z</time>
      </trkpt>
      <trkpt lat="48.89052" lon="-0.40033">
        <ele>143.80000305176</ele>
        <time>2014-11-23T13:43:52.000Z</time>
      </trkpt>
      <trkpt lat="48.89052" lon="-0.40039">
        <ele>143.39999389648</ele>
        <time>2014-11-23T13:43:55.000Z</time>
      </trkpt>
      <trkpt lat="48.89052" lon="-0.40044">
        <ele>142.80000305176</ele>
        <time>2014-11-23T13:43:58.000Z</time>
      </trkpt>
      <trkpt lat="48.89051" lon="-0.40049">
        <ele>142.39999389648</ele>
        <time>2014-11-23T13:44:00.000Z</time>
      </trkpt>
      <trkpt lat="48.8905" lon="-0.40055">
        <ele>142</ele>
        <time>2014-11-23T13:44:03.000Z</time>
      </trkpt>
      <trkpt lat="48.89047" lon="-0.40061">
        <ele>141.80000305176</ele>
        <time>2014-11-23T13:44:06.000Z</time>
      </trkpt>
      <trkpt lat="48.89045" lon="-0.40065">
        <ele>141.80000305176</ele>
        <time>2014-11-23T13:44:08.000Z</time>
      </trkpt>
      <trkpt lat="48.89039" lon="-0.40075">
        <ele>141.60000610352</ele>
        <time>2014-11-23T13:44:13.000Z</time>
      </trkpt>
      <trkpt lat="48.89038" lon="-0.40079">
        <ele>141.39999389648</ele>
        <time>2014-11-23T13:44:15.000Z</time>
      </trkpt>
      <trkpt lat="48.89038" lon="-0.40084">
        <ele>140.80000305176</ele>
        <time>2014-11-23T13:44:18.000Z</time>
      </trkpt>
      <trkpt lat="48.89037" lon="-0.40088">
        <ele>140.19999694824</ele>
        <time>2014-11-23T13:44:20.000Z</time>
      </trkpt>
      <trkpt lat="48.89036" lon="-0.40093">
        <ele>139.60000610352</ele>
        <time>2014-11-23T13:44:23.000Z</time>
      </trkpt>
      <trkpt lat="48.89035" lon="-0.40097">
        <ele>139</ele>
        <time>2014-11-23T13:44:25.000Z</time>
      </trkpt>
      <trkpt lat="48.89035" lon="-0.401">
        <ele>138.19999694824</ele>
        <time>2014-11-23T13:44:27.000Z</time>
      </trkpt>
      <trkpt lat="48.89034" lon="-0.40106">
        <ele>137.80000305176</ele>
        <time>2014-11-23T13:44:30.000Z</time>
      </trkpt>
      <trkpt lat="48.89033" lon="-0.4011">
        <ele>137.19999694824</ele>
        <time>2014-11-23T13:44:32.000Z</time>
      </trkpt>
      <trkpt lat="48.89032" lon="-0.40114">
        <ele>136.60000610352</ele>
        <time>2014-11-23T13:44:34.000Z</time>
      </trkpt>
      <trkpt lat="48.89031" lon="-0.40119">
        <ele>135.80000305176</ele>
        <time>2014-11-23T13:44:37.000Z</time>
      </trkpt>
      <trkpt lat="48.89029" lon="-0.40124">
        <ele>135</ele>
        <time>2014-11-23T13:44:40.000Z</time>
      </trkpt>
      <trkpt lat="48.89028" lon="-0.4013">
        <ele>134</ele>
        <time>2014-11-23T13:44:43.000Z</time>
      </trkpt>
      <trkpt lat="48.89025" lon="-0.40135">
        <ele>133</ele>
        <time>2014-11-23T13:44:46.000Z</time>
      </trkpt>
      <trkpt lat="48.89024" lon="-0.40139">
        <ele>132.39999389648</ele>
        <time>2014-11-23T13:44:48.000Z</time>
      </trkpt>
      <trkpt lat="48.89022" lon="-0.40145">
        <ele>132</ele>
        <time>2014-11-23T13:44:51.000Z</time>
      </trkpt>
      <trkpt lat="48.8902" lon="-0.4015">
        <ele>131.60000610352</ele>
        <time>2014-11-23T13:44:54.000Z</time>
      </trkpt>
      <trkpt lat="48.89017" lon="-0.40156">
        <ele>131.19999694824</ele>
        <time>2014-11-23T13:44:57.000Z</time>
      </trkpt>
      <trkpt lat="48.89016" lon="-0.40159">
        <ele>131</ele>
        <time>2014-11-23T13:44:59.000Z</time>
      </trkpt>
      <trkpt lat="48.89009" lon="-0.40179">
        <ele>131.19999694824</ele>
        <time>2014-11-23T13:45:08.000Z</time>
      </trkpt>
      <trkpt lat="48.89007" lon="-0.40186">
        <ele>131.39999389648</ele>
        <time>2014-11-23T13:45:11.000Z</time>
      </trkpt>
      <trkpt lat="48.89005" lon="-0.40191">
        <ele>131.19999694824</ele>
        <time>2014-11-23T13:45:14.000Z</time>
      </trkpt>
      <trkpt lat="48.89001" lon="-0.40195">
        <ele>130.80000305176</ele>
        <time>2014-11-23T13:45:16.000Z</time>
      </trkpt>
      <trkpt lat="48.88998" lon="-0.40198">
        <ele>130.60000610352</ele>
        <time>2014-11-23T13:45:19.000Z</time>
      </trkpt>
      <trkpt lat="48.88995" lon="-0.40202">
        <ele>130.39999389648</ele>
        <time>2014-11-23T13:45:22.000Z</time>
      </trkpt>
      <trkpt lat="48.88992" lon="-0.40206">
        <ele>130.19999694824</ele>
        <time>2014-11-23T13:45:24.000Z</time>
      </trkpt>
      <trkpt lat="48.8899" lon="-0.40209">
        <ele>130</ele>
        <time>2014-11-23T13:45:26.000Z</time>
      </trkpt>
      <trkpt lat="48.88978" lon="-0.40231">
        <ele>129.80000305176</ele>
        <time>2014-11-23T13:45:39.000Z</time>
      </trkpt>
      <trkpt lat="48.88975" lon="-0.40234">
        <ele>129.60000610352</ele>
        <time>2014-11-23T13:45:41.000Z</time>
      </trkpt>
      <trkpt lat="48.88972" lon="-0.4024">
        <ele>129.19999694824</ele>
        <time>2014-11-23T13:45:44.000Z</time>
      </trkpt>
      <trkpt lat="48.88972" lon="-0.40243">
        <ele>127.59999847412</ele>
        <time>2014-11-23T13:45:46.000Z</time>
      </trkpt>
      <trkpt lat="48.88971" lon="-0.40246">
        <ele>125.80000305176</ele>
        <time>2014-11-23T13:45:49.000Z</time>
      </trkpt>
      <trkpt lat="48.88969" lon="-0.40248">
        <ele>124.40000152588</ele>
        <time>2014-11-23T13:45:51.000Z</time>
      </trkpt>
      <trkpt lat="48.88967" lon="-0.4025">
        <ele>123</ele>
        <time>2014-11-23T13:45:53.000Z</time>
      </trkpt>
      <trkpt lat="48.88964" lon="-0.40253">
        <ele>121.80000305176</ele>
        <time>2014-11-23T13:45:56.000Z</time>
      </trkpt>
      <trkpt lat="48.88962" lon="-0.40255">
        <ele>121.80000305176</ele>
        <time>2014-11-23T13:45:59.000Z</time>
      </trkpt>
      <trkpt lat="48.88956" lon="-0.4026">
        <ele>121.59999847412</ele>
        <time>2014-11-23T13:46:05.000Z</time>
      </trkpt>
      <trkpt lat="48.88958" lon="-0.40259">
        <ele>121.59999847412</ele>
        <time>2014-11-23T13:46:13.000Z</time>
      </trkpt>
      <trkpt lat="48.8896" lon="-0.40258">
        <ele>121.59999847412</ele>
        <time>2014-11-23T13:46:15.000Z</time>
      </trkpt>
      <trkpt lat="48.88962" lon="-0.40256">
        <ele>122.40000152588</ele>
        <time>2014-11-23T13:46:18.000Z</time>
      </trkpt>
      <trkpt lat="48.88963" lon="-0.40255">
        <ele>123.19999694824</ele>
        <time>2014-11-23T13:46:20.000Z</time>
      </trkpt>
      <trkpt lat="48.88966" lon="-0.40253">
        <ele>124.40000152588</ele>
        <time>2014-11-23T13:46:23.000Z</time>
      </trkpt>
      <trkpt lat="48.88969" lon="-0.40253">
        <ele>125.19999694824</ele>
        <time>2014-11-23T13:46:26.000Z</time>
      </trkpt>
      <trkpt lat="48.88973" lon="-0.40252">
        <ele>125.59999847412</ele>
        <time>2014-11-23T13:46:29.000Z</time>
      </trkpt>
      <trkpt lat="48.88976" lon="-0.40253">
        <ele>125.40000152588</ele>
        <time>2014-11-23T13:46:32.000Z</time>
      </trkpt>
      <trkpt lat="48.88981" lon="-0.40256">
        <ele>125.59999847412</ele>
        <time>2014-11-23T13:46:35.000Z</time>
      </trkpt>
      <trkpt lat="48.88984" lon="-0.40254">
        <ele>125</ele>
        <time>2014-11-23T13:46:37.000Z</time>
      </trkpt>
      <trkpt lat="48.88985" lon="-0.40251">
        <ele>124.59999847412</ele>
        <time>2014-11-23T13:46:39.000Z</time>
      </trkpt>
      <trkpt lat="48.88987" lon="-0.40244">
        <ele>124.59999847412</ele>
        <time>2014-11-23T13:46:44.000Z</time>
      </trkpt>
      <trkpt lat="48.88988" lon="-0.40242">
        <ele>124.59999847412</ele>
        <time>2014-11-23T13:46:46.000Z</time>
      </trkpt>
      <trkpt lat="48.8899" lon="-0.40238">
        <ele>125.19999694824</ele>
        <time>2014-11-23T13:46:49.000Z</time>
      </trkpt>
      <trkpt lat="48.8899" lon="-0.40236">
        <ele>125.80000305176</ele>
        <time>2014-11-23T13:46:51.000Z</time>
      </trkpt>
      <trkpt lat="48.8899" lon="-0.40232">
        <ele>126.40000152588</ele>
        <time>2014-11-23T13:46:55.000Z</time>
      </trkpt>
      <trkpt lat="48.88989" lon="-0.40228">
        <ele>127</ele>
        <time>2014-11-23T13:47:00.000Z</time>
      </trkpt>
      <trkpt lat="48.88988" lon="-0.40227">
        <ele>126.80000305176</ele>
        <time>2014-11-23T13:47:03.000Z</time>
      </trkpt>
      <trkpt lat="48.88987" lon="-0.40225">
        <ele>126.40000152588</ele>
        <time>2014-11-23T13:47:06.000Z</time>
      </trkpt>
      <trkpt lat="48.88987" lon="-0.40225">
        <ele>126.40000152588</ele>
        <time>2014-11-23T13:47:26.000Z</time>
      </trkpt>
      <trkpt lat="48.88987" lon="-0.40227">
        <ele>126</ele>
        <time>2014-11-23T13:47:38.000Z</time>
      </trkpt>
      <trkpt lat="48.88988" lon="-0.40229">
        <ele>125.59999847412</ele>
        <time>2014-11-23T13:47:46.000Z</time>
      </trkpt>
      <trkpt lat="48.88987" lon="-0.40229">
        <ele>125.40000152588</ele>
        <time>2014-11-23T13:47:56.000Z</time>
      </trkpt>
      <trkpt lat="48.88987" lon="-0.40228">
        <ele>125.80000305176</ele>
        <time>2014-11-23T13:48:06.000Z</time>
      </trkpt>
      <trkpt lat="48.88986" lon="-0.40229">
        <ele>126.19999694824</ele>
        <time>2014-11-23T13:48:21.000Z</time>
      </trkpt>
      <trkpt lat="48.88987" lon="-0.40229">
        <ele>126.40000152588</ele>
        <time>2014-11-23T13:48:30.000Z</time>
      </trkpt>
      <trkpt lat="48.88989" lon="-0.40227">
        <ele>126.40000152588</ele>
        <time>2014-11-23T13:48:32.000Z</time>
      </trkpt>
      <trkpt lat="48.8899" lon="-0.40224">
        <ele>125.80000305176</ele>
        <time>2014-11-23T13:48:35.000Z</time>
      </trkpt>
      <trkpt lat="48.8899" lon="-0.40221">
        <ele>125.40000152588</ele>
        <time>2014-11-23T13:48:40.000Z</time>
      </trkpt>
      <trkpt lat="48.88991" lon="-0.40219">
        <ele>125</ele>
        <time>2014-11-23T13:48:57.000Z</time>
      </trkpt>
      <trkpt lat="48.88992" lon="-0.40217">
        <ele>124.80000305176</ele>
        <time>2014-11-23T13:49:14.000Z</time>
      </trkpt>
      <trkpt lat="48.88992" lon="-0.40217">
        <ele>124.80000305176</ele>
        <time>2014-11-23T13:49:34.000Z</time>
      </trkpt>
      <trkpt lat="48.88992" lon="-0.40218">
        <ele>126</ele>
        <time>2014-11-23T13:49:39.000Z</time>
      </trkpt>
      <trkpt lat="48.88994" lon="-0.40218">
        <ele>127</ele>
        <time>2014-11-23T13:49:53.000Z</time>
      </trkpt>
      <trkpt lat="48.88994" lon="-0.40218">
        <ele>127</ele>
        <time>2014-11-23T13:50:13.000Z</time>
      </trkpt>
      <trkpt lat="48.88995" lon="-0.4022">
        <ele>127.19999694824</ele>
        <time>2014-11-23T13:51:00.000Z</time>
      </trkpt>
      <trkpt lat="48.88995" lon="-0.40219">
        <ele>127.40000152588</ele>
        <time>2014-11-23T13:51:05.000Z</time>
      </trkpt>
      <trkpt lat="48.88995" lon="-0.40217">
        <ele>128</ele>
        <time>2014-11-23T13:51:08.000Z</time>
      </trkpt>
      <trkpt lat="48.88997" lon="-0.40218">
        <ele>127.40000152588</ele>
        <time>2014-11-23T13:51:11.000Z</time>
      </trkpt>
      <trkpt lat="48.88998" lon="-0.4022">
        <ele>127.19999694824</ele>
        <time>2014-11-23T13:51:13.000Z</time>
      </trkpt>
      <trkpt lat="48.89" lon="-0.40218">
        <ele>128.19999694824</ele>
        <time>2014-11-23T13:51:15.000Z</time>
      </trkpt>
      <trkpt lat="48.89" lon="-0.40215">
        <ele>129</ele>
        <time>2014-11-23T13:51:17.000Z</time>
      </trkpt>
      <trkpt lat="48.88998" lon="-0.40213">
        <ele>128.80000305176</ele>
        <time>2014-11-23T13:51:24.000Z</time>
      </trkpt>
      <trkpt lat="48.88998" lon="-0.40211">
        <ele>128.80000305176</ele>
        <time>2014-11-23T13:51:28.000Z</time>
      </trkpt>
      <trkpt lat="48.88996" lon="-0.40213">
        <ele>128.80000305176</ele>
        <time>2014-11-23T13:51:36.000Z</time>
      </trkpt>
      <trkpt lat="48.88994" lon="-0.40213">
        <ele>128</ele>
        <time>2014-11-23T13:51:39.000Z</time>
      </trkpt>
      <trkpt lat="48.88994" lon="-0.40213">
        <ele>128</ele>
        <time>2014-11-23T13:51:59.000Z</time>
      </trkpt>
      <trkpt lat="48.88995" lon="-0.40214">
        <ele>127.40000152588</ele>
        <time>2014-11-23T13:52:06.000Z</time>
      </trkpt>
      <trkpt lat="48.88994" lon="-0.40215">
        <ele>127.59999847412</ele>
        <time>2014-11-23T13:52:18.000Z</time>
      </trkpt>
      <trkpt lat="48.88994" lon="-0.40217">
        <ele>127.59999847412</ele>
        <time>2014-11-23T13:52:27.000Z</time>
      </trkpt>
      <trkpt lat="48.88993" lon="-0.40216">
        <ele>127.40000152588</ele>
        <time>2014-11-23T13:52:39.000Z</time>
      </trkpt>
      <trkpt lat="48.88994" lon="-0.40213">
        <ele>127.40000152588</ele>
        <time>2014-11-23T13:52:41.000Z</time>
      </trkpt>
      <trkpt lat="48.88995" lon="-0.40212">
        <ele>127.40000152588</ele>
        <time>2014-11-23T13:52:43.000Z</time>
      </trkpt>
      <trkpt lat="48.88995" lon="-0.4021">
        <ele>127</ele>
        <time>2014-11-23T13:52:53.000Z</time>
      </trkpt>
      <trkpt lat="48.88997" lon="-0.40208">
        <ele>126.40000152588</ele>
        <time>2014-11-23T13:52:55.000Z</time>
      </trkpt>
      <trkpt lat="48.88998" lon="-0.40207">
        <ele>125.80000305176</ele>
        <time>2014-11-23T13:52:58.000Z</time>
      </trkpt>
      <trkpt lat="48.89" lon="-0.40206">
        <ele>125.40000152588</ele>
        <time>2014-11-23T13:53:00.000Z</time>
      </trkpt>
      <trkpt lat="48.89" lon="-0.40202">
        <ele>124.19999694824</ele>
        <time>2014-11-23T13:53:03.000Z</time>
      </trkpt>
      <trkpt lat="48.89002" lon="-0.40199">
        <ele>123.19999694824</ele>
        <time>2014-11-23T13:53:05.000Z</time>
      </trkpt>
      <trkpt lat="48.89005" lon="-0.40197">
        <ele>122.40000152588</ele>
        <time>2014-11-23T13:53:08.000Z</time>
      </trkpt>
      <trkpt lat="48.8901" lon="-0.40196">
        <ele>121.59999847412</ele>
        <time>2014-11-23T13:53:11.000Z</time>
      </trkpt>
      <trkpt lat="48.89013" lon="-0.40191">
        <ele>121.19999694824</ele>
        <time>2014-11-23T13:53:14.000Z</time>
      </trkpt>
      <trkpt lat="48.89016" lon="-0.40186">
        <ele>121.40000152588</ele>
        <time>2014-11-23T13:53:17.000Z</time>
      </trkpt>
      <trkpt lat="48.89019" lon="-0.4018">
        <ele>121.80000305176</ele>
        <time>2014-11-23T13:53:20.000Z</time>
      </trkpt>
      <trkpt lat="48.89021" lon="-0.40183">
        <ele>122.40000152588</ele>
        <time>2014-11-23T13:53:23.000Z</time>
      </trkpt>
      <trkpt lat="48.89023" lon="-0.40182">
        <ele>123</ele>
        <time>2014-11-23T13:53:25.000Z</time>
      </trkpt>
      <trkpt lat="48.89024" lon="-0.40175">
        <ele>123</ele>
        <time>2014-11-23T13:53:28.000Z</time>
      </trkpt>
      <trkpt lat="48.89026" lon="-0.40169">
        <ele>123.19999694824</ele>
        <time>2014-11-23T13:53:31.000Z</time>
      </trkpt>
      <trkpt lat="48.89029" lon="-0.40156">
        <ele>123.59999847412</ele>
        <time>2014-11-23T13:53:38.000Z</time>
      </trkpt>
      <trkpt lat="48.8903" lon="-0.40152">
        <ele>124</ele>
        <time>2014-11-23T13:53:40.000Z</time>
      </trkpt>
      <trkpt lat="48.89032" lon="-0.40148">
        <ele>124.40000152588</ele>
        <time>2014-11-23T13:53:43.000Z</time>
      </trkpt>
      <trkpt lat="48.89033" lon="-0.40145">
        <ele>124.80000305176</ele>
        <time>2014-11-23T13:53:45.000Z</time>
      </trkpt>
      <trkpt lat="48.89034" lon="-0.40141">
        <ele>125</ele>
        <time>2014-11-23T13:53:47.000Z</time>
      </trkpt>
      <trkpt lat="48.89037" lon="-0.40129">
        <ele>125.19999694824</ele>
        <time>2014-11-23T13:53:55.000Z</time>
      </trkpt>
      <trkpt lat="48.89038" lon="-0.40124">
        <ele>125.40000152588</ele>
        <time>2014-11-23T13:53:58.000Z</time>
      </trkpt>
      <trkpt lat="48.89042" lon="-0.40105">
        <ele>125</ele>
        <time>2014-11-23T13:54:08.000Z</time>
      </trkpt>
      <trkpt lat="48.89043" lon="-0.40102">
        <ele>124.59999847412</ele>
        <time>2014-11-23T13:54:11.000Z</time>
      </trkpt>
      <trkpt lat="48.89045" lon="-0.40099">
        <ele>124.40000152588</ele>
        <time>2014-11-23T13:54:13.000Z</time>
      </trkpt>
      <trkpt lat="48.89047" lon="-0.40092">
        <ele>124.19999694824</ele>
        <time>2014-11-23T13:54:16.000Z</time>
      </trkpt>
      <trkpt lat="48.89048" lon="-0.40087">
        <ele>124</ele>
        <time>2014-11-23T13:54:19.000Z</time>
      </trkpt>
      <trkpt lat="48.8905" lon="-0.40083">
        <ele>124</ele>
        <time>2014-11-23T13:54:22.000Z</time>
      </trkpt>
      <trkpt lat="48.89051" lon="-0.40082">
        <ele>124</ele>
        <time>2014-11-23T13:54:25.000Z</time>
      </trkpt>
      <trkpt lat="48.89052" lon="-0.40078">
        <ele>123.80000305176</ele>
        <time>2014-11-23T13:54:28.000Z</time>
      </trkpt>
      <trkpt lat="48.89053" lon="-0.40072">
        <ele>123.59999847412</ele>
        <time>2014-11-23T13:54:30.000Z</time>
      </trkpt>
      <trkpt lat="48.89054" lon="-0.40066">
        <ele>123.59999847412</ele>
        <time>2014-11-23T13:54:33.000Z</time>
      </trkpt>
      <trkpt lat="48.89055" lon="-0.40058">
        <ele>123.80000305176</ele>
        <time>2014-11-23T13:54:36.000Z</time>
      </trkpt>
      <trkpt lat="48.89055" lon="-0.40052">
        <ele>124.19999694824</ele>
        <time>2014-11-23T13:54:38.000Z</time>
      </trkpt>
      <trkpt lat="48.89056" lon="-0.40045">
        <ele>125</ele>
        <time>2014-11-23T13:54:41.000Z</time>
      </trkpt>
      <trkpt lat="48.89058" lon="-0.4004">
        <ele>125.80000305176</ele>
        <time>2014-11-23T13:54:44.000Z</time>
      </trkpt>
      <trkpt lat="48.89061" lon="-0.40038">
        <ele>126.40000152588</ele>
        <time>2014-11-23T13:54:47.000Z</time>
      </trkpt>
      <trkpt lat="48.89062" lon="-0.40036">
        <ele>126.80000305176</ele>
        <time>2014-11-23T13:54:49.000Z</time>
      </trkpt>
      <trkpt lat="48.89063" lon="-0.40034">
        <ele>126.80000305176</ele>
        <time>2014-11-23T13:54:51.000Z</time>
      </trkpt>
      <trkpt lat="48.89066" lon="-0.40029">
        <ele>126.59999847412</ele>
        <time>2014-11-23T13:54:54.000Z</time>
      </trkpt>
      <trkpt lat="48.89067" lon="-0.40025">
        <ele>126.40000152588</ele>
        <time>2014-11-23T13:54:56.000Z</time>
      </trkpt>
      <trkpt lat="48.89067" lon="-0.40022">
        <ele>126.19999694824</ele>
        <time>2014-11-23T13:54:58.000Z</time>
      </trkpt>
      <trkpt lat="48.89067" lon="-0.40019">
        <ele>126</ele>
        <time>2014-11-23T13:55:00.000Z</time>
      </trkpt>
      <trkpt lat="48.89068" lon="-0.40015">
        <ele>126</ele>
        <time>2014-11-23T13:55:02.000Z</time>
      </trkpt>
      <trkpt lat="48.89069" lon="-0.40009">
        <ele>126.19999694824</ele>
        <time>2014-11-23T13:55:04.000Z</time>
      </trkpt>
      <trkpt lat="48.89069" lon="-0.40003">
        <ele>126.40000152588</ele>
        <time>2014-11-23T13:55:06.000Z</time>
      </trkpt>
      <trkpt lat="48.8907" lon="-0.39995">
        <ele>126.80000305176</ele>
        <time>2014-11-23T13:55:09.000Z</time>
      </trkpt>
      <trkpt lat="48.89071" lon="-0.3999">
        <ele>127.40000152588</ele>
        <time>2014-11-23T13:55:12.000Z</time>
      </trkpt>
      <trkpt lat="48.89073" lon="-0.39986">
        <ele>128</ele>
        <time>2014-11-23T13:55:14.000Z</time>
      </trkpt>
      <trkpt lat="48.89074" lon="-0.39982">
        <ele>128.60000610352</ele>
        <time>2014-11-23T13:55:16.000Z</time>
      </trkpt>
      <trkpt lat="48.89075" lon="-0.39976">
        <ele>129</ele>
        <time>2014-11-23T13:55:19.000Z</time>
      </trkpt>
      <trkpt lat="48.89076" lon="-0.39966">
        <ele>128.60000610352</ele>
        <time>2014-11-23T13:55:25.000Z</time>
      </trkpt>
      <trkpt lat="48.89077" lon="-0.39961">
        <ele>128.39999389648</ele>
        <time>2014-11-23T13:55:28.000Z</time>
      </trkpt>
      <trkpt lat="48.89079" lon="-0.39955">
        <ele>128.19999694824</ele>
        <time>2014-11-23T13:55:31.000Z</time>
      </trkpt>
      <trkpt lat="48.89081" lon="-0.39946">
        <ele>128.60000610352</ele>
        <time>2014-11-23T13:55:35.000Z</time>
      </trkpt>
      <trkpt lat="48.89083" lon="-0.39939">
        <ele>129.19999694824</ele>
        <time>2014-11-23T13:55:38.000Z</time>
      </trkpt>
      <trkpt lat="48.89083" lon="-0.39934">
        <ele>129.80000305176</ele>
        <time>2014-11-23T13:55:40.000Z</time>
      </trkpt>
      <trkpt lat="48.89084" lon="-0.39928">
        <ele>130.19999694824</ele>
        <time>2014-11-23T13:55:43.000Z</time>
      </trkpt>
      <trkpt lat="48.89085" lon="-0.39925">
        <ele>130.39999389648</ele>
        <time>2014-11-23T13:55:45.000Z</time>
      </trkpt>
      <trkpt lat="48.89087" lon="-0.3992">
        <ele>130.39999389648</ele>
        <time>2014-11-23T13:55:48.000Z</time>
      </trkpt>
      <trkpt lat="48.89089" lon="-0.39919">
        <ele>130.39999389648</ele>
        <time>2014-11-23T13:55:50.000Z</time>
      </trkpt>
      <trkpt lat="48.8909" lon="-0.39916">
        <ele>130.19999694824</ele>
        <time>2014-11-23T13:55:53.000Z</time>
      </trkpt>
      <trkpt lat="48.89091" lon="-0.39912">
        <ele>130.19999694824</ele>
        <time>2014-11-23T13:55:55.000Z</time>
      </trkpt>
      <trkpt lat="48.89092" lon="-0.39909">
        <ele>130.19999694824</ele>
        <time>2014-11-23T13:55:57.000Z</time>
      </trkpt>
      <trkpt lat="48.89095" lon="-0.39898">
        <ele>130.39999389648</ele>
        <time>2014-11-23T13:56:01.000Z</time>
      </trkpt>
      <trkpt lat="48.89096" lon="-0.39894">
        <ele>130.60000610352</ele>
        <time>2014-11-23T13:56:03.000Z</time>
      </trkpt>
      <trkpt lat="48.89098" lon="-0.39889">
        <ele>130.80000305176</ele>
        <time>2014-11-23T13:56:06.000Z</time>
      </trkpt>
      <trkpt lat="48.89099" lon="-0.39885">
        <ele>131.19999694824</ele>
        <time>2014-11-23T13:56:08.000Z</time>
      </trkpt>
      <trkpt lat="48.891" lon="-0.39881">
        <ele>131.39999389648</ele>
        <time>2014-11-23T13:56:11.000Z</time>
      </trkpt>
      <trkpt lat="48.891" lon="-0.39878">
        <ele>131.39999389648</ele>
        <time>2014-11-23T13:56:13.000Z</time>
      </trkpt>
      <trkpt lat="48.89102" lon="-0.3987">
        <ele>131.39999389648</ele>
        <time>2014-11-23T13:56:18.000Z</time>
      </trkpt>
      <trkpt lat="48.89103" lon="-0.39862">
        <ele>131.60000610352</ele>
        <time>2014-11-23T13:56:21.000Z</time>
      </trkpt>
      <trkpt lat="48.89103" lon="-0.39857">
        <ele>132</ele>
        <time>2014-11-23T13:56:23.000Z</time>
      </trkpt>
      <trkpt lat="48.89103" lon="-0.39853">
        <ele>132.39999389648</ele>
        <time>2014-11-23T13:56:25.000Z</time>
      </trkpt>
      <trkpt lat="48.89104" lon="-0.39849">
        <ele>133</ele>
        <time>2014-11-23T13:56:27.000Z</time>
      </trkpt>
      <trkpt lat="48.89106" lon="-0.39843">
        <ele>133.60000610352</ele>
        <time>2014-11-23T13:56:30.000Z</time>
      </trkpt>
      <trkpt lat="48.89109" lon="-0.39837">
        <ele>134.19999694824</ele>
        <time>2014-11-23T13:56:33.000Z</time>
      </trkpt>
      <trkpt lat="48.8911" lon="-0.39832">
        <ele>135</ele>
        <time>2014-11-23T13:56:35.000Z</time>
      </trkpt>
      <trkpt lat="48.89112" lon="-0.39827">
        <ele>136</ele>
        <time>2014-11-23T13:56:38.000Z</time>
      </trkpt>
      <trkpt lat="48.89113" lon="-0.39825">
        <ele>137</ele>
        <time>2014-11-23T13:56:40.000Z</time>
      </trkpt>
      <trkpt lat="48.89115" lon="-0.39823">
        <ele>138</ele>
        <time>2014-11-23T13:56:43.000Z</time>
      </trkpt>
      <trkpt lat="48.89117" lon="-0.39821">
        <ele>138.80000305176</ele>
        <time>2014-11-23T13:56:46.000Z</time>
      </trkpt>
      <trkpt lat="48.89118" lon="-0.39818">
        <ele>139.39999389648</ele>
        <time>2014-11-23T13:56:48.000Z</time>
      </trkpt>
      <trkpt lat="48.89119" lon="-0.39816">
        <ele>139.80000305176</ele>
        <time>2014-11-23T13:56:51.000Z</time>
      </trkpt>
      <trkpt lat="48.8912" lon="-0.39813">
        <ele>139.80000305176</ele>
        <time>2014-11-23T13:56:53.000Z</time>
      </trkpt>
      <trkpt lat="48.89121" lon="-0.39809">
        <ele>139.60000610352</ele>
        <time>2014-11-23T13:56:56.000Z</time>
      </trkpt>
      <trkpt lat="48.89121" lon="-0.39803">
        <ele>139.80000305176</ele>
        <time>2014-11-23T13:56:58.000Z</time>
      </trkpt>
      <trkpt lat="48.89122" lon="-0.39798">
        <ele>139.80000305176</ele>
        <time>2014-11-23T13:57:00.000Z</time>
      </trkpt>
      <trkpt lat="48.89123" lon="-0.39788">
        <ele>140</ele>
        <time>2014-11-23T13:57:05.000Z</time>
      </trkpt>
      <trkpt lat="48.89126" lon="-0.39783">
        <ele>140.39999389648</ele>
        <time>2014-11-23T13:57:08.000Z</time>
      </trkpt>
      <trkpt lat="48.8913" lon="-0.39779">
        <ele>140</ele>
        <time>2014-11-23T13:57:11.000Z</time>
      </trkpt>
      <trkpt lat="48.89132" lon="-0.39779">
        <ele>140</ele>
        <time>2014-11-23T13:57:13.000Z</time>
      </trkpt>
      <trkpt lat="48.89133" lon="-0.39774">
        <ele>140.19999694824</ele>
        <time>2014-11-23T13:57:16.000Z</time>
      </trkpt>
      <trkpt lat="48.89133" lon="-0.39769">
        <ele>140.19999694824</ele>
        <time>2014-11-23T13:57:18.000Z</time>
      </trkpt>
      <trkpt lat="48.89135" lon="-0.39766">
        <ele>140</ele>
        <time>2014-11-23T13:57:20.000Z</time>
      </trkpt>
      <trkpt lat="48.89136" lon="-0.39763">
        <ele>140.19999694824</ele>
        <time>2014-11-23T13:57:23.000Z</time>
      </trkpt>
      <trkpt lat="48.89137" lon="-0.3976">
        <ele>140.39999389648</ele>
        <time>2014-11-23T13:57:25.000Z</time>
      </trkpt>
      <trkpt lat="48.89138" lon="-0.39752">
        <ele>140.19999694824</ele>
        <time>2014-11-23T13:57:28.000Z</time>
      </trkpt>
      <trkpt lat="48.89138" lon="-0.39747">
        <ele>140.39999389648</ele>
        <time>2014-11-23T13:57:30.000Z</time>
      </trkpt>
      <trkpt lat="48.8914" lon="-0.39741">
        <ele>140.60000610352</ele>
        <time>2014-11-23T13:57:33.000Z</time>
      </trkpt>
      <trkpt lat="48.89142" lon="-0.39736">
        <ele>140.80000305176</ele>
        <time>2014-11-23T13:57:36.000Z</time>
      </trkpt>
      <trkpt lat="48.89144" lon="-0.39729">
        <ele>141.19999694824</ele>
        <time>2014-11-23T13:57:40.000Z</time>
      </trkpt>
      <trkpt lat="48.89146" lon="-0.39725">
        <ele>141.39999389648</ele>
        <time>2014-11-23T13:57:43.000Z</time>
      </trkpt>
      <trkpt lat="48.89149" lon="-0.39714">
        <ele>141.19999694824</ele>
        <time>2014-11-23T13:57:50.000Z</time>
      </trkpt>
      <trkpt lat="48.89149" lon="-0.39708">
        <ele>140.60000610352</ele>
        <time>2014-11-23T13:57:53.000Z</time>
      </trkpt>
      <trkpt lat="48.89149" lon="-0.397">
        <ele>139.80000305176</ele>
        <time>2014-11-23T13:57:56.000Z</time>
      </trkpt>
      <trkpt lat="48.8915" lon="-0.39694">
        <ele>139.39999389648</ele>
        <time>2014-11-23T13:57:58.000Z</time>
      </trkpt>
      <trkpt lat="48.89151" lon="-0.39689">
        <ele>138.80000305176</ele>
        <time>2014-11-23T13:58:01.000Z</time>
      </trkpt>
      <trkpt lat="48.89153" lon="-0.39682">
        <ele>138.39999389648</ele>
        <time>2014-11-23T13:58:04.000Z</time>
      </trkpt>
      <trkpt lat="48.89155" lon="-0.39672">
        <ele>138.60000610352</ele>
        <time>2014-11-23T13:58:09.000Z</time>
      </trkpt>
      <trkpt lat="48.89156" lon="-0.39668">
        <ele>138.39999389648</ele>
        <time>2014-11-23T13:58:11.000Z</time>
      </trkpt>
      <trkpt lat="48.89158" lon="-0.39664">
        <ele>138.60000610352</ele>
        <time>2014-11-23T13:58:14.000Z</time>
      </trkpt>
      <trkpt lat="48.8916" lon="-0.39661">
        <ele>139</ele>
        <time>2014-11-23T13:58:16.000Z</time>
      </trkpt>
      <trkpt lat="48.89161" lon="-0.39658">
        <ele>139.39999389648</ele>
        <time>2014-11-23T13:58:18.000Z</time>
      </trkpt>
      <trkpt lat="48.89162" lon="-0.39654">
        <ele>140</ele>
        <time>2014-11-23T13:58:20.000Z</time>
      </trkpt>
      <trkpt lat="48.89163" lon="-0.39648">
        <ele>140.80000305176</ele>
        <time>2014-11-23T13:58:23.000Z</time>
      </trkpt>
      <trkpt lat="48.89163" lon="-0.39644">
        <ele>141.19999694824</ele>
        <time>2014-11-23T13:58:25.000Z</time>
      </trkpt>
      <trkpt lat="48.89165" lon="-0.39641">
        <ele>141.39999389648</ele>
        <time>2014-11-23T13:58:27.000Z</time>
      </trkpt>
      <trkpt lat="48.89167" lon="-0.39636">
        <ele>141.60000610352</ele>
        <time>2014-11-23T13:58:30.000Z</time>
      </trkpt>
      <trkpt lat="48.89169" lon="-0.39633">
        <ele>141.60000610352</ele>
        <time>2014-11-23T13:58:32.000Z</time>
      </trkpt>
      <trkpt lat="48.8917" lon="-0.39629">
        <ele>141.80000305176</ele>
        <time>2014-11-23T13:58:34.000Z</time>
      </trkpt>
      <trkpt lat="48.89172" lon="-0.39624">
        <ele>142.39999389648</ele>
        <time>2014-11-23T13:58:37.000Z</time>
      </trkpt>
      <trkpt lat="48.89174" lon="-0.39619">
        <ele>143</ele>
        <time>2014-11-23T13:58:40.000Z</time>
      </trkpt>
      <trkpt lat="48.89175" lon="-0.39616">
        <ele>143.39999389648</ele>
        <time>2014-11-23T13:58:42.000Z</time>
      </trkpt>
      <trkpt lat="48.89177" lon="-0.39613">
        <ele>143.80000305176</ele>
        <time>2014-11-23T13:58:45.000Z</time>
      </trkpt>
      <trkpt lat="48.89181" lon="-0.39611">
        <ele>144</ele>
        <time>2014-11-23T13:58:48.000Z</time>
      </trkpt>
      <trkpt lat="48.89183" lon="-0.39606">
        <ele>144</ele>
        <time>2014-11-23T13:58:50.000Z</time>
      </trkpt>
      <trkpt lat="48.89196" lon="-0.3958">
        <ele>144</ele>
        <time>2014-11-23T13:59:04.000Z</time>
      </trkpt>
      <trkpt lat="48.89198" lon="-0.39576">
        <ele>143.80000305176</ele>
        <time>2014-11-23T13:59:06.000Z</time>
      </trkpt>
      <trkpt lat="48.89206" lon="-0.39559">
        <ele>143.80000305176</ele>
        <time>2014-11-23T13:59:17.000Z</time>
      </trkpt>
      <trkpt lat="48.89207" lon="-0.39556">
        <ele>143.39999389648</ele>
        <time>2014-11-23T13:59:19.000Z</time>
      </trkpt>
      <trkpt lat="48.89208" lon="-0.39553">
        <ele>143</ele>
        <time>2014-11-23T13:59:21.000Z</time>
      </trkpt>
      <trkpt lat="48.8921" lon="-0.39549">
        <ele>142.80000305176</ele>
        <time>2014-11-23T13:59:24.000Z</time>
      </trkpt>
      <trkpt lat="48.89212" lon="-0.39545">
        <ele>142.60000610352</ele>
        <time>2014-11-23T13:59:27.000Z</time>
      </trkpt>
      <trkpt lat="48.89214" lon="-0.39541">
        <ele>142.80000305176</ele>
        <time>2014-11-23T13:59:30.000Z</time>
      </trkpt>
      <trkpt lat="48.89215" lon="-0.39538">
        <ele>143.19999694824</ele>
        <time>2014-11-23T13:59:32.000Z</time>
      </trkpt>
      <trkpt lat="48.89217" lon="-0.39533">
        <ele>143.60000610352</ele>
        <time>2014-11-23T13:59:35.000Z</time>
      </trkpt>
      <trkpt lat="48.89219" lon="-0.39529">
        <ele>143.80000305176</ele>
        <time>2014-11-23T13:59:37.000Z</time>
      </trkpt>
      <trkpt lat="48.89221" lon="-0.39524">
        <ele>144</ele>
        <time>2014-11-23T13:59:40.000Z</time>
      </trkpt>
      <trkpt lat="48.89223" lon="-0.39518">
        <ele>144.19999694824</ele>
        <time>2014-11-23T13:59:44.000Z</time>
      </trkpt>
      <trkpt lat="48.89225" lon="-0.39514">
        <ele>144.60000610352</ele>
        <time>2014-11-23T13:59:47.000Z</time>
      </trkpt>
      <trkpt lat="48.89228" lon="-0.3951">
        <ele>144.80000305176</ele>
        <time>2014-11-23T13:59:50.000Z</time>
      </trkpt>
      <trkpt lat="48.8923" lon="-0.39506">
        <ele>145</ele>
        <time>2014-11-23T13:59:53.000Z</time>
      </trkpt>
      <trkpt lat="48.89232" lon="-0.39501">
        <ele>145.19999694824</ele>
        <time>2014-11-23T13:59:56.000Z</time>
      </trkpt>
      <trkpt lat="48.89236" lon="-0.39493">
        <ele>145</ele>
        <time>2014-11-23T14:00:01.000Z</time>
      </trkpt>
      <trkpt lat="48.89238" lon="-0.39491">
        <ele>145</ele>
        <time>2014-11-23T14:00:03.000Z</time>
      </trkpt>
      <trkpt lat="48.89239" lon="-0.39488">
        <ele>144.80000305176</ele>
        <time>2014-11-23T14:00:05.000Z</time>
      </trkpt>
      <trkpt lat="48.89241" lon="-0.39483">
        <ele>144.60000610352</ele>
        <time>2014-11-23T14:00:08.000Z</time>
      </trkpt>
      <trkpt lat="48.89246" lon="-0.39474">
        <ele>144.80000305176</ele>
        <time>2014-11-23T14:00:15.000Z</time>
      </trkpt>
      <trkpt lat="48.89248" lon="-0.39472">
        <ele>145</ele>
        <time>2014-11-23T14:00:17.000Z</time>
      </trkpt>
      <trkpt lat="48.89252" lon="-0.3947">
        <ele>145.39999389648</ele>
        <time>2014-11-23T14:00:20.000Z</time>
      </trkpt>
      <trkpt lat="48.89254" lon="-0.3947">
        <ele>145.80000305176</ele>
        <time>2014-11-23T14:00:22.000Z</time>
      </trkpt>
      <trkpt lat="48.89257" lon="-0.39471">
        <ele>146</ele>
        <time>2014-11-23T14:00:25.000Z</time>
      </trkpt>
      <trkpt lat="48.89259" lon="-0.39474">
        <ele>145.80000305176</ele>
        <time>2014-11-23T14:00:28.000Z</time>
      </trkpt>
      <trkpt lat="48.89262" lon="-0.39478">
        <ele>146</ele>
        <time>2014-11-23T14:00:31.000Z</time>
      </trkpt>
      <trkpt lat="48.89265" lon="-0.39481">
        <ele>146.19999694824</ele>
        <time>2014-11-23T14:00:34.000Z</time>
      </trkpt>
      <trkpt lat="48.89266" lon="-0.39482">
        <ele>146.60000610352</ele>
        <time>2014-11-23T14:00:37.000Z</time>
      </trkpt>
      <trkpt lat="48.89267" lon="-0.39482">
        <ele>147.19999694824</ele>
        <time>2014-11-23T14:00:42.000Z</time>
      </trkpt>
      <trkpt lat="48.8927" lon="-0.39483">
        <ele>148</ele>
        <time>2014-11-23T14:00:45.000Z</time>
      </trkpt>
      <trkpt lat="48.89274" lon="-0.39484">
        <ele>148.80000305176</ele>
        <time>2014-11-23T14:00:48.000Z</time>
      </trkpt>
      <trkpt lat="48.89277" lon="-0.39486">
        <ele>149.39999389648</ele>
        <time>2014-11-23T14:00:50.000Z</time>
      </trkpt>
      <trkpt lat="48.8928" lon="-0.39488">
        <ele>149.60000610352</ele>
        <time>2014-11-23T14:00:52.000Z</time>
      </trkpt>
      <trkpt lat="48.89283" lon="-0.39491">
        <ele>150</ele>
        <time>2014-11-23T14:00:55.000Z</time>
      </trkpt>
      <trkpt lat="48.89285" lon="-0.39493">
        <ele>150.60000610352</ele>
        <time>2014-11-23T14:00:57.000Z</time>
      </trkpt>
      <trkpt lat="48.89289" lon="-0.39495">
        <ele>151.39999389648</ele>
        <time>2014-11-23T14:01:00.000Z</time>
      </trkpt>
      <trkpt lat="48.89291" lon="-0.39496">
        <ele>152</ele>
        <time>2014-11-23T14:01:02.000Z</time>
      </trkpt>
      <trkpt lat="48.89293" lon="-0.39498">
        <ele>152.60000610352</ele>
        <time>2014-11-23T14:01:05.000Z</time>
      </trkpt>
      <trkpt lat="48.89296" lon="-0.39501">
        <ele>153.19999694824</ele>
        <time>2014-11-23T14:01:07.000Z</time>
      </trkpt>
      <trkpt lat="48.89297" lon="-0.39504">
        <ele>153.60000610352</ele>
        <time>2014-11-23T14:01:09.000Z</time>
      </trkpt>
      <trkpt lat="48.893" lon="-0.3951">
        <ele>153.39999389648</ele>
        <time>2014-11-23T14:01:12.000Z</time>
      </trkpt>
      <trkpt lat="48.89303" lon="-0.39514">
        <ele>153.19999694824</ele>
        <time>2014-11-23T14:01:15.000Z</time>
      </trkpt>
      <trkpt lat="48.89305" lon="-0.39517">
        <ele>153.19999694824</ele>
        <time>2014-11-23T14:01:17.000Z</time>
      </trkpt>
      <trkpt lat="48.89307" lon="-0.39519">
        <ele>153</ele>
        <time>2014-11-23T14:01:19.000Z</time>
      </trkpt>
      <trkpt lat="48.89309" lon="-0.39521">
        <ele>152.80000305176</ele>
        <time>2014-11-23T14:01:21.000Z</time>
      </trkpt>
      <trkpt lat="48.89312" lon="-0.39523">
        <ele>153</ele>
        <time>2014-11-23T14:01:24.000Z</time>
      </trkpt>
      <trkpt lat="48.89314" lon="-0.39524">
        <ele>153.39999389648</ele>
        <time>2014-11-23T14:01:26.000Z</time>
      </trkpt>
      <trkpt lat="48.89317" lon="-0.39527">
        <ele>153.80000305176</ele>
        <time>2014-11-23T14:01:29.000Z</time>
      </trkpt>
      <trkpt lat="48.8932" lon="-0.3953">
        <ele>154.19999694824</ele>
        <time>2014-11-23T14:01:31.000Z</time>
      </trkpt>
      <trkpt lat="48.89324" lon="-0.39534">
        <ele>155</ele>
        <time>2014-11-23T14:01:34.000Z</time>
      </trkpt>
      <trkpt lat="48.89325" lon="-0.39539">
        <ele>156</ele>
        <time>2014-11-23T14:01:37.000Z</time>
      </trkpt>
      <trkpt lat="48.89326" lon="-0.39542">
        <ele>157.19999694824</ele>
        <time>2014-11-23T14:01:39.000Z</time>
      </trkpt>
      <trkpt lat="48.89328" lon="-0.39545">
        <ele>158</ele>
        <time>2014-11-23T14:01:42.000Z</time>
      </trkpt>
      <trkpt lat="48.89331" lon="-0.39549">
        <ele>159</ele>
        <time>2014-11-23T14:01:45.000Z</time>
      </trkpt>
      <trkpt lat="48.89334" lon="-0.39552">
        <ele>159.60000610352</ele>
        <time>2014-11-23T14:01:48.000Z</time>
      </trkpt>
      <trkpt lat="48.89336" lon="-0.39554">
        <ele>160</ele>
        <time>2014-11-23T14:01:50.000Z</time>
      </trkpt>
      <trkpt lat="48.89338" lon="-0.39556">
        <ele>160.60000610352</ele>
        <time>2014-11-23T14:01:52.000Z</time>
      </trkpt>
      <trkpt lat="48.89342" lon="-0.39558">
        <ele>161.80000305176</ele>
        <time>2014-11-23T14:01:55.000Z</time>
      </trkpt>
      <trkpt lat="48.89345" lon="-0.39561">
        <ele>162.80000305176</ele>
        <time>2014-11-23T14:01:58.000Z</time>
      </trkpt>
      <trkpt lat="48.89348" lon="-0.39565">
        <ele>163.60000610352</ele>
        <time>2014-11-23T14:02:01.000Z</time>
      </trkpt>
      <trkpt lat="48.89351" lon="-0.39568">
        <ele>164.19999694824</ele>
        <time>2014-11-23T14:02:04.000Z</time>
      </trkpt>
      <trkpt lat="48.89354" lon="-0.3957">
        <ele>164.60000610352</ele>
        <time>2014-11-23T14:02:07.000Z</time>
      </trkpt>
      <trkpt lat="48.89355" lon="-0.39572">
        <ele>164.60000610352</ele>
        <time>2014-11-23T14:02:10.000Z</time>
      </trkpt>
      <trkpt lat="48.89358" lon="-0.39573">
        <ele>164.39999389648</ele>
        <time>2014-11-23T14:02:12.000Z</time>
      </trkpt>
      <trkpt lat="48.8936" lon="-0.39575">
        <ele>165</ele>
        <time>2014-11-23T14:02:14.000Z</time>
      </trkpt>
      <trkpt lat="48.89363" lon="-0.39577">
        <ele>165.39999389648</ele>
        <time>2014-11-23T14:02:17.000Z</time>
      </trkpt>
      <trkpt lat="48.89367" lon="-0.3958">
        <ele>165.60000610352</ele>
        <time>2014-11-23T14:02:19.000Z</time>
      </trkpt>
      <trkpt lat="48.8937" lon="-0.39582">
        <ele>166</ele>
        <time>2014-11-23T14:02:22.000Z</time>
      </trkpt>
      <trkpt lat="48.89373" lon="-0.39585">
        <ele>166.60000610352</ele>
        <time>2014-11-23T14:02:25.000Z</time>
      </trkpt>
      <trkpt lat="48.89376" lon="-0.39586">
        <ele>167</ele>
        <time>2014-11-23T14:02:28.000Z</time>
      </trkpt>
      <trkpt lat="48.89378" lon="-0.39588">
        <ele>167.60000610352</ele>
        <time>2014-11-23T14:02:30.000Z</time>
      </trkpt>
      <trkpt lat="48.89381" lon="-0.3959">
        <ele>168.19999694824</ele>
        <time>2014-11-23T14:02:33.000Z</time>
      </trkpt>
      <trkpt lat="48.89384" lon="-0.39592">
        <ele>168.39999389648</ele>
        <time>2014-11-23T14:02:36.000Z</time>
      </trkpt>
      <trkpt lat="48.89386" lon="-0.39594">
        <ele>168.60000610352</ele>
        <time>2014-11-23T14:02:38.000Z</time>
      </trkpt>
      <trkpt lat="48.89388" lon="-0.39596">
        <ele>168.39999389648</ele>
        <time>2014-11-23T14:02:41.000Z</time>
      </trkpt>
      <trkpt lat="48.89389" lon="-0.39598">
        <ele>168.19999694824</ele>
        <time>2014-11-23T14:02:43.000Z</time>
      </trkpt>
      <trkpt lat="48.89389" lon="-0.39597">
        <ele>167.60000610352</ele>
        <time>2014-11-23T14:02:48.000Z</time>
      </trkpt>
      <trkpt lat="48.89389" lon="-0.39597">
        <ele>167.60000610352</ele>
        <time>2014-11-23T14:03:08.000Z</time>
      </trkpt>
      <trkpt lat="48.89389" lon="-0.39595">
        <ele>167.60000610352</ele>
        <time>2014-11-23T14:03:19.000Z</time>
      </trkpt>
      <trkpt lat="48.89389" lon="-0.39597">
        <ele>167.60000610352</ele>
        <time>2014-11-23T14:03:36.000Z</time>
      </trkpt>
      <trkpt lat="48.89389" lon="-0.39599">
        <ele>167.60000610352</ele>
        <time>2014-11-23T14:03:43.000Z</time>
      </trkpt>
      <trkpt lat="48.89391" lon="-0.396">
        <ele>167.80000305176</ele>
        <time>2014-11-23T14:04:02.000Z</time>
      </trkpt>
      <trkpt lat="48.89392" lon="-0.39602">
        <ele>168.39999389648</ele>
        <time>2014-11-23T14:04:04.000Z</time>
      </trkpt>
      <trkpt lat="48.89391" lon="-0.39603">
        <ele>168.60000610352</ele>
        <time>2014-11-23T14:04:08.000Z</time>
      </trkpt>
      <trkpt lat="48.89389" lon="-0.39602">
        <ele>168.80000305176</ele>
        <time>2014-11-23T14:04:14.000Z</time>
      </trkpt>
      <trkpt lat="48.89389" lon="-0.39601">
        <ele>169</ele>
        <time>2014-11-23T14:04:18.000Z</time>
      </trkpt>
      <trkpt lat="48.89389" lon="-0.39599">
        <ele>169.19999694824</ele>
        <time>2014-11-23T14:04:22.000Z</time>
      </trkpt>
      <trkpt lat="48.8939" lon="-0.39595">
        <ele>169.39999389648</ele>
        <time>2014-11-23T14:04:25.000Z</time>
      </trkpt>
      <trkpt lat="48.89392" lon="-0.39592">
        <ele>169.80000305176</ele>
        <time>2014-11-23T14:04:27.000Z</time>
      </trkpt>
      <trkpt lat="48.89394" lon="-0.39587">
        <ele>170.19999694824</ele>
        <time>2014-11-23T14:04:30.000Z</time>
      </trkpt>
      <trkpt lat="48.89396" lon="-0.39584">
        <ele>170.60000610352</ele>
        <time>2014-11-23T14:04:32.000Z</time>
      </trkpt>
      <trkpt lat="48.89397" lon="-0.3958">
        <ele>170.80000305176</ele>
        <time>2014-11-23T14:04:34.000Z</time>
      </trkpt>
      <trkpt lat="48.89398" lon="-0.39575">
        <ele>171.19999694824</ele>
        <time>2014-11-23T14:04:37.000Z</time>
      </trkpt>
      <trkpt lat="48.894" lon="-0.3957">
        <ele>171.39999389648</ele>
        <time>2014-11-23T14:04:40.000Z</time>
      </trkpt>
      <trkpt lat="48.89401" lon="-0.39568">
        <ele>171.60000610352</ele>
        <time>2014-11-23T14:04:42.000Z</time>
      </trkpt>
      <trkpt lat="48.89403" lon="-0.39565">
        <ele>171.80000305176</ele>
        <time>2014-11-23T14:04:44.000Z</time>
      </trkpt>
      <trkpt lat="48.89404" lon="-0.39561">
        <ele>172</ele>
        <time>2014-11-23T14:04:47.000Z</time>
      </trkpt>
      <trkpt lat="48.89405" lon="-0.39558">
        <ele>172</ele>
        <time>2014-11-23T14:04:49.000Z</time>
      </trkpt>
      <trkpt lat="48.89414" lon="-0.3954">
        <ele>171.80000305176</ele>
        <time>2014-11-23T14:05:04.000Z</time>
      </trkpt>
      <trkpt lat="48.89416" lon="-0.39537">
        <ele>171.60000610352</ele>
        <time>2014-11-23T14:05:07.000Z</time>
      </trkpt>
      <trkpt lat="48.89418" lon="-0.39533">
        <ele>171.39999389648</ele>
        <time>2014-11-23T14:05:10.000Z</time>
      </trkpt>
      <trkpt lat="48.89421" lon="-0.3953">
        <ele>171</ele>
        <time>2014-11-23T14:05:13.000Z</time>
      </trkpt>
      <trkpt lat="48.89423" lon="-0.39529">
        <ele>170.80000305176</ele>
        <time>2014-11-23T14:05:15.000Z</time>
      </trkpt>
      <trkpt lat="48.89425" lon="-0.39529">
        <ele>170.80000305176</ele>
        <time>2014-11-23T14:05:17.000Z</time>
      </trkpt>
      <trkpt lat="48.89426" lon="-0.39527">
        <ele>171</ele>
        <time>2014-11-23T14:05:19.000Z</time>
      </trkpt>
      <trkpt lat="48.89428" lon="-0.39523">
        <ele>171.19999694824</ele>
        <time>2014-11-23T14:05:22.000Z</time>
      </trkpt>
      <trkpt lat="48.8943" lon="-0.39521">
        <ele>171.60000610352</ele>
        <time>2014-11-23T14:05:25.000Z</time>
      </trkpt>
      <trkpt lat="48.89433" lon="-0.39517">
        <ele>171.80000305176</ele>
        <time>2014-11-23T14:05:28.000Z</time>
      </trkpt>
      <trkpt lat="48.89435" lon="-0.39514">
        <ele>172</ele>
        <time>2014-11-23T14:05:31.000Z</time>
      </trkpt>
      <trkpt lat="48.89439" lon="-0.39508">
        <ele>172.19999694824</ele>
        <time>2014-11-23T14:05:34.000Z</time>
      </trkpt>
      <trkpt lat="48.89441" lon="-0.39504">
        <ele>172.39999389648</ele>
        <time>2014-11-23T14:05:36.000Z</time>
      </trkpt>
      <trkpt lat="48.89444" lon="-0.39498">
        <ele>172.60000610352</ele>
        <time>2014-11-23T14:05:41.000Z</time>
      </trkpt>
      <trkpt lat="48.89445" lon="-0.39497">
        <ele>173</ele>
        <time>2014-11-23T14:05:43.000Z</time>
      </trkpt>
      <trkpt lat="48.89447" lon="-0.39494">
        <ele>173</ele>
        <time>2014-11-23T14:05:45.000Z</time>
      </trkpt>
      <trkpt lat="48.89449" lon="-0.3949">
        <ele>172.80000305176</ele>
        <time>2014-11-23T14:05:48.000Z</time>
      </trkpt>
      <trkpt lat="48.89451" lon="-0.39487">
        <ele>172.80000305176</ele>
        <time>2014-11-23T14:05:50.000Z</time>
      </trkpt>
      <trkpt lat="48.89453" lon="-0.39485">
        <ele>172.39999389648</ele>
        <time>2014-11-23T14:05:52.000Z</time>
      </trkpt>
      <trkpt lat="48.89456" lon="-0.39481">
        <ele>172</ele>
        <time>2014-11-23T14:05:55.000Z</time>
      </trkpt>
      <trkpt lat="48.89458" lon="-0.39479">
        <ele>171.80000305176</ele>
        <time>2014-11-23T14:05:57.000Z</time>
      </trkpt>
      <trkpt lat="48.8946" lon="-0.39477">
        <ele>171.80000305176</ele>
        <time>2014-11-23T14:05:59.000Z</time>
      </trkpt>
      <trkpt lat="48.89463" lon="-0.39473">
        <ele>172</ele>
        <time>2014-11-23T14:06:02.000Z</time>
      </trkpt>
      <trkpt lat="48.89464" lon="-0.39471">
        <ele>172.39999389648</ele>
        <time>2014-11-23T14:06:04.000Z</time>
      </trkpt>
      <trkpt lat="48.89466" lon="-0.39469">
        <ele>172.80000305176</ele>
        <time>2014-11-23T14:06:06.000Z</time>
      </trkpt>
      <trkpt lat="48.89467" lon="-0.39464">
        <ele>173.19999694824</ele>
        <time>2014-11-23T14:06:09.000Z</time>
      </trkpt>
      <trkpt lat="48.89468" lon="-0.39462">
        <ele>173.60000610352</ele>
        <time>2014-11-23T14:06:11.000Z</time>
      </trkpt>
      <trkpt lat="48.8947" lon="-0.39459">
        <ele>173.80000305176</ele>
        <time>2014-11-23T14:06:13.000Z</time>
      </trkpt>
      <trkpt lat="48.89471" lon="-0.39455">
        <ele>174.19999694824</ele>
        <time>2014-11-23T14:06:16.000Z</time>
      </trkpt>
      <trkpt lat="48.89473" lon="-0.39453">
        <ele>174.39999389648</ele>
        <time>2014-11-23T14:06:18.000Z</time>
      </trkpt>
      <trkpt lat="48.89474" lon="-0.39451">
        <ele>174.19999694824</ele>
        <time>2014-11-23T14:06:20.000Z</time>
      </trkpt>
      <trkpt lat="48.89478" lon="-0.39448">
        <ele>174</ele>
        <time>2014-11-23T14:06:23.000Z</time>
      </trkpt>
      <trkpt lat="48.89479" lon="-0.39445">
        <ele>174</ele>
        <time>2014-11-23T14:06:25.000Z</time>
      </trkpt>
      <trkpt lat="48.89481" lon="-0.39443">
        <ele>173.80000305176</ele>
        <time>2014-11-23T14:06:28.000Z</time>
      </trkpt>
      <trkpt lat="48.89482" lon="-0.3944">
        <ele>173.60000610352</ele>
        <time>2014-11-23T14:06:30.000Z</time>
      </trkpt>
      <trkpt lat="48.89484" lon="-0.39438">
        <ele>173.80000305176</ele>
        <time>2014-11-23T14:06:32.000Z</time>
      </trkpt>
      <trkpt lat="48.89487" lon="-0.39437">
        <ele>174.19999694824</ele>
        <time>2014-11-23T14:06:35.000Z</time>
      </trkpt>
      <trkpt lat="48.89488" lon="-0.39434">
        <ele>174.39999389648</ele>
        <time>2014-11-23T14:06:38.000Z</time>
      </trkpt>
      <trkpt lat="48.89491" lon="-0.3943">
        <ele>174.80000305176</ele>
        <time>2014-11-23T14:06:41.000Z</time>
      </trkpt>
      <trkpt lat="48.89492" lon="-0.39427">
        <ele>175.19999694824</ele>
        <time>2014-11-23T14:06:43.000Z</time>
      </trkpt>
      <trkpt lat="48.89494" lon="-0.39422">
        <ele>175.60000610352</ele>
        <time>2014-11-23T14:06:46.000Z</time>
      </trkpt>
      <trkpt lat="48.89497" lon="-0.39417">
        <ele>175.80000305176</ele>
        <time>2014-11-23T14:06:49.000Z</time>
      </trkpt>
      <trkpt lat="48.89499" lon="-0.39414">
        <ele>176</ele>
        <time>2014-11-23T14:06:51.000Z</time>
      </trkpt>
      <trkpt lat="48.895" lon="-0.3941">
        <ele>175.80000305176</ele>
        <time>2014-11-23T14:06:54.000Z</time>
      </trkpt>
      <trkpt lat="48.89503" lon="-0.39407">
        <ele>175.60000610352</ele>
        <time>2014-11-23T14:06:57.000Z</time>
      </trkpt>
      <trkpt lat="48.89505" lon="-0.39403">
        <ele>175.39999389648</ele>
        <time>2014-11-23T14:06:59.000Z</time>
      </trkpt>
      <trkpt lat="48.89508" lon="-0.39399">
        <ele>175.39999389648</ele>
        <time>2014-11-23T14:07:04.000Z</time>
      </trkpt>
      <trkpt lat="48.89511" lon="-0.39397">
        <ele>175.19999694824</ele>
        <time>2014-11-23T14:07:07.000Z</time>
      </trkpt>
      <trkpt lat="48.89512" lon="-0.39392">
        <ele>175</ele>
        <time>2014-11-23T14:07:09.000Z</time>
      </trkpt>
      <trkpt lat="48.89513" lon="-0.39389">
        <ele>174.80000305176</ele>
        <time>2014-11-23T14:07:11.000Z</time>
      </trkpt>
      <trkpt lat="48.89515" lon="-0.39387">
        <ele>174.60000610352</ele>
        <time>2014-11-23T14:07:14.000Z</time>
      </trkpt>
      <trkpt lat="48.89516" lon="-0.39383">
        <ele>174.39999389648</ele>
        <time>2014-11-23T14:07:17.000Z</time>
      </trkpt>
      <trkpt lat="48.89518" lon="-0.39379">
        <ele>174.80000305176</ele>
        <time>2014-11-23T14:07:20.000Z</time>
      </trkpt>
      <trkpt lat="48.8952" lon="-0.39375">
        <ele>175</ele>
        <time>2014-11-23T14:07:22.000Z</time>
      </trkpt>
      <trkpt lat="48.89522" lon="-0.39371">
        <ele>175.19999694824</ele>
        <time>2014-11-23T14:07:25.000Z</time>
      </trkpt>
      <trkpt lat="48.89523" lon="-0.39367">
        <ele>175.19999694824</ele>
        <time>2014-11-23T14:07:27.000Z</time>
      </trkpt>
      <trkpt lat="48.89525" lon="-0.39361">
        <ele>175</ele>
        <time>2014-11-23T14:07:30.000Z</time>
      </trkpt>
      <trkpt lat="48.89526" lon="-0.3936">
        <ele>174.60000610352</ele>
        <time>2014-11-23T14:07:32.000Z</time>
      </trkpt>
      <trkpt lat="48.89528" lon="-0.39359">
        <ele>174.39999389648</ele>
        <time>2014-11-23T14:07:35.000Z</time>
      </trkpt>
      <trkpt lat="48.89531" lon="-0.39356">
        <ele>174.39999389648</ele>
        <time>2014-11-23T14:07:38.000Z</time>
      </trkpt>
      <trkpt lat="48.89532" lon="-0.39353">
        <ele>174.60000610352</ele>
        <time>2014-11-23T14:07:40.000Z</time>
      </trkpt>
      <trkpt lat="48.89534" lon="-0.39351">
        <ele>175.19999694824</ele>
        <time>2014-11-23T14:07:42.000Z</time>
      </trkpt>
      <trkpt lat="48.89538" lon="-0.39348">
        <ele>175.80000305176</ele>
        <time>2014-11-23T14:07:45.000Z</time>
      </trkpt>
      <trkpt lat="48.8954" lon="-0.39346">
        <ele>176.39999389648</ele>
        <time>2014-11-23T14:07:47.000Z</time>
      </trkpt>
      <trkpt lat="48.89542" lon="-0.39344">
        <ele>176.80000305176</ele>
        <time>2014-11-23T14:07:50.000Z</time>
      </trkpt>
      <trkpt lat="48.89544" lon="-0.39341">
        <ele>176.80000305176</ele>
        <time>2014-11-23T14:07:53.000Z</time>
      </trkpt>
      <trkpt lat="48.89545" lon="-0.39339">
        <ele>176.60000610352</ele>
        <time>2014-11-23T14:07:55.000Z</time>
      </trkpt>
      <trkpt lat="48.89547" lon="-0.39336">
        <ele>176.39999389648</ele>
        <time>2014-11-23T14:07:57.000Z</time>
      </trkpt>
      <trkpt lat="48.89548" lon="-0.39333">
        <ele>176.19999694824</ele>
        <time>2014-11-23T14:08:00.000Z</time>
      </trkpt>
      <trkpt lat="48.8955" lon="-0.39331">
        <ele>176</ele>
        <time>2014-11-23T14:08:02.000Z</time>
      </trkpt>
      <trkpt lat="48.89552" lon="-0.39329">
        <ele>176</ele>
        <time>2014-11-23T14:08:05.000Z</time>
      </trkpt>
      <trkpt lat="48.89553" lon="-0.39328">
        <ele>175.80000305176</ele>
        <time>2014-11-23T14:08:07.000Z</time>
      </trkpt>
      <trkpt lat="48.89556" lon="-0.39327">
        <ele>175.60000610352</ele>
        <time>2014-11-23T14:08:10.000Z</time>
      </trkpt>
      <trkpt lat="48.89558" lon="-0.39324">
        <ele>175.60000610352</ele>
        <time>2014-11-23T14:08:13.000Z</time>
      </trkpt>
      <trkpt lat="48.89562" lon="-0.39317">
        <ele>175.80000305176</ele>
        <time>2014-11-23T14:08:18.000Z</time>
      </trkpt>
      <trkpt lat="48.89564" lon="-0.39314">
        <ele>176.19999694824</ele>
        <time>2014-11-23T14:08:20.000Z</time>
      </trkpt>
      <trkpt lat="48.89565" lon="-0.39312">
        <ele>176.60000610352</ele>
        <time>2014-11-23T14:08:22.000Z</time>
      </trkpt>
      <trkpt lat="48.89567" lon="-0.39307">
        <ele>176.80000305176</ele>
        <time>2014-11-23T14:08:25.000Z</time>
      </trkpt>
      <trkpt lat="48.89569" lon="-0.39302">
        <ele>177</ele>
        <time>2014-11-23T14:08:28.000Z</time>
      </trkpt>
      <trkpt lat="48.89573" lon="-0.39292">
        <ele>177.19999694824</ele>
        <time>2014-11-23T14:08:35.000Z</time>
      </trkpt>
      <trkpt lat="48.89576" lon="-0.39289">
        <ele>177.19999694824</ele>
        <time>2014-11-23T14:08:38.000Z</time>
      </trkpt>
      <trkpt lat="48.89577" lon="-0.39286">
        <ele>177.39999389648</ele>
        <time>2014-11-23T14:08:40.000Z</time>
      </trkpt>
      <trkpt lat="48.89579" lon="-0.39284">
        <ele>177.60000610352</ele>
        <time>2014-11-23T14:08:42.000Z</time>
      </trkpt>
      <trkpt lat="48.89582" lon="-0.39282">
        <ele>177.80000305176</ele>
        <time>2014-11-23T14:08:45.000Z</time>
      </trkpt>
      <trkpt lat="48.89583" lon="-0.39279">
        <ele>178</ele>
        <time>2014-11-23T14:08:47.000Z</time>
      </trkpt>
      <trkpt lat="48.89585" lon="-0.39274">
        <ele>178.39999389648</ele>
        <time>2014-11-23T14:08:49.000Z</time>
      </trkpt>
      <trkpt lat="48.89587" lon="-0.39268">
        <ele>178.60000610352</ele>
        <time>2014-11-23T14:08:52.000Z</time>
      </trkpt>
      <trkpt lat="48.89589" lon="-0.39264">
        <ele>178.80000305176</ele>
        <time>2014-11-23T14:08:54.000Z</time>
      </trkpt>
      <trkpt lat="48.8959" lon="-0.39261">
        <ele>179</ele>
        <time>2014-11-23T14:08:57.000Z</time>
      </trkpt>
      <trkpt lat="48.89592" lon="-0.39257">
        <ele>179.19999694824</ele>
        <time>2014-11-23T14:09:00.000Z</time>
      </trkpt>
      <trkpt lat="48.89593" lon="-0.39255">
        <ele>179.39999389648</ele>
        <time>2014-11-23T14:09:02.000Z</time>
      </trkpt>
      <trkpt lat="48.89596" lon="-0.39251">
        <ele>179.60000610352</ele>
        <time>2014-11-23T14:09:05.000Z</time>
      </trkpt>
      <trkpt lat="48.89599" lon="-0.39246">
        <ele>179.80000305176</ele>
        <time>2014-11-23T14:09:08.000Z</time>
      </trkpt>
      <trkpt lat="48.89601" lon="-0.39242">
        <ele>180</ele>
        <time>2014-11-23T14:09:11.000Z</time>
      </trkpt>
      <trkpt lat="48.89604" lon="-0.39238">
        <ele>180.19999694824</ele>
        <time>2014-11-23T14:09:15.000Z</time>
      </trkpt>
      <trkpt lat="48.89608" lon="-0.39238">
        <ele>180.39999389648</ele>
        <time>2014-11-23T14:09:18.000Z</time>
      </trkpt>
      <trkpt lat="48.89609" lon="-0.39239">
        <ele>180.19999694824</ele>
        <time>2014-11-23T14:09:21.000Z</time>
      </trkpt>
      <trkpt lat="48.89612" lon="-0.39241">
        <ele>180.19999694824</ele>
        <time>2014-11-23T14:09:24.000Z</time>
      </trkpt>
      <trkpt lat="48.89615" lon="-0.39239">
        <ele>179.80000305176</ele>
        <time>2014-11-23T14:09:27.000Z</time>
      </trkpt>
      <trkpt lat="48.89615" lon="-0.39238">
        <ele>179</ele>
        <time>2014-11-23T14:09:30.000Z</time>
      </trkpt>
      <trkpt lat="48.89616" lon="-0.39236">
        <ele>178.19999694824</ele>
        <time>2014-11-23T14:09:33.000Z</time>
      </trkpt>
      <trkpt lat="48.89617" lon="-0.39234">
        <ele>177.80000305176</ele>
        <time>2014-11-23T14:09:35.000Z</time>
      </trkpt>
      <trkpt lat="48.89619" lon="-0.39229">
        <ele>177</ele>
        <time>2014-11-23T14:09:38.000Z</time>
      </trkpt>
      <trkpt lat="48.89622" lon="-0.39223">
        <ele>176.60000610352</ele>
        <time>2014-11-23T14:09:41.000Z</time>
      </trkpt>
      <trkpt lat="48.89623" lon="-0.3922">
        <ele>176.39999389648</ele>
        <time>2014-11-23T14:09:43.000Z</time>
      </trkpt>
      <trkpt lat="48.89626" lon="-0.39216">
        <ele>176.39999389648</ele>
        <time>2014-11-23T14:09:49.000Z</time>
      </trkpt>
      <trkpt lat="48.89628" lon="-0.39213">
        <ele>176.80000305176</ele>
        <time>2014-11-23T14:09:51.000Z</time>
      </trkpt>
      <trkpt lat="48.89631" lon="-0.39209">
        <ele>177</ele>
        <time>2014-11-23T14:09:54.000Z</time>
      </trkpt>
      <trkpt lat="48.89632" lon="-0.39206">
        <ele>177.19999694824</ele>
        <time>2014-11-23T14:09:56.000Z</time>
      </trkpt>
      <trkpt lat="48.89636" lon="-0.39201">
        <ele>177.39999389648</ele>
        <time>2014-11-23T14:09:59.000Z</time>
      </trkpt>
      <trkpt lat="48.89637" lon="-0.39199">
        <ele>177.80000305176</ele>
        <time>2014-11-23T14:10:01.000Z</time>
      </trkpt>
      <trkpt lat="48.89639" lon="-0.39196">
        <ele>178.39999389648</ele>
        <time>2014-11-23T14:10:03.000Z</time>
      </trkpt>
      <trkpt lat="48.8964" lon="-0.39192">
        <ele>179</ele>
        <time>2014-11-23T14:10:06.000Z</time>
      </trkpt>
      <trkpt lat="48.89642" lon="-0.39187">
        <ele>179.60000610352</ele>
        <time>2014-11-23T14:10:09.000Z</time>
      </trkpt>
      <trkpt lat="48.89644" lon="-0.39186">
        <ele>179.80000305176</ele>
        <time>2014-11-23T14:10:11.000Z</time>
      </trkpt>
      <trkpt lat="48.89646" lon="-0.39184">
        <ele>180</ele>
        <time>2014-11-23T14:10:14.000Z</time>
      </trkpt>
      <trkpt lat="48.89648" lon="-0.39182">
        <ele>180</ele>
        <time>2014-11-23T14:10:17.000Z</time>
      </trkpt>
      <trkpt lat="48.8965" lon="-0.39181">
        <ele>180.19999694824</ele>
        <time>2014-11-23T14:10:20.000Z</time>
      </trkpt>
      <trkpt lat="48.89651" lon="-0.39179">
        <ele>180.60000610352</ele>
        <time>2014-11-23T14:10:22.000Z</time>
      </trkpt>
      <trkpt lat="48.89653" lon="-0.39177">
        <ele>181.19999694824</ele>
        <time>2014-11-23T14:10:24.000Z</time>
      </trkpt>
      <trkpt lat="48.89655" lon="-0.39173">
        <ele>181.80000305176</ele>
        <time>2014-11-23T14:10:27.000Z</time>
      </trkpt>
      <trkpt lat="48.89656" lon="-0.39171">
        <ele>182.19999694824</ele>
        <time>2014-11-23T14:10:29.000Z</time>
      </trkpt>
      <trkpt lat="48.89659" lon="-0.39167">
        <ele>182.80000305176</ele>
        <time>2014-11-23T14:10:32.000Z</time>
      </trkpt>
      <trkpt lat="48.89661" lon="-0.39164">
        <ele>183.39999389648</ele>
        <time>2014-11-23T14:10:34.000Z</time>
      </trkpt>
      <trkpt lat="48.89664" lon="-0.39163">
        <ele>183.60000610352</ele>
        <time>2014-11-23T14:10:36.000Z</time>
      </trkpt>
      <trkpt lat="48.89666" lon="-0.39161">
        <ele>183.60000610352</ele>
        <time>2014-11-23T14:10:38.000Z</time>
      </trkpt>
      <trkpt lat="48.89668" lon="-0.39157">
        <ele>183.39999389648</ele>
        <time>2014-11-23T14:10:41.000Z</time>
      </trkpt>
      <trkpt lat="48.89669" lon="-0.39154">
        <ele>182.80000305176</ele>
        <time>2014-11-23T14:10:43.000Z</time>
      </trkpt>
      <trkpt lat="48.8967" lon="-0.3915">
        <ele>181.80000305176</ele>
        <time>2014-11-23T14:10:46.000Z</time>
      </trkpt>
      <trkpt lat="48.89673" lon="-0.39147">
        <ele>181</ele>
        <time>2014-11-23T14:10:48.000Z</time>
      </trkpt>
      <trkpt lat="48.89677" lon="-0.39143">
        <ele>180.60000610352</ele>
        <time>2014-11-23T14:10:51.000Z</time>
      </trkpt>
      <trkpt lat="48.89684" lon="-0.39135">
        <ele>180.80000305176</ele>
        <time>2014-11-23T14:10:59.000Z</time>
      </trkpt>
      <trkpt lat="48.89686" lon="-0.39133">
        <ele>181</ele>
        <time>2014-11-23T14:11:01.000Z</time>
      </trkpt>
      <trkpt lat="48.89692" lon="-0.39128">
        <ele>180.80000305176</ele>
        <time>2014-11-23T14:11:07.000Z</time>
      </trkpt>
      <trkpt lat="48.89695" lon="-0.39125">
        <ele>180.60000610352</ele>
        <time>2014-11-23T14:11:10.000Z</time>
      </trkpt>
      <trkpt lat="48.89697" lon="-0.39124">
        <ele>180.60000610352</ele>
        <time>2014-11-23T14:11:12.000Z</time>
      </trkpt>
      <trkpt lat="48.89699" lon="-0.39124">
        <ele>181</ele>
        <time>2014-11-23T14:11:14.000Z</time>
      </trkpt>
      <trkpt lat="48.89701" lon="-0.3912">
        <ele>181.19999694824</ele>
        <time>2014-11-23T14:11:17.000Z</time>
      </trkpt>
      <trkpt lat="48.89705" lon="-0.39117">
        <ele>181.19999694824</ele>
        <time>2014-11-23T14:11:20.000Z</time>
      </trkpt>
      <trkpt lat="48.89707" lon="-0.39116">
        <ele>181.60000610352</ele>
        <time>2014-11-23T14:11:22.000Z</time>
      </trkpt>
      <trkpt lat="48.89711" lon="-0.39113">
        <ele>181.60000610352</ele>
        <time>2014-11-23T14:11:27.000Z</time>
      </trkpt>
      <trkpt lat="48.89715" lon="-0.39109">
        <ele>181.60000610352</ele>
        <time>2014-11-23T14:11:30.000Z</time>
      </trkpt>
      <trkpt lat="48.89717" lon="-0.39107">
        <ele>181.80000305176</ele>
        <time>2014-11-23T14:11:33.000Z</time>
      </trkpt>
      <trkpt lat="48.89718" lon="-0.39103">
        <ele>181.60000610352</ele>
        <time>2014-11-23T14:11:36.000Z</time>
      </trkpt>
      <trkpt lat="48.8972" lon="-0.391">
        <ele>181.80000305176</ele>
        <time>2014-11-23T14:11:38.000Z</time>
      </trkpt>
      <trkpt lat="48.89721" lon="-0.39097">
        <ele>181.80000305176</ele>
        <time>2014-11-23T14:11:40.000Z</time>
      </trkpt>
      <trkpt lat="48.89724" lon="-0.39087">
        <ele>182</ele>
        <time>2014-11-23T14:11:46.000Z</time>
      </trkpt>
      <trkpt lat="48.89725" lon="-0.39082">
        <ele>182.19999694824</ele>
        <time>2014-11-23T14:11:49.000Z</time>
      </trkpt>
      <trkpt lat="48.89726" lon="-0.39078">
        <ele>182.39999389648</ele>
        <time>2014-11-23T14:11:51.000Z</time>
      </trkpt>
      <trkpt lat="48.89728" lon="-0.39071">
        <ele>182.60000610352</ele>
        <time>2014-11-23T14:11:54.000Z</time>
      </trkpt>
      <trkpt lat="48.89729" lon="-0.39067">
        <ele>182.80000305176</ele>
        <time>2014-11-23T14:11:56.000Z</time>
      </trkpt>
      <trkpt lat="48.89731" lon="-0.39058">
        <ele>183.19999694824</ele>
        <time>2014-11-23T14:12:01.000Z</time>
      </trkpt>
      <trkpt lat="48.89732" lon="-0.39055">
        <ele>183.60000610352</ele>
        <time>2014-11-23T14:12:04.000Z</time>
      </trkpt>
      <trkpt lat="48.89734" lon="-0.39052">
        <ele>184</ele>
        <time>2014-11-23T14:12:06.000Z</time>
      </trkpt>
      <trkpt lat="48.89736" lon="-0.39047">
        <ele>184.39999389648</ele>
        <time>2014-11-23T14:12:09.000Z</time>
      </trkpt>
      <trkpt lat="48.89737" lon="-0.39045">
        <ele>184.80000305176</ele>
        <time>2014-11-23T14:12:11.000Z</time>
      </trkpt>
      <trkpt lat="48.89737" lon="-0.39041">
        <ele>185</ele>
        <time>2014-11-23T14:12:13.000Z</time>
      </trkpt>
      <trkpt lat="48.89738" lon="-0.39039">
        <ele>184.80000305176</ele>
        <time>2014-11-23T14:12:15.000Z</time>
      </trkpt>
      <trkpt lat="48.89738" lon="-0.39034">
        <ele>184.80000305176</ele>
        <time>2014-11-23T14:12:18.000Z</time>
      </trkpt>
      <trkpt lat="48.89739" lon="-0.39026">
        <ele>185.19999694824</ele>
        <time>2014-11-23T14:12:23.000Z</time>
      </trkpt>
      <trkpt lat="48.89741" lon="-0.39021">
        <ele>185.39999389648</ele>
        <time>2014-11-23T14:12:26.000Z</time>
      </trkpt>
      <trkpt lat="48.89742" lon="-0.39019">
        <ele>186</ele>
        <time>2014-11-23T14:12:28.000Z</time>
      </trkpt>
      <trkpt lat="48.89742" lon="-0.39016">
        <ele>186.19999694824</ele>
        <time>2014-11-23T14:12:30.000Z</time>
      </trkpt>
      <trkpt lat="48.89745" lon="-0.39007">
        <ele>186</ele>
        <time>2014-11-23T14:12:36.000Z</time>
      </trkpt>
      <trkpt lat="48.89745" lon="-0.39004">
        <ele>186</ele>
        <time>2014-11-23T14:12:39.000Z</time>
      </trkpt>
      <trkpt lat="48.89744" lon="-0.38999">
        <ele>185.80000305176</ele>
        <time>2014-11-23T14:12:42.000Z</time>
      </trkpt>
      <trkpt lat="48.89744" lon="-0.38987">
        <ele>186</ele>
        <time>2014-11-23T14:12:47.000Z</time>
      </trkpt>
      <trkpt lat="48.89743" lon="-0.38981">
        <ele>186.19999694824</ele>
        <time>2014-11-23T14:12:50.000Z</time>
      </trkpt>
      <trkpt lat="48.89742" lon="-0.38975">
        <ele>186.19999694824</ele>
        <time>2014-11-23T14:12:53.000Z</time>
      </trkpt>
      <trkpt lat="48.89742" lon="-0.38972">
        <ele>186.39999389648</ele>
        <time>2014-11-23T14:12:55.000Z</time>
      </trkpt>
      <trkpt lat="48.89741" lon="-0.38968">
        <ele>186.60000610352</ele>
        <time>2014-11-23T14:12:57.000Z</time>
      </trkpt>
      <trkpt lat="48.89739" lon="-0.38962">
        <ele>186.80000305176</ele>
        <time>2014-11-23T14:13:00.000Z</time>
      </trkpt>
      <trkpt lat="48.89737" lon="-0.38958">
        <ele>186.80000305176</ele>
        <time>2014-11-23T14:13:02.000Z</time>
      </trkpt>
      <trkpt lat="48.89736" lon="-0.38953">
        <ele>186.80000305176</ele>
        <time>2014-11-23T14:13:05.000Z</time>
      </trkpt>
      <trkpt lat="48.89734" lon="-0.38943">
        <ele>187</ele>
        <time>2014-11-23T14:13:13.000Z</time>
      </trkpt>
      <trkpt lat="48.89732" lon="-0.38939">
        <ele>187.39999389648</ele>
        <time>2014-11-23T14:13:15.000Z</time>
      </trkpt>
      <trkpt lat="48.89731" lon="-0.38937">
        <ele>188</ele>
        <time>2014-11-23T14:13:17.000Z</time>
      </trkpt>
      <trkpt lat="48.8973" lon="-0.38932">
        <ele>188.19999694824</ele>
        <time>2014-11-23T14:13:20.000Z</time>
      </trkpt>
      <trkpt lat="48.89729" lon="-0.38929">
        <ele>188.39999389648</ele>
        <time>2014-11-23T14:13:22.000Z</time>
      </trkpt>
      <trkpt lat="48.89728" lon="-0.38926">
        <ele>188</ele>
        <time>2014-11-23T14:13:25.000Z</time>
      </trkpt>
      <trkpt lat="48.89727" lon="-0.3892">
        <ele>187.19999694824</ele>
        <time>2014-11-23T14:13:28.000Z</time>
      </trkpt>
      <trkpt lat="48.89726" lon="-0.38916">
        <ele>186.60000610352</ele>
        <time>2014-11-23T14:13:30.000Z</time>
      </trkpt>
      <trkpt lat="48.89725" lon="-0.38911">
        <ele>186.39999389648</ele>
        <time>2014-11-23T14:13:32.000Z</time>
      </trkpt>
      <trkpt lat="48.89724" lon="-0.38903">
        <ele>186</ele>
        <time>2014-11-23T14:13:35.000Z</time>
      </trkpt>
      <trkpt lat="48.89722" lon="-0.38898">
        <ele>186</ele>
        <time>2014-11-23T14:13:38.000Z</time>
      </trkpt>
      <trkpt lat="48.89719" lon="-0.3889">
        <ele>185.80000305176</ele>
        <time>2014-11-23T14:13:42.000Z</time>
      </trkpt>
      <trkpt lat="48.89716" lon="-0.38885">
        <ele>185.39999389648</ele>
        <time>2014-11-23T14:13:45.000Z</time>
      </trkpt>
      <trkpt lat="48.89714" lon="-0.38882">
        <ele>185.19999694824</ele>
        <time>2014-11-23T14:13:47.000Z</time>
      </trkpt>
      <trkpt lat="48.89713" lon="-0.38876">
        <ele>185</ele>
        <time>2014-11-23T14:13:50.000Z</time>
      </trkpt>
      <trkpt lat="48.89706" lon="-0.38856">
        <ele>185.19999694824</ele>
        <time>2014-11-23T14:14:03.000Z</time>
      </trkpt>
      <trkpt lat="48.89705" lon="-0.38854">
        <ele>185.39999389648</ele>
        <time>2014-11-23T14:14:06.000Z</time>
      </trkpt>
      <trkpt lat="48.89701" lon="-0.38848">
        <ele>185.19999694824</ele>
        <time>2014-11-23T14:14:11.000Z</time>
      </trkpt>
      <trkpt lat="48.89698" lon="-0.3884">
        <ele>185</ele>
        <time>2014-11-23T14:14:16.000Z</time>
      </trkpt>
      <trkpt lat="48.89695" lon="-0.38833">
        <ele>185.39999389648</ele>
        <time>2014-11-23T14:14:21.000Z</time>
      </trkpt>
      <trkpt lat="48.89692" lon="-0.38831">
        <ele>186</ele>
        <time>2014-11-23T14:14:24.000Z</time>
      </trkpt>
      <trkpt lat="48.89687" lon="-0.38829">
        <ele>186.60000610352</ele>
        <time>2014-11-23T14:14:27.000Z</time>
      </trkpt>
      <trkpt lat="48.89683" lon="-0.38827">
        <ele>186.80000305176</ele>
        <time>2014-11-23T14:14:30.000Z</time>
      </trkpt>
      <trkpt lat="48.89681" lon="-0.38826">
        <ele>187</ele>
        <time>2014-11-23T14:14:32.000Z</time>
      </trkpt>
      <trkpt lat="48.89679" lon="-0.38824">
        <ele>187</ele>
        <time>2014-11-23T14:14:35.000Z</time>
      </trkpt>
      <trkpt lat="48.89677" lon="-0.38823">
        <ele>186.80000305176</ele>
        <time>2014-11-23T14:14:37.000Z</time>
      </trkpt>
      <trkpt lat="48.89674" lon="-0.3882">
        <ele>186.60000610352</ele>
        <time>2014-11-23T14:14:39.000Z</time>
      </trkpt>
      <trkpt lat="48.8967" lon="-0.38817">
        <ele>186.60000610352</ele>
        <time>2014-11-23T14:14:42.000Z</time>
      </trkpt>
      <trkpt lat="48.89667" lon="-0.38816">
        <ele>186.39999389648</ele>
        <time>2014-11-23T14:14:44.000Z</time>
      </trkpt>
      <trkpt lat="48.89661" lon="-0.38814">
        <ele>186.19999694824</ele>
        <time>2014-11-23T14:14:47.000Z</time>
      </trkpt>
      <trkpt lat="48.89656" lon="-0.38812">
        <ele>186.39999389648</ele>
        <time>2014-11-23T14:14:50.000Z</time>
      </trkpt>
      <trkpt lat="48.8965" lon="-0.38809">
        <ele>186.60000610352</ele>
        <time>2014-11-23T14:14:55.000Z</time>
      </trkpt>
      <trkpt lat="48.89647" lon="-0.38808">
        <ele>186.80000305176</ele>
        <time>2014-11-23T14:14:58.000Z</time>
      </trkpt>
      <trkpt lat="48.89645" lon="-0.38805">
        <ele>187.19999694824</ele>
        <time>2014-11-23T14:15:01.000Z</time>
      </trkpt>
      <trkpt lat="48.89641" lon="-0.38802">
        <ele>187.39999389648</ele>
        <time>2014-11-23T14:15:04.000Z</time>
      </trkpt>
      <trkpt lat="48.89638" lon="-0.38802">
        <ele>187.60000610352</ele>
        <time>2014-11-23T14:15:06.000Z</time>
      </trkpt>
      <trkpt lat="48.89634" lon="-0.388">
        <ele>188</ele>
        <time>2014-11-23T14:15:09.000Z</time>
      </trkpt>
      <trkpt lat="48.89632" lon="-0.38799">
        <ele>188.39999389648</ele>
        <time>2014-11-23T14:15:11.000Z</time>
      </trkpt>
      <trkpt lat="48.89621" lon="-0.38794">
        <ele>188.39999389648</ele>
        <time>2014-11-23T14:15:20.000Z</time>
      </trkpt>
      <trkpt lat="48.89618" lon="-0.38792">
        <ele>188.19999694824</ele>
        <time>2014-11-23T14:15:22.000Z</time>
      </trkpt>
      <trkpt lat="48.89615" lon="-0.38791">
        <ele>188</ele>
        <time>2014-11-23T14:15:24.000Z</time>
      </trkpt>
      <trkpt lat="48.89611" lon="-0.38788">
        <ele>188</ele>
        <time>2014-11-23T14:15:27.000Z</time>
      </trkpt>
      <trkpt lat="48.8961" lon="-0.38786">
        <ele>188</ele>
        <time>2014-11-23T14:15:29.000Z</time>
      </trkpt>
      <trkpt lat="48.89608" lon="-0.38783">
        <ele>188</ele>
        <time>2014-11-23T14:15:31.000Z</time>
      </trkpt>
      <trkpt lat="48.89606" lon="-0.38779">
        <ele>187.80000305176</ele>
        <time>2014-11-23T14:15:34.000Z</time>
      </trkpt>
      <trkpt lat="48.89604" lon="-0.38775">
        <ele>187.39999389648</ele>
        <time>2014-11-23T14:15:37.000Z</time>
      </trkpt>
      <trkpt lat="48.89602" lon="-0.38772">
        <ele>187</ele>
        <time>2014-11-23T14:15:39.000Z</time>
      </trkpt>
      <trkpt lat="48.89601" lon="-0.38769">
        <ele>186.60000610352</ele>
        <time>2014-11-23T14:15:41.000Z</time>
      </trkpt>
      <trkpt lat="48.89598" lon="-0.38766">
        <ele>186.39999389648</ele>
        <time>2014-11-23T14:15:44.000Z</time>
      </trkpt>
      <trkpt lat="48.89595" lon="-0.3876">
        <ele>186.80000305176</ele>
        <time>2014-11-23T14:15:49.000Z</time>
      </trkpt>
      <trkpt lat="48.89593" lon="-0.38756">
        <ele>187</ele>
        <time>2014-11-23T14:15:52.000Z</time>
      </trkpt>
      <trkpt lat="48.89592" lon="-0.38752">
        <ele>187.39999389648</ele>
        <time>2014-11-23T14:15:54.000Z</time>
      </trkpt>
      <trkpt lat="48.89591" lon="-0.38748">
        <ele>187.80000305176</ele>
        <time>2014-11-23T14:15:57.000Z</time>
      </trkpt>
      <trkpt lat="48.8959" lon="-0.38744">
        <ele>188.19999694824</ele>
        <time>2014-11-23T14:15:59.000Z</time>
      </trkpt>
      <trkpt lat="48.89589" lon="-0.3874">
        <ele>188.39999389648</ele>
        <time>2014-11-23T14:16:01.000Z</time>
      </trkpt>
      <trkpt lat="48.89588" lon="-0.38736">
        <ele>188.80000305176</ele>
        <time>2014-11-23T14:16:03.000Z</time>
      </trkpt>
      <trkpt lat="48.89585" lon="-0.38723">
        <ele>188.60000610352</ele>
        <time>2014-11-23T14:16:09.000Z</time>
      </trkpt>
      <trkpt lat="48.89584" lon="-0.38715">
        <ele>188.39999389648</ele>
        <time>2014-11-23T14:16:13.000Z</time>
      </trkpt>
      <trkpt lat="48.89584" lon="-0.38711">
        <ele>188.19999694824</ele>
        <time>2014-11-23T14:16:16.000Z</time>
      </trkpt>
      <trkpt lat="48.89585" lon="-0.38709">
        <ele>188</ele>
        <time>2014-11-23T14:16:18.000Z</time>
      </trkpt>
      <trkpt lat="48.89585" lon="-0.38706">
        <ele>187.80000305176</ele>
        <time>2014-11-23T14:16:20.000Z</time>
      </trkpt>
      <trkpt lat="48.89585" lon="-0.38702">
        <ele>187.39999389648</ele>
        <time>2014-11-23T14:16:23.000Z</time>
      </trkpt>
      <trkpt lat="48.89584" lon="-0.38699">
        <ele>187.19999694824</ele>
        <time>2014-11-23T14:16:25.000Z</time>
      </trkpt>
      <trkpt lat="48.89584" lon="-0.38695">
        <ele>187</ele>
        <time>2014-11-23T14:16:27.000Z</time>
      </trkpt>
      <trkpt lat="48.89583" lon="-0.38688">
        <ele>187.19999694824</ele>
        <time>2014-11-23T14:16:30.000Z</time>
      </trkpt>
      <trkpt lat="48.89583" lon="-0.38681">
        <ele>187.39999389648</ele>
        <time>2014-11-23T14:16:33.000Z</time>
      </trkpt>
      <trkpt lat="48.89584" lon="-0.38678">
        <ele>187.60000610352</ele>
        <time>2014-11-23T14:16:35.000Z</time>
      </trkpt>
      <trkpt lat="48.89584" lon="-0.38672">
        <ele>187.80000305176</ele>
        <time>2014-11-23T14:16:38.000Z</time>
      </trkpt>
      <trkpt lat="48.89583" lon="-0.38669">
        <ele>188.19999694824</ele>
        <time>2014-11-23T14:16:40.000Z</time>
      </trkpt>
      <trkpt lat="48.8958" lon="-0.38665">
        <ele>188.60000610352</ele>
        <time>2014-11-23T14:16:43.000Z</time>
      </trkpt>
      <trkpt lat="48.89577" lon="-0.38661">
        <ele>189.19999694824</ele>
        <time>2014-11-23T14:16:45.000Z</time>
      </trkpt>
      <trkpt lat="48.89575" lon="-0.38656">
        <ele>189.80000305176</ele>
        <time>2014-11-23T14:16:47.000Z</time>
      </trkpt>
      <trkpt lat="48.89572" lon="-0.38649">
        <ele>190.39999389648</ele>
        <time>2014-11-23T14:16:50.000Z</time>
      </trkpt>
      <trkpt lat="48.8957" lon="-0.38645">
        <ele>190.80000305176</ele>
        <time>2014-11-23T14:16:52.000Z</time>
      </trkpt>
      <trkpt lat="48.89568" lon="-0.38641">
        <ele>191.19999694824</ele>
        <time>2014-11-23T14:16:54.000Z</time>
      </trkpt>
      <trkpt lat="48.89566" lon="-0.38636">
        <ele>191.80000305176</ele>
        <time>2014-11-23T14:16:57.000Z</time>
      </trkpt>
      <trkpt lat="48.89565" lon="-0.3863">
        <ele>192.19999694824</ele>
        <time>2014-11-23T14:17:00.000Z</time>
      </trkpt>
      <trkpt lat="48.89563" lon="-0.38625">
        <ele>192.80000305176</ele>
        <time>2014-11-23T14:17:03.000Z</time>
      </trkpt>
      <trkpt lat="48.89563" lon="-0.38621">
        <ele>193.19999694824</ele>
        <time>2014-11-23T14:17:06.000Z</time>
      </trkpt>
      <trkpt lat="48.89561" lon="-0.38612">
        <ele>192.80000305176</ele>
        <time>2014-11-23T14:17:11.000Z</time>
      </trkpt>
      <trkpt lat="48.89559" lon="-0.38606">
        <ele>192.60000610352</ele>
        <time>2014-11-23T14:17:14.000Z</time>
      </trkpt>
      <trkpt lat="48.89558" lon="-0.38602">
        <ele>192.19999694824</ele>
        <time>2014-11-23T14:17:16.000Z</time>
      </trkpt>
      <trkpt lat="48.89556" lon="-0.38591">
        <ele>192.39999389648</ele>
        <time>2014-11-23T14:17:22.000Z</time>
      </trkpt>
      <trkpt lat="48.89554" lon="-0.3858">
        <ele>192.60000610352</ele>
        <time>2014-11-23T14:17:27.000Z</time>
      </trkpt>
      <trkpt lat="48.89554" lon="-0.38574">
        <ele>192.80000305176</ele>
        <time>2014-11-23T14:17:30.000Z</time>
      </trkpt>
      <trkpt lat="48.89552" lon="-0.3856">
        <ele>193</ele>
        <time>2014-11-23T14:17:37.000Z</time>
      </trkpt>
      <trkpt lat="48.8955" lon="-0.38554">
        <ele>193.19999694824</ele>
        <time>2014-11-23T14:17:40.000Z</time>
      </trkpt>
      <trkpt lat="48.8955" lon="-0.38548">
        <ele>193.39999389648</ele>
        <time>2014-11-23T14:17:43.000Z</time>
      </trkpt>
      <trkpt lat="48.89547" lon="-0.38537">
        <ele>193.19999694824</ele>
        <time>2014-11-23T14:17:50.000Z</time>
      </trkpt>
      <trkpt lat="48.89547" lon="-0.38532">
        <ele>192.60000610352</ele>
        <time>2014-11-23T14:17:53.000Z</time>
      </trkpt>
      <trkpt lat="48.89546" lon="-0.38528">
        <ele>192</ele>
        <time>2014-11-23T14:17:56.000Z</time>
      </trkpt>
      <trkpt lat="48.89546" lon="-0.38525">
        <ele>191.60000610352</ele>
        <time>2014-11-23T14:17:58.000Z</time>
      </trkpt>
      <trkpt lat="48.89545" lon="-0.38519">
        <ele>191.19999694824</ele>
        <time>2014-11-23T14:18:01.000Z</time>
      </trkpt>
      <trkpt lat="48.89545" lon="-0.38517">
        <ele>191</ele>
        <time>2014-11-23T14:18:03.000Z</time>
      </trkpt>
      <trkpt lat="48.89544" lon="-0.385">
        <ele>190.80000305176</ele>
        <time>2014-11-23T14:18:12.000Z</time>
      </trkpt>
      <trkpt lat="48.89544" lon="-0.38496">
        <ele>190.60000610352</ele>
        <time>2014-11-23T14:18:14.000Z</time>
      </trkpt>
      <trkpt lat="48.89544" lon="-0.38493">
        <ele>190.39999389648</ele>
        <time>2014-11-23T14:18:16.000Z</time>
      </trkpt>
      <trkpt lat="48.89543" lon="-0.38487">
        <ele>190.60000610352</ele>
        <time>2014-11-23T14:18:19.000Z</time>
      </trkpt>
      <trkpt lat="48.89542" lon="-0.38479">
        <ele>190.80000305176</ele>
        <time>2014-11-23T14:18:22.000Z</time>
      </trkpt>
      <trkpt lat="48.89541" lon="-0.38474">
        <ele>191.39999389648</ele>
        <time>2014-11-23T14:18:24.000Z</time>
      </trkpt>
      <trkpt lat="48.8954" lon="-0.38468">
        <ele>191.80000305176</ele>
        <time>2014-11-23T14:18:27.000Z</time>
      </trkpt>
      <trkpt lat="48.8954" lon="-0.38461">
        <ele>192.39999389648</ele>
        <time>2014-11-23T14:18:30.000Z</time>
      </trkpt>
      <trkpt lat="48.8954" lon="-0.38445">
        <ele>192.19999694824</ele>
        <time>2014-11-23T14:18:39.000Z</time>
      </trkpt>
      <trkpt lat="48.89539" lon="-0.38439">
        <ele>192.39999389648</ele>
        <time>2014-11-23T14:18:42.000Z</time>
      </trkpt>
      <trkpt lat="48.89539" lon="-0.38423">
        <ele>192.60000610352</ele>
        <time>2014-11-23T14:18:48.000Z</time>
      </trkpt>
      <trkpt lat="48.89538" lon="-0.38412">
        <ele>192.39999389648</ele>
        <time>2014-11-23T14:18:53.000Z</time>
      </trkpt>
      <trkpt lat="48.89537" lon="-0.38408">
        <ele>192</ele>
        <time>2014-11-23T14:18:55.000Z</time>
      </trkpt>
      <trkpt lat="48.89537" lon="-0.38402">
        <ele>191.60000610352</ele>
        <time>2014-11-23T14:18:58.000Z</time>
      </trkpt>
      <trkpt lat="48.89537" lon="-0.38398">
        <ele>191.19999694824</ele>
        <time>2014-11-23T14:19:00.000Z</time>
      </trkpt>
      <trkpt lat="48.89536" lon="-0.38392">
        <ele>190.80000305176</ele>
        <time>2014-11-23T14:19:03.000Z</time>
      </trkpt>
      <trkpt lat="48.89535" lon="-0.38386">
        <ele>190.60000610352</ele>
        <time>2014-11-23T14:19:06.000Z</time>
      </trkpt>
      <trkpt lat="48.89535" lon="-0.38382">
        <ele>190.39999389648</ele>
        <time>2014-11-23T14:19:08.000Z</time>
      </trkpt>
      <trkpt lat="48.89534" lon="-0.38378">
        <ele>190.19999694824</ele>
        <time>2014-11-23T14:19:10.000Z</time>
      </trkpt>
      <trkpt lat="48.89534" lon="-0.38374">
        <ele>190</ele>
        <time>2014-11-23T14:19:12.000Z</time>
      </trkpt>
      <trkpt lat="48.89532" lon="-0.38367">
        <ele>190</ele>
        <time>2014-11-23T14:19:15.000Z</time>
      </trkpt>
      <trkpt lat="48.89532" lon="-0.38361">
        <ele>189.80000305176</ele>
        <time>2014-11-23T14:19:18.000Z</time>
      </trkpt>
      <trkpt lat="48.89531" lon="-0.38357">
        <ele>189.60000610352</ele>
        <time>2014-11-23T14:19:20.000Z</time>
      </trkpt>
      <trkpt lat="48.89531" lon="-0.38352">
        <ele>189.39999389648</ele>
        <time>2014-11-23T14:19:23.000Z</time>
      </trkpt>
      <trkpt lat="48.89531" lon="-0.38349">
        <ele>189.19999694824</ele>
        <time>2014-11-23T14:19:25.000Z</time>
      </trkpt>
      <trkpt lat="48.89531" lon="-0.38341">
        <ele>189</ele>
        <time>2014-11-23T14:19:28.000Z</time>
      </trkpt>
      <trkpt lat="48.89531" lon="-0.38335">
        <ele>188.80000305176</ele>
        <time>2014-11-23T14:19:31.000Z</time>
      </trkpt>
      <trkpt lat="48.89531" lon="-0.38331">
        <ele>188.39999389648</ele>
        <time>2014-11-23T14:19:33.000Z</time>
      </trkpt>
      <trkpt lat="48.8953" lon="-0.38324">
        <ele>188</ele>
        <time>2014-11-23T14:19:36.000Z</time>
      </trkpt>
      <trkpt lat="48.89529" lon="-0.38318">
        <ele>187.39999389648</ele>
        <time>2014-11-23T14:19:39.000Z</time>
      </trkpt>
      <trkpt lat="48.89529" lon="-0.38313">
        <ele>186.80000305176</ele>
        <time>2014-11-23T14:19:42.000Z</time>
      </trkpt>
      <trkpt lat="48.89529" lon="-0.38309">
        <ele>186.39999389648</ele>
        <time>2014-11-23T14:19:44.000Z</time>
      </trkpt>
      <trkpt lat="48.89529" lon="-0.38306">
        <ele>186.19999694824</ele>
        <time>2014-11-23T14:19:46.000Z</time>
      </trkpt>
      <trkpt lat="48.89529" lon="-0.38305">
        <ele>186</ele>
        <time>2014-11-23T14:19:49.000Z</time>
      </trkpt>
      <trkpt lat="48.8953" lon="-0.38304">
        <ele>186.19999694824</ele>
        <time>2014-11-23T14:19:52.000Z</time>
      </trkpt>
      <trkpt lat="48.8953" lon="-0.383">
        <ele>186.19999694824</ele>
        <time>2014-11-23T14:19:54.000Z</time>
      </trkpt>
      <trkpt lat="48.89529" lon="-0.38279">
        <ele>186</ele>
        <time>2014-11-23T14:20:05.000Z</time>
      </trkpt>
      <trkpt lat="48.89529" lon="-0.38276">
        <ele>186</ele>
        <time>2014-11-23T14:20:07.000Z</time>
      </trkpt>
      <trkpt lat="48.89529" lon="-0.38271">
        <ele>186.19999694824</ele>
        <time>2014-11-23T14:20:10.000Z</time>
      </trkpt>
      <trkpt lat="48.89529" lon="-0.38268">
        <ele>186.39999389648</ele>
        <time>2014-11-23T14:20:12.000Z</time>
      </trkpt>
      <trkpt lat="48.8953" lon="-0.38265">
        <ele>186.19999694824</ele>
        <time>2014-11-23T14:20:15.000Z</time>
      </trkpt>
      <trkpt lat="48.8953" lon="-0.38263">
        <ele>186</ele>
        <time>2014-11-23T14:20:18.000Z</time>
      </trkpt>
      <trkpt lat="48.89531" lon="-0.38259">
        <ele>185.80000305176</ele>
        <time>2014-11-23T14:20:28.000Z</time>
      </trkpt>
      <trkpt lat="48.89531" lon="-0.38257">
        <ele>185.60000610352</ele>
        <time>2014-11-23T14:20:30.000Z</time>
      </trkpt>
      <trkpt lat="48.89531" lon="-0.38253">
        <ele>185.39999389648</ele>
        <time>2014-11-23T14:20:33.000Z</time>
      </trkpt>
      <trkpt lat="48.8953" lon="-0.38255">
        <ele>185.39999389648</ele>
        <time>2014-11-23T14:20:38.000Z</time>
      </trkpt>
      <trkpt lat="48.89527" lon="-0.38255">
        <ele>185.39999389648</ele>
        <time>2014-11-23T14:20:41.000Z</time>
      </trkpt>
      <trkpt lat="48.89526" lon="-0.38255">
        <ele>185.39999389648</ele>
        <time>2014-11-23T14:20:44.000Z</time>
      </trkpt>
      <trkpt lat="48.89525" lon="-0.38253">
        <ele>185.19999694824</ele>
        <time>2014-11-23T14:20:47.000Z</time>
      </trkpt>
      <trkpt lat="48.89524" lon="-0.38251">
        <ele>184.80000305176</ele>
        <time>2014-11-23T14:20:49.000Z</time>
      </trkpt>
      <trkpt lat="48.89523" lon="-0.38247">
        <ele>184.60000610352</ele>
        <time>2014-11-23T14:20:59.000Z</time>
      </trkpt>
      <trkpt lat="48.89522" lon="-0.38249">
        <ele>184.19999694824</ele>
        <time>2014-11-23T14:21:06.000Z</time>
      </trkpt>
      <trkpt lat="48.89521" lon="-0.38247">
        <ele>184</ele>
        <time>2014-11-23T14:21:15.000Z</time>
      </trkpt>
      <trkpt lat="48.8952" lon="-0.38246">
        <ele>183.80000305176</ele>
        <time>2014-11-23T14:21:17.000Z</time>
      </trkpt>
      <trkpt lat="48.8952" lon="-0.38246">
        <ele>183.80000305176</ele>
        <time>2014-11-23T14:21:37.000Z</time>
      </trkpt>
      <trkpt lat="48.89518" lon="-0.38245">
        <ele>184.19999694824</ele>
        <time>2014-11-23T14:21:45.000Z</time>
      </trkpt>
      <trkpt lat="48.89516" lon="-0.38244">
        <ele>183.80000305176</ele>
        <time>2014-11-23T14:21:47.000Z</time>
      </trkpt>
      <trkpt lat="48.89514" lon="-0.38242">
        <ele>183.39999389648</ele>
        <time>2014-11-23T14:21:50.000Z</time>
      </trkpt>
      <trkpt lat="48.89511" lon="-0.38241">
        <ele>183.19999694824</ele>
        <time>2014-11-23T14:21:53.000Z</time>
      </trkpt>
      <trkpt lat="48.89507" lon="-0.3824">
        <ele>182.80000305176</ele>
        <time>2014-11-23T14:21:58.000Z</time>
      </trkpt>
      <trkpt lat="48.89507" lon="-0.38239">
        <ele>183.19999694824</ele>
        <time>2014-11-23T14:22:00.000Z</time>
      </trkpt>
      <trkpt lat="48.89505" lon="-0.38237">
        <ele>183.60000610352</ele>
        <time>2014-11-23T14:22:03.000Z</time>
      </trkpt>
      <trkpt lat="48.89508" lon="-0.38235">
        <ele>183.60000610352</ele>
        <time>2014-11-23T14:22:20.000Z</time>
      </trkpt>
      <trkpt lat="48.89508" lon="-0.38234">
        <ele>182.80000305176</ele>
        <time>2014-11-23T14:22:25.000Z</time>
      </trkpt>
      <trkpt lat="48.89507" lon="-0.38233">
        <ele>182</ele>
        <time>2014-11-23T14:22:28.000Z</time>
      </trkpt>
      <trkpt lat="48.89505" lon="-0.38232">
        <ele>181.39999389648</ele>
        <time>2014-11-23T14:22:38.000Z</time>
      </trkpt>
      <trkpt lat="48.89505" lon="-0.38232">
        <ele>181.39999389648</ele>
        <time>2014-11-23T14:22:58.000Z</time>
      </trkpt>
      <trkpt lat="48.89504" lon="-0.38233">
        <ele>181.19999694824</ele>
        <time>2014-11-23T14:23:02.000Z</time>
      </trkpt>
      <trkpt lat="48.89505" lon="-0.38234">
        <ele>180.80000305176</ele>
        <time>2014-11-23T14:23:05.000Z</time>
      </trkpt>
      <trkpt lat="48.89506" lon="-0.38235">
        <ele>181.39999389648</ele>
        <time>2014-11-23T14:23:08.000Z</time>
      </trkpt>
      <trkpt lat="48.89508" lon="-0.38236">
        <ele>182.19999694824</ele>
        <time>2014-11-23T14:23:11.000Z</time>
      </trkpt>
      <trkpt lat="48.8951" lon="-0.38237">
        <ele>182.60000610352</ele>
        <time>2014-11-23T14:23:14.000Z</time>
      </trkpt>
      <trkpt lat="48.89511" lon="-0.38236">
        <ele>182.80000305176</ele>
        <time>2014-11-23T14:23:17.000Z</time>
      </trkpt>
      <trkpt lat="48.89513" lon="-0.38238">
        <ele>183</ele>
        <time>2014-11-23T14:23:20.000Z</time>
      </trkpt>
      <trkpt lat="48.89513" lon="-0.38236">
        <ele>183.39999389648</ele>
        <time>2014-11-23T14:23:24.000Z</time>
      </trkpt>
      <trkpt lat="48.89515" lon="-0.38235">
        <ele>184.80000305176</ele>
        <time>2014-11-23T14:23:27.000Z</time>
      </trkpt>
      <trkpt lat="48.89516" lon="-0.38235">
        <ele>187</ele>
        <time>2014-11-23T14:23:29.000Z</time>
      </trkpt>
      <trkpt lat="48.89518" lon="-0.38235">
        <ele>189.39999389648</ele>
        <time>2014-11-23T14:23:32.000Z</time>
      </trkpt>
      <trkpt lat="48.89519" lon="-0.38235">
        <ele>191.80000305176</ele>
        <time>2014-11-23T14:23:34.000Z</time>
      </trkpt>
      <trkpt lat="48.89521" lon="-0.38236">
        <ele>194.19999694824</ele>
        <time>2014-11-23T14:23:36.000Z</time>
      </trkpt>
      <trkpt lat="48.89522" lon="-0.38236">
        <ele>195.39999389648</ele>
        <time>2014-11-23T14:23:39.000Z</time>
      </trkpt>
      <trkpt lat="48.89524" lon="-0.38236">
        <ele>196.19999694824</ele>
        <time>2014-11-23T14:23:41.000Z</time>
      </trkpt>
      <trkpt lat="48.89527" lon="-0.38236">
        <ele>197.39999389648</ele>
        <time>2014-11-23T14:23:43.000Z</time>
      </trkpt>
      <trkpt lat="48.8953" lon="-0.38235">
        <ele>199</ele>
        <time>2014-11-23T14:23:46.000Z</time>
      </trkpt>
      <trkpt lat="48.89531" lon="-0.38235">
        <ele>199.60000610352</ele>
        <time>2014-11-23T14:23:49.000Z</time>
      </trkpt>
      <trkpt lat="48.89534" lon="-0.38235">
        <ele>200.39999389648</ele>
        <time>2014-11-23T14:23:52.000Z</time>
      </trkpt>
      <trkpt lat="48.89535" lon="-0.38235">
        <ele>201</ele>
        <time>2014-11-23T14:23:55.000Z</time>
      </trkpt>
      <trkpt lat="48.89534" lon="-0.38234">
        <ele>199.80000305176</ele>
        <time>2014-11-23T14:23:59.000Z</time>
      </trkpt>
      <trkpt lat="48.89532" lon="-0.38234">
        <ele>198</ele>
        <time>2014-11-23T14:24:02.000Z</time>
      </trkpt>
      <trkpt lat="48.89531" lon="-0.38236">
        <ele>196.80000305176</ele>
        <time>2014-11-23T14:24:10.000Z</time>
      </trkpt>
      <trkpt lat="48.89531" lon="-0.38236">
        <ele>196.80000305176</ele>
        <time>2014-11-23T14:24:30.000Z</time>
      </trkpt>
      <trkpt lat="48.8953" lon="-0.38237">
        <ele>195</ele>
        <time>2014-11-23T14:24:35.000Z</time>
      </trkpt>
      <trkpt lat="48.89528" lon="-0.38239">
        <ele>193.39999389648</ele>
        <time>2014-11-23T14:24:38.000Z</time>
      </trkpt>
      <trkpt lat="48.89529" lon="-0.3824">
        <ele>193.39999389648</ele>
        <time>2014-11-23T14:24:54.000Z</time>
      </trkpt>
      <trkpt lat="48.8953" lon="-0.38239">
        <ele>193.60000610352</ele>
        <time>2014-11-23T14:25:00.000Z</time>
      </trkpt>
      <trkpt lat="48.89531" lon="-0.3824">
        <ele>193.60000610352</ele>
        <time>2014-11-23T14:25:08.000Z</time>
      </trkpt>
      <trkpt lat="48.89532" lon="-0.38242">
        <ele>194</ele>
        <time>2014-11-23T14:25:10.000Z</time>
      </trkpt>
      <trkpt lat="48.89532" lon="-0.3824">
        <ele>194.19999694824</ele>
        <time>2014-11-23T14:25:20.000Z</time>
      </trkpt>
      <trkpt lat="48.89532" lon="-0.38242">
        <ele>194</ele>
        <time>2014-11-23T14:25:28.000Z</time>
      </trkpt>
      <trkpt lat="48.89531" lon="-0.38243">
        <ele>193.80000305176</ele>
        <time>2014-11-23T14:25:43.000Z</time>
      </trkpt>
      <trkpt lat="48.8953" lon="-0.38244">
        <ele>193.60000610352</ele>
        <time>2014-11-23T14:25:46.000Z</time>
      </trkpt>
      <trkpt lat="48.89531" lon="-0.38245">
        <ele>193.19999694824</ele>
        <time>2014-11-23T14:25:52.000Z</time>
      </trkpt>
      <trkpt lat="48.89532" lon="-0.38243">
        <ele>192.60000610352</ele>
        <time>2014-11-23T14:25:54.000Z</time>
      </trkpt>
      <trkpt lat="48.89533" lon="-0.38241">
        <ele>192.19999694824</ele>
        <time>2014-11-23T14:25:58.000Z</time>
      </trkpt>
      <trkpt lat="48.89535" lon="-0.38239">
        <ele>192</ele>
        <time>2014-11-23T14:26:01.000Z</time>
      </trkpt>
      <trkpt lat="48.89535" lon="-0.38237">
        <ele>191.60000610352</ele>
        <time>2014-11-23T14:26:06.000Z</time>
      </trkpt>
      <trkpt lat="48.89537" lon="-0.38233">
        <ele>191.19999694824</ele>
        <time>2014-11-23T14:26:09.000Z</time>
      </trkpt>
      <trkpt lat="48.89537" lon="-0.3823">
        <ele>190.80000305176</ele>
        <time>2014-11-23T14:26:11.000Z</time>
      </trkpt>
      <trkpt lat="48.89539" lon="-0.38226">
        <ele>190.19999694824</ele>
        <time>2014-11-23T14:26:13.000Z</time>
      </trkpt>
      <trkpt lat="48.89539" lon="-0.38223">
        <ele>189.60000610352</ele>
        <time>2014-11-23T14:26:15.000Z</time>
      </trkpt>
      <trkpt lat="48.89538" lon="-0.38217">
        <ele>188.80000305176</ele>
        <time>2014-11-23T14:26:18.000Z</time>
      </trkpt>
      <trkpt lat="48.89537" lon="-0.38211">
        <ele>188</ele>
        <time>2014-11-23T14:26:21.000Z</time>
      </trkpt>
      <trkpt lat="48.89535" lon="-0.38207">
        <ele>187.39999389648</ele>
        <time>2014-11-23T14:26:23.000Z</time>
      </trkpt>
      <trkpt lat="48.89534" lon="-0.38203">
        <ele>186.60000610352</ele>
        <time>2014-11-23T14:26:25.000Z</time>
      </trkpt>
      <trkpt lat="48.89532" lon="-0.382">
        <ele>185.80000305176</ele>
        <time>2014-11-23T14:26:27.000Z</time>
      </trkpt>
      <trkpt lat="48.89531" lon="-0.38195">
        <ele>185.19999694824</ele>
        <time>2014-11-23T14:26:30.000Z</time>
      </trkpt>
      <trkpt lat="48.89529" lon="-0.38191">
        <ele>184.80000305176</ele>
        <time>2014-11-23T14:26:33.000Z</time>
      </trkpt>
      <trkpt lat="48.89527" lon="-0.38186">
        <ele>184.19999694824</ele>
        <time>2014-11-23T14:26:36.000Z</time>
      </trkpt>
      <trkpt lat="48.89526" lon="-0.38183">
        <ele>183.80000305176</ele>
        <time>2014-11-23T14:26:38.000Z</time>
      </trkpt>
      <trkpt lat="48.89524" lon="-0.38179">
        <ele>183.39999389648</ele>
        <time>2014-11-23T14:26:40.000Z</time>
      </trkpt>
      <trkpt lat="48.89523" lon="-0.38174">
        <ele>183.19999694824</ele>
        <time>2014-11-23T14:26:43.000Z</time>
      </trkpt>
      <trkpt lat="48.89521" lon="-0.38168">
        <ele>183</ele>
        <time>2014-11-23T14:26:46.000Z</time>
      </trkpt>
      <trkpt lat="48.89518" lon="-0.38158">
        <ele>182.80000305176</ele>
        <time>2014-11-23T14:26:51.000Z</time>
      </trkpt>
      <trkpt lat="48.89518" lon="-0.38153">
        <ele>182.60000610352</ele>
        <time>2014-11-23T14:26:54.000Z</time>
      </trkpt>
      <trkpt lat="48.89519" lon="-0.38141">
        <ele>182.39999389648</ele>
        <time>2014-11-23T14:27:02.000Z</time>
      </trkpt>
      <trkpt lat="48.8952" lon="-0.38136">
        <ele>182.60000610352</ele>
        <time>2014-11-23T14:27:05.000Z</time>
      </trkpt>
      <trkpt lat="48.89521" lon="-0.38133">
        <ele>182.80000305176</ele>
        <time>2014-11-23T14:27:07.000Z</time>
      </trkpt>
      <trkpt lat="48.89522" lon="-0.3813">
        <ele>182.60000610352</ele>
        <time>2014-11-23T14:27:09.000Z</time>
      </trkpt>
      <trkpt lat="48.89523" lon="-0.38127">
        <ele>182.39999389648</ele>
        <time>2014-11-23T14:27:11.000Z</time>
      </trkpt>
      <trkpt lat="48.89527" lon="-0.38118">
        <ele>182.19999694824</ele>
        <time>2014-11-23T14:27:18.000Z</time>
      </trkpt>
      <trkpt lat="48.89531" lon="-0.38113">
        <ele>182</ele>
        <time>2014-11-23T14:27:21.000Z</time>
      </trkpt>
      <trkpt lat="48.89534" lon="-0.3811">
        <ele>181.80000305176</ele>
        <time>2014-11-23T14:27:24.000Z</time>
      </trkpt>
      <trkpt lat="48.89537" lon="-0.38105">
        <ele>181.60000610352</ele>
        <time>2014-11-23T14:27:27.000Z</time>
      </trkpt>
      <trkpt lat="48.89539" lon="-0.38099">
        <ele>181.19999694824</ele>
        <time>2014-11-23T14:27:30.000Z</time>
      </trkpt>
      <trkpt lat="48.89542" lon="-0.38095">
        <ele>181.39999389648</ele>
        <time>2014-11-23T14:27:32.000Z</time>
      </trkpt>
      <trkpt lat="48.89545" lon="-0.38086">
        <ele>181.39999389648</ele>
        <time>2014-11-23T14:27:38.000Z</time>
      </trkpt>
      <trkpt lat="48.89547" lon="-0.3808">
        <ele>181.60000610352</ele>
        <time>2014-11-23T14:27:41.000Z</time>
      </trkpt>
      <trkpt lat="48.89547" lon="-0.38074">
        <ele>181.39999389648</ele>
        <time>2014-11-23T14:27:44.000Z</time>
      </trkpt>
      <trkpt lat="48.89546" lon="-0.3807">
        <ele>180.60000610352</ele>
        <time>2014-11-23T14:27:46.000Z</time>
      </trkpt>
      <trkpt lat="48.89545" lon="-0.38066">
        <ele>180.39999389648</ele>
        <time>2014-11-23T14:27:51.000Z</time>
      </trkpt>
      <trkpt lat="48.89546" lon="-0.38063">
        <ele>179.80000305176</ele>
        <time>2014-11-23T14:27:54.000Z</time>
      </trkpt>
      <trkpt lat="48.89546" lon="-0.38061">
        <ele>179.60000610352</ele>
        <time>2014-11-23T14:27:56.000Z</time>
      </trkpt>
      <trkpt lat="48.89546" lon="-0.38057">
        <ele>179.19999694824</ele>
        <time>2014-11-23T14:27:59.000Z</time>
      </trkpt>
      <trkpt lat="48.89547" lon="-0.38052">
        <ele>178.39999389648</ele>
        <time>2014-11-23T14:28:02.000Z</time>
      </trkpt>
      <trkpt lat="48.89548" lon="-0.38049">
        <ele>177.60000610352</ele>
        <time>2014-11-23T14:28:04.000Z</time>
      </trkpt>
      <trkpt lat="48.89549" lon="-0.38042">
        <ele>177</ele>
        <time>2014-11-23T14:28:07.000Z</time>
      </trkpt>
      <trkpt lat="48.89549" lon="-0.38036">
        <ele>176.19999694824</ele>
        <time>2014-11-23T14:28:10.000Z</time>
      </trkpt>
      <trkpt lat="48.89548" lon="-0.38031">
        <ele>175.39999389648</ele>
        <time>2014-11-23T14:28:13.000Z</time>
      </trkpt>
      <trkpt lat="48.89548" lon="-0.38027">
        <ele>174.60000610352</ele>
        <time>2014-11-23T14:28:15.000Z</time>
      </trkpt>
      <trkpt lat="48.89547" lon="-0.38022">
        <ele>174</ele>
        <time>2014-11-23T14:28:17.000Z</time>
      </trkpt>
      <trkpt lat="48.89546" lon="-0.38018">
        <ele>173.39999389648</ele>
        <time>2014-11-23T14:28:19.000Z</time>
      </trkpt>
      <trkpt lat="48.89545" lon="-0.38013">
        <ele>172.80000305176</ele>
        <time>2014-11-23T14:28:21.000Z</time>
      </trkpt>
      <trkpt lat="48.89545" lon="-0.38008">
        <ele>172.60000610352</ele>
        <time>2014-11-23T14:28:23.000Z</time>
      </trkpt>
      <trkpt lat="48.89544" lon="-0.38002">
        <ele>172.19999694824</ele>
        <time>2014-11-23T14:28:26.000Z</time>
      </trkpt>
      <trkpt lat="48.89543" lon="-0.37998">
        <ele>171.80000305176</ele>
        <time>2014-11-23T14:28:28.000Z</time>
      </trkpt>
      <trkpt lat="48.89544" lon="-0.37992">
        <ele>171.19999694824</ele>
        <time>2014-11-23T14:28:31.000Z</time>
      </trkpt>
      <trkpt lat="48.89544" lon="-0.37988">
        <ele>170.80000305176</ele>
        <time>2014-11-23T14:28:33.000Z</time>
      </trkpt>
      <trkpt lat="48.89543" lon="-0.37984">
        <ele>170.39999389648</ele>
        <time>2014-11-23T14:28:36.000Z</time>
      </trkpt>
      <trkpt lat="48.89543" lon="-0.37978">
        <ele>170</ele>
        <time>2014-11-23T14:28:39.000Z</time>
      </trkpt>
      <trkpt lat="48.89544" lon="-0.37971">
        <ele>169.60000610352</ele>
        <time>2014-11-23T14:28:42.000Z</time>
      </trkpt>
      <trkpt lat="48.89545" lon="-0.37964">
        <ele>169.39999389648</ele>
        <time>2014-11-23T14:28:45.000Z</time>
      </trkpt>
      <trkpt lat="48.89547" lon="-0.37948">
        <ele>169.60000610352</ele>
        <time>2014-11-23T14:28:50.000Z</time>
      </trkpt>
      <trkpt lat="48.89548" lon="-0.37943">
        <ele>170.19999694824</ele>
        <time>2014-11-23T14:28:52.000Z</time>
      </trkpt>
      <trkpt lat="48.89548" lon="-0.3794">
        <ele>171</ele>
        <time>2014-11-23T14:28:54.000Z</time>
      </trkpt>
      <trkpt lat="48.89548" lon="-0.37934">
        <ele>172</ele>
        <time>2014-11-23T14:28:57.000Z</time>
      </trkpt>
      <trkpt lat="48.89548" lon="-0.37928">
        <ele>172.80000305176</ele>
        <time>2014-11-23T14:29:00.000Z</time>
      </trkpt>
      <trkpt lat="48.89549" lon="-0.37925">
        <ele>173.60000610352</ele>
        <time>2014-11-23T14:29:02.000Z</time>
      </trkpt>
      <trkpt lat="48.89549" lon="-0.37921">
        <ele>174</ele>
        <time>2014-11-23T14:29:04.000Z</time>
      </trkpt>
      <trkpt lat="48.89549" lon="-0.37916">
        <ele>174.19999694824</ele>
        <time>2014-11-23T14:29:07.000Z</time>
      </trkpt>
      <trkpt lat="48.89549" lon="-0.37913">
        <ele>174</ele>
        <time>2014-11-23T14:29:09.000Z</time>
      </trkpt>
      <trkpt lat="48.89549" lon="-0.37911">
        <ele>173.80000305176</ele>
        <time>2014-11-23T14:29:11.000Z</time>
      </trkpt>
      <trkpt lat="48.89549" lon="-0.37905">
        <ele>173.39999389648</ele>
        <time>2014-11-23T14:29:14.000Z</time>
      </trkpt>
      <trkpt lat="48.89549" lon="-0.37901">
        <ele>173</ele>
        <time>2014-11-23T14:29:16.000Z</time>
      </trkpt>
      <trkpt lat="48.89548" lon="-0.37896">
        <ele>172.60000610352</ele>
        <time>2014-11-23T14:29:18.000Z</time>
      </trkpt>
      <trkpt lat="48.89547" lon="-0.37891">
        <ele>172.60000610352</ele>
        <time>2014-11-23T14:29:21.000Z</time>
      </trkpt>
      <trkpt lat="48.89544" lon="-0.37878">
        <ele>172.39999389648</ele>
        <time>2014-11-23T14:29:27.000Z</time>
      </trkpt>
      <trkpt lat="48.89543" lon="-0.37874">
        <ele>172.60000610352</ele>
        <time>2014-11-23T14:29:30.000Z</time>
      </trkpt>
      <trkpt lat="48.89543" lon="-0.3787">
        <ele>172.80000305176</ele>
        <time>2014-11-23T14:29:32.000Z</time>
      </trkpt>
      <trkpt lat="48.89541" lon="-0.37852">
        <ele>173.19999694824</ele>
        <time>2014-11-23T14:29:40.000Z</time>
      </trkpt>
      <trkpt lat="48.89541" lon="-0.37848">
        <ele>173.39999389648</ele>
        <time>2014-11-23T14:29:42.000Z</time>
      </trkpt>
      <trkpt lat="48.8954" lon="-0.37845">
        <ele>173.60000610352</ele>
        <time>2014-11-23T14:29:44.000Z</time>
      </trkpt>
      <trkpt lat="48.89539" lon="-0.37838">
        <ele>173.80000305176</ele>
        <time>2014-11-23T14:29:47.000Z</time>
      </trkpt>
      <trkpt lat="48.89536" lon="-0.37833">
        <ele>173.80000305176</ele>
        <time>2014-11-23T14:29:50.000Z</time>
      </trkpt>
      <trkpt lat="48.89534" lon="-0.37829">
        <ele>173.60000610352</ele>
        <time>2014-11-23T14:29:53.000Z</time>
      </trkpt>
      <trkpt lat="48.89532" lon="-0.37824">
        <ele>173.39999389648</ele>
        <time>2014-11-23T14:29:56.000Z</time>
      </trkpt>
      <trkpt lat="48.8953" lon="-0.37819">
        <ele>173.19999694824</ele>
        <time>2014-11-23T14:29:58.000Z</time>
      </trkpt>
      <trkpt lat="48.89528" lon="-0.37812">
        <ele>172.80000305176</ele>
        <time>2014-11-23T14:30:01.000Z</time>
      </trkpt>
      <trkpt lat="48.89527" lon="-0.37809">
        <ele>172.60000610352</ele>
        <time>2014-11-23T14:30:03.000Z</time>
      </trkpt>
      <trkpt lat="48.89525" lon="-0.37807">
        <ele>172.39999389648</ele>
        <time>2014-11-23T14:30:05.000Z</time>
      </trkpt>
      <trkpt lat="48.89522" lon="-0.37801">
        <ele>172</ele>
        <time>2014-11-23T14:30:08.000Z</time>
      </trkpt>
      <trkpt lat="48.8952" lon="-0.37797">
        <ele>171.39999389648</ele>
        <time>2014-11-23T14:30:10.000Z</time>
      </trkpt>
      <trkpt lat="48.89519" lon="-0.37793">
        <ele>171</ele>
        <time>2014-11-23T14:30:12.000Z</time>
      </trkpt>
      <trkpt lat="48.89516" lon="-0.37788">
        <ele>169.60000610352</ele>
        <time>2014-11-23T14:30:15.000Z</time>
      </trkpt>
      <trkpt lat="48.89513" lon="-0.37785">
        <ele>168.19999694824</ele>
        <time>2014-11-23T14:30:18.000Z</time>
      </trkpt>
      <trkpt lat="48.89511" lon="-0.37782">
        <ele>167</ele>
        <time>2014-11-23T14:30:20.000Z</time>
      </trkpt>
      <trkpt lat="48.8951" lon="-0.37779">
        <ele>165.80000305176</ele>
        <time>2014-11-23T14:30:23.000Z</time>
      </trkpt>
      <trkpt lat="48.89508" lon="-0.37776">
        <ele>164.60000610352</ele>
        <time>2014-11-23T14:30:26.000Z</time>
      </trkpt>
      <trkpt lat="48.89508" lon="-0.37773">
        <ele>164.39999389648</ele>
        <time>2014-11-23T14:30:28.000Z</time>
      </trkpt>
      <trkpt lat="48.89507" lon="-0.37771">
        <ele>164.19999694824</ele>
        <time>2014-11-23T14:30:30.000Z</time>
      </trkpt>
      <trkpt lat="48.89505" lon="-0.37767">
        <ele>164</ele>
        <time>2014-11-23T14:30:32.000Z</time>
      </trkpt>
      <trkpt lat="48.89502" lon="-0.37762">
        <ele>163.80000305176</ele>
        <time>2014-11-23T14:30:35.000Z</time>
      </trkpt>
      <trkpt lat="48.895" lon="-0.37757">
        <ele>163.60000610352</ele>
        <time>2014-11-23T14:30:38.000Z</time>
      </trkpt>
      <trkpt lat="48.89499" lon="-0.37755">
        <ele>163.39999389648</ele>
        <time>2014-11-23T14:30:40.000Z</time>
      </trkpt>
      <trkpt lat="48.89497" lon="-0.37751">
        <ele>163.19999694824</ele>
        <time>2014-11-23T14:30:42.000Z</time>
      </trkpt>
      <trkpt lat="48.89496" lon="-0.37747">
        <ele>162.80000305176</ele>
        <time>2014-11-23T14:30:44.000Z</time>
      </trkpt>
      <trkpt lat="48.89494" lon="-0.37742">
        <ele>162.39999389648</ele>
        <time>2014-11-23T14:30:47.000Z</time>
      </trkpt>
      <trkpt lat="48.89492" lon="-0.37736">
        <ele>162</ele>
        <time>2014-11-23T14:30:50.000Z</time>
      </trkpt>
      <trkpt lat="48.89491" lon="-0.37733">
        <ele>161.39999389648</ele>
        <time>2014-11-23T14:30:52.000Z</time>
      </trkpt>
      <trkpt lat="48.89489" lon="-0.37728">
        <ele>161</ele>
        <time>2014-11-23T14:30:55.000Z</time>
      </trkpt>
      <trkpt lat="48.89488" lon="-0.37723">
        <ele>160.39999389648</ele>
        <time>2014-11-23T14:30:57.000Z</time>
      </trkpt>
      <trkpt lat="48.89486" lon="-0.37717">
        <ele>160.19999694824</ele>
        <time>2014-11-23T14:31:00.000Z</time>
      </trkpt>
      <trkpt lat="48.89484" lon="-0.37713">
        <ele>159.80000305176</ele>
        <time>2014-11-23T14:31:03.000Z</time>
      </trkpt>
      <trkpt lat="48.89482" lon="-0.37706">
        <ele>159.60000610352</ele>
        <time>2014-11-23T14:31:06.000Z</time>
      </trkpt>
      <trkpt lat="48.89481" lon="-0.37702">
        <ele>159</ele>
        <time>2014-11-23T14:31:08.000Z</time>
      </trkpt>
      <trkpt lat="48.89481" lon="-0.37698">
        <ele>158.80000305176</ele>
        <time>2014-11-23T14:31:10.000Z</time>
      </trkpt>
      <trkpt lat="48.89479" lon="-0.37692">
        <ele>158.39999389648</ele>
        <time>2014-11-23T14:31:13.000Z</time>
      </trkpt>
      <trkpt lat="48.89478" lon="-0.37688">
        <ele>158.19999694824</ele>
        <time>2014-11-23T14:31:15.000Z</time>
      </trkpt>
      <trkpt lat="48.89476" lon="-0.37681">
        <ele>158</ele>
        <time>2014-11-23T14:31:18.000Z</time>
      </trkpt>
      <trkpt lat="48.89473" lon="-0.37669">
        <ele>157.80000305176</ele>
        <time>2014-11-23T14:31:23.000Z</time>
      </trkpt>
      <trkpt lat="48.89471" lon="-0.37666">
        <ele>157.60000610352</ele>
        <time>2014-11-23T14:31:25.000Z</time>
      </trkpt>
      <trkpt lat="48.8947" lon="-0.3766">
        <ele>157</ele>
        <time>2014-11-23T14:31:28.000Z</time>
      </trkpt>
      <trkpt lat="48.89468" lon="-0.37656">
        <ele>156.39999389648</ele>
        <time>2014-11-23T14:31:30.000Z</time>
      </trkpt>
      <trkpt lat="48.89466" lon="-0.37651">
        <ele>155.80000305176</ele>
        <time>2014-11-23T14:31:33.000Z</time>
      </trkpt>
      <trkpt lat="48.89463" lon="-0.37648">
        <ele>155</ele>
        <time>2014-11-23T14:31:36.000Z</time>
      </trkpt>
      <trkpt lat="48.8946" lon="-0.37646">
        <ele>154.19999694824</ele>
        <time>2014-11-23T14:31:38.000Z</time>
      </trkpt>
      <trkpt lat="48.89458" lon="-0.37637">
        <ele>153.80000305176</ele>
        <time>2014-11-23T14:31:41.000Z</time>
      </trkpt>
      <trkpt lat="48.89457" lon="-0.37633">
        <ele>153.39999389648</ele>
        <time>2014-11-23T14:31:43.000Z</time>
      </trkpt>
      <trkpt lat="48.89457" lon="-0.37629">
        <ele>153</ele>
        <time>2014-11-23T14:31:45.000Z</time>
      </trkpt>
      <trkpt lat="48.89456" lon="-0.37624">
        <ele>152.80000305176</ele>
        <time>2014-11-23T14:31:48.000Z</time>
      </trkpt>
      <trkpt lat="48.89456" lon="-0.3762">
        <ele>152.39999389648</ele>
        <time>2014-11-23T14:31:51.000Z</time>
      </trkpt>
      <trkpt lat="48.89455" lon="-0.37617">
        <ele>152.19999694824</ele>
        <time>2014-11-23T14:31:54.000Z</time>
      </trkpt>
      <trkpt lat="48.89455" lon="-0.37612">
        <ele>151.80000305176</ele>
        <time>2014-11-23T14:31:56.000Z</time>
      </trkpt>
      <trkpt lat="48.89455" lon="-0.37609">
        <ele>151.39999389648</ele>
        <time>2014-11-23T14:31:58.000Z</time>
      </trkpt>
      <trkpt lat="48.89456" lon="-0.37604">
        <ele>151</ele>
        <time>2014-11-23T14:32:01.000Z</time>
      </trkpt>
      <trkpt lat="48.89457" lon="-0.37599">
        <ele>150.80000305176</ele>
        <time>2014-11-23T14:32:04.000Z</time>
      </trkpt>
      <trkpt lat="48.89458" lon="-0.37594">
        <ele>150.39999389648</ele>
        <time>2014-11-23T14:32:06.000Z</time>
      </trkpt>
      <trkpt lat="48.89459" lon="-0.37589">
        <ele>150</ele>
        <time>2014-11-23T14:32:09.000Z</time>
      </trkpt>
      <trkpt lat="48.8946" lon="-0.37583">
        <ele>149.60000610352</ele>
        <time>2014-11-23T14:32:12.000Z</time>
      </trkpt>
      <trkpt lat="48.89462" lon="-0.37578">
        <ele>149.39999389648</ele>
        <time>2014-11-23T14:32:14.000Z</time>
      </trkpt>
      <trkpt lat="48.89462" lon="-0.3757">
        <ele>149.19999694824</ele>
        <time>2014-11-23T14:32:17.000Z</time>
      </trkpt>
      <trkpt lat="48.89461" lon="-0.37565">
        <ele>149</ele>
        <time>2014-11-23T14:32:20.000Z</time>
      </trkpt>
      <trkpt lat="48.89461" lon="-0.37558">
        <ele>149.19999694824</ele>
        <time>2014-11-23T14:32:24.000Z</time>
      </trkpt>
      <trkpt lat="48.89459" lon="-0.37553">
        <ele>149.80000305176</ele>
        <time>2014-11-23T14:32:27.000Z</time>
      </trkpt>
      <trkpt lat="48.89457" lon="-0.37548">
        <ele>150.19999694824</ele>
        <time>2014-11-23T14:32:30.000Z</time>
      </trkpt>
      <trkpt lat="48.89456" lon="-0.37543">
        <ele>150.60000610352</ele>
        <time>2014-11-23T14:32:32.000Z</time>
      </trkpt>
      <trkpt lat="48.89454" lon="-0.37539">
        <ele>151</ele>
        <time>2014-11-23T14:32:35.000Z</time>
      </trkpt>
      <trkpt lat="48.89452" lon="-0.37535">
        <ele>150.60000610352</ele>
        <time>2014-11-23T14:32:40.000Z</time>
      </trkpt>
      <trkpt lat="48.89453" lon="-0.37532">
        <ele>150.19999694824</ele>
        <time>2014-11-23T14:32:43.000Z</time>
      </trkpt>
      <trkpt lat="48.89452" lon="-0.37527">
        <ele>149.80000305176</ele>
        <time>2014-11-23T14:32:46.000Z</time>
      </trkpt>
      <trkpt lat="48.89451" lon="-0.37525">
        <ele>149.39999389648</ele>
        <time>2014-11-23T14:32:48.000Z</time>
      </trkpt>
      <trkpt lat="48.8945" lon="-0.3752">
        <ele>149.19999694824</ele>
        <time>2014-11-23T14:32:50.000Z</time>
      </trkpt>
      <trkpt lat="48.89448" lon="-0.37515">
        <ele>149.39999389648</ele>
        <time>2014-11-23T14:32:55.000Z</time>
      </trkpt>
      <trkpt lat="48.89447" lon="-0.37512">
        <ele>149.80000305176</ele>
        <time>2014-11-23T14:32:57.000Z</time>
      </trkpt>
      <trkpt lat="48.89444" lon="-0.37507">
        <ele>150</ele>
        <time>2014-11-23T14:33:00.000Z</time>
      </trkpt>
      <trkpt lat="48.89442" lon="-0.37503">
        <ele>150.19999694824</ele>
        <time>2014-11-23T14:33:02.000Z</time>
      </trkpt>
      <trkpt lat="48.89441" lon="-0.37498">
        <ele>150.19999694824</ele>
        <time>2014-11-23T14:33:05.000Z</time>
      </trkpt>
      <trkpt lat="48.89439" lon="-0.37488">
        <ele>150</ele>
        <time>2014-11-23T14:33:10.000Z</time>
      </trkpt>
      <trkpt lat="48.89437" lon="-0.37481">
        <ele>149.80000305176</ele>
        <time>2014-11-23T14:33:13.000Z</time>
      </trkpt>
      <trkpt lat="48.89436" lon="-0.37478">
        <ele>149.80000305176</ele>
        <time>2014-11-23T14:33:15.000Z</time>
      </trkpt>
      <trkpt lat="48.89434" lon="-0.37472">
        <ele>149.80000305176</ele>
        <time>2014-11-23T14:33:18.000Z</time>
      </trkpt>
      <trkpt lat="48.89433" lon="-0.37468">
        <ele>150</ele>
        <time>2014-11-23T14:33:20.000Z</time>
      </trkpt>
      <trkpt lat="48.89431" lon="-0.37465">
        <ele>150.19999694824</ele>
        <time>2014-11-23T14:33:22.000Z</time>
      </trkpt>
      <trkpt lat="48.8943" lon="-0.37461">
        <ele>150.60000610352</ele>
        <time>2014-11-23T14:33:24.000Z</time>
      </trkpt>
      <trkpt lat="48.89428" lon="-0.37456">
        <ele>150.80000305176</ele>
        <time>2014-11-23T14:33:27.000Z</time>
      </trkpt>
      <trkpt lat="48.89426" lon="-0.37453">
        <ele>151</ele>
        <time>2014-11-23T14:33:29.000Z</time>
      </trkpt>
      <trkpt lat="48.89425" lon="-0.37448">
        <ele>150.80000305176</ele>
        <time>2014-11-23T14:33:32.000Z</time>
      </trkpt>
      <trkpt lat="48.89423" lon="-0.37443">
        <ele>150.60000610352</ele>
        <time>2014-11-23T14:33:35.000Z</time>
      </trkpt>
      <trkpt lat="48.89419" lon="-0.37429">
        <ele>150.60000610352</ele>
        <time>2014-11-23T14:33:40.000Z</time>
      </trkpt>
      <trkpt lat="48.89418" lon="-0.37421">
        <ele>150.60000610352</ele>
        <time>2014-11-23T14:33:43.000Z</time>
      </trkpt>
      <trkpt lat="48.89417" lon="-0.37416">
        <ele>150.80000305176</ele>
        <time>2014-11-23T14:33:45.000Z</time>
      </trkpt>
      <trkpt lat="48.89417" lon="-0.37411">
        <ele>151.19999694824</ele>
        <time>2014-11-23T14:33:47.000Z</time>
      </trkpt>
      <trkpt lat="48.89416" lon="-0.37408">
        <ele>151.80000305176</ele>
        <time>2014-11-23T14:33:50.000Z</time>
      </trkpt>
      <trkpt lat="48.89415" lon="-0.37407">
        <ele>152.39999389648</ele>
        <time>2014-11-23T14:33:53.000Z</time>
      </trkpt>
      <trkpt lat="48.89415" lon="-0.37405">
        <ele>153</ele>
        <time>2014-11-23T14:33:55.000Z</time>
      </trkpt>
      <trkpt lat="48.89415" lon="-0.37401">
        <ele>153.60000610352</ele>
        <time>2014-11-23T14:33:57.000Z</time>
      </trkpt>
      <trkpt lat="48.89413" lon="-0.37394">
        <ele>154</ele>
        <time>2014-11-23T14:34:00.000Z</time>
      </trkpt>
      <trkpt lat="48.89412" lon="-0.37389">
        <ele>154</ele>
        <time>2014-11-23T14:34:02.000Z</time>
      </trkpt>
      <trkpt lat="48.8941" lon="-0.37384">
        <ele>153.80000305176</ele>
        <time>2014-11-23T14:34:04.000Z</time>
      </trkpt>
      <trkpt lat="48.89408" lon="-0.37379">
        <ele>153.60000610352</ele>
        <time>2014-11-23T14:34:07.000Z</time>
      </trkpt>
      <trkpt lat="48.89407" lon="-0.37375">
        <ele>153.19999694824</ele>
        <time>2014-11-23T14:34:09.000Z</time>
      </trkpt>
      <trkpt lat="48.89406" lon="-0.37371">
        <ele>153</ele>
        <time>2014-11-23T14:34:11.000Z</time>
      </trkpt>
      <trkpt lat="48.89404" lon="-0.37365">
        <ele>152.60000610352</ele>
        <time>2014-11-23T14:34:14.000Z</time>
      </trkpt>
      <trkpt lat="48.89403" lon="-0.3736">
        <ele>152.39999389648</ele>
        <time>2014-11-23T14:34:16.000Z</time>
      </trkpt>
      <trkpt lat="48.89402" lon="-0.37355">
        <ele>152</ele>
        <time>2014-11-23T14:34:18.000Z</time>
      </trkpt>
      <trkpt lat="48.894" lon="-0.37349">
        <ele>151.80000305176</ele>
        <time>2014-11-23T14:34:21.000Z</time>
      </trkpt>
      <trkpt lat="48.89399" lon="-0.37344">
        <ele>151.39999389648</ele>
        <time>2014-11-23T14:34:23.000Z</time>
      </trkpt>
      <trkpt lat="48.89398" lon="-0.3734">
        <ele>151.19999694824</ele>
        <time>2014-11-23T14:34:25.000Z</time>
      </trkpt>
      <trkpt lat="48.89397" lon="-0.37336">
        <ele>151</ele>
        <time>2014-11-23T14:34:27.000Z</time>
      </trkpt>
      <trkpt lat="48.89396" lon="-0.37332">
        <ele>151.19999694824</ele>
        <time>2014-11-23T14:34:29.000Z</time>
      </trkpt>
      <trkpt lat="48.89395" lon="-0.37328">
        <ele>151.39999389648</ele>
        <time>2014-11-23T14:34:31.000Z</time>
      </trkpt>
      <trkpt lat="48.89387" lon="-0.37308">
        <ele>151.19999694824</ele>
        <time>2014-11-23T14:34:40.000Z</time>
      </trkpt>
      <trkpt lat="48.89384" lon="-0.37304">
        <ele>151.19999694824</ele>
        <time>2014-11-23T14:34:43.000Z</time>
      </trkpt>
      <trkpt lat="48.89384" lon="-0.37299">
        <ele>151</ele>
        <time>2014-11-23T14:34:46.000Z</time>
      </trkpt>
      <trkpt lat="48.89384" lon="-0.37295">
        <ele>150.60000610352</ele>
        <time>2014-11-23T14:34:48.000Z</time>
      </trkpt>
      <trkpt lat="48.89384" lon="-0.37292">
        <ele>150</ele>
        <time>2014-11-23T14:34:50.000Z</time>
      </trkpt>
      <trkpt lat="48.89383" lon="-0.37286">
        <ele>149.60000610352</ele>
        <time>2014-11-23T14:34:53.000Z</time>
      </trkpt>
      <trkpt lat="48.89381" lon="-0.37281">
        <ele>149</ele>
        <time>2014-11-23T14:34:56.000Z</time>
      </trkpt>
      <trkpt lat="48.89381" lon="-0.37276">
        <ele>148.39999389648</ele>
        <time>2014-11-23T14:34:59.000Z</time>
      </trkpt>
      <trkpt lat="48.8938" lon="-0.37273">
        <ele>147.80000305176</ele>
        <time>2014-11-23T14:35:01.000Z</time>
      </trkpt>
      <trkpt lat="48.89379" lon="-0.37268">
        <ele>147.19999694824</ele>
        <time>2014-11-23T14:35:04.000Z</time>
      </trkpt>
      <trkpt lat="48.89378" lon="-0.37264">
        <ele>146.60000610352</ele>
        <time>2014-11-23T14:35:07.000Z</time>
      </trkpt>
      <trkpt lat="48.89376" lon="-0.37259">
        <ele>146</ele>
        <time>2014-11-23T14:35:10.000Z</time>
      </trkpt>
      <trkpt lat="48.89375" lon="-0.37254">
        <ele>145.60000610352</ele>
        <time>2014-11-23T14:35:13.000Z</time>
      </trkpt>
      <trkpt lat="48.89374" lon="-0.37249">
        <ele>145.19999694824</ele>
        <time>2014-11-23T14:35:16.000Z</time>
      </trkpt>
      <trkpt lat="48.89373" lon="-0.37244">
        <ele>145</ele>
        <time>2014-11-23T14:35:18.000Z</time>
      </trkpt>
      <trkpt lat="48.8937" lon="-0.37229">
        <ele>145</ele>
        <time>2014-11-23T14:35:25.000Z</time>
      </trkpt>
      <trkpt lat="48.89366" lon="-0.37206">
        <ele>144.80000305176</ele>
        <time>2014-11-23T14:35:35.000Z</time>
      </trkpt>
      <trkpt lat="48.89365" lon="-0.37202">
        <ele>144.60000610352</ele>
        <time>2014-11-23T14:35:37.000Z</time>
      </trkpt>
      <trkpt lat="48.89364" lon="-0.37195">
        <ele>144.39999389648</ele>
        <time>2014-11-23T14:35:40.000Z</time>
      </trkpt>
      <trkpt lat="48.89364" lon="-0.3719">
        <ele>144.19999694824</ele>
        <time>2014-11-23T14:35:42.000Z</time>
      </trkpt>
      <trkpt lat="48.89363" lon="-0.37185">
        <ele>144</ele>
        <time>2014-11-23T14:35:45.000Z</time>
      </trkpt>
      <trkpt lat="48.89363" lon="-0.37176">
        <ele>143.80000305176</ele>
        <time>2014-11-23T14:35:52.000Z</time>
      </trkpt>
      <trkpt lat="48.89362" lon="-0.37173">
        <ele>143.60000610352</ele>
        <time>2014-11-23T14:35:55.000Z</time>
      </trkpt>
      <trkpt lat="48.89361" lon="-0.3717">
        <ele>143</ele>
        <time>2014-11-23T14:35:57.000Z</time>
      </trkpt>
      <trkpt lat="48.89359" lon="-0.37165">
        <ele>142.39999389648</ele>
        <time>2014-11-23T14:36:00.000Z</time>
      </trkpt>
      <trkpt lat="48.89358" lon="-0.37162">
        <ele>141.80000305176</ele>
        <time>2014-11-23T14:36:02.000Z</time>
      </trkpt>
      <trkpt lat="48.89359" lon="-0.37158">
        <ele>141.39999389648</ele>
        <time>2014-11-23T14:36:04.000Z</time>
      </trkpt>
      <trkpt lat="48.89359" lon="-0.37152">
        <ele>141</ele>
        <time>2014-11-23T14:36:07.000Z</time>
      </trkpt>
      <trkpt lat="48.89356" lon="-0.37147">
        <ele>141</ele>
        <time>2014-11-23T14:36:10.000Z</time>
      </trkpt>
      <trkpt lat="48.89354" lon="-0.37144">
        <ele>140.60000610352</ele>
        <time>2014-11-23T14:36:13.000Z</time>
      </trkpt>
      <trkpt lat="48.89353" lon="-0.3714">
        <ele>140.19999694824</ele>
        <time>2014-11-23T14:36:16.000Z</time>
      </trkpt>
      <trkpt lat="48.89353" lon="-0.37138">
        <ele>140.19999694824</ele>
        <time>2014-11-23T14:36:18.000Z</time>
      </trkpt>
      <trkpt lat="48.89353" lon="-0.37132">
        <ele>140</ele>
        <time>2014-11-23T14:36:21.000Z</time>
      </trkpt>
      <trkpt lat="48.89351" lon="-0.37128">
        <ele>139.80000305176</ele>
        <time>2014-11-23T14:36:24.000Z</time>
      </trkpt>
      <trkpt lat="48.89346" lon="-0.37114">
        <ele>139.39999389648</ele>
        <time>2014-11-23T14:36:31.000Z</time>
      </trkpt>
      <trkpt lat="48.89344" lon="-0.3711">
        <ele>139</ele>
        <time>2014-11-23T14:36:33.000Z</time>
      </trkpt>
      <trkpt lat="48.89342" lon="-0.37103">
        <ele>138.60000610352</ele>
        <time>2014-11-23T14:36:36.000Z</time>
      </trkpt>
      <trkpt lat="48.89336" lon="-0.37085">
        <ele>138.39999389648</ele>
        <time>2014-11-23T14:36:44.000Z</time>
      </trkpt>
      <trkpt lat="48.89334" lon="-0.37081">
        <ele>138.19999694824</ele>
        <time>2014-11-23T14:36:47.000Z</time>
      </trkpt>
      <trkpt lat="48.89334" lon="-0.37073">
        <ele>137.60000610352</ele>
        <time>2014-11-23T14:36:50.000Z</time>
      </trkpt>
      <trkpt lat="48.89334" lon="-0.37069">
        <ele>136.80000305176</ele>
        <time>2014-11-23T14:36:52.000Z</time>
      </trkpt>
      <trkpt lat="48.89333" lon="-0.37065">
        <ele>136</ele>
        <time>2014-11-23T14:36:54.000Z</time>
      </trkpt>
      <trkpt lat="48.89333" lon="-0.3706">
        <ele>134.60000610352</ele>
        <time>2014-11-23T14:36:57.000Z</time>
      </trkpt>
      <trkpt lat="48.89332" lon="-0.37054">
        <ele>133.39999389648</ele>
        <time>2014-11-23T14:37:00.000Z</time>
      </trkpt>
      <trkpt lat="48.89332" lon="-0.3705">
        <ele>132.39999389648</ele>
        <time>2014-11-23T14:37:03.000Z</time>
      </trkpt>
      <trkpt lat="48.89331" lon="-0.37042">
        <ele>131.39999389648</ele>
        <time>2014-11-23T14:37:06.000Z</time>
      </trkpt>
      <trkpt lat="48.8933" lon="-0.37037">
        <ele>130.39999389648</ele>
        <time>2014-11-23T14:37:08.000Z</time>
      </trkpt>
      <trkpt lat="48.89328" lon="-0.3703">
        <ele>130.19999694824</ele>
        <time>2014-11-23T14:37:11.000Z</time>
      </trkpt>
      <trkpt lat="48.89326" lon="-0.37024">
        <ele>129.80000305176</ele>
        <time>2014-11-23T14:37:14.000Z</time>
      </trkpt>
      <trkpt lat="48.89323" lon="-0.37017">
        <ele>129.60000610352</ele>
        <time>2014-11-23T14:37:18.000Z</time>
      </trkpt>
      <trkpt lat="48.8932" lon="-0.37013">
        <ele>129.39999389648</ele>
        <time>2014-11-23T14:37:21.000Z</time>
      </trkpt>
      <trkpt lat="48.89318" lon="-0.37013">
        <ele>128.80000305176</ele>
        <time>2014-11-23T14:37:25.000Z</time>
      </trkpt>
      <trkpt lat="48.89317" lon="-0.37015">
        <ele>128</ele>
        <time>2014-11-23T14:37:36.000Z</time>
      </trkpt>
      <trkpt lat="48.89315" lon="-0.37015">
        <ele>127</ele>
        <time>2014-11-23T14:37:38.000Z</time>
      </trkpt>
      <trkpt lat="48.89314" lon="-0.37013">
        <ele>126.40000152588</ele>
        <time>2014-11-23T14:37:41.000Z</time>
      </trkpt>
      <trkpt lat="48.89312" lon="-0.37012">
        <ele>125.59999847412</ele>
        <time>2014-11-23T14:37:44.000Z</time>
      </trkpt>
      <trkpt lat="48.89311" lon="-0.37011">
        <ele>125.19999694824</ele>
        <time>2014-11-23T14:37:47.000Z</time>
      </trkpt>
      <trkpt lat="48.89312" lon="-0.3701">
        <ele>124.80000305176</ele>
        <time>2014-11-23T14:38:01.000Z</time>
      </trkpt>
      <trkpt lat="48.89312" lon="-0.37009">
        <ele>124.40000152588</ele>
        <time>2014-11-23T14:38:03.000Z</time>
      </trkpt>
      <trkpt lat="48.89309" lon="-0.37007">
        <ele>123.59999847412</ele>
        <time>2014-11-23T14:38:06.000Z</time>
      </trkpt>
      <trkpt lat="48.89306" lon="-0.37006">
        <ele>123.19999694824</ele>
        <time>2014-11-23T14:38:09.000Z</time>
      </trkpt>
      <trkpt lat="48.89304" lon="-0.37003">
        <ele>122.80000305176</ele>
        <time>2014-11-23T14:38:11.000Z</time>
      </trkpt>
      <trkpt lat="48.89303" lon="-0.37001">
        <ele>122.59999847412</ele>
        <time>2014-11-23T14:38:13.000Z</time>
      </trkpt>
      <trkpt lat="48.89301" lon="-0.36997">
        <ele>122.40000152588</ele>
        <time>2014-11-23T14:38:16.000Z</time>
      </trkpt>
      <trkpt lat="48.89298" lon="-0.36994">
        <ele>122.59999847412</ele>
        <time>2014-11-23T14:38:18.000Z</time>
      </trkpt>
      <trkpt lat="48.89296" lon="-0.36991">
        <ele>122.59999847412</ele>
        <time>2014-11-23T14:38:21.000Z</time>
      </trkpt>
      <trkpt lat="48.89294" lon="-0.36989">
        <ele>122.59999847412</ele>
        <time>2014-11-23T14:38:23.000Z</time>
      </trkpt>
      <trkpt lat="48.89294" lon="-0.36989">
        <ele>122.59999847412</ele>
        <time>2014-11-23T14:38:43.000Z</time>
      </trkpt>
      <trkpt lat="48.89292" lon="-0.3699">
        <ele>122.59999847412</ele>
        <time>2014-11-23T14:38:53.000Z</time>
      </trkpt>
      <trkpt lat="48.89292" lon="-0.36988">
        <ele>122.40000152588</ele>
        <time>2014-11-23T14:38:55.000Z</time>
      </trkpt>
      <trkpt lat="48.89289" lon="-0.36985">
        <ele>122.59999847412</ele>
        <time>2014-11-23T14:38:58.000Z</time>
      </trkpt>
      <trkpt lat="48.89288" lon="-0.36983">
        <ele>122.59999847412</ele>
        <time>2014-11-23T14:39:00.000Z</time>
      </trkpt>
      <trkpt lat="48.89285" lon="-0.36981">
        <ele>122.80000305176</ele>
        <time>2014-11-23T14:39:03.000Z</time>
      </trkpt>
      <trkpt lat="48.89284" lon="-0.3698">
        <ele>123.19999694824</ele>
        <time>2014-11-23T14:39:05.000Z</time>
      </trkpt>
      <trkpt lat="48.89282" lon="-0.36976">
        <ele>124</ele>
        <time>2014-11-23T14:39:08.000Z</time>
      </trkpt>
      <trkpt lat="48.89279" lon="-0.36974">
        <ele>124</ele>
        <time>2014-11-23T14:39:11.000Z</time>
      </trkpt>
      <trkpt lat="48.89276" lon="-0.36972">
        <ele>123.59999847412</ele>
        <time>2014-11-23T14:39:14.000Z</time>
      </trkpt>
      <trkpt lat="48.89275" lon="-0.36971">
        <ele>122.80000305176</ele>
        <time>2014-11-23T14:39:17.000Z</time>
      </trkpt>
      <trkpt lat="48.89271" lon="-0.36967">
        <ele>122.40000152588</ele>
        <time>2014-11-23T14:39:20.000Z</time>
      </trkpt>
      <trkpt lat="48.89267" lon="-0.36966">
        <ele>122</ele>
        <time>2014-11-23T14:39:22.000Z</time>
      </trkpt>
      <trkpt lat="48.89265" lon="-0.36965">
        <ele>122.19999694824</ele>
        <time>2014-11-23T14:39:24.000Z</time>
      </trkpt>
      <trkpt lat="48.8926" lon="-0.36966">
        <ele>122.80000305176</ele>
        <time>2014-11-23T14:39:27.000Z</time>
      </trkpt>
      <trkpt lat="48.89257" lon="-0.36967">
        <ele>123.40000152588</ele>
        <time>2014-11-23T14:39:29.000Z</time>
      </trkpt>
      <trkpt lat="48.89252" lon="-0.36965">
        <ele>123.19999694824</ele>
        <time>2014-11-23T14:39:32.000Z</time>
      </trkpt>
      <trkpt lat="48.8925" lon="-0.36964">
        <ele>123</ele>
        <time>2014-11-23T14:39:35.000Z</time>
      </trkpt>
      <trkpt lat="48.89249" lon="-0.36963">
        <ele>122.59999847412</ele>
        <time>2014-11-23T14:39:37.000Z</time>
      </trkpt>
      <trkpt lat="48.89247" lon="-0.36965">
        <ele>122.59999847412</ele>
        <time>2014-11-23T14:39:40.000Z</time>
      </trkpt>
      <trkpt lat="48.89245" lon="-0.36967">
        <ele>123</ele>
        <time>2014-11-23T14:39:43.000Z</time>
      </trkpt>
      <trkpt lat="48.89244" lon="-0.36969">
        <ele>123.80000305176</ele>
        <time>2014-11-23T14:39:45.000Z</time>
      </trkpt>
      <trkpt lat="48.89243" lon="-0.36971">
        <ele>124.19999694824</ele>
        <time>2014-11-23T14:39:47.000Z</time>
      </trkpt>
      <trkpt lat="48.89242" lon="-0.36973">
        <ele>124.80000305176</ele>
        <time>2014-11-23T14:39:50.000Z</time>
      </trkpt>
      <trkpt lat="48.89242" lon="-0.36974">
        <ele>125.40000152588</ele>
        <time>2014-11-23T14:39:52.000Z</time>
      </trkpt>
      <trkpt lat="48.8924" lon="-0.36978">
        <ele>125.59999847412</ele>
        <time>2014-11-23T14:39:55.000Z</time>
      </trkpt>
      <trkpt lat="48.8924" lon="-0.3698">
        <ele>125.59999847412</ele>
        <time>2014-11-23T14:39:58.000Z</time>
      </trkpt>
      <trkpt lat="48.89241" lon="-0.3698">
        <ele>126.19999694824</ele>
        <time>2014-11-23T14:40:10.000Z</time>
      </trkpt>
      <trkpt lat="48.89242" lon="-0.36981">
        <ele>126.40000152588</ele>
        <time>2014-11-23T14:40:13.000Z</time>
      </trkpt>
      <trkpt lat="48.89241" lon="-0.36982">
        <ele>126.40000152588</ele>
        <time>2014-11-23T14:40:16.000Z</time>
      </trkpt>
      <trkpt lat="48.89241" lon="-0.36985">
        <ele>126.59999847412</ele>
        <time>2014-11-23T14:40:18.000Z</time>
      </trkpt>
      <trkpt lat="48.8924" lon="-0.36988">
        <ele>127.59999847412</ele>
        <time>2014-11-23T14:40:21.000Z</time>
      </trkpt>
      <trkpt lat="48.8924" lon="-0.36989">
        <ele>128.80000305176</ele>
        <time>2014-11-23T14:40:23.000Z</time>
      </trkpt>
      <trkpt lat="48.89239" lon="-0.36989">
        <ele>130.39999389648</ele>
        <time>2014-11-23T14:40:25.000Z</time>
      </trkpt>
      <trkpt lat="48.89238" lon="-0.36988">
        <ele>131.80000305176</ele>
        <time>2014-11-23T14:40:27.000Z</time>
      </trkpt>
      <trkpt lat="48.89234" lon="-0.3699">
        <ele>133.39999389648</ele>
        <time>2014-11-23T14:40:30.000Z</time>
      </trkpt>
      <trkpt lat="48.8923" lon="-0.36992">
        <ele>134.39999389648</ele>
        <time>2014-11-23T14:40:32.000Z</time>
      </trkpt>
      <trkpt lat="48.89232" lon="-0.36993">
        <ele>135.19999694824</ele>
        <time>2014-11-23T14:40:37.000Z</time>
      </trkpt>
      <trkpt lat="48.89236" lon="-0.36994">
        <ele>135.39999389648</ele>
        <time>2014-11-23T14:40:52.000Z</time>
      </trkpt>
      <trkpt lat="48.89237" lon="-0.36996">
        <ele>135.80000305176</ele>
        <time>2014-11-23T14:40:59.000Z</time>
      </trkpt>
      <trkpt lat="48.89236" lon="-0.36997">
        <ele>136</ele>
        <time>2014-11-23T14:41:02.000Z</time>
      </trkpt>
      <trkpt lat="48.89238" lon="-0.36997">
        <ele>136.39999389648</ele>
        <time>2014-11-23T14:41:10.000Z</time>
      </trkpt>
      <trkpt lat="48.89239" lon="-0.36996">
        <ele>135.80000305176</ele>
        <time>2014-11-23T14:41:18.000Z</time>
      </trkpt>
      <trkpt lat="48.89237" lon="-0.37001">
        <ele>135.39999389648</ele>
        <time>2014-11-23T14:41:21.000Z</time>
      </trkpt>
      <trkpt lat="48.89235" lon="-0.3701">
        <ele>135.19999694824</ele>
        <time>2014-11-23T14:41:26.000Z</time>
      </trkpt>
      <trkpt lat="48.89235" lon="-0.37014">
        <ele>135</ele>
        <time>2014-11-23T14:41:28.000Z</time>
      </trkpt>
      <trkpt lat="48.89233" lon="-0.3702">
        <ele>135.60000610352</ele>
        <time>2014-11-23T14:41:31.000Z</time>
      </trkpt>
      <trkpt lat="48.89232" lon="-0.37025">
        <ele>136.39999389648</ele>
        <time>2014-11-23T14:41:34.000Z</time>
      </trkpt>
      <trkpt lat="48.8923" lon="-0.37033">
        <ele>137</ele>
        <time>2014-11-23T14:41:37.000Z</time>
      </trkpt>
      <trkpt lat="48.89229" lon="-0.37039">
        <ele>138.19999694824</ele>
        <time>2014-11-23T14:41:40.000Z</time>
      </trkpt>
      <trkpt lat="48.89228" lon="-0.37042">
        <ele>139.19999694824</ele>
        <time>2014-11-23T14:41:42.000Z</time>
      </trkpt>
      <trkpt lat="48.89228" lon="-0.37048">
        <ele>140.80000305176</ele>
        <time>2014-11-23T14:41:45.000Z</time>
      </trkpt>
      <trkpt lat="48.89227" lon="-0.37052">
        <ele>142.39999389648</ele>
        <time>2014-11-23T14:41:47.000Z</time>
      </trkpt>
      <trkpt lat="48.89226" lon="-0.37056">
        <ele>143.80000305176</ele>
        <time>2014-11-23T14:41:50.000Z</time>
      </trkpt>
      <trkpt lat="48.89225" lon="-0.37059">
        <ele>144.80000305176</ele>
        <time>2014-11-23T14:41:52.000Z</time>
      </trkpt>
      <trkpt lat="48.89225" lon="-0.37063">
        <ele>145.80000305176</ele>
        <time>2014-11-23T14:41:55.000Z</time>
      </trkpt>
      <trkpt lat="48.89223" lon="-0.37065">
        <ele>146</ele>
        <time>2014-11-23T14:41:57.000Z</time>
      </trkpt>
      <trkpt lat="48.89221" lon="-0.37071">
        <ele>146</ele>
        <time>2014-11-23T14:42:00.000Z</time>
      </trkpt>
      <trkpt lat="48.8922" lon="-0.37075">
        <ele>145.80000305176</ele>
        <time>2014-11-23T14:42:02.000Z</time>
      </trkpt>
      <trkpt lat="48.89219" lon="-0.37079">
        <ele>145.60000610352</ele>
        <time>2014-11-23T14:42:04.000Z</time>
      </trkpt>
      <trkpt lat="48.89214" lon="-0.37101">
        <ele>145.80000305176</ele>
        <time>2014-11-23T14:42:17.000Z</time>
      </trkpt>
      <trkpt lat="48.89212" lon="-0.37108">
        <ele>146</ele>
        <time>2014-11-23T14:42:20.000Z</time>
      </trkpt>
      <trkpt lat="48.89211" lon="-0.37112">
        <ele>146.19999694824</ele>
        <time>2014-11-23T14:42:22.000Z</time>
      </trkpt>
      <trkpt lat="48.89208" lon="-0.37116">
        <ele>146.80000305176</ele>
        <time>2014-11-23T14:42:25.000Z</time>
      </trkpt>
      <trkpt lat="48.89206" lon="-0.3712">
        <ele>147.60000610352</ele>
        <time>2014-11-23T14:42:27.000Z</time>
      </trkpt>
      <trkpt lat="48.89204" lon="-0.37126">
        <ele>148.39999389648</ele>
        <time>2014-11-23T14:42:30.000Z</time>
      </trkpt>
      <trkpt lat="48.89202" lon="-0.3713">
        <ele>149</ele>
        <time>2014-11-23T14:42:32.000Z</time>
      </trkpt>
      <trkpt lat="48.89199" lon="-0.37134">
        <ele>149.60000610352</ele>
        <time>2014-11-23T14:42:35.000Z</time>
      </trkpt>
      <trkpt lat="48.89195" lon="-0.37136">
        <ele>149.60000610352</ele>
        <time>2014-11-23T14:42:37.000Z</time>
      </trkpt>
      <trkpt lat="48.89192" lon="-0.37142">
        <ele>149.80000305176</ele>
        <time>2014-11-23T14:42:40.000Z</time>
      </trkpt>
      <trkpt lat="48.89192" lon="-0.37147">
        <ele>149.80000305176</ele>
        <time>2014-11-23T14:42:42.000Z</time>
      </trkpt>
      <trkpt lat="48.89189" lon="-0.37156">
        <ele>149.60000610352</ele>
        <time>2014-11-23T14:42:48.000Z</time>
      </trkpt>
      <trkpt lat="48.89188" lon="-0.37158">
        <ele>149.80000305176</ele>
        <time>2014-11-23T14:42:51.000Z</time>
      </trkpt>
      <trkpt lat="48.89186" lon="-0.37163">
        <ele>150.19999694824</ele>
        <time>2014-11-23T14:42:54.000Z</time>
      </trkpt>
      <trkpt lat="48.89183" lon="-0.37168">
        <ele>150.60000610352</ele>
        <time>2014-11-23T14:42:57.000Z</time>
      </trkpt>
      <trkpt lat="48.8918" lon="-0.37173">
        <ele>151.39999389648</ele>
        <time>2014-11-23T14:42:59.000Z</time>
      </trkpt>
      <trkpt lat="48.89177" lon="-0.37175">
        <ele>152.19999694824</ele>
        <time>2014-11-23T14:43:01.000Z</time>
      </trkpt>
      <trkpt lat="48.89173" lon="-0.3718">
        <ele>153.39999389648</ele>
        <time>2014-11-23T14:43:04.000Z</time>
      </trkpt>
      <trkpt lat="48.89172" lon="-0.37183">
        <ele>154.39999389648</ele>
        <time>2014-11-23T14:43:06.000Z</time>
      </trkpt>
      <trkpt lat="48.8917" lon="-0.37186">
        <ele>155.19999694824</ele>
        <time>2014-11-23T14:43:08.000Z</time>
      </trkpt>
      <trkpt lat="48.89168" lon="-0.3719">
        <ele>155.80000305176</ele>
        <time>2014-11-23T14:43:11.000Z</time>
      </trkpt>
      <trkpt lat="48.89166" lon="-0.37193">
        <ele>156.60000610352</ele>
        <time>2014-11-23T14:43:13.000Z</time>
      </trkpt>
      <trkpt lat="48.89165" lon="-0.37196">
        <ele>156.80000305176</ele>
        <time>2014-11-23T14:43:16.000Z</time>
      </trkpt>
      <trkpt lat="48.89161" lon="-0.37201">
        <ele>157</ele>
        <time>2014-11-23T14:43:20.000Z</time>
      </trkpt>
      <trkpt lat="48.89159" lon="-0.37203">
        <ele>157</ele>
        <time>2014-11-23T14:43:23.000Z</time>
      </trkpt>
      <trkpt lat="48.89154" lon="-0.37208">
        <ele>156.80000305176</ele>
        <time>2014-11-23T14:43:28.000Z</time>
      </trkpt>
      <trkpt lat="48.89151" lon="-0.37212">
        <ele>156.60000610352</ele>
        <time>2014-11-23T14:43:31.000Z</time>
      </trkpt>
      <trkpt lat="48.89148" lon="-0.37216">
        <ele>156.19999694824</ele>
        <time>2014-11-23T14:43:34.000Z</time>
      </trkpt>
      <trkpt lat="48.89146" lon="-0.37218">
        <ele>156</ele>
        <time>2014-11-23T14:43:36.000Z</time>
      </trkpt>
      <trkpt lat="48.89144" lon="-0.37223">
        <ele>155.80000305176</ele>
        <time>2014-11-23T14:43:39.000Z</time>
      </trkpt>
      <trkpt lat="48.89138" lon="-0.37234">
        <ele>156</ele>
        <time>2014-11-23T14:43:45.000Z</time>
      </trkpt>
      <trkpt lat="48.89137" lon="-0.37238">
        <ele>156.19999694824</ele>
        <time>2014-11-23T14:43:48.000Z</time>
      </trkpt>
      <trkpt lat="48.89135" lon="-0.37242">
        <ele>156.60000610352</ele>
        <time>2014-11-23T14:43:51.000Z</time>
      </trkpt>
      <trkpt lat="48.89132" lon="-0.37247">
        <ele>157</ele>
        <time>2014-11-23T14:43:54.000Z</time>
      </trkpt>
      <trkpt lat="48.8913" lon="-0.37252">
        <ele>157.39999389648</ele>
        <time>2014-11-23T14:43:57.000Z</time>
      </trkpt>
      <trkpt lat="48.89128" lon="-0.37255">
        <ele>157.80000305176</ele>
        <time>2014-11-23T14:43:59.000Z</time>
      </trkpt>
      <trkpt lat="48.89126" lon="-0.37261">
        <ele>158.19999694824</ele>
        <time>2014-11-23T14:44:02.000Z</time>
      </trkpt>
      <trkpt lat="48.89121" lon="-0.37275">
        <ele>158.39999389648</ele>
        <time>2014-11-23T14:44:10.000Z</time>
      </trkpt>
      <trkpt lat="48.89119" lon="-0.37279">
        <ele>158.60000610352</ele>
        <time>2014-11-23T14:44:12.000Z</time>
      </trkpt>
      <trkpt lat="48.89116" lon="-0.37288">
        <ele>159</ele>
        <time>2014-11-23T14:44:17.000Z</time>
      </trkpt>
      <trkpt lat="48.89114" lon="-0.37291">
        <ele>159.39999389648</ele>
        <time>2014-11-23T14:44:19.000Z</time>
      </trkpt>
      <trkpt lat="48.89111" lon="-0.37299">
        <ele>159.60000610352</ele>
        <time>2014-11-23T14:44:23.000Z</time>
      </trkpt>
      <trkpt lat="48.89109" lon="-0.37305">
        <ele>159.80000305176</ele>
        <time>2014-11-23T14:44:26.000Z</time>
      </trkpt>
      <trkpt lat="48.89103" lon="-0.37321">
        <ele>160.19999694824</ele>
        <time>2014-11-23T14:44:34.000Z</time>
      </trkpt>
      <trkpt lat="48.891" lon="-0.37325">
        <ele>160.39999389648</ele>
        <time>2014-11-23T14:44:37.000Z</time>
      </trkpt>
      <trkpt lat="48.89099" lon="-0.37329">
        <ele>160.80000305176</ele>
        <time>2014-11-23T14:44:39.000Z</time>
      </trkpt>
      <trkpt lat="48.89096" lon="-0.37333">
        <ele>161.19999694824</ele>
        <time>2014-11-23T14:44:42.000Z</time>
      </trkpt>
      <trkpt lat="48.89094" lon="-0.37338">
        <ele>161.60000610352</ele>
        <time>2014-11-23T14:44:45.000Z</time>
      </trkpt>
      <trkpt lat="48.89093" lon="-0.37343">
        <ele>161.80000305176</ele>
        <time>2014-11-23T14:44:48.000Z</time>
      </trkpt>
      <trkpt lat="48.89092" lon="-0.37347">
        <ele>162.19999694824</ele>
        <time>2014-11-23T14:44:50.000Z</time>
      </trkpt>
      <trkpt lat="48.8909" lon="-0.37353">
        <ele>162.39999389648</ele>
        <time>2014-11-23T14:44:53.000Z</time>
      </trkpt>
      <trkpt lat="48.89086" lon="-0.37369">
        <ele>162.60000610352</ele>
        <time>2014-11-23T14:45:01.000Z</time>
      </trkpt>
      <trkpt lat="48.89083" lon="-0.37372">
        <ele>162.60000610352</ele>
        <time>2014-11-23T14:45:03.000Z</time>
      </trkpt>
      <trkpt lat="48.89079" lon="-0.37381">
        <ele>162.80000305176</ele>
        <time>2014-11-23T14:45:08.000Z</time>
      </trkpt>
      <trkpt lat="48.89076" lon="-0.37384">
        <ele>163</ele>
        <time>2014-11-23T14:45:10.000Z</time>
      </trkpt>
      <trkpt lat="48.89073" lon="-0.37386">
        <ele>163</ele>
        <time>2014-11-23T14:45:13.000Z</time>
      </trkpt>
      <trkpt lat="48.89063" lon="-0.37395">
        <ele>162.80000305176</ele>
        <time>2014-11-23T14:45:20.000Z</time>
      </trkpt>
      <trkpt lat="48.8906" lon="-0.37398">
        <ele>162.60000610352</ele>
        <time>2014-11-23T14:45:22.000Z</time>
      </trkpt>
      <trkpt lat="48.89055" lon="-0.37402">
        <ele>162.39999389648</ele>
        <time>2014-11-23T14:45:25.000Z</time>
      </trkpt>
      <trkpt lat="48.89051" lon="-0.37406">
        <ele>162.19999694824</ele>
        <time>2014-11-23T14:45:28.000Z</time>
      </trkpt>
      <trkpt lat="48.89046" lon="-0.37411">
        <ele>162.39999389648</ele>
        <time>2014-11-23T14:45:33.000Z</time>
      </trkpt>
      <trkpt lat="48.89044" lon="-0.37415">
        <ele>162.60000610352</ele>
        <time>2014-11-23T14:45:36.000Z</time>
      </trkpt>
      <trkpt lat="48.89043" lon="-0.37418">
        <ele>162.80000305176</ele>
        <time>2014-11-23T14:45:38.000Z</time>
      </trkpt>
      <trkpt lat="48.89039" lon="-0.37421">
        <ele>163.19999694824</ele>
        <time>2014-11-23T14:45:41.000Z</time>
      </trkpt>
      <trkpt lat="48.89037" lon="-0.37423">
        <ele>163.60000610352</ele>
        <time>2014-11-23T14:45:44.000Z</time>
      </trkpt>
      <trkpt lat="48.89033" lon="-0.37426">
        <ele>164</ele>
        <time>2014-11-23T14:45:47.000Z</time>
      </trkpt>
      <trkpt lat="48.89031" lon="-0.37428">
        <ele>164.39999389648</ele>
        <time>2014-11-23T14:45:49.000Z</time>
      </trkpt>
      <trkpt lat="48.89029" lon="-0.37431">
        <ele>164.80000305176</ele>
        <time>2014-11-23T14:45:51.000Z</time>
      </trkpt>
      <trkpt lat="48.89025" lon="-0.37435">
        <ele>164.80000305176</ele>
        <time>2014-11-23T14:45:54.000Z</time>
      </trkpt>
      <trkpt lat="48.89023" lon="-0.37437">
        <ele>164.80000305176</ele>
        <time>2014-11-23T14:45:56.000Z</time>
      </trkpt>
      <trkpt lat="48.89013" lon="-0.37444">
        <ele>165</ele>
        <time>2014-11-23T14:46:02.000Z</time>
      </trkpt>
      <trkpt lat="48.8901" lon="-0.37447">
        <ele>165.19999694824</ele>
        <time>2014-11-23T14:46:05.000Z</time>
      </trkpt>
      <trkpt lat="48.89007" lon="-0.3745">
        <ele>165.60000610352</ele>
        <time>2014-11-23T14:46:08.000Z</time>
      </trkpt>
      <trkpt lat="48.89005" lon="-0.37452">
        <ele>165.80000305176</ele>
        <time>2014-11-23T14:46:10.000Z</time>
      </trkpt>
      <trkpt lat="48.89" lon="-0.37456">
        <ele>166</ele>
        <time>2014-11-23T14:46:13.000Z</time>
      </trkpt>
      <trkpt lat="48.88981" lon="-0.37474">
        <ele>166.19999694824</ele>
        <time>2014-11-23T14:46:27.000Z</time>
      </trkpt>
      <trkpt lat="48.88976" lon="-0.37476">
        <ele>166.39999389648</ele>
        <time>2014-11-23T14:46:30.000Z</time>
      </trkpt>
      <trkpt lat="48.88973" lon="-0.37478">
        <ele>166.60000610352</ele>
        <time>2014-11-23T14:46:32.000Z</time>
      </trkpt>
      <trkpt lat="48.88969" lon="-0.3748">
        <ele>166.80000305176</ele>
        <time>2014-11-23T14:46:35.000Z</time>
      </trkpt>
      <trkpt lat="48.88968" lon="-0.37482">
        <ele>167</ele>
        <time>2014-11-23T14:46:37.000Z</time>
      </trkpt>
      <trkpt lat="48.88966" lon="-0.37485">
        <ele>167.19999694824</ele>
        <time>2014-11-23T14:46:39.000Z</time>
      </trkpt>
      <trkpt lat="48.88964" lon="-0.37487">
        <ele>167.19999694824</ele>
        <time>2014-11-23T14:46:41.000Z</time>
      </trkpt>
      <trkpt lat="48.88962" lon="-0.37489">
        <ele>166.80000305176</ele>
        <time>2014-11-23T14:46:43.000Z</time>
      </trkpt>
      <trkpt lat="48.8896" lon="-0.37492">
        <ele>166.39999389648</ele>
        <time>2014-11-23T14:46:46.000Z</time>
      </trkpt>
      <trkpt lat="48.88956" lon="-0.37496">
        <ele>166</ele>
        <time>2014-11-23T14:46:49.000Z</time>
      </trkpt>
      <trkpt lat="48.88954" lon="-0.37497">
        <ele>165.19999694824</ele>
        <time>2014-11-23T14:46:51.000Z</time>
      </trkpt>
      <trkpt lat="48.88952" lon="-0.37502">
        <ele>164.60000610352</ele>
        <time>2014-11-23T14:46:54.000Z</time>
      </trkpt>
      <trkpt lat="48.88951" lon="-0.37504">
        <ele>164.39999389648</ele>
        <time>2014-11-23T14:46:56.000Z</time>
      </trkpt>
      <trkpt lat="48.88947" lon="-0.37508">
        <ele>164.19999694824</ele>
        <time>2014-11-23T14:46:59.000Z</time>
      </trkpt>
      <trkpt lat="48.88946" lon="-0.3751">
        <ele>164</ele>
        <time>2014-11-23T14:47:01.000Z</time>
      </trkpt>
      <trkpt lat="48.88938" lon="-0.37518">
        <ele>164.19999694824</ele>
        <time>2014-11-23T14:47:08.000Z</time>
      </trkpt>
      <trkpt lat="48.88922" lon="-0.37536">
        <ele>164</ele>
        <time>2014-11-23T14:47:22.000Z</time>
      </trkpt>
      <trkpt lat="48.88908" lon="-0.37552">
        <ele>164.19999694824</ele>
        <time>2014-11-23T14:47:34.000Z</time>
      </trkpt>
      <trkpt lat="48.88905" lon="-0.37554">
        <ele>164.39999389648</ele>
        <time>2014-11-23T14:47:36.000Z</time>
      </trkpt>
      <trkpt lat="48.88903" lon="-0.37557">
        <ele>164.60000610352</ele>
        <time>2014-11-23T14:47:38.000Z</time>
      </trkpt>
      <trkpt lat="48.88899" lon="-0.37562">
        <ele>164.80000305176</ele>
        <time>2014-11-23T14:47:41.000Z</time>
      </trkpt>
      <trkpt lat="48.88897" lon="-0.37567">
        <ele>165</ele>
        <time>2014-11-23T14:47:44.000Z</time>
      </trkpt>
      <trkpt lat="48.88895" lon="-0.37569">
        <ele>165</ele>
        <time>2014-11-23T14:47:46.000Z</time>
      </trkpt>
      <trkpt lat="48.88889" lon="-0.37576">
        <ele>165.19999694824</ele>
        <time>2014-11-23T14:47:51.000Z</time>
      </trkpt>
      <trkpt lat="48.88886" lon="-0.37579">
        <ele>165.39999389648</ele>
        <time>2014-11-23T14:47:54.000Z</time>
      </trkpt>
      <trkpt lat="48.88884" lon="-0.37583">
        <ele>165.80000305176</ele>
        <time>2014-11-23T14:47:56.000Z</time>
      </trkpt>
      <trkpt lat="48.88881" lon="-0.37589">
        <ele>166.39999389648</ele>
        <time>2014-11-23T14:47:59.000Z</time>
      </trkpt>
      <trkpt lat="48.8888" lon="-0.37594">
        <ele>167</ele>
        <time>2014-11-23T14:48:02.000Z</time>
      </trkpt>
      <trkpt lat="48.88878" lon="-0.37597">
        <ele>167.19999694824</ele>
        <time>2014-11-23T14:48:04.000Z</time>
      </trkpt>
      <trkpt lat="48.88876" lon="-0.376">
        <ele>167.60000610352</ele>
        <time>2014-11-23T14:48:07.000Z</time>
      </trkpt>
      <trkpt lat="48.88874" lon="-0.37602">
        <ele>167.80000305176</ele>
        <time>2014-11-23T14:48:09.000Z</time>
      </trkpt>
      <trkpt lat="48.88872" lon="-0.37603">
        <ele>167.80000305176</ele>
        <time>2014-11-23T14:48:11.000Z</time>
      </trkpt>
      <trkpt lat="48.88867" lon="-0.37608">
        <ele>166.80000305176</ele>
        <time>2014-11-23T14:48:16.000Z</time>
      </trkpt>
      <trkpt lat="48.88866" lon="-0.3761">
        <ele>165.60000610352</ele>
        <time>2014-11-23T14:48:18.000Z</time>
      </trkpt>
      <trkpt lat="48.88864" lon="-0.37611">
        <ele>164</ele>
        <time>2014-11-23T14:48:20.000Z</time>
      </trkpt>
      <trkpt lat="48.88861" lon="-0.37612">
        <ele>161.60000610352</ele>
        <time>2014-11-23T14:48:23.000Z</time>
      </trkpt>
      <trkpt lat="48.88858" lon="-0.37615">
        <ele>159.19999694824</ele>
        <time>2014-11-23T14:48:26.000Z</time>
      </trkpt>
      <trkpt lat="48.88855" lon="-0.37617">
        <ele>157.80000305176</ele>
        <time>2014-11-23T14:48:28.000Z</time>
      </trkpt>
      <trkpt lat="48.88852" lon="-0.3762">
        <ele>156</ele>
        <time>2014-11-23T14:48:31.000Z</time>
      </trkpt>
      <trkpt lat="48.8885" lon="-0.37621">
        <ele>154</ele>
        <time>2014-11-23T14:48:33.000Z</time>
      </trkpt>
      <trkpt lat="48.88849" lon="-0.37622">
        <ele>152.39999389648</ele>
        <time>2014-11-23T14:48:36.000Z</time>
      </trkpt>
      <trkpt lat="48.88845" lon="-0.37626">
        <ele>151</ele>
        <time>2014-11-23T14:48:39.000Z</time>
      </trkpt>
      <trkpt lat="48.88845" lon="-0.37628">
        <ele>149.80000305176</ele>
        <time>2014-11-23T14:48:41.000Z</time>
      </trkpt>
      <trkpt lat="48.88842" lon="-0.37631">
        <ele>148.19999694824</ele>
        <time>2014-11-23T14:48:43.000Z</time>
      </trkpt>
      <trkpt lat="48.88838" lon="-0.37635">
        <ele>147.39999389648</ele>
        <time>2014-11-23T14:48:46.000Z</time>
      </trkpt>
      <trkpt lat="48.88835" lon="-0.37638">
        <ele>147</ele>
        <time>2014-11-23T14:48:49.000Z</time>
      </trkpt>
      <trkpt lat="48.88833" lon="-0.37641">
        <ele>146.39999389648</ele>
        <time>2014-11-23T14:48:51.000Z</time>
      </trkpt>
      <trkpt lat="48.8883" lon="-0.37644">
        <ele>145.80000305176</ele>
        <time>2014-11-23T14:48:54.000Z</time>
      </trkpt>
      <trkpt lat="48.88828" lon="-0.37647">
        <ele>146</ele>
        <time>2014-11-23T14:48:56.000Z</time>
      </trkpt>
      <trkpt lat="48.88826" lon="-0.3765">
        <ele>146</ele>
        <time>2014-11-23T14:48:59.000Z</time>
      </trkpt>
      <trkpt lat="48.88824" lon="-0.37651">
        <ele>145.60000610352</ele>
        <time>2014-11-23T14:49:01.000Z</time>
      </trkpt>
      <trkpt lat="48.8882" lon="-0.37654">
        <ele>145.39999389648</ele>
        <time>2014-11-23T14:49:04.000Z</time>
      </trkpt>
      <trkpt lat="48.88818" lon="-0.37655">
        <ele>145</ele>
        <time>2014-11-23T14:49:06.000Z</time>
      </trkpt>
      <trkpt lat="48.88816" lon="-0.37658">
        <ele>144.60000610352</ele>
        <time>2014-11-23T14:49:08.000Z</time>
      </trkpt>
      <trkpt lat="48.88812" lon="-0.3766">
        <ele>144.39999389648</ele>
        <time>2014-11-23T14:49:10.000Z</time>
      </trkpt>
      <trkpt lat="48.88807" lon="-0.37661">
        <ele>144.60000610352</ele>
        <time>2014-11-23T14:49:13.000Z</time>
      </trkpt>
      <trkpt lat="48.88803" lon="-0.37662">
        <ele>144.60000610352</ele>
        <time>2014-11-23T14:49:15.000Z</time>
      </trkpt>
      <trkpt lat="48.88799" lon="-0.37662">
        <ele>144.80000305176</ele>
        <time>2014-11-23T14:49:18.000Z</time>
      </trkpt>
      <trkpt lat="48.88793" lon="-0.37663">
        <ele>144.39999389648</ele>
        <time>2014-11-23T14:49:22.000Z</time>
      </trkpt>
      <trkpt lat="48.8879" lon="-0.37663">
        <ele>144</ele>
        <time>2014-11-23T14:49:24.000Z</time>
      </trkpt>
      <trkpt lat="48.88785" lon="-0.37662">
        <ele>143.60000610352</ele>
        <time>2014-11-23T14:49:27.000Z</time>
      </trkpt>
      <trkpt lat="48.88783" lon="-0.37661">
        <ele>143.19999694824</ele>
        <time>2014-11-23T14:49:30.000Z</time>
      </trkpt>
      <trkpt lat="48.8878" lon="-0.37661">
        <ele>143</ele>
        <time>2014-11-23T14:49:32.000Z</time>
      </trkpt>
      <trkpt lat="48.88773" lon="-0.37661">
        <ele>142.60000610352</ele>
        <time>2014-11-23T14:49:37.000Z</time>
      </trkpt>
      <trkpt lat="48.8877" lon="-0.37661">
        <ele>142</ele>
        <time>2014-11-23T14:49:39.000Z</time>
      </trkpt>
      <trkpt lat="48.88766" lon="-0.3766">
        <ele>141.60000610352</ele>
        <time>2014-11-23T14:49:41.000Z</time>
      </trkpt>
      <trkpt lat="48.88762" lon="-0.3766">
        <ele>141</ele>
        <time>2014-11-23T14:49:44.000Z</time>
      </trkpt>
      <trkpt lat="48.88755" lon="-0.37659">
        <ele>140.39999389648</ele>
        <time>2014-11-23T14:49:47.000Z</time>
      </trkpt>
      <trkpt lat="48.8875" lon="-0.37656">
        <ele>140.19999694824</ele>
        <time>2014-11-23T14:49:50.000Z</time>
      </trkpt>
      <trkpt lat="48.88747" lon="-0.37656">
        <ele>140</ele>
        <time>2014-11-23T14:49:52.000Z</time>
      </trkpt>
      <trkpt lat="48.88742" lon="-0.37658">
        <ele>139.80000305176</ele>
        <time>2014-11-23T14:49:55.000Z</time>
      </trkpt>
      <trkpt lat="48.88733" lon="-0.37661">
        <ele>140.19999694824</ele>
        <time>2014-11-23T14:50:06.000Z</time>
      </trkpt>
      <trkpt lat="48.88717" lon="-0.37665">
        <ele>140</ele>
        <time>2014-11-23T14:50:20.000Z</time>
      </trkpt>
      <trkpt lat="48.88715" lon="-0.37666">
        <ele>139.80000305176</ele>
        <time>2014-11-23T14:50:22.000Z</time>
      </trkpt>
      <trkpt lat="48.88709" lon="-0.37667">
        <ele>139.60000610352</ele>
        <time>2014-11-23T14:50:25.000Z</time>
      </trkpt>
      <trkpt lat="48.88705" lon="-0.37665">
        <ele>139.60000610352</ele>
        <time>2014-11-23T14:50:28.000Z</time>
      </trkpt>
      <trkpt lat="48.88701" lon="-0.37664">
        <ele>139.80000305176</ele>
        <time>2014-11-23T14:50:30.000Z</time>
      </trkpt>
      <trkpt lat="48.88699" lon="-0.37663">
        <ele>140</ele>
        <time>2014-11-23T14:50:32.000Z</time>
      </trkpt>
      <trkpt lat="48.88697" lon="-0.37662">
        <ele>140.39999389648</ele>
        <time>2014-11-23T14:50:35.000Z</time>
      </trkpt>
      <trkpt lat="48.88699" lon="-0.37665">
        <ele>140.60000610352</ele>
        <time>2014-11-23T14:50:38.000Z</time>
      </trkpt>
      <trkpt lat="48.88701" lon="-0.37664">
        <ele>140.60000610352</ele>
        <time>2014-11-23T14:50:41.000Z</time>
      </trkpt>
      <trkpt lat="48.88698" lon="-0.37663">
        <ele>140.60000610352</ele>
        <time>2014-11-23T14:50:44.000Z</time>
      </trkpt>
      <trkpt lat="48.88697" lon="-0.37665">
        <ele>140.60000610352</ele>
        <time>2014-11-23T14:50:46.000Z</time>
      </trkpt>
      <trkpt lat="48.88694" lon="-0.37667">
        <ele>140.80000305176</ele>
        <time>2014-11-23T14:50:49.000Z</time>
      </trkpt>
      <trkpt lat="48.88692" lon="-0.37667">
        <ele>141.19999694824</ele>
        <time>2014-11-23T14:50:51.000Z</time>
      </trkpt>
      <trkpt lat="48.88689" lon="-0.37668">
        <ele>141.60000610352</ele>
        <time>2014-11-23T14:50:54.000Z</time>
      </trkpt>
      <trkpt lat="48.88688" lon="-0.37668">
        <ele>141.39999389648</ele>
        <time>2014-11-23T14:51:01.000Z</time>
      </trkpt>
      <trkpt lat="48.88684" lon="-0.37669">
        <ele>141.39999389648</ele>
        <time>2014-11-23T14:51:05.000Z</time>
      </trkpt>
      <trkpt lat="48.8868" lon="-0.3767">
        <ele>141.60000610352</ele>
        <time>2014-11-23T14:51:08.000Z</time>
      </trkpt>
      <trkpt lat="48.88674" lon="-0.37671">
        <ele>141.80000305176</ele>
        <time>2014-11-23T14:51:13.000Z</time>
      </trkpt>
      <trkpt lat="48.88667" lon="-0.37672">
        <ele>141.60000610352</ele>
        <time>2014-11-23T14:51:18.000Z</time>
      </trkpt>
      <trkpt lat="48.88663" lon="-0.37674">
        <ele>141.19999694824</ele>
        <time>2014-11-23T14:51:21.000Z</time>
      </trkpt>
      <trkpt lat="48.88653" lon="-0.37678">
        <ele>141.39999389648</ele>
        <time>2014-11-23T14:51:28.000Z</time>
      </trkpt>
      <trkpt lat="48.88647" lon="-0.3768">
        <ele>141.80000305176</ele>
        <time>2014-11-23T14:51:31.000Z</time>
      </trkpt>
      <trkpt lat="48.88644" lon="-0.37681">
        <ele>142.19999694824</ele>
        <time>2014-11-23T14:51:34.000Z</time>
      </trkpt>
      <trkpt lat="48.88641" lon="-0.37685">
        <ele>142.19999694824</ele>
        <time>2014-11-23T14:51:37.000Z</time>
      </trkpt>
      <trkpt lat="48.88635" lon="-0.37689">
        <ele>142.19999694824</ele>
        <time>2014-11-23T14:51:42.000Z</time>
      </trkpt>
      <trkpt lat="48.88633" lon="-0.37691">
        <ele>142.19999694824</ele>
        <time>2014-11-23T14:51:44.000Z</time>
      </trkpt>
      <trkpt lat="48.88631" lon="-0.37692">
        <ele>142.19999694824</ele>
        <time>2014-11-23T14:51:46.000Z</time>
      </trkpt>
      <trkpt lat="48.88627" lon="-0.37692">
        <ele>142.39999389648</ele>
        <time>2014-11-23T14:51:49.000Z</time>
      </trkpt>
      <trkpt lat="48.88624" lon="-0.37693">
        <ele>142.80000305176</ele>
        <time>2014-11-23T14:51:51.000Z</time>
      </trkpt>
      <trkpt lat="48.88618" lon="-0.37694">
        <ele>143.19999694824</ele>
        <time>2014-11-23T14:51:54.000Z</time>
      </trkpt>
      <trkpt lat="48.88614" lon="-0.37695">
        <ele>143</ele>
        <time>2014-11-23T14:51:57.000Z</time>
      </trkpt>
      <trkpt lat="48.8861" lon="-0.37696">
        <ele>143.19999694824</ele>
        <time>2014-11-23T14:52:00.000Z</time>
      </trkpt>
      <trkpt lat="48.88606" lon="-0.37696">
        <ele>143.39999389648</ele>
        <time>2014-11-23T14:52:03.000Z</time>
      </trkpt>
      <trkpt lat="48.88602" lon="-0.37696">
        <ele>143.80000305176</ele>
        <time>2014-11-23T14:52:05.000Z</time>
      </trkpt>
      <trkpt lat="48.88599" lon="-0.37695">
        <ele>144</ele>
        <time>2014-11-23T14:52:07.000Z</time>
      </trkpt>
      <trkpt lat="48.88596" lon="-0.37695">
        <ele>144.39999389648</ele>
        <time>2014-11-23T14:52:09.000Z</time>
      </trkpt>
      <trkpt lat="48.88591" lon="-0.37697">
        <ele>144.60000610352</ele>
        <time>2014-11-23T14:52:12.000Z</time>
      </trkpt>
      <trkpt lat="48.88588" lon="-0.37698">
        <ele>144.60000610352</ele>
        <time>2014-11-23T14:52:15.000Z</time>
      </trkpt>
      <trkpt lat="48.88586" lon="-0.37697">
        <ele>144.39999389648</ele>
        <time>2014-11-23T14:52:17.000Z</time>
      </trkpt>
      <trkpt lat="48.88582" lon="-0.37696">
        <ele>144.60000610352</ele>
        <time>2014-11-23T14:52:20.000Z</time>
      </trkpt>
      <trkpt lat="48.8858" lon="-0.37696">
        <ele>145.19999694824</ele>
        <time>2014-11-23T14:52:22.000Z</time>
      </trkpt>
      <trkpt lat="48.88577" lon="-0.37697">
        <ele>145.60000610352</ele>
        <time>2014-11-23T14:52:25.000Z</time>
      </trkpt>
      <trkpt lat="48.88574" lon="-0.37697">
        <ele>146.39999389648</ele>
        <time>2014-11-23T14:52:27.000Z</time>
      </trkpt>
      <trkpt lat="48.8857" lon="-0.37698">
        <ele>146.80000305176</ele>
        <time>2014-11-23T14:52:30.000Z</time>
      </trkpt>
      <trkpt lat="48.88567" lon="-0.37698">
        <ele>147</ele>
        <time>2014-11-23T14:52:32.000Z</time>
      </trkpt>
      <trkpt lat="48.88562" lon="-0.377">
        <ele>147.19999694824</ele>
        <time>2014-11-23T14:52:37.000Z</time>
      </trkpt>
      <trkpt lat="48.88561" lon="-0.37702">
        <ele>147.19999694824</ele>
        <time>2014-11-23T14:52:39.000Z</time>
      </trkpt>
      <trkpt lat="48.8856" lon="-0.37703">
        <ele>147.80000305176</ele>
        <time>2014-11-23T14:52:41.000Z</time>
      </trkpt>
      <trkpt lat="48.88562" lon="-0.37703">
        <ele>148</ele>
        <time>2014-11-23T14:52:45.000Z</time>
      </trkpt>
      <trkpt lat="48.88563" lon="-0.37702">
        <ele>148.19999694824</ele>
        <time>2014-11-23T14:52:48.000Z</time>
      </trkpt>
      <trkpt lat="48.88565" lon="-0.377">
        <ele>148</ele>
        <time>2014-11-23T14:52:51.000Z</time>
      </trkpt>
      <trkpt lat="48.88567" lon="-0.37698">
        <ele>147.80000305176</ele>
        <time>2014-11-23T14:52:54.000Z</time>
      </trkpt>
      <trkpt lat="48.88567" lon="-0.37696">
        <ele>147.19999694824</ele>
        <time>2014-11-23T14:52:56.000Z</time>
      </trkpt>
      <trkpt lat="48.88565" lon="-0.37697">
        <ele>146</ele>
        <time>2014-11-23T14:53:01.000Z</time>
      </trkpt>
      <trkpt lat="48.88562" lon="-0.37699">
        <ele>145.19999694824</ele>
        <time>2014-11-23T14:53:03.000Z</time>
      </trkpt>
      <trkpt lat="48.88559" lon="-0.37701">
        <ele>145</ele>
        <time>2014-11-23T14:53:05.000Z</time>
      </trkpt>
      <trkpt lat="48.88557" lon="-0.37704">
        <ele>145</ele>
        <time>2014-11-23T14:53:08.000Z</time>
      </trkpt>
      <trkpt lat="48.88556" lon="-0.37711">
        <ele>144.60000610352</ele>
        <time>2014-11-23T14:53:11.000Z</time>
      </trkpt>
      <trkpt lat="48.88554" lon="-0.37713">
        <ele>144.80000305176</ele>
        <time>2014-11-23T14:53:13.000Z</time>
      </trkpt>
      <trkpt lat="48.88552" lon="-0.37716">
        <ele>144.80000305176</ele>
        <time>2014-11-23T14:53:16.000Z</time>
      </trkpt>
      <trkpt lat="48.88548" lon="-0.37718">
        <ele>144.39999389648</ele>
        <time>2014-11-23T14:53:19.000Z</time>
      </trkpt>
      <trkpt lat="48.88544" lon="-0.37723">
        <ele>143.80000305176</ele>
        <time>2014-11-23T14:53:22.000Z</time>
      </trkpt>
      <trkpt lat="48.88541" lon="-0.37726">
        <ele>144.19999694824</ele>
        <time>2014-11-23T14:53:25.000Z</time>
      </trkpt>
      <trkpt lat="48.88538" lon="-0.37728">
        <ele>145</ele>
        <time>2014-11-23T14:53:27.000Z</time>
      </trkpt>
      <trkpt lat="48.88536" lon="-0.37731">
        <ele>146</ele>
        <time>2014-11-23T14:53:29.000Z</time>
      </trkpt>
      <trkpt lat="48.88533" lon="-0.37733">
        <ele>146.80000305176</ele>
        <time>2014-11-23T14:53:31.000Z</time>
      </trkpt>
      <trkpt lat="48.88531" lon="-0.37736">
        <ele>147.80000305176</ele>
        <time>2014-11-23T14:53:33.000Z</time>
      </trkpt>
      <trkpt lat="48.8853" lon="-0.37737">
        <ele>148.39999389648</ele>
        <time>2014-11-23T14:53:35.000Z</time>
      </trkpt>
      <trkpt lat="48.88527" lon="-0.37739">
        <ele>148.80000305176</ele>
        <time>2014-11-23T14:53:38.000Z</time>
      </trkpt>
      <trkpt lat="48.88524" lon="-0.37742">
        <ele>148.39999389648</ele>
        <time>2014-11-23T14:53:40.000Z</time>
      </trkpt>
      <trkpt lat="48.8852" lon="-0.37744">
        <ele>148.19999694824</ele>
        <time>2014-11-23T14:53:43.000Z</time>
      </trkpt>
      <trkpt lat="48.88519" lon="-0.37745">
        <ele>147.60000610352</ele>
        <time>2014-11-23T14:53:45.000Z</time>
      </trkpt>
      <trkpt lat="48.88518" lon="-0.37746">
        <ele>147</ele>
        <time>2014-11-23T14:53:47.000Z</time>
      </trkpt>
      <trkpt lat="48.88516" lon="-0.37748">
        <ele>146.60000610352</ele>
        <time>2014-11-23T14:53:50.000Z</time>
      </trkpt>
      <trkpt lat="48.88512" lon="-0.3775">
        <ele>146.80000305176</ele>
        <time>2014-11-23T14:53:53.000Z</time>
      </trkpt>
      <trkpt lat="48.88509" lon="-0.37753">
        <ele>147.19999694824</ele>
        <time>2014-11-23T14:53:55.000Z</time>
      </trkpt>
      <trkpt lat="48.88507" lon="-0.37756">
        <ele>148.60000610352</ele>
        <time>2014-11-23T14:53:57.000Z</time>
      </trkpt>
      <trkpt lat="48.88505" lon="-0.37758">
        <ele>150.19999694824</ele>
        <time>2014-11-23T14:53:59.000Z</time>
      </trkpt>
      <trkpt lat="48.88501" lon="-0.37761">
        <ele>151.60000610352</ele>
        <time>2014-11-23T14:54:02.000Z</time>
      </trkpt>
      <trkpt lat="48.88498" lon="-0.37764">
        <ele>152.80000305176</ele>
        <time>2014-11-23T14:54:05.000Z</time>
      </trkpt>
      <trkpt lat="48.88496" lon="-0.37766">
        <ele>154</ele>
        <time>2014-11-23T14:54:07.000Z</time>
      </trkpt>
      <trkpt lat="48.88493" lon="-0.37768">
        <ele>155</ele>
        <time>2014-11-23T14:54:10.000Z</time>
      </trkpt>
      <trkpt lat="48.88491" lon="-0.37769">
        <ele>155.80000305176</ele>
        <time>2014-11-23T14:54:13.000Z</time>
      </trkpt>
      <trkpt lat="48.8849" lon="-0.37769">
        <ele>156.80000305176</ele>
        <time>2014-11-23T14:54:20.000Z</time>
      </trkpt>
      <trkpt lat="48.88486" lon="-0.3777">
        <ele>157.19999694824</ele>
        <time>2014-11-23T14:54:23.000Z</time>
      </trkpt>
      <trkpt lat="48.8848" lon="-0.37772">
        <ele>156.39999389648</ele>
        <time>2014-11-23T14:54:28.000Z</time>
      </trkpt>
      <trkpt lat="48.88475" lon="-0.37774">
        <ele>155.80000305176</ele>
        <time>2014-11-23T14:54:31.000Z</time>
      </trkpt>
      <trkpt lat="48.88471" lon="-0.37775">
        <ele>155.19999694824</ele>
        <time>2014-11-23T14:54:34.000Z</time>
      </trkpt>
      <trkpt lat="48.88464" lon="-0.37777">
        <ele>155.39999389648</ele>
        <time>2014-11-23T14:54:39.000Z</time>
      </trkpt>
      <trkpt lat="48.88461" lon="-0.37777">
        <ele>156</ele>
        <time>2014-11-23T14:54:41.000Z</time>
      </trkpt>
      <trkpt lat="48.88456" lon="-0.37779">
        <ele>157.19999694824</ele>
        <time>2014-11-23T14:54:44.000Z</time>
      </trkpt>
      <trkpt lat="48.88454" lon="-0.3778">
        <ele>158.39999389648</ele>
        <time>2014-11-23T14:54:46.000Z</time>
      </trkpt>
      <trkpt lat="48.88452" lon="-0.37781">
        <ele>159</ele>
        <time>2014-11-23T14:54:48.000Z</time>
      </trkpt>
      <trkpt lat="48.88449" lon="-0.37781">
        <ele>159.60000610352</ele>
        <time>2014-11-23T14:54:51.000Z</time>
      </trkpt>
      <trkpt lat="48.8844" lon="-0.37781">
        <ele>158.60000610352</ele>
        <time>2014-11-23T14:54:57.000Z</time>
      </trkpt>
      <trkpt lat="48.88435" lon="-0.37781">
        <ele>157.39999389648</ele>
        <time>2014-11-23T14:55:00.000Z</time>
      </trkpt>
      <trkpt lat="48.88431" lon="-0.37781">
        <ele>156.39999389648</ele>
        <time>2014-11-23T14:55:03.000Z</time>
      </trkpt>
      <trkpt lat="48.88428" lon="-0.3778">
        <ele>155.19999694824</ele>
        <time>2014-11-23T14:55:05.000Z</time>
      </trkpt>
      <trkpt lat="48.88425" lon="-0.3778">
        <ele>153.80000305176</ele>
        <time>2014-11-23T14:55:07.000Z</time>
      </trkpt>
      <trkpt lat="48.88421" lon="-0.37778">
        <ele>152.80000305176</ele>
        <time>2014-11-23T14:55:10.000Z</time>
      </trkpt>
      <trkpt lat="48.88417" lon="-0.37778">
        <ele>151.80000305176</ele>
        <time>2014-11-23T14:55:13.000Z</time>
      </trkpt>
      <trkpt lat="48.88416" lon="-0.37777">
        <ele>151</ele>
        <time>2014-11-23T14:55:15.000Z</time>
      </trkpt>
      <trkpt lat="48.88414" lon="-0.37776">
        <ele>150.19999694824</ele>
        <time>2014-11-23T14:55:18.000Z</time>
      </trkpt>
      <trkpt lat="48.88408" lon="-0.37774">
        <ele>149.80000305176</ele>
        <time>2014-11-23T14:55:23.000Z</time>
      </trkpt>
      <trkpt lat="48.88406" lon="-0.37773">
        <ele>149.39999389648</ele>
        <time>2014-11-23T14:55:25.000Z</time>
      </trkpt>
      <trkpt lat="48.88403" lon="-0.37772">
        <ele>149.19999694824</ele>
        <time>2014-11-23T14:55:28.000Z</time>
      </trkpt>
      <trkpt lat="48.88401" lon="-0.37771">
        <ele>149.19999694824</ele>
        <time>2014-11-23T14:55:30.000Z</time>
      </trkpt>
      <trkpt lat="48.88399" lon="-0.37772">
        <ele>149.19999694824</ele>
        <time>2014-11-23T14:55:33.000Z</time>
      </trkpt>
      <trkpt lat="48.88398" lon="-0.37771">
        <ele>149.19999694824</ele>
        <time>2014-11-23T14:55:37.000Z</time>
      </trkpt>
      <trkpt lat="48.88395" lon="-0.3777">
        <ele>149.19999694824</ele>
        <time>2014-11-23T14:55:40.000Z</time>
      </trkpt>
      <trkpt lat="48.88391" lon="-0.37769">
        <ele>149.19999694824</ele>
        <time>2014-11-23T14:55:43.000Z</time>
      </trkpt>
      <trkpt lat="48.8839" lon="-0.37768">
        <ele>149</ele>
        <time>2014-11-23T14:55:45.000Z</time>
      </trkpt>
      <trkpt lat="48.88387" lon="-0.37767">
        <ele>148.80000305176</ele>
        <time>2014-11-23T14:55:47.000Z</time>
      </trkpt>
      <trkpt lat="48.88382" lon="-0.37763">
        <ele>149.39999389648</ele>
        <time>2014-11-23T14:55:52.000Z</time>
      </trkpt>
      <trkpt lat="48.8838" lon="-0.37762">
        <ele>149.60000610352</ele>
        <time>2014-11-23T14:55:54.000Z</time>
      </trkpt>
      <trkpt lat="48.88377" lon="-0.3776">
        <ele>149.80000305176</ele>
        <time>2014-11-23T14:55:57.000Z</time>
      </trkpt>
      <trkpt lat="48.88374" lon="-0.37759">
        <ele>150</ele>
        <time>2014-11-23T14:56:00.000Z</time>
      </trkpt>
      <trkpt lat="48.88372" lon="-0.37759">
        <ele>150.19999694824</ele>
        <time>2014-11-23T14:56:02.000Z</time>
      </trkpt>
      <trkpt lat="48.88368" lon="-0.37758">
        <ele>150</ele>
        <time>2014-11-23T14:56:05.000Z</time>
      </trkpt>
      <trkpt lat="48.88363" lon="-0.37758">
        <ele>150.19999694824</ele>
        <time>2014-11-23T14:56:08.000Z</time>
      </trkpt>
      <trkpt lat="48.88359" lon="-0.37758">
        <ele>150.39999389648</ele>
        <time>2014-11-23T14:56:10.000Z</time>
      </trkpt>
      <trkpt lat="48.88355" lon="-0.37758">
        <ele>150.39999389648</ele>
        <time>2014-11-23T14:56:12.000Z</time>
      </trkpt>
      <trkpt lat="48.88349" lon="-0.37759">
        <ele>150.39999389648</ele>
        <time>2014-11-23T14:56:15.000Z</time>
      </trkpt>
      <trkpt lat="48.88345" lon="-0.37759">
        <ele>150.60000610352</ele>
        <time>2014-11-23T14:56:17.000Z</time>
      </trkpt>
      <trkpt lat="48.8834" lon="-0.3776">
        <ele>150.80000305176</ele>
        <time>2014-11-23T14:56:20.000Z</time>
      </trkpt>
      <trkpt lat="48.88335" lon="-0.37761">
        <ele>151.19999694824</ele>
        <time>2014-11-23T14:56:23.000Z</time>
      </trkpt>
      <trkpt lat="48.88331" lon="-0.37761">
        <ele>151.60000610352</ele>
        <time>2014-11-23T14:56:25.000Z</time>
      </trkpt>
      <trkpt lat="48.88327" lon="-0.37763">
        <ele>152</ele>
        <time>2014-11-23T14:56:28.000Z</time>
      </trkpt>
      <trkpt lat="48.88315" lon="-0.37766">
        <ele>151.80000305176</ele>
        <time>2014-11-23T14:56:37.000Z</time>
      </trkpt>
      <trkpt lat="48.88313" lon="-0.37766">
        <ele>151.60000610352</ele>
        <time>2014-11-23T14:56:40.000Z</time>
      </trkpt>
      <trkpt lat="48.88312" lon="-0.37764">
        <ele>151.19999694824</ele>
        <time>2014-11-23T14:56:42.000Z</time>
      </trkpt>
      <trkpt lat="48.8831" lon="-0.37762">
        <ele>150.60000610352</ele>
        <time>2014-11-23T14:56:45.000Z</time>
      </trkpt>
      <trkpt lat="48.88308" lon="-0.37761">
        <ele>149.80000305176</ele>
        <time>2014-11-23T14:56:47.000Z</time>
      </trkpt>
      <trkpt lat="48.88306" lon="-0.37761">
        <ele>149</ele>
        <time>2014-11-23T14:56:49.000Z</time>
      </trkpt>
      <trkpt lat="48.88303" lon="-0.37762">
        <ele>148.19999694824</ele>
        <time>2014-11-23T14:56:52.000Z</time>
      </trkpt>
      <trkpt lat="48.88301" lon="-0.37762">
        <ele>147.19999694824</ele>
        <time>2014-11-23T14:56:54.000Z</time>
      </trkpt>
      <trkpt lat="48.883" lon="-0.37761">
        <ele>146.60000610352</ele>
        <time>2014-11-23T14:56:56.000Z</time>
      </trkpt>
      <trkpt lat="48.88297" lon="-0.3776">
        <ele>146.19999694824</ele>
        <time>2014-11-23T14:56:59.000Z</time>
      </trkpt>
      <trkpt lat="48.88295" lon="-0.37759">
        <ele>146</ele>
        <time>2014-11-23T14:57:01.000Z</time>
      </trkpt>
      <trkpt lat="48.88292" lon="-0.37758">
        <ele>145.80000305176</ele>
        <time>2014-11-23T14:57:04.000Z</time>
      </trkpt>
      <trkpt lat="48.8829" lon="-0.37758">
        <ele>146.19999694824</ele>
        <time>2014-11-23T14:57:06.000Z</time>
      </trkpt>
      <trkpt lat="48.88288" lon="-0.37758">
        <ele>146.39999389648</ele>
        <time>2014-11-23T14:57:09.000Z</time>
      </trkpt>
      <trkpt lat="48.88285" lon="-0.37755">
        <ele>146.60000610352</ele>
        <time>2014-11-23T14:57:12.000Z</time>
      </trkpt>
      <trkpt lat="48.88284" lon="-0.37755">
        <ele>146.80000305176</ele>
        <time>2014-11-23T14:57:14.000Z</time>
      </trkpt>
      <trkpt lat="48.8828" lon="-0.37754">
        <ele>147.19999694824</ele>
        <time>2014-11-23T14:57:17.000Z</time>
      </trkpt>
      <trkpt lat="48.88278" lon="-0.37753">
        <ele>147.39999389648</ele>
        <time>2014-11-23T14:57:20.000Z</time>
      </trkpt>
      <trkpt lat="48.88276" lon="-0.37749">
        <ele>147.39999389648</ele>
        <time>2014-11-23T14:57:23.000Z</time>
      </trkpt>
      <trkpt lat="48.88273" lon="-0.37744">
        <ele>147.39999389648</ele>
        <time>2014-11-23T14:57:26.000Z</time>
      </trkpt>
      <trkpt lat="48.88272" lon="-0.3774">
        <ele>147.39999389648</ele>
        <time>2014-11-23T14:57:28.000Z</time>
      </trkpt>
      <trkpt lat="48.88267" lon="-0.37735">
        <ele>147.19999694824</ele>
        <time>2014-11-23T14:57:31.000Z</time>
      </trkpt>
      <trkpt lat="48.88265" lon="-0.37732">
        <ele>147.19999694824</ele>
        <time>2014-11-23T14:57:33.000Z</time>
      </trkpt>
      <trkpt lat="48.8826" lon="-0.37726">
        <ele>147</ele>
        <time>2014-11-23T14:57:36.000Z</time>
      </trkpt>
      <trkpt lat="48.88258" lon="-0.37721">
        <ele>146.80000305176</ele>
        <time>2014-11-23T14:57:41.000Z</time>
      </trkpt>
      <trkpt lat="48.88257" lon="-0.37721">
        <ele>146.60000610352</ele>
        <time>2014-11-23T14:57:43.000Z</time>
      </trkpt>
      <trkpt lat="48.88255" lon="-0.37718">
        <ele>145.80000305176</ele>
        <time>2014-11-23T14:57:46.000Z</time>
      </trkpt>
      <trkpt lat="48.88252" lon="-0.37716">
        <ele>145.60000610352</ele>
        <time>2014-11-23T14:57:49.000Z</time>
      </trkpt>
      <trkpt lat="48.8825" lon="-0.37714">
        <ele>145.39999389648</ele>
        <time>2014-11-23T14:57:51.000Z</time>
      </trkpt>
      <trkpt lat="48.88249" lon="-0.37712">
        <ele>145.19999694824</ele>
        <time>2014-11-23T14:57:54.000Z</time>
      </trkpt>
      <trkpt lat="48.88248" lon="-0.37712">
        <ele>144.80000305176</ele>
        <time>2014-11-23T14:57:57.000Z</time>
      </trkpt>
      <trkpt lat="48.88243" lon="-0.3771">
        <ele>144.80000305176</ele>
        <time>2014-11-23T14:58:00.000Z</time>
      </trkpt>
      <trkpt lat="48.88241" lon="-0.37708">
        <ele>144.80000305176</ele>
        <time>2014-11-23T14:58:03.000Z</time>
      </trkpt>
      <trkpt lat="48.8824" lon="-0.37706">
        <ele>144.60000610352</ele>
        <time>2014-11-23T14:58:05.000Z</time>
      </trkpt>
      <trkpt lat="48.88238" lon="-0.37703">
        <ele>144.39999389648</ele>
        <time>2014-11-23T14:58:07.000Z</time>
      </trkpt>
      <trkpt lat="48.88231" lon="-0.37697">
        <ele>144.19999694824</ele>
        <time>2014-11-23T14:58:12.000Z</time>
      </trkpt>
      <trkpt lat="48.88228" lon="-0.37694">
        <ele>143.80000305176</ele>
        <time>2014-11-23T14:58:14.000Z</time>
      </trkpt>
      <trkpt lat="48.88224" lon="-0.3769">
        <ele>143.60000610352</ele>
        <time>2014-11-23T14:58:17.000Z</time>
      </trkpt>
      <trkpt lat="48.88222" lon="-0.37688">
        <ele>143.80000305176</ele>
        <time>2014-11-23T14:58:19.000Z</time>
      </trkpt>
      <trkpt lat="48.88218" lon="-0.37685">
        <ele>144.19999694824</ele>
        <time>2014-11-23T14:58:22.000Z</time>
      </trkpt>
      <trkpt lat="48.88215" lon="-0.37683">
        <ele>144.80000305176</ele>
        <time>2014-11-23T14:58:25.000Z</time>
      </trkpt>
      <trkpt lat="48.88213" lon="-0.37681">
        <ele>145.39999389648</ele>
        <time>2014-11-23T14:58:27.000Z</time>
      </trkpt>
      <trkpt lat="48.8821" lon="-0.37679">
        <ele>146</ele>
        <time>2014-11-23T14:58:30.000Z</time>
      </trkpt>
      <trkpt lat="48.88207" lon="-0.37677">
        <ele>146.60000610352</ele>
        <time>2014-11-23T14:58:32.000Z</time>
      </trkpt>
      <trkpt lat="48.88206" lon="-0.37676">
        <ele>146.80000305176</ele>
        <time>2014-11-23T14:58:34.000Z</time>
      </trkpt>
      <trkpt lat="48.88202" lon="-0.37673">
        <ele>147.19999694824</ele>
        <time>2014-11-23T14:58:36.000Z</time>
      </trkpt>
      <trkpt lat="48.88197" lon="-0.37669">
        <ele>147.60000610352</ele>
        <time>2014-11-23T14:58:39.000Z</time>
      </trkpt>
      <trkpt lat="48.88189" lon="-0.37662">
        <ele>147.19999694824</ele>
        <time>2014-11-23T14:58:45.000Z</time>
      </trkpt>
      <trkpt lat="48.88186" lon="-0.37661">
        <ele>146.80000305176</ele>
        <time>2014-11-23T14:58:47.000Z</time>
      </trkpt>
      <trkpt lat="48.88183" lon="-0.37659">
        <ele>146.39999389648</ele>
        <time>2014-11-23T14:58:49.000Z</time>
      </trkpt>
      <trkpt lat="48.88178" lon="-0.37656">
        <ele>146</ele>
        <time>2014-11-23T14:58:52.000Z</time>
      </trkpt>
      <trkpt lat="48.88173" lon="-0.37652">
        <ele>145.80000305176</ele>
        <time>2014-11-23T14:58:55.000Z</time>
      </trkpt>
      <trkpt lat="48.88168" lon="-0.37649">
        <ele>146</ele>
        <time>2014-11-23T14:58:58.000Z</time>
      </trkpt>
      <trkpt lat="48.88165" lon="-0.37648">
        <ele>146.39999389648</ele>
        <time>2014-11-23T14:59:00.000Z</time>
      </trkpt>
      <trkpt lat="48.8816" lon="-0.37646">
        <ele>146.60000610352</ele>
        <time>2014-11-23T14:59:03.000Z</time>
      </trkpt>
      <trkpt lat="48.88157" lon="-0.37643">
        <ele>146.80000305176</ele>
        <time>2014-11-23T14:59:06.000Z</time>
      </trkpt>
      <trkpt lat="48.88154" lon="-0.37641">
        <ele>147</ele>
        <time>2014-11-23T14:59:09.000Z</time>
      </trkpt>
      <trkpt lat="48.88153" lon="-0.37641">
        <ele>147</ele>
        <time>2014-11-23T14:59:11.000Z</time>
      </trkpt>
      <trkpt lat="48.8815" lon="-0.3764">
        <ele>147</ele>
        <time>2014-11-23T14:59:14.000Z</time>
      </trkpt>
      <trkpt lat="48.88147" lon="-0.37639">
        <ele>147.19999694824</ele>
        <time>2014-11-23T14:59:16.000Z</time>
      </trkpt>
      <trkpt lat="48.88143" lon="-0.37639">
        <ele>147.39999389648</ele>
        <time>2014-11-23T14:59:18.000Z</time>
      </trkpt>
      <trkpt lat="48.8814" lon="-0.37638">
        <ele>147.60000610352</ele>
        <time>2014-11-23T14:59:20.000Z</time>
      </trkpt>
      <trkpt lat="48.88134" lon="-0.37639">
        <ele>148</ele>
        <time>2014-11-23T14:59:23.000Z</time>
      </trkpt>
      <trkpt lat="48.88129" lon="-0.37641">
        <ele>148.39999389648</ele>
        <time>2014-11-23T14:59:26.000Z</time>
      </trkpt>
      <trkpt lat="48.88126" lon="-0.37642">
        <ele>148.80000305176</ele>
        <time>2014-11-23T14:59:28.000Z</time>
      </trkpt>
      <trkpt lat="48.88123" lon="-0.37642">
        <ele>149.19999694824</ele>
        <time>2014-11-23T14:59:30.000Z</time>
      </trkpt>
      <trkpt lat="48.88119" lon="-0.37644">
        <ele>149.60000610352</ele>
        <time>2014-11-23T14:59:33.000Z</time>
      </trkpt>
      <trkpt lat="48.88115" lon="-0.37646">
        <ele>150</ele>
        <time>2014-11-23T14:59:35.000Z</time>
      </trkpt>
      <trkpt lat="48.88112" lon="-0.37648">
        <ele>150.60000610352</ele>
        <time>2014-11-23T14:59:37.000Z</time>
      </trkpt>
      <trkpt lat="48.88108" lon="-0.3765">
        <ele>151</ele>
        <time>2014-11-23T14:59:40.000Z</time>
      </trkpt>
      <trkpt lat="48.88105" lon="-0.37651">
        <ele>151.60000610352</ele>
        <time>2014-11-23T14:59:43.000Z</time>
      </trkpt>
      <trkpt lat="48.88102" lon="-0.37652">
        <ele>152</ele>
        <time>2014-11-23T14:59:45.000Z</time>
      </trkpt>
      <trkpt lat="48.88099" lon="-0.37654">
        <ele>152.19999694824</ele>
        <time>2014-11-23T14:59:48.000Z</time>
      </trkpt>
      <trkpt lat="48.88091" lon="-0.37657">
        <ele>151.80000305176</ele>
        <time>2014-11-23T14:59:54.000Z</time>
      </trkpt>
      <trkpt lat="48.88089" lon="-0.37657">
        <ele>151.80000305176</ele>
        <time>2014-11-23T14:59:56.000Z</time>
      </trkpt>
      <trkpt lat="48.88086" lon="-0.37659">
        <ele>152</ele>
        <time>2014-11-23T14:59:58.000Z</time>
      </trkpt>
      <trkpt lat="48.88079" lon="-0.37662">
        <ele>152.19999694824</ele>
        <time>2014-11-23T15:00:03.000Z</time>
      </trkpt>
      <trkpt lat="48.88076" lon="-0.37665">
        <ele>152.60000610352</ele>
        <time>2014-11-23T15:00:06.000Z</time>
      </trkpt>
      <trkpt lat="48.88074" lon="-0.37666">
        <ele>153</ele>
        <time>2014-11-23T15:00:08.000Z</time>
      </trkpt>
      <trkpt lat="48.88073" lon="-0.37668">
        <ele>153.19999694824</ele>
        <time>2014-11-23T15:00:10.000Z</time>
      </trkpt>
      <trkpt lat="48.8807" lon="-0.3767">
        <ele>153.39999389648</ele>
        <time>2014-11-23T15:00:13.000Z</time>
      </trkpt>
      <trkpt lat="48.88066" lon="-0.37672">
        <ele>153.80000305176</ele>
        <time>2014-11-23T15:00:16.000Z</time>
      </trkpt>
      <trkpt lat="48.88064" lon="-0.37674">
        <ele>154.60000610352</ele>
        <time>2014-11-23T15:00:18.000Z</time>
      </trkpt>
      <trkpt lat="48.88062" lon="-0.37677">
        <ele>155.39999389648</ele>
        <time>2014-11-23T15:00:20.000Z</time>
      </trkpt>
      <trkpt lat="48.88059" lon="-0.3768">
        <ele>156.19999694824</ele>
        <time>2014-11-23T15:00:22.000Z</time>
      </trkpt>
      <trkpt lat="48.88055" lon="-0.37684">
        <ele>157.39999389648</ele>
        <time>2014-11-23T15:00:25.000Z</time>
      </trkpt>
      <trkpt lat="48.88052" lon="-0.37687">
        <ele>158.39999389648</ele>
        <time>2014-11-23T15:00:28.000Z</time>
      </trkpt>
      <trkpt lat="48.88049" lon="-0.37689">
        <ele>159</ele>
        <time>2014-11-23T15:00:30.000Z</time>
      </trkpt>
      <trkpt lat="48.88046" lon="-0.37694">
        <ele>159.19999694824</ele>
        <time>2014-11-23T15:00:33.000Z</time>
      </trkpt>
      <trkpt lat="48.88045" lon="-0.37696">
        <ele>159.60000610352</ele>
        <time>2014-11-23T15:00:35.000Z</time>
      </trkpt>
      <trkpt lat="48.88042" lon="-0.37701">
        <ele>159.80000305176</ele>
        <time>2014-11-23T15:00:38.000Z</time>
      </trkpt>
      <trkpt lat="48.88041" lon="-0.37703">
        <ele>159.60000610352</ele>
        <time>2014-11-23T15:00:40.000Z</time>
      </trkpt>
      <trkpt lat="48.88036" lon="-0.37707">
        <ele>159.80000305176</ele>
        <time>2014-11-23T15:00:44.000Z</time>
      </trkpt>
      <trkpt lat="48.88034" lon="-0.3771">
        <ele>159.80000305176</ele>
        <time>2014-11-23T15:00:47.000Z</time>
      </trkpt>
      <trkpt lat="48.88032" lon="-0.37712">
        <ele>159.80000305176</ele>
        <time>2014-11-23T15:00:50.000Z</time>
      </trkpt>
      <trkpt lat="48.8803" lon="-0.37713">
        <ele>160</ele>
        <time>2014-11-23T15:00:52.000Z</time>
      </trkpt>
      <trkpt lat="48.88027" lon="-0.37715">
        <ele>160.19999694824</ele>
        <time>2014-11-23T15:00:57.000Z</time>
      </trkpt>
      <trkpt lat="48.88024" lon="-0.37717">
        <ele>160.39999389648</ele>
        <time>2014-11-23T15:01:00.000Z</time>
      </trkpt>
      <trkpt lat="48.88022" lon="-0.37719">
        <ele>160.60000610352</ele>
        <time>2014-11-23T15:01:02.000Z</time>
      </trkpt>
      <trkpt lat="48.8802" lon="-0.37723">
        <ele>160.80000305176</ele>
        <time>2014-11-23T15:01:05.000Z</time>
      </trkpt>
      <trkpt lat="48.88017" lon="-0.37726">
        <ele>161.39999389648</ele>
        <time>2014-11-23T15:01:07.000Z</time>
      </trkpt>
      <trkpt lat="48.88012" lon="-0.37729">
        <ele>162</ele>
        <time>2014-11-23T15:01:10.000Z</time>
      </trkpt>
      <trkpt lat="48.8801" lon="-0.37731">
        <ele>162.60000610352</ele>
        <time>2014-11-23T15:01:12.000Z</time>
      </trkpt>
      <trkpt lat="48.88006" lon="-0.37734">
        <ele>163.39999389648</ele>
        <time>2014-11-23T15:01:15.000Z</time>
      </trkpt>
      <trkpt lat="48.88004" lon="-0.37736">
        <ele>164</ele>
        <time>2014-11-23T15:01:17.000Z</time>
      </trkpt>
      <trkpt lat="48.88004" lon="-0.3774">
        <ele>164.60000610352</ele>
        <time>2014-11-23T15:01:20.000Z</time>
      </trkpt>
      <trkpt lat="48.88002" lon="-0.37743">
        <ele>165</ele>
        <time>2014-11-23T15:01:22.000Z</time>
      </trkpt>
      <trkpt lat="48.88001" lon="-0.37746">
        <ele>165.19999694824</ele>
        <time>2014-11-23T15:01:25.000Z</time>
      </trkpt>
      <trkpt lat="48.88" lon="-0.37748">
        <ele>165.19999694824</ele>
        <time>2014-11-23T15:01:27.000Z</time>
      </trkpt>
      <trkpt lat="48.87998" lon="-0.37752">
        <ele>165.60000610352</ele>
        <time>2014-11-23T15:01:30.000Z</time>
      </trkpt>
      <trkpt lat="48.87996" lon="-0.37754">
        <ele>165.60000610352</ele>
        <time>2014-11-23T15:01:33.000Z</time>
      </trkpt>
      <trkpt lat="48.87994" lon="-0.37755">
        <ele>165.80000305176</ele>
        <time>2014-11-23T15:01:35.000Z</time>
      </trkpt>
      <trkpt lat="48.87993" lon="-0.37757">
        <ele>166.19999694824</ele>
        <time>2014-11-23T15:01:37.000Z</time>
      </trkpt>
      <trkpt lat="48.87992" lon="-0.3776">
        <ele>166.60000610352</ele>
        <time>2014-11-23T15:01:39.000Z</time>
      </trkpt>
      <trkpt lat="48.8799" lon="-0.37765">
        <ele>167</ele>
        <time>2014-11-23T15:01:42.000Z</time>
      </trkpt>
      <trkpt lat="48.87987" lon="-0.37768">
        <ele>167.19999694824</ele>
        <time>2014-11-23T15:01:45.000Z</time>
      </trkpt>
      <trkpt lat="48.87984" lon="-0.37772">
        <ele>167.19999694824</ele>
        <time>2014-11-23T15:01:48.000Z</time>
      </trkpt>
      <trkpt lat="48.87981" lon="-0.37775">
        <ele>167.39999389648</ele>
        <time>2014-11-23T15:01:50.000Z</time>
      </trkpt>
      <trkpt lat="48.8798" lon="-0.37779">
        <ele>167.80000305176</ele>
        <time>2014-11-23T15:01:53.000Z</time>
      </trkpt>
      <trkpt lat="48.87976" lon="-0.37784">
        <ele>168</ele>
        <time>2014-11-23T15:01:56.000Z</time>
      </trkpt>
      <trkpt lat="48.87973" lon="-0.37789">
        <ele>168.60000610352</ele>
        <time>2014-11-23T15:01:59.000Z</time>
      </trkpt>
      <trkpt lat="48.8797" lon="-0.37792">
        <ele>169.19999694824</ele>
        <time>2014-11-23T15:02:02.000Z</time>
      </trkpt>
      <trkpt lat="48.87968" lon="-0.37795">
        <ele>169.39999389648</ele>
        <time>2014-11-23T15:02:04.000Z</time>
      </trkpt>
      <trkpt lat="48.87965" lon="-0.37797">
        <ele>169.39999389648</ele>
        <time>2014-11-23T15:02:07.000Z</time>
      </trkpt>
      <trkpt lat="48.87963" lon="-0.37803">
        <ele>169.39999389648</ele>
        <time>2014-11-23T15:02:10.000Z</time>
      </trkpt>
      <trkpt lat="48.87963" lon="-0.37807">
        <ele>169</ele>
        <time>2014-11-23T15:02:12.000Z</time>
      </trkpt>
      <trkpt lat="48.87962" lon="-0.37812">
        <ele>168.39999389648</ele>
        <time>2014-11-23T15:02:15.000Z</time>
      </trkpt>
      <trkpt lat="48.8796" lon="-0.37816">
        <ele>168.19999694824</ele>
        <time>2014-11-23T15:02:18.000Z</time>
      </trkpt>
      <trkpt lat="48.87957" lon="-0.37821">
        <ele>168.19999694824</ele>
        <time>2014-11-23T15:02:21.000Z</time>
      </trkpt>
      <trkpt lat="48.87957" lon="-0.37825">
        <ele>168.39999389648</ele>
        <time>2014-11-23T15:02:23.000Z</time>
      </trkpt>
      <trkpt lat="48.87956" lon="-0.37829">
        <ele>168.80000305176</ele>
        <time>2014-11-23T15:02:25.000Z</time>
      </trkpt>
      <trkpt lat="48.87953" lon="-0.37833">
        <ele>169.39999389648</ele>
        <time>2014-11-23T15:02:28.000Z</time>
      </trkpt>
      <trkpt lat="48.8795" lon="-0.37836">
        <ele>169.80000305176</ele>
        <time>2014-11-23T15:02:31.000Z</time>
      </trkpt>
      <trkpt lat="48.87948" lon="-0.37841">
        <ele>170</ele>
        <time>2014-11-23T15:02:34.000Z</time>
      </trkpt>
      <trkpt lat="48.87945" lon="-0.37845">
        <ele>170</ele>
        <time>2014-11-23T15:02:37.000Z</time>
      </trkpt>
      <trkpt lat="48.87943" lon="-0.37848">
        <ele>170.19999694824</ele>
        <time>2014-11-23T15:02:40.000Z</time>
      </trkpt>
      <trkpt lat="48.87941" lon="-0.37852">
        <ele>170.19999694824</ele>
        <time>2014-11-23T15:02:42.000Z</time>
      </trkpt>
      <trkpt lat="48.8794" lon="-0.37856">
        <ele>170.39999389648</ele>
        <time>2014-11-23T15:02:45.000Z</time>
      </trkpt>
      <trkpt lat="48.8794" lon="-0.37858">
        <ele>170.60000610352</ele>
        <time>2014-11-23T15:02:48.000Z</time>
      </trkpt>
      <trkpt lat="48.8794" lon="-0.37861">
        <ele>170.80000305176</ele>
        <time>2014-11-23T15:02:50.000Z</time>
      </trkpt>
      <trkpt lat="48.87938" lon="-0.37869">
        <ele>171.60000610352</ele>
        <time>2014-11-23T15:02:54.000Z</time>
      </trkpt>
      <trkpt lat="48.87938" lon="-0.37873">
        <ele>172</ele>
        <time>2014-11-23T15:02:56.000Z</time>
      </trkpt>
      <trkpt lat="48.87936" lon="-0.37878">
        <ele>172.60000610352</ele>
        <time>2014-11-23T15:02:58.000Z</time>
      </trkpt>
      <trkpt lat="48.87934" lon="-0.37883">
        <ele>173.19999694824</ele>
        <time>2014-11-23T15:03:01.000Z</time>
      </trkpt>
      <trkpt lat="48.87934" lon="-0.37886">
        <ele>173.80000305176</ele>
        <time>2014-11-23T15:03:03.000Z</time>
      </trkpt>
      <trkpt lat="48.87933" lon="-0.37889">
        <ele>174.19999694824</ele>
        <time>2014-11-23T15:03:05.000Z</time>
      </trkpt>
      <trkpt lat="48.87932" lon="-0.37895">
        <ele>174.80000305176</ele>
        <time>2014-11-23T15:03:08.000Z</time>
      </trkpt>
      <trkpt lat="48.87931" lon="-0.37901">
        <ele>175.39999389648</ele>
        <time>2014-11-23T15:03:11.000Z</time>
      </trkpt>
      <trkpt lat="48.8793" lon="-0.37907">
        <ele>176</ele>
        <time>2014-11-23T15:03:14.000Z</time>
      </trkpt>
      <trkpt lat="48.8793" lon="-0.37911">
        <ele>176.60000610352</ele>
        <time>2014-11-23T15:03:16.000Z</time>
      </trkpt>
      <trkpt lat="48.8793" lon="-0.37915">
        <ele>176.60000610352</ele>
        <time>2014-11-23T15:03:18.000Z</time>
      </trkpt>
      <trkpt lat="48.87928" lon="-0.37922">
        <ele>176.39999389648</ele>
        <time>2014-11-23T15:03:23.000Z</time>
      </trkpt>
      <trkpt lat="48.87925" lon="-0.37934">
        <ele>176.80000305176</ele>
        <time>2014-11-23T15:03:30.000Z</time>
      </trkpt>
      <trkpt lat="48.87924" lon="-0.37937">
        <ele>177.19999694824</ele>
        <time>2014-11-23T15:03:32.000Z</time>
      </trkpt>
      <trkpt lat="48.87923" lon="-0.3794">
        <ele>177.60000610352</ele>
        <time>2014-11-23T15:03:34.000Z</time>
      </trkpt>
      <trkpt lat="48.87921" lon="-0.37946">
        <ele>178</ele>
        <time>2014-11-23T15:03:37.000Z</time>
      </trkpt>
      <trkpt lat="48.87919" lon="-0.3795">
        <ele>178.80000305176</ele>
        <time>2014-11-23T15:03:39.000Z</time>
      </trkpt>
      <trkpt lat="48.87918" lon="-0.37954">
        <ele>179.60000610352</ele>
        <time>2014-11-23T15:03:41.000Z</time>
      </trkpt>
      <trkpt lat="48.87917" lon="-0.37958">
        <ele>180.39999389648</ele>
        <time>2014-11-23T15:03:43.000Z</time>
      </trkpt>
      <trkpt lat="48.87915" lon="-0.37963">
        <ele>181</ele>
        <time>2014-11-23T15:03:46.000Z</time>
      </trkpt>
      <trkpt lat="48.87914" lon="-0.37968">
        <ele>181.39999389648</ele>
        <time>2014-11-23T15:03:49.000Z</time>
      </trkpt>
      <trkpt lat="48.87912" lon="-0.37975">
        <ele>181.19999694824</ele>
        <time>2014-11-23T15:03:53.000Z</time>
      </trkpt>
      <trkpt lat="48.8791" lon="-0.37979">
        <ele>181</ele>
        <time>2014-11-23T15:03:56.000Z</time>
      </trkpt>
      <trkpt lat="48.8791" lon="-0.37981">
        <ele>181.19999694824</ele>
        <time>2014-11-23T15:03:58.000Z</time>
      </trkpt>
      <trkpt lat="48.8791" lon="-0.37986">
        <ele>181.39999389648</ele>
        <time>2014-11-23T15:04:01.000Z</time>
      </trkpt>
      <trkpt lat="48.87911" lon="-0.37992">
        <ele>181.80000305176</ele>
        <time>2014-11-23T15:04:04.000Z</time>
      </trkpt>
      <trkpt lat="48.87911" lon="-0.37994">
        <ele>182.39999389648</ele>
        <time>2014-11-23T15:04:07.000Z</time>
      </trkpt>
      <trkpt lat="48.8791" lon="-0.37997">
        <ele>183</ele>
        <time>2014-11-23T15:04:10.000Z</time>
      </trkpt>
      <trkpt lat="48.8791" lon="-0.38001">
        <ele>183.19999694824</ele>
        <time>2014-11-23T15:04:13.000Z</time>
      </trkpt>
      <trkpt lat="48.87909" lon="-0.38005">
        <ele>183.39999389648</ele>
        <time>2014-11-23T15:04:16.000Z</time>
      </trkpt>
      <trkpt lat="48.87907" lon="-0.38017">
        <ele>183.19999694824</ele>
        <time>2014-11-23T15:04:21.000Z</time>
      </trkpt>
      <trkpt lat="48.87906" lon="-0.38022">
        <ele>183</ele>
        <time>2014-11-23T15:04:24.000Z</time>
      </trkpt>
      <trkpt lat="48.87905" lon="-0.38028">
        <ele>183.19999694824</ele>
        <time>2014-11-23T15:04:27.000Z</time>
      </trkpt>
      <trkpt lat="48.87904" lon="-0.38033">
        <ele>183.80000305176</ele>
        <time>2014-11-23T15:04:30.000Z</time>
      </trkpt>
      <trkpt lat="48.87903" lon="-0.38037">
        <ele>184.19999694824</ele>
        <time>2014-11-23T15:04:33.000Z</time>
      </trkpt>
      <trkpt lat="48.87903" lon="-0.3804">
        <ele>184.80000305176</ele>
        <time>2014-11-23T15:04:35.000Z</time>
      </trkpt>
      <trkpt lat="48.87903" lon="-0.38045">
        <ele>185.39999389648</ele>
        <time>2014-11-23T15:04:38.000Z</time>
      </trkpt>
      <trkpt lat="48.87902" lon="-0.38048">
        <ele>185.60000610352</ele>
        <time>2014-11-23T15:04:40.000Z</time>
      </trkpt>
      <trkpt lat="48.87902" lon="-0.38051">
        <ele>185.39999389648</ele>
        <time>2014-11-23T15:04:43.000Z</time>
      </trkpt>
      <trkpt lat="48.87902" lon="-0.38054">
        <ele>185.19999694824</ele>
        <time>2014-11-23T15:04:46.000Z</time>
      </trkpt>
      <trkpt lat="48.87901" lon="-0.38056">
        <ele>185</ele>
        <time>2014-11-23T15:04:49.000Z</time>
      </trkpt>
      <trkpt lat="48.87899" lon="-0.38059">
        <ele>185</ele>
        <time>2014-11-23T15:04:52.000Z</time>
      </trkpt>
      <trkpt lat="48.87898" lon="-0.38064">
        <ele>185.39999389648</ele>
        <time>2014-11-23T15:04:55.000Z</time>
      </trkpt>
      <trkpt lat="48.87897" lon="-0.38069">
        <ele>185.80000305176</ele>
        <time>2014-11-23T15:04:58.000Z</time>
      </trkpt>
      <trkpt lat="48.87896" lon="-0.38074">
        <ele>186.60000610352</ele>
        <time>2014-11-23T15:05:00.000Z</time>
      </trkpt>
      <trkpt lat="48.87895" lon="-0.38081">
        <ele>187.19999694824</ele>
        <time>2014-11-23T15:05:03.000Z</time>
      </trkpt>
      <trkpt lat="48.87893" lon="-0.38084">
        <ele>187.60000610352</ele>
        <time>2014-11-23T15:05:05.000Z</time>
      </trkpt>
      <trkpt lat="48.87891" lon="-0.38087">
        <ele>187.80000305176</ele>
        <time>2014-11-23T15:05:07.000Z</time>
      </trkpt>
      <trkpt lat="48.8789" lon="-0.38093">
        <ele>188.19999694824</ele>
        <time>2014-11-23T15:05:10.000Z</time>
      </trkpt>
      <trkpt lat="48.87889" lon="-0.38098">
        <ele>188.80000305176</ele>
        <time>2014-11-23T15:05:12.000Z</time>
      </trkpt>
      <trkpt lat="48.87888" lon="-0.38103">
        <ele>189.60000610352</ele>
        <time>2014-11-23T15:05:15.000Z</time>
      </trkpt>
      <trkpt lat="48.87886" lon="-0.38112">
        <ele>191</ele>
        <time>2014-11-23T15:05:18.000Z</time>
      </trkpt>
      <trkpt lat="48.87885" lon="-0.38116">
        <ele>192.39999389648</ele>
        <time>2014-11-23T15:05:20.000Z</time>
      </trkpt>
      <trkpt lat="48.87884" lon="-0.38121">
        <ele>193.39999389648</ele>
        <time>2014-11-23T15:05:23.000Z</time>
      </trkpt>
      <trkpt lat="48.87883" lon="-0.38126">
        <ele>194</ele>
        <time>2014-11-23T15:05:26.000Z</time>
      </trkpt>
      <trkpt lat="48.87883" lon="-0.3813">
        <ele>194.39999389648</ele>
        <time>2014-11-23T15:05:28.000Z</time>
      </trkpt>
      <trkpt lat="48.87882" lon="-0.38134">
        <ele>194.19999694824</ele>
        <time>2014-11-23T15:05:30.000Z</time>
      </trkpt>
      <trkpt lat="48.87879" lon="-0.38146">
        <ele>194.39999389648</ele>
        <time>2014-11-23T15:05:36.000Z</time>
      </trkpt>
      <trkpt lat="48.87877" lon="-0.38149">
        <ele>194.60000610352</ele>
        <time>2014-11-23T15:05:38.000Z</time>
      </trkpt>
      <trkpt lat="48.87876" lon="-0.38154">
        <ele>194.60000610352</ele>
        <time>2014-11-23T15:05:41.000Z</time>
      </trkpt>
      <trkpt lat="48.87875" lon="-0.38158">
        <ele>194.39999389648</ele>
        <time>2014-11-23T15:05:43.000Z</time>
      </trkpt>
      <trkpt lat="48.87874" lon="-0.38162">
        <ele>194</ele>
        <time>2014-11-23T15:05:45.000Z</time>
      </trkpt>
      <trkpt lat="48.87873" lon="-0.38167">
        <ele>193.80000305176</ele>
        <time>2014-11-23T15:05:48.000Z</time>
      </trkpt>
      <trkpt lat="48.8787" lon="-0.38174">
        <ele>194</ele>
        <time>2014-11-23T15:05:52.000Z</time>
      </trkpt>
      <trkpt lat="48.8787" lon="-0.38176">
        <ele>194.39999389648</ele>
        <time>2014-11-23T15:05:54.000Z</time>
      </trkpt>
      <trkpt lat="48.87868" lon="-0.38181">
        <ele>194.80000305176</ele>
        <time>2014-11-23T15:05:57.000Z</time>
      </trkpt>
      <trkpt lat="48.87865" lon="-0.38188">
        <ele>195</ele>
        <time>2014-11-23T15:06:00.000Z</time>
      </trkpt>
      <trkpt lat="48.87862" lon="-0.38193">
        <ele>194.80000305176</ele>
        <time>2014-11-23T15:06:03.000Z</time>
      </trkpt>
      <trkpt lat="48.8786" lon="-0.38201">
        <ele>194.80000305176</ele>
        <time>2014-11-23T15:06:06.000Z</time>
      </trkpt>
      <trkpt lat="48.87859" lon="-0.38205">
        <ele>194.60000610352</ele>
        <time>2014-11-23T15:06:08.000Z</time>
      </trkpt>
      <trkpt lat="48.87859" lon="-0.3821">
        <ele>194.39999389648</ele>
        <time>2014-11-23T15:06:10.000Z</time>
      </trkpt>
      <trkpt lat="48.87857" lon="-0.38217">
        <ele>194.19999694824</ele>
        <time>2014-11-23T15:06:13.000Z</time>
      </trkpt>
      <trkpt lat="48.87854" lon="-0.38224">
        <ele>193.80000305176</ele>
        <time>2014-11-23T15:06:17.000Z</time>
      </trkpt>
      <trkpt lat="48.87852" lon="-0.38233">
        <ele>194</ele>
        <time>2014-11-23T15:06:22.000Z</time>
      </trkpt>
      <trkpt lat="48.87852" lon="-0.38236">
        <ele>194.19999694824</ele>
        <time>2014-11-23T15:06:24.000Z</time>
      </trkpt>
      <trkpt lat="48.87851" lon="-0.3824">
        <ele>194.39999389648</ele>
        <time>2014-11-23T15:06:26.000Z</time>
      </trkpt>
      <trkpt lat="48.8785" lon="-0.38244">
        <ele>194.80000305176</ele>
        <time>2014-11-23T15:06:28.000Z</time>
      </trkpt>
      <trkpt lat="48.87849" lon="-0.38249">
        <ele>195.19999694824</ele>
        <time>2014-11-23T15:06:31.000Z</time>
      </trkpt>
      <trkpt lat="48.8785" lon="-0.38253">
        <ele>195.60000610352</ele>
        <time>2014-11-23T15:06:33.000Z</time>
      </trkpt>
      <trkpt lat="48.8785" lon="-0.38262">
        <ele>196.19999694824</ele>
        <time>2014-11-23T15:06:36.000Z</time>
      </trkpt>
      <trkpt lat="48.8785" lon="-0.38271">
        <ele>196.80000305176</ele>
        <time>2014-11-23T15:06:39.000Z</time>
      </trkpt>
      <trkpt lat="48.87849" lon="-0.38277">
        <ele>197.60000610352</ele>
        <time>2014-11-23T15:06:41.000Z</time>
      </trkpt>
      <trkpt lat="48.87848" lon="-0.38285">
        <ele>198.60000610352</ele>
        <time>2014-11-23T15:06:44.000Z</time>
      </trkpt>
      <trkpt lat="48.87847" lon="-0.38292">
        <ele>199.19999694824</ele>
        <time>2014-11-23T15:06:47.000Z</time>
      </trkpt>
      <trkpt lat="48.87848" lon="-0.38295">
        <ele>199.60000610352</ele>
        <time>2014-11-23T15:06:49.000Z</time>
      </trkpt>
      <trkpt lat="48.87848" lon="-0.38301">
        <ele>200.19999694824</ele>
        <time>2014-11-23T15:06:52.000Z</time>
      </trkpt>
      <trkpt lat="48.87848" lon="-0.38305">
        <ele>201</ele>
        <time>2014-11-23T15:06:55.000Z</time>
      </trkpt>
      <trkpt lat="48.87847" lon="-0.38308">
        <ele>201.60000610352</ele>
        <time>2014-11-23T15:06:57.000Z</time>
      </trkpt>
      <trkpt lat="48.87846" lon="-0.38314">
        <ele>202.39999389648</ele>
        <time>2014-11-23T15:07:00.000Z</time>
      </trkpt>
      <trkpt lat="48.87844" lon="-0.38319">
        <ele>203.19999694824</ele>
        <time>2014-11-23T15:07:03.000Z</time>
      </trkpt>
      <trkpt lat="48.87844" lon="-0.38322">
        <ele>204</ele>
        <time>2014-11-23T15:07:05.000Z</time>
      </trkpt>
      <trkpt lat="48.87844" lon="-0.38328">
        <ele>204.60000610352</ele>
        <time>2014-11-23T15:07:08.000Z</time>
      </trkpt>
      <trkpt lat="48.87843" lon="-0.38336">
        <ele>204.60000610352</ele>
        <time>2014-11-23T15:07:13.000Z</time>
      </trkpt>
      <trkpt lat="48.87842" lon="-0.38349">
        <ele>204.19999694824</ele>
        <time>2014-11-23T15:07:19.000Z</time>
      </trkpt>
      <trkpt lat="48.87841" lon="-0.38353">
        <ele>203.80000305176</ele>
        <time>2014-11-23T15:07:21.000Z</time>
      </trkpt>
      <trkpt lat="48.87841" lon="-0.38369">
        <ele>203.60000610352</ele>
        <time>2014-11-23T15:07:28.000Z</time>
      </trkpt>
      <trkpt lat="48.8784" lon="-0.38373">
        <ele>203.39999389648</ele>
        <time>2014-11-23T15:07:30.000Z</time>
      </trkpt>
      <trkpt lat="48.8784" lon="-0.3838">
        <ele>202.80000305176</ele>
        <time>2014-11-23T15:07:33.000Z</time>
      </trkpt>
      <trkpt lat="48.8784" lon="-0.38384">
        <ele>202.19999694824</ele>
        <time>2014-11-23T15:07:35.000Z</time>
      </trkpt>
      <trkpt lat="48.87839" lon="-0.38387">
        <ele>201.60000610352</ele>
        <time>2014-11-23T15:07:37.000Z</time>
      </trkpt>
      <trkpt lat="48.87839" lon="-0.3839">
        <ele>201.19999694824</ele>
        <time>2014-11-23T15:07:39.000Z</time>
      </trkpt>
      <trkpt lat="48.87839" lon="-0.38397">
        <ele>201</ele>
        <time>2014-11-23T15:07:42.000Z</time>
      </trkpt>
      <trkpt lat="48.8784" lon="-0.38402">
        <ele>200.80000305176</ele>
        <time>2014-11-23T15:07:45.000Z</time>
      </trkpt>
      <trkpt lat="48.87838" lon="-0.38403">
        <ele>200</ele>
        <time>2014-11-23T15:07:47.000Z</time>
      </trkpt>
      <trkpt lat="48.87836" lon="-0.38402">
        <ele>199.19999694824</ele>
        <time>2014-11-23T15:07:50.000Z</time>
      </trkpt>
      <trkpt lat="48.87835" lon="-0.38405">
        <ele>198.60000610352</ele>
        <time>2014-11-23T15:07:52.000Z</time>
      </trkpt>
      <trkpt lat="48.87833" lon="-0.38409">
        <ele>197.39999389648</ele>
        <time>2014-11-23T15:07:55.000Z</time>
      </trkpt>
      <trkpt lat="48.8783" lon="-0.38413">
        <ele>196.19999694824</ele>
        <time>2014-11-23T15:07:58.000Z</time>
      </trkpt>
      <trkpt lat="48.8783" lon="-0.38417">
        <ele>195.39999389648</ele>
        <time>2014-11-23T15:08:00.000Z</time>
      </trkpt>
      <trkpt lat="48.87829" lon="-0.38421">
        <ele>194.60000610352</ele>
        <time>2014-11-23T15:08:02.000Z</time>
      </trkpt>
      <trkpt lat="48.87828" lon="-0.38427">
        <ele>193.60000610352</ele>
        <time>2014-11-23T15:08:05.000Z</time>
      </trkpt>
      <trkpt lat="48.87827" lon="-0.38431">
        <ele>193.19999694824</ele>
        <time>2014-11-23T15:08:07.000Z</time>
      </trkpt>
      <trkpt lat="48.87825" lon="-0.3844">
        <ele>193.19999694824</ele>
        <time>2014-11-23T15:08:12.000Z</time>
      </trkpt>
      <trkpt lat="48.8782" lon="-0.38455">
        <ele>192.80000305176</ele>
        <time>2014-11-23T15:08:23.000Z</time>
      </trkpt>
      <trkpt lat="48.87819" lon="-0.3846">
        <ele>192.60000610352</ele>
        <time>2014-11-23T15:08:25.000Z</time>
      </trkpt>
      <trkpt lat="48.87818" lon="-0.38467">
        <ele>192.60000610352</ele>
        <time>2014-11-23T15:08:28.000Z</time>
      </trkpt>
      <trkpt lat="48.87817" lon="-0.38473">
        <ele>192.60000610352</ele>
        <time>2014-11-23T15:08:31.000Z</time>
      </trkpt>
      <trkpt lat="48.87817" lon="-0.38479">
        <ele>192.39999389648</ele>
        <time>2014-11-23T15:08:33.000Z</time>
      </trkpt>
      <trkpt lat="48.87816" lon="-0.38489">
        <ele>192.19999694824</ele>
        <time>2014-11-23T15:08:38.000Z</time>
      </trkpt>
      <trkpt lat="48.87815" lon="-0.38493">
        <ele>192</ele>
        <time>2014-11-23T15:08:40.000Z</time>
      </trkpt>
      <trkpt lat="48.87815" lon="-0.38499">
        <ele>191.60000610352</ele>
        <time>2014-11-23T15:08:43.000Z</time>
      </trkpt>
      <trkpt lat="48.87814" lon="-0.38505">
        <ele>191.19999694824</ele>
        <time>2014-11-23T15:08:46.000Z</time>
      </trkpt>
      <trkpt lat="48.87814" lon="-0.38508">
        <ele>190.80000305176</ele>
        <time>2014-11-23T15:08:48.000Z</time>
      </trkpt>
      <trkpt lat="48.87814" lon="-0.38514">
        <ele>190.60000610352</ele>
        <time>2014-11-23T15:08:51.000Z</time>
      </trkpt>
      <trkpt lat="48.87812" lon="-0.38517">
        <ele>190.19999694824</ele>
        <time>2014-11-23T15:08:53.000Z</time>
      </trkpt>
      <trkpt lat="48.8781" lon="-0.38522">
        <ele>190.19999694824</ele>
        <time>2014-11-23T15:08:56.000Z</time>
      </trkpt>
      <trkpt lat="48.87808" lon="-0.38528">
        <ele>190.19999694824</ele>
        <time>2014-11-23T15:08:59.000Z</time>
      </trkpt>
      <trkpt lat="48.87806" lon="-0.38533">
        <ele>190.39999389648</ele>
        <time>2014-11-23T15:09:02.000Z</time>
      </trkpt>
      <trkpt lat="48.87804" lon="-0.38538">
        <ele>190.60000610352</ele>
        <time>2014-11-23T15:09:05.000Z</time>
      </trkpt>
      <trkpt lat="48.87803" lon="-0.38545">
        <ele>190.80000305176</ele>
        <time>2014-11-23T15:09:08.000Z</time>
      </trkpt>
      <trkpt lat="48.87801" lon="-0.38554">
        <ele>191</ele>
        <time>2014-11-23T15:09:13.000Z</time>
      </trkpt>
      <trkpt lat="48.87799" lon="-0.38557">
        <ele>190.80000305176</ele>
        <time>2014-11-23T15:09:15.000Z</time>
      </trkpt>
      <trkpt lat="48.87798" lon="-0.38561">
        <ele>190.60000610352</ele>
        <time>2014-11-23T15:09:18.000Z</time>
      </trkpt>
      <trkpt lat="48.87797" lon="-0.38565">
        <ele>190.39999389648</ele>
        <time>2014-11-23T15:09:20.000Z</time>
      </trkpt>
      <trkpt lat="48.87796" lon="-0.38572">
        <ele>190.39999389648</ele>
        <time>2014-11-23T15:09:23.000Z</time>
      </trkpt>
      <trkpt lat="48.87796" lon="-0.3858">
        <ele>190.60000610352</ele>
        <time>2014-11-23T15:09:26.000Z</time>
      </trkpt>
      <trkpt lat="48.87795" lon="-0.38584">
        <ele>191</ele>
        <time>2014-11-23T15:09:28.000Z</time>
      </trkpt>
      <trkpt lat="48.87793" lon="-0.38589">
        <ele>191.19999694824</ele>
        <time>2014-11-23T15:09:31.000Z</time>
      </trkpt>
      <trkpt lat="48.8779" lon="-0.38592">
        <ele>191.39999389648</ele>
        <time>2014-11-23T15:09:34.000Z</time>
      </trkpt>
      <trkpt lat="48.87788" lon="-0.38593">
        <ele>191.60000610352</ele>
        <time>2014-11-23T15:09:36.000Z</time>
      </trkpt>
      <trkpt lat="48.87787" lon="-0.38594">
        <ele>191.19999694824</ele>
        <time>2014-11-23T15:09:39.000Z</time>
      </trkpt>
      <trkpt lat="48.87786" lon="-0.38594">
        <ele>191</ele>
        <time>2014-11-23T15:09:42.000Z</time>
      </trkpt>
      <trkpt lat="48.87784" lon="-0.38593">
        <ele>191</ele>
        <time>2014-11-23T15:09:45.000Z</time>
      </trkpt>
      <trkpt lat="48.87783" lon="-0.38593">
        <ele>191</ele>
        <time>2014-11-23T15:09:47.000Z</time>
      </trkpt>
      <trkpt lat="48.87781" lon="-0.38596">
        <ele>190.60000610352</ele>
        <time>2014-11-23T15:09:50.000Z</time>
      </trkpt>
      <trkpt lat="48.87778" lon="-0.38596">
        <ele>190.80000305176</ele>
        <time>2014-11-23T15:09:52.000Z</time>
      </trkpt>
      <trkpt lat="48.87776" lon="-0.38595">
        <ele>190.80000305176</ele>
        <time>2014-11-23T15:09:54.000Z</time>
      </trkpt>
      <trkpt lat="48.87772" lon="-0.38593">
        <ele>190.60000610352</ele>
        <time>2014-11-23T15:09:57.000Z</time>
      </trkpt>
      <trkpt lat="48.87769" lon="-0.38594">
        <ele>190.39999389648</ele>
        <time>2014-11-23T15:10:00.000Z</time>
      </trkpt>
      <trkpt lat="48.87766" lon="-0.38597">
        <ele>190.39999389648</ele>
        <time>2014-11-23T15:10:03.000Z</time>
      </trkpt>
      <trkpt lat="48.87764" lon="-0.38599">
        <ele>190.19999694824</ele>
        <time>2014-11-23T15:10:05.000Z</time>
      </trkpt>
      <trkpt lat="48.8776" lon="-0.38602">
        <ele>190</ele>
        <time>2014-11-23T15:10:08.000Z</time>
      </trkpt>
      <trkpt lat="48.87758" lon="-0.38604">
        <ele>190.19999694824</ele>
        <time>2014-11-23T15:10:10.000Z</time>
      </trkpt>
      <trkpt lat="48.87755" lon="-0.38606">
        <ele>190.80000305176</ele>
        <time>2014-11-23T15:10:13.000Z</time>
      </trkpt>
      <trkpt lat="48.87751" lon="-0.38608">
        <ele>191.39999389648</ele>
        <time>2014-11-23T15:10:16.000Z</time>
      </trkpt>
      <trkpt lat="48.87749" lon="-0.38611">
        <ele>192.19999694824</ele>
        <time>2014-11-23T15:10:19.000Z</time>
      </trkpt>
      <trkpt lat="48.87748" lon="-0.3861">
        <ele>193.19999694824</ele>
        <time>2014-11-23T15:10:24.000Z</time>
      </trkpt>
      <trkpt lat="48.87747" lon="-0.38611">
        <ele>194.19999694824</ele>
        <time>2014-11-23T15:10:28.000Z</time>
      </trkpt>
      <trkpt lat="48.87747" lon="-0.38614">
        <ele>195</ele>
        <time>2014-11-23T15:10:31.000Z</time>
      </trkpt>
      <trkpt lat="48.87746" lon="-0.38617">
        <ele>196</ele>
        <time>2014-11-23T15:10:34.000Z</time>
      </trkpt>
      <trkpt lat="48.87743" lon="-0.3862">
        <ele>197</ele>
        <time>2014-11-23T15:10:37.000Z</time>
      </trkpt>
      <trkpt lat="48.87741" lon="-0.38623">
        <ele>198</ele>
        <time>2014-11-23T15:10:40.000Z</time>
      </trkpt>
      <trkpt lat="48.8774" lon="-0.38625">
        <ele>199.19999694824</ele>
        <time>2014-11-23T15:10:42.000Z</time>
      </trkpt>
      <trkpt lat="48.87737" lon="-0.38628">
        <ele>200.39999389648</ele>
        <time>2014-11-23T15:10:45.000Z</time>
      </trkpt>
      <trkpt lat="48.87735" lon="-0.3863">
        <ele>201.39999389648</ele>
        <time>2014-11-23T15:10:47.000Z</time>
      </trkpt>
      <trkpt lat="48.87733" lon="-0.38633">
        <ele>202.39999389648</ele>
        <time>2014-11-23T15:10:49.000Z</time>
      </trkpt>
      <trkpt lat="48.87731" lon="-0.38637">
        <ele>203.19999694824</ele>
        <time>2014-11-23T15:10:52.000Z</time>
      </trkpt>
      <trkpt lat="48.8773" lon="-0.38641">
        <ele>203.39999389648</ele>
        <time>2014-11-23T15:10:55.000Z</time>
      </trkpt>
      <trkpt lat="48.87727" lon="-0.38647">
        <ele>203.19999694824</ele>
        <time>2014-11-23T15:11:01.000Z</time>
      </trkpt>
      <trkpt lat="48.87726" lon="-0.38648">
        <ele>203</ele>
        <time>2014-11-23T15:11:03.000Z</time>
      </trkpt>
      <trkpt lat="48.87725" lon="-0.3865">
        <ele>202.80000305176</ele>
        <time>2014-11-23T15:11:13.000Z</time>
      </trkpt>
      <trkpt lat="48.87724" lon="-0.38651">
        <ele>202.60000610352</ele>
        <time>2014-11-23T15:11:16.000Z</time>
      </trkpt>
      <trkpt lat="48.87723" lon="-0.3865">
        <ele>202.19999694824</ele>
        <time>2014-11-23T15:11:30.000Z</time>
      </trkpt>
      <trkpt lat="48.87723" lon="-0.3865">
        <ele>202.19999694824</ele>
        <time>2014-11-23T15:11:50.000Z</time>
      </trkpt>
      <trkpt lat="48.87723" lon="-0.38652">
        <ele>201.80000305176</ele>
        <time>2014-11-23T15:11:57.000Z</time>
      </trkpt>
      <trkpt lat="48.87723" lon="-0.38655">
        <ele>201.39999389648</ele>
        <time>2014-11-23T15:11:59.000Z</time>
      </trkpt>
      <trkpt lat="48.87723" lon="-0.38657">
        <ele>201.19999694824</ele>
        <time>2014-11-23T15:12:01.000Z</time>
      </trkpt>
      <trkpt lat="48.87722" lon="-0.38658">
        <ele>201</ele>
        <time>2014-11-23T15:12:04.000Z</time>
      </trkpt>
      <trkpt lat="48.87722" lon="-0.38658">
        <ele>200.60000610352</ele>
        <time>2014-11-23T15:12:08.000Z</time>
      </trkpt>
      <trkpt lat="48.87722" lon="-0.38658">
        <ele>200.60000610352</ele>
        <time>2014-11-23T15:12:28.000Z</time>
      </trkpt>
      <trkpt lat="48.87722" lon="-0.38659">
        <ele>200.19999694824</ele>
        <time>2014-11-23T15:12:29.000Z</time>
      </trkpt>
      <trkpt lat="48.87722" lon="-0.38659">
        <ele>200.19999694824</ele>
        <time>2014-11-23T15:12:49.000Z</time>
      </trkpt>
      <trkpt lat="48.87723" lon="-0.3866">
        <ele>200.80000305176</ele>
        <time>2014-11-23T15:13:02.000Z</time>
      </trkpt>
      <trkpt lat="48.87722" lon="-0.38662">
        <ele>201.39999389648</ele>
        <time>2014-11-23T15:13:04.000Z</time>
      </trkpt>
      <trkpt lat="48.87721" lon="-0.38665">
        <ele>202</ele>
        <time>2014-11-23T15:13:06.000Z</time>
      </trkpt>
      <trkpt lat="48.87719" lon="-0.38668">
        <ele>202.80000305176</ele>
        <time>2014-11-23T15:13:08.000Z</time>
      </trkpt>
      <trkpt lat="48.87716" lon="-0.38672">
        <ele>203.39999389648</ele>
        <time>2014-11-23T15:13:11.000Z</time>
      </trkpt>
      <trkpt lat="48.87715" lon="-0.38674">
        <ele>203</ele>
        <time>2014-11-23T15:13:13.000Z</time>
      </trkpt>
      <trkpt lat="48.87711" lon="-0.38679">
        <ele>202.80000305176</ele>
        <time>2014-11-23T15:13:16.000Z</time>
      </trkpt>
      <trkpt lat="48.87706" lon="-0.38683">
        <ele>202.60000610352</ele>
        <time>2014-11-23T15:13:19.000Z</time>
      </trkpt>
      <trkpt lat="48.877" lon="-0.38692">
        <ele>202.60000610352</ele>
        <time>2014-11-23T15:13:25.000Z</time>
      </trkpt>
      <trkpt lat="48.87699" lon="-0.38694">
        <ele>202.80000305176</ele>
        <time>2014-11-23T15:13:27.000Z</time>
      </trkpt>
      <trkpt lat="48.87696" lon="-0.38695">
        <ele>202.80000305176</ele>
        <time>2014-11-23T15:13:29.000Z</time>
      </trkpt>
      <trkpt lat="48.8769" lon="-0.387">
        <ele>203</ele>
        <time>2014-11-23T15:13:34.000Z</time>
      </trkpt>
      <trkpt lat="48.87688" lon="-0.38703">
        <ele>203.39999389648</ele>
        <time>2014-11-23T15:13:36.000Z</time>
      </trkpt>
      <trkpt lat="48.87685" lon="-0.38707">
        <ele>203.80000305176</ele>
        <time>2014-11-23T15:13:39.000Z</time>
      </trkpt>
      <trkpt lat="48.87683" lon="-0.3871">
        <ele>203.80000305176</ele>
        <time>2014-11-23T15:13:42.000Z</time>
      </trkpt>
      <trkpt lat="48.87682" lon="-0.38714">
        <ele>203.80000305176</ele>
        <time>2014-11-23T15:13:44.000Z</time>
      </trkpt>
      <trkpt lat="48.8768" lon="-0.38718">
        <ele>203.60000610352</ele>
        <time>2014-11-23T15:13:46.000Z</time>
      </trkpt>
      <trkpt lat="48.87679" lon="-0.38721">
        <ele>203.19999694824</ele>
        <time>2014-11-23T15:13:48.000Z</time>
      </trkpt>
      <trkpt lat="48.87678" lon="-0.38725">
        <ele>202.60000610352</ele>
        <time>2014-11-23T15:13:51.000Z</time>
      </trkpt>
      <trkpt lat="48.87677" lon="-0.3873">
        <ele>202.39999389648</ele>
        <time>2014-11-23T15:13:54.000Z</time>
      </trkpt>
      <trkpt lat="48.87677" lon="-0.38733">
        <ele>202.19999694824</ele>
        <time>2014-11-23T15:13:56.000Z</time>
      </trkpt>
      <trkpt lat="48.87679" lon="-0.38737">
        <ele>201.80000305176</ele>
        <time>2014-11-23T15:13:59.000Z</time>
      </trkpt>
      <trkpt lat="48.87682" lon="-0.38755">
        <ele>201.80000305176</ele>
        <time>2014-11-23T15:14:11.000Z</time>
      </trkpt>
      <trkpt lat="48.87682" lon="-0.38757">
        <ele>201.60000610352</ele>
        <time>2014-11-23T15:14:13.000Z</time>
      </trkpt>
      <trkpt lat="48.87682" lon="-0.38761">
        <ele>201.60000610352</ele>
        <time>2014-11-23T15:14:15.000Z</time>
      </trkpt>
      <trkpt lat="48.87682" lon="-0.38765">
        <ele>201.39999389648</ele>
        <time>2014-11-23T15:14:18.000Z</time>
      </trkpt>
      <trkpt lat="48.87682" lon="-0.38769">
        <ele>201.19999694824</ele>
        <time>2014-11-23T15:14:21.000Z</time>
      </trkpt>
      <trkpt lat="48.87683" lon="-0.38776">
        <ele>201.19999694824</ele>
        <time>2014-11-23T15:14:25.000Z</time>
      </trkpt>
      <trkpt lat="48.87683" lon="-0.38781">
        <ele>201</ele>
        <time>2014-11-23T15:14:27.000Z</time>
      </trkpt>
      <trkpt lat="48.87682" lon="-0.3879">
        <ele>200.80000305176</ele>
        <time>2014-11-23T15:14:30.000Z</time>
      </trkpt>
      <trkpt lat="48.87681" lon="-0.38795">
        <ele>200.60000610352</ele>
        <time>2014-11-23T15:14:32.000Z</time>
      </trkpt>
      <trkpt lat="48.8768" lon="-0.38801">
        <ele>200.39999389648</ele>
        <time>2014-11-23T15:14:35.000Z</time>
      </trkpt>
      <trkpt lat="48.8768" lon="-0.38808">
        <ele>200.19999694824</ele>
        <time>2014-11-23T15:14:38.000Z</time>
      </trkpt>
      <trkpt lat="48.8768" lon="-0.38814">
        <ele>199.80000305176</ele>
        <time>2014-11-23T15:14:41.000Z</time>
      </trkpt>
      <trkpt lat="48.87681" lon="-0.38824">
        <ele>200</ele>
        <time>2014-11-23T15:14:46.000Z</time>
      </trkpt>
      <trkpt lat="48.87681" lon="-0.38831">
        <ele>200.19999694824</ele>
        <time>2014-11-23T15:14:49.000Z</time>
      </trkpt>
      <trkpt lat="48.87681" lon="-0.38835">
        <ele>200.60000610352</ele>
        <time>2014-11-23T15:14:51.000Z</time>
      </trkpt>
      <trkpt lat="48.87682" lon="-0.3884">
        <ele>201.19999694824</ele>
        <time>2014-11-23T15:14:53.000Z</time>
      </trkpt>
      <trkpt lat="48.87682" lon="-0.38845">
        <ele>201.60000610352</ele>
        <time>2014-11-23T15:14:55.000Z</time>
      </trkpt>
      <trkpt lat="48.87683" lon="-0.3885">
        <ele>201.39999389648</ele>
        <time>2014-11-23T15:14:58.000Z</time>
      </trkpt>
      <trkpt lat="48.87683" lon="-0.38854">
        <ele>201.39999389648</ele>
        <time>2014-11-23T15:15:01.000Z</time>
      </trkpt>
      <trkpt lat="48.87683" lon="-0.38859">
        <ele>201.19999694824</ele>
        <time>2014-11-23T15:15:03.000Z</time>
      </trkpt>
      <trkpt lat="48.87685" lon="-0.38865">
        <ele>200.60000610352</ele>
        <time>2014-11-23T15:15:06.000Z</time>
      </trkpt>
      <trkpt lat="48.87686" lon="-0.38868">
        <ele>200</ele>
        <time>2014-11-23T15:15:08.000Z</time>
      </trkpt>
      <trkpt lat="48.87687" lon="-0.3887">
        <ele>199.80000305176</ele>
        <time>2014-11-23T15:15:10.000Z</time>
      </trkpt>
      <trkpt lat="48.87688" lon="-0.38872">
        <ele>199.19999694824</ele>
        <time>2014-11-23T15:15:12.000Z</time>
      </trkpt>
      <trkpt lat="48.87688" lon="-0.38877">
        <ele>198.80000305176</ele>
        <time>2014-11-23T15:15:15.000Z</time>
      </trkpt>
      <trkpt lat="48.87688" lon="-0.38883">
        <ele>198.80000305176</ele>
        <time>2014-11-23T15:15:18.000Z</time>
      </trkpt>
      <trkpt lat="48.87687" lon="-0.38889">
        <ele>199</ele>
        <time>2014-11-23T15:15:20.000Z</time>
      </trkpt>
      <trkpt lat="48.87688" lon="-0.38893">
        <ele>199.19999694824</ele>
        <time>2014-11-23T15:15:22.000Z</time>
      </trkpt>
      <trkpt lat="48.8769" lon="-0.38898">
        <ele>199.80000305176</ele>
        <time>2014-11-23T15:15:25.000Z</time>
      </trkpt>
      <trkpt lat="48.87694" lon="-0.38901">
        <ele>200.19999694824</ele>
        <time>2014-11-23T15:15:28.000Z</time>
      </trkpt>
      <trkpt lat="48.87695" lon="-0.38903">
        <ele>200.39999389648</ele>
        <time>2014-11-23T15:15:31.000Z</time>
      </trkpt>
      <trkpt lat="48.87694" lon="-0.38905">
        <ele>200.39999389648</ele>
        <time>2014-11-23T15:15:33.000Z</time>
      </trkpt>
      <trkpt lat="48.87692" lon="-0.38905">
        <ele>200.39999389648</ele>
        <time>2014-11-23T15:15:36.000Z</time>
      </trkpt>
      <trkpt lat="48.87691" lon="-0.38907">
        <ele>200.19999694824</ele>
        <time>2014-11-23T15:15:38.000Z</time>
      </trkpt>
      <trkpt lat="48.87692" lon="-0.38909">
        <ele>200</ele>
        <time>2014-11-23T15:15:44.000Z</time>
      </trkpt>
      <trkpt lat="48.87691" lon="-0.3891">
        <ele>199.80000305176</ele>
        <time>2014-11-23T15:15:46.000Z</time>
      </trkpt>
      <trkpt lat="48.87691" lon="-0.38914">
        <ele>199.60000610352</ele>
        <time>2014-11-23T15:15:49.000Z</time>
      </trkpt>
      <trkpt lat="48.8769" lon="-0.38917">
        <ele>199.19999694824</ele>
        <time>2014-11-23T15:15:51.000Z</time>
      </trkpt>
      <trkpt lat="48.87689" lon="-0.38921">
        <ele>198.80000305176</ele>
        <time>2014-11-23T15:15:53.000Z</time>
      </trkpt>
      <trkpt lat="48.8769" lon="-0.38922">
        <ele>198</ele>
        <time>2014-11-23T15:15:56.000Z</time>
      </trkpt>
      <trkpt lat="48.8769" lon="-0.38926">
        <ele>197.39999389648</ele>
        <time>2014-11-23T15:15:58.000Z</time>
      </trkpt>
      <trkpt lat="48.87689" lon="-0.38928">
        <ele>196.60000610352</ele>
        <time>2014-11-23T15:16:00.000Z</time>
      </trkpt>
      <trkpt lat="48.87688" lon="-0.38934">
        <ele>196.39999389648</ele>
        <time>2014-11-23T15:16:03.000Z</time>
      </trkpt>
      <trkpt lat="48.87687" lon="-0.38937">
        <ele>196</ele>
        <time>2014-11-23T15:16:05.000Z</time>
      </trkpt>
      <trkpt lat="48.87688" lon="-0.38939">
        <ele>196</ele>
        <time>2014-11-23T15:16:16.000Z</time>
      </trkpt>
      <trkpt lat="48.87688" lon="-0.3894">
        <ele>196</ele>
        <time>2014-11-23T15:16:18.000Z</time>
      </trkpt>
      <trkpt lat="48.87689" lon="-0.38941">
        <ele>196.19999694824</ele>
        <time>2014-11-23T15:16:21.000Z</time>
      </trkpt>
      <trkpt lat="48.87688" lon="-0.38943">
        <ele>196.19999694824</ele>
        <time>2014-11-23T15:16:23.000Z</time>
      </trkpt>
      <trkpt lat="48.87688" lon="-0.38948">
        <ele>196.39999389648</ele>
        <time>2014-11-23T15:16:26.000Z</time>
      </trkpt>
      <trkpt lat="48.87687" lon="-0.38954">
        <ele>196.19999694824</ele>
        <time>2014-11-23T15:16:28.000Z</time>
      </trkpt>
      <trkpt lat="48.87684" lon="-0.38959">
        <ele>196</ele>
        <time>2014-11-23T15:16:31.000Z</time>
      </trkpt>
      <trkpt lat="48.87683" lon="-0.38964">
        <ele>195.60000610352</ele>
        <time>2014-11-23T15:16:33.000Z</time>
      </trkpt>
      <trkpt lat="48.87683" lon="-0.38971">
        <ele>195</ele>
        <time>2014-11-23T15:16:36.000Z</time>
      </trkpt>
      <trkpt lat="48.87684" lon="-0.38975">
        <ele>194.39999389648</ele>
        <time>2014-11-23T15:16:38.000Z</time>
      </trkpt>
      <trkpt lat="48.87683" lon="-0.38979">
        <ele>193.80000305176</ele>
        <time>2014-11-23T15:16:41.000Z</time>
      </trkpt>
      <trkpt lat="48.87683" lon="-0.38983">
        <ele>193</ele>
        <time>2014-11-23T15:16:43.000Z</time>
      </trkpt>
      <trkpt lat="48.87683" lon="-0.38987">
        <ele>192.60000610352</ele>
        <time>2014-11-23T15:16:45.000Z</time>
      </trkpt>
      <trkpt lat="48.87682" lon="-0.38994">
        <ele>192</ele>
        <time>2014-11-23T15:16:48.000Z</time>
      </trkpt>
      <trkpt lat="48.87682" lon="-0.39001">
        <ele>191.19999694824</ele>
        <time>2014-11-23T15:16:51.000Z</time>
      </trkpt>
      <trkpt lat="48.87682" lon="-0.39008">
        <ele>190.80000305176</ele>
        <time>2014-11-23T15:16:54.000Z</time>
      </trkpt>
      <trkpt lat="48.87681" lon="-0.39013">
        <ele>190.60000610352</ele>
        <time>2014-11-23T15:16:57.000Z</time>
      </trkpt>
      <trkpt lat="48.87682" lon="-0.39016">
        <ele>190.19999694824</ele>
        <time>2014-11-23T15:16:59.000Z</time>
      </trkpt>
      <trkpt lat="48.87681" lon="-0.3903">
        <ele>190.19999694824</ele>
        <time>2014-11-23T15:17:05.000Z</time>
      </trkpt>
      <trkpt lat="48.8768" lon="-0.39036">
        <ele>190.39999389648</ele>
        <time>2014-11-23T15:17:08.000Z</time>
      </trkpt>
      <trkpt lat="48.87679" lon="-0.39041">
        <ele>190.60000610352</ele>
        <time>2014-11-23T15:17:11.000Z</time>
      </trkpt>
      <trkpt lat="48.87679" lon="-0.39044">
        <ele>190.80000305176</ele>
        <time>2014-11-23T15:17:13.000Z</time>
      </trkpt>
      <trkpt lat="48.8768" lon="-0.3905">
        <ele>190.60000610352</ele>
        <time>2014-11-23T15:17:16.000Z</time>
      </trkpt>
      <trkpt lat="48.8768" lon="-0.39055">
        <ele>190.39999389648</ele>
        <time>2014-11-23T15:17:19.000Z</time>
      </trkpt>
      <trkpt lat="48.8768" lon="-0.39059">
        <ele>190.19999694824</ele>
        <time>2014-11-23T15:17:21.000Z</time>
      </trkpt>
      <trkpt lat="48.87681" lon="-0.39066">
        <ele>190</ele>
        <time>2014-11-23T15:17:24.000Z</time>
      </trkpt>
      <trkpt lat="48.87681" lon="-0.39072">
        <ele>189.39999389648</ele>
        <time>2014-11-23T15:17:27.000Z</time>
      </trkpt>
      <trkpt lat="48.87681" lon="-0.39077">
        <ele>189</ele>
        <time>2014-11-23T15:17:29.000Z</time>
      </trkpt>
      <trkpt lat="48.87681" lon="-0.39081">
        <ele>188.39999389648</ele>
        <time>2014-11-23T15:17:32.000Z</time>
      </trkpt>
      <trkpt lat="48.87682" lon="-0.39085">
        <ele>187.80000305176</ele>
        <time>2014-11-23T15:17:34.000Z</time>
      </trkpt>
      <trkpt lat="48.87682" lon="-0.39089">
        <ele>187.19999694824</ele>
        <time>2014-11-23T15:17:36.000Z</time>
      </trkpt>
      <trkpt lat="48.87682" lon="-0.39093">
        <ele>187</ele>
        <time>2014-11-23T15:17:38.000Z</time>
      </trkpt>
      <trkpt lat="48.87682" lon="-0.39098">
        <ele>186.80000305176</ele>
        <time>2014-11-23T15:17:40.000Z</time>
      </trkpt>
      <trkpt lat="48.87682" lon="-0.39104">
        <ele>187.19999694824</ele>
        <time>2014-11-23T15:17:42.000Z</time>
      </trkpt>
      <trkpt lat="48.87682" lon="-0.39112">
        <ele>187.19999694824</ele>
        <time>2014-11-23T15:17:45.000Z</time>
      </trkpt>
      <trkpt lat="48.87681" lon="-0.39131">
        <ele>187</ele>
        <time>2014-11-23T15:17:53.000Z</time>
      </trkpt>
      <trkpt lat="48.87681" lon="-0.39137">
        <ele>186.80000305176</ele>
        <time>2014-11-23T15:17:56.000Z</time>
      </trkpt>
      <trkpt lat="48.87681" lon="-0.39141">
        <ele>186.60000610352</ele>
        <time>2014-11-23T15:17:58.000Z</time>
      </trkpt>
      <trkpt lat="48.8768" lon="-0.39148">
        <ele>186.39999389648</ele>
        <time>2014-11-23T15:18:01.000Z</time>
      </trkpt>
      <trkpt lat="48.8768" lon="-0.39152">
        <ele>186.19999694824</ele>
        <time>2014-11-23T15:18:03.000Z</time>
      </trkpt>
      <trkpt lat="48.8768" lon="-0.39155">
        <ele>186</ele>
        <time>2014-11-23T15:18:05.000Z</time>
      </trkpt>
      <trkpt lat="48.8768" lon="-0.39162">
        <ele>185.80000305176</ele>
        <time>2014-11-23T15:18:08.000Z</time>
      </trkpt>
      <trkpt lat="48.8768" lon="-0.39167">
        <ele>185.60000610352</ele>
        <time>2014-11-23T15:18:11.000Z</time>
      </trkpt>
      <trkpt lat="48.8768" lon="-0.39173">
        <ele>185.39999389648</ele>
        <time>2014-11-23T15:18:14.000Z</time>
      </trkpt>
      <trkpt lat="48.87679" lon="-0.39177">
        <ele>185.19999694824</ele>
        <time>2014-11-23T15:18:16.000Z</time>
      </trkpt>
      <trkpt lat="48.87679" lon="-0.39183">
        <ele>185</ele>
        <time>2014-11-23T15:18:19.000Z</time>
      </trkpt>
      <trkpt lat="48.87679" lon="-0.39189">
        <ele>184.80000305176</ele>
        <time>2014-11-23T15:18:22.000Z</time>
      </trkpt>
      <trkpt lat="48.87679" lon="-0.39192">
        <ele>185</ele>
        <time>2014-11-23T15:18:24.000Z</time>
      </trkpt>
      <trkpt lat="48.87679" lon="-0.39195">
        <ele>185.19999694824</ele>
        <time>2014-11-23T15:18:26.000Z</time>
      </trkpt>
      <trkpt lat="48.87678" lon="-0.39199">
        <ele>185.60000610352</ele>
        <time>2014-11-23T15:18:29.000Z</time>
      </trkpt>
      <trkpt lat="48.87678" lon="-0.39202">
        <ele>186.80000305176</ele>
        <time>2014-11-23T15:18:32.000Z</time>
      </trkpt>
      <trkpt lat="48.87678" lon="-0.39204">
        <ele>187.80000305176</ele>
        <time>2014-11-23T15:18:35.000Z</time>
      </trkpt>
      <trkpt lat="48.87679" lon="-0.39211">
        <ele>188.60000610352</ele>
        <time>2014-11-23T15:18:38.000Z</time>
      </trkpt>
      <trkpt lat="48.87679" lon="-0.39216">
        <ele>189.39999389648</ele>
        <time>2014-11-23T15:18:40.000Z</time>
      </trkpt>
      <trkpt lat="48.87679" lon="-0.39222">
        <ele>190</ele>
        <time>2014-11-23T15:18:42.000Z</time>
      </trkpt>
      <trkpt lat="48.87678" lon="-0.39238">
        <ele>189.80000305176</ele>
        <time>2014-11-23T15:18:51.000Z</time>
      </trkpt>
      <trkpt lat="48.87678" lon="-0.39242">
        <ele>189.60000610352</ele>
        <time>2014-11-23T15:18:53.000Z</time>
      </trkpt>
      <trkpt lat="48.87678" lon="-0.39246">
        <ele>189.39999389648</ele>
        <time>2014-11-23T15:18:55.000Z</time>
      </trkpt>
      <trkpt lat="48.87677" lon="-0.3925">
        <ele>189.19999694824</ele>
        <time>2014-11-23T15:18:57.000Z</time>
      </trkpt>
      <trkpt lat="48.87677" lon="-0.39256">
        <ele>189.39999389648</ele>
        <time>2014-11-23T15:19:00.000Z</time>
      </trkpt>
      <trkpt lat="48.87676" lon="-0.39262">
        <ele>190</ele>
        <time>2014-11-23T15:19:03.000Z</time>
      </trkpt>
      <trkpt lat="48.87675" lon="-0.39267">
        <ele>190.80000305176</ele>
        <time>2014-11-23T15:19:05.000Z</time>
      </trkpt>
      <trkpt lat="48.87674" lon="-0.39271">
        <ele>191.60000610352</ele>
        <time>2014-11-23T15:19:07.000Z</time>
      </trkpt>
      <trkpt lat="48.87673" lon="-0.39277">
        <ele>192.60000610352</ele>
        <time>2014-11-23T15:19:10.000Z</time>
      </trkpt>
      <trkpt lat="48.87673" lon="-0.39281">
        <ele>193</ele>
        <time>2014-11-23T15:19:12.000Z</time>
      </trkpt>
      <trkpt lat="48.87673" lon="-0.39284">
        <ele>193.19999694824</ele>
        <time>2014-11-23T15:19:14.000Z</time>
      </trkpt>
      <trkpt lat="48.87673" lon="-0.39289">
        <ele>193.19999694824</ele>
        <time>2014-11-23T15:19:17.000Z</time>
      </trkpt>
      <trkpt lat="48.87673" lon="-0.39292">
        <ele>193.19999694824</ele>
        <time>2014-11-23T15:19:19.000Z</time>
      </trkpt>
      <trkpt lat="48.87674" lon="-0.39296">
        <ele>193</ele>
        <time>2014-11-23T15:19:21.000Z</time>
      </trkpt>
      <trkpt lat="48.87675" lon="-0.39302">
        <ele>192.60000610352</ele>
        <time>2014-11-23T15:19:24.000Z</time>
      </trkpt>
      <trkpt lat="48.87674" lon="-0.39307">
        <ele>192.19999694824</ele>
        <time>2014-11-23T15:19:26.000Z</time>
      </trkpt>
      <trkpt lat="48.87675" lon="-0.3931">
        <ele>191.80000305176</ele>
        <time>2014-11-23T15:19:28.000Z</time>
      </trkpt>
      <trkpt lat="48.87675" lon="-0.39316">
        <ele>191.39999389648</ele>
        <time>2014-11-23T15:19:30.000Z</time>
      </trkpt>
      <trkpt lat="48.87676" lon="-0.39323">
        <ele>190.80000305176</ele>
        <time>2014-11-23T15:19:33.000Z</time>
      </trkpt>
      <trkpt lat="48.87676" lon="-0.39327">
        <ele>190.60000610352</ele>
        <time>2014-11-23T15:19:35.000Z</time>
      </trkpt>
      <trkpt lat="48.87676" lon="-0.39332">
        <ele>190.39999389648</ele>
        <time>2014-11-23T15:19:38.000Z</time>
      </trkpt>
      <trkpt lat="48.87676" lon="-0.3934">
        <ele>190.19999694824</ele>
        <time>2014-11-23T15:19:41.000Z</time>
      </trkpt>
      <trkpt lat="48.87676" lon="-0.39344">
        <ele>190</ele>
        <time>2014-11-23T15:19:43.000Z</time>
      </trkpt>
      <trkpt lat="48.87675" lon="-0.39348">
        <ele>190.19999694824</ele>
        <time>2014-11-23T15:19:45.000Z</time>
      </trkpt>
      <trkpt lat="48.87675" lon="-0.39352">
        <ele>190.19999694824</ele>
        <time>2014-11-23T15:19:47.000Z</time>
      </trkpt>
      <trkpt lat="48.87675" lon="-0.39355">
        <ele>190.19999694824</ele>
        <time>2014-11-23T15:19:49.000Z</time>
      </trkpt>
      <trkpt lat="48.87674" lon="-0.3936">
        <ele>190.39999389648</ele>
        <time>2014-11-23T15:19:52.000Z</time>
      </trkpt>
      <trkpt lat="48.87675" lon="-0.39365">
        <ele>190.39999389648</ele>
        <time>2014-11-23T15:19:55.000Z</time>
      </trkpt>
      <trkpt lat="48.87675" lon="-0.39371">
        <ele>190</ele>
        <time>2014-11-23T15:19:58.000Z</time>
      </trkpt>
      <trkpt lat="48.87675" lon="-0.39375">
        <ele>189.60000610352</ele>
        <time>2014-11-23T15:20:00.000Z</time>
      </trkpt>
      <trkpt lat="48.87675" lon="-0.39378">
        <ele>189</ele>
        <time>2014-11-23T15:20:02.000Z</time>
      </trkpt>
      <trkpt lat="48.87675" lon="-0.39384">
        <ele>188.19999694824</ele>
        <time>2014-11-23T15:20:05.000Z</time>
      </trkpt>
      <trkpt lat="48.87675" lon="-0.39386">
        <ele>187.60000610352</ele>
        <time>2014-11-23T15:20:07.000Z</time>
      </trkpt>
      <trkpt lat="48.87676" lon="-0.39391">
        <ele>187.19999694824</ele>
        <time>2014-11-23T15:20:10.000Z</time>
      </trkpt>
      <trkpt lat="48.87677" lon="-0.39395">
        <ele>186.80000305176</ele>
        <time>2014-11-23T15:20:13.000Z</time>
      </trkpt>
      <trkpt lat="48.87677" lon="-0.394">
        <ele>186.39999389648</ele>
        <time>2014-11-23T15:20:15.000Z</time>
      </trkpt>
      <trkpt lat="48.87678" lon="-0.39405">
        <ele>186</ele>
        <time>2014-11-23T15:20:17.000Z</time>
      </trkpt>
      <trkpt lat="48.87679" lon="-0.39413">
        <ele>185.60000610352</ele>
        <time>2014-11-23T15:20:20.000Z</time>
      </trkpt>
      <trkpt lat="48.87679" lon="-0.39417">
        <ele>185.19999694824</ele>
        <time>2014-11-23T15:20:22.000Z</time>
      </trkpt>
      <trkpt lat="48.8768" lon="-0.39421">
        <ele>185</ele>
        <time>2014-11-23T15:20:24.000Z</time>
      </trkpt>
      <trkpt lat="48.87681" lon="-0.39435">
        <ele>184.80000305176</ele>
        <time>2014-11-23T15:20:32.000Z</time>
      </trkpt>
      <trkpt lat="48.8768" lon="-0.39439">
        <ele>184.80000305176</ele>
        <time>2014-11-23T15:20:34.000Z</time>
      </trkpt>
      <trkpt lat="48.8768" lon="-0.39444">
        <ele>184.60000610352</ele>
        <time>2014-11-23T15:20:37.000Z</time>
      </trkpt>
      <trkpt lat="48.87679" lon="-0.39449">
        <ele>184.39999389648</ele>
        <time>2014-11-23T15:20:40.000Z</time>
      </trkpt>
      <trkpt lat="48.87679" lon="-0.39454">
        <ele>184.39999389648</ele>
        <time>2014-11-23T15:20:42.000Z</time>
      </trkpt>
      <trkpt lat="48.87678" lon="-0.39461">
        <ele>184.39999389648</ele>
        <time>2014-11-23T15:20:45.000Z</time>
      </trkpt>
      <trkpt lat="48.87676" lon="-0.39466">
        <ele>184.19999694824</ele>
        <time>2014-11-23T15:20:47.000Z</time>
      </trkpt>
      <trkpt lat="48.87675" lon="-0.39471">
        <ele>184</ele>
        <time>2014-11-23T15:20:49.000Z</time>
      </trkpt>
      <trkpt lat="48.87673" lon="-0.39477">
        <ele>183.80000305176</ele>
        <time>2014-11-23T15:20:52.000Z</time>
      </trkpt>
      <trkpt lat="48.87672" lon="-0.39483">
        <ele>183.19999694824</ele>
        <time>2014-11-23T15:20:55.000Z</time>
      </trkpt>
      <trkpt lat="48.87671" lon="-0.39486">
        <ele>182.80000305176</ele>
        <time>2014-11-23T15:20:57.000Z</time>
      </trkpt>
      <trkpt lat="48.87671" lon="-0.39489">
        <ele>182.60000610352</ele>
        <time>2014-11-23T15:20:59.000Z</time>
      </trkpt>
      <trkpt lat="48.8767" lon="-0.39497">
        <ele>182.39999389648</ele>
        <time>2014-11-23T15:21:02.000Z</time>
      </trkpt>
      <trkpt lat="48.87669" lon="-0.39502">
        <ele>182.19999694824</ele>
        <time>2014-11-23T15:21:04.000Z</time>
      </trkpt>
      <trkpt lat="48.87669" lon="-0.39519">
        <ele>181.80000305176</ele>
        <time>2014-11-23T15:21:12.000Z</time>
      </trkpt>
      <trkpt lat="48.87668" lon="-0.39523">
        <ele>181.60000610352</ele>
        <time>2014-11-23T15:21:14.000Z</time>
      </trkpt>
      <trkpt lat="48.87668" lon="-0.3953">
        <ele>181.19999694824</ele>
        <time>2014-11-23T15:21:17.000Z</time>
      </trkpt>
      <trkpt lat="48.87667" lon="-0.39533">
        <ele>180.80000305176</ele>
        <time>2014-11-23T15:21:19.000Z</time>
      </trkpt>
      <trkpt lat="48.87667" lon="-0.39538">
        <ele>180.39999389648</ele>
        <time>2014-11-23T15:21:21.000Z</time>
      </trkpt>
      <trkpt lat="48.87666" lon="-0.39546">
        <ele>180.39999389648</ele>
        <time>2014-11-23T15:21:24.000Z</time>
      </trkpt>
      <trkpt lat="48.87665" lon="-0.39552">
        <ele>180.19999694824</ele>
        <time>2014-11-23T15:21:27.000Z</time>
      </trkpt>
      <trkpt lat="48.87664" lon="-0.39561">
        <ele>180</ele>
        <time>2014-11-23T15:21:32.000Z</time>
      </trkpt>
      <trkpt lat="48.87663" lon="-0.39564">
        <ele>179.80000305176</ele>
        <time>2014-11-23T15:21:34.000Z</time>
      </trkpt>
      <trkpt lat="48.87664" lon="-0.39569">
        <ele>179.39999389648</ele>
        <time>2014-11-23T15:21:36.000Z</time>
      </trkpt>
      <trkpt lat="48.87664" lon="-0.39571">
        <ele>179.19999694824</ele>
        <time>2014-11-23T15:21:38.000Z</time>
      </trkpt>
      <trkpt lat="48.87664" lon="-0.39577">
        <ele>178.80000305176</ele>
        <time>2014-11-23T15:21:41.000Z</time>
      </trkpt>
      <trkpt lat="48.87664" lon="-0.39582">
        <ele>178.60000610352</ele>
        <time>2014-11-23T15:21:44.000Z</time>
      </trkpt>
      <trkpt lat="48.87664" lon="-0.39585">
        <ele>178.39999389648</ele>
        <time>2014-11-23T15:21:46.000Z</time>
      </trkpt>
      <trkpt lat="48.87664" lon="-0.39591">
        <ele>178</ele>
        <time>2014-11-23T15:21:49.000Z</time>
      </trkpt>
      <trkpt lat="48.87664" lon="-0.39595">
        <ele>177.80000305176</ele>
        <time>2014-11-23T15:21:51.000Z</time>
      </trkpt>
      <trkpt lat="48.87663" lon="-0.396">
        <ele>177.60000610352</ele>
        <time>2014-11-23T15:21:53.000Z</time>
      </trkpt>
      <trkpt lat="48.87663" lon="-0.39606">
        <ele>177.60000610352</ele>
        <time>2014-11-23T15:21:56.000Z</time>
      </trkpt>
      <trkpt lat="48.87663" lon="-0.39613">
        <ele>177.80000305176</ele>
        <time>2014-11-23T15:21:59.000Z</time>
      </trkpt>
      <trkpt lat="48.87663" lon="-0.39617">
        <ele>178.19999694824</ele>
        <time>2014-11-23T15:22:01.000Z</time>
      </trkpt>
      <trkpt lat="48.87663" lon="-0.39624">
        <ele>178.39999389648</ele>
        <time>2014-11-23T15:22:04.000Z</time>
      </trkpt>
      <trkpt lat="48.87663" lon="-0.39632">
        <ele>178.60000610352</ele>
        <time>2014-11-23T15:22:07.000Z</time>
      </trkpt>
      <trkpt lat="48.87663" lon="-0.39636">
        <ele>178.80000305176</ele>
        <time>2014-11-23T15:22:09.000Z</time>
      </trkpt>
      <trkpt lat="48.87662" lon="-0.39643">
        <ele>179</ele>
        <time>2014-11-23T15:22:12.000Z</time>
      </trkpt>
      <trkpt lat="48.87661" lon="-0.39651">
        <ele>179.39999389648</ele>
        <time>2014-11-23T15:22:15.000Z</time>
      </trkpt>
      <trkpt lat="48.87661" lon="-0.39655">
        <ele>179.80000305176</ele>
        <time>2014-11-23T15:22:17.000Z</time>
      </trkpt>
      <trkpt lat="48.87659" lon="-0.39663">
        <ele>180.19999694824</ele>
        <time>2014-11-23T15:22:20.000Z</time>
      </trkpt>
      <trkpt lat="48.87658" lon="-0.3967">
        <ele>180.39999389648</ele>
        <time>2014-11-23T15:22:23.000Z</time>
      </trkpt>
      <trkpt lat="48.87657" lon="-0.39676">
        <ele>180.39999389648</ele>
        <time>2014-11-23T15:22:25.000Z</time>
      </trkpt>
      <trkpt lat="48.87656" lon="-0.39682">
        <ele>180.19999694824</ele>
        <time>2014-11-23T15:22:28.000Z</time>
      </trkpt>
      <trkpt lat="48.87656" lon="-0.39684">
        <ele>179.60000610352</ele>
        <time>2014-11-23T15:22:31.000Z</time>
      </trkpt>
      <trkpt lat="48.87654" lon="-0.39687">
        <ele>179.19999694824</ele>
        <time>2014-11-23T15:22:33.000Z</time>
      </trkpt>
      <trkpt lat="48.87652" lon="-0.3969">
        <ele>178.80000305176</ele>
        <time>2014-11-23T15:22:35.000Z</time>
      </trkpt>
      <trkpt lat="48.87651" lon="-0.39694">
        <ele>178.60000610352</ele>
        <time>2014-11-23T15:22:38.000Z</time>
      </trkpt>
      <trkpt lat="48.8765" lon="-0.39696">
        <ele>178.19999694824</ele>
        <time>2014-11-23T15:22:40.000Z</time>
      </trkpt>
      <trkpt lat="48.87649" lon="-0.39698">
        <ele>178.39999389648</ele>
        <time>2014-11-23T15:22:42.000Z</time>
      </trkpt>
      <trkpt lat="48.87648" lon="-0.39701">
        <ele>178.60000610352</ele>
        <time>2014-11-23T15:22:45.000Z</time>
      </trkpt>
      <trkpt lat="48.87647" lon="-0.39706">
        <ele>178.80000305176</ele>
        <time>2014-11-23T15:22:48.000Z</time>
      </trkpt>
      <trkpt lat="48.87647" lon="-0.39709">
        <ele>178.60000610352</ele>
        <time>2014-11-23T15:22:51.000Z</time>
      </trkpt>
      <trkpt lat="48.87647" lon="-0.39713">
        <ele>178.80000305176</ele>
        <time>2014-11-23T15:22:53.000Z</time>
      </trkpt>
      <trkpt lat="48.87646" lon="-0.39716">
        <ele>178.39999389648</ele>
        <time>2014-11-23T15:22:55.000Z</time>
      </trkpt>
      <trkpt lat="48.87646" lon="-0.39721">
        <ele>177.80000305176</ele>
        <time>2014-11-23T15:22:57.000Z</time>
      </trkpt>
      <trkpt lat="48.87646" lon="-0.39724">
        <ele>177.39999389648</ele>
        <time>2014-11-23T15:23:00.000Z</time>
      </trkpt>
      <trkpt lat="48.87646" lon="-0.39726">
        <ele>177.19999694824</ele>
        <time>2014-11-23T15:23:02.000Z</time>
      </trkpt>
      <trkpt lat="48.87645" lon="-0.39729">
        <ele>176.39999389648</ele>
        <time>2014-11-23T15:23:05.000Z</time>
      </trkpt>
      <trkpt lat="48.87644" lon="-0.39732">
        <ele>176.19999694824</ele>
        <time>2014-11-23T15:23:07.000Z</time>
      </trkpt>
      <trkpt lat="48.87643" lon="-0.39737">
        <ele>175.80000305176</ele>
        <time>2014-11-23T15:23:10.000Z</time>
      </trkpt>
      <trkpt lat="48.87643" lon="-0.39742">
        <ele>175</ele>
        <time>2014-11-23T15:23:12.000Z</time>
      </trkpt>
      <trkpt lat="48.87642" lon="-0.39746">
        <ele>174.19999694824</ele>
        <time>2014-11-23T15:23:14.000Z</time>
      </trkpt>
      <trkpt lat="48.8764" lon="-0.39749">
        <ele>174</ele>
        <time>2014-11-23T15:23:17.000Z</time>
      </trkpt>
      <trkpt lat="48.87639" lon="-0.39753">
        <ele>173.60000610352</ele>
        <time>2014-11-23T15:23:20.000Z</time>
      </trkpt>
      <trkpt lat="48.87634" lon="-0.39771">
        <ele>173.39999389648</ele>
        <time>2014-11-23T15:23:30.000Z</time>
      </trkpt>
      <trkpt lat="48.87633" lon="-0.39776">
        <ele>173.39999389648</ele>
        <time>2014-11-23T15:23:33.000Z</time>
      </trkpt>
      <trkpt lat="48.87633" lon="-0.3978">
        <ele>173.39999389648</ele>
        <time>2014-11-23T15:23:35.000Z</time>
      </trkpt>
      <trkpt lat="48.87633" lon="-0.39784">
        <ele>173.80000305176</ele>
        <time>2014-11-23T15:23:37.000Z</time>
      </trkpt>
      <trkpt lat="48.87632" lon="-0.39788">
        <ele>174</ele>
        <time>2014-11-23T15:23:40.000Z</time>
      </trkpt>
      <trkpt lat="48.8763" lon="-0.39793">
        <ele>174.19999694824</ele>
        <time>2014-11-23T15:23:43.000Z</time>
      </trkpt>
      <trkpt lat="48.8763" lon="-0.39797">
        <ele>174.19999694824</ele>
        <time>2014-11-23T15:23:45.000Z</time>
      </trkpt>
      <trkpt lat="48.8763" lon="-0.398">
        <ele>173.80000305176</ele>
        <time>2014-11-23T15:23:48.000Z</time>
      </trkpt>
      <trkpt lat="48.8763" lon="-0.39804">
        <ele>173.39999389648</ele>
        <time>2014-11-23T15:23:51.000Z</time>
      </trkpt>
      <trkpt lat="48.87628" lon="-0.39808">
        <ele>173.39999389648</ele>
        <time>2014-11-23T15:23:53.000Z</time>
      </trkpt>
      <trkpt lat="48.87626" lon="-0.39814">
        <ele>173.39999389648</ele>
        <time>2014-11-23T15:23:56.000Z</time>
      </trkpt>
      <trkpt lat="48.87624" lon="-0.39818">
        <ele>173.60000610352</ele>
        <time>2014-11-23T15:23:59.000Z</time>
      </trkpt>
      <trkpt lat="48.87623" lon="-0.39823">
        <ele>174.19999694824</ele>
        <time>2014-11-23T15:24:03.000Z</time>
      </trkpt>
      <trkpt lat="48.87622" lon="-0.39826">
        <ele>174.39999389648</ele>
        <time>2014-11-23T15:24:05.000Z</time>
      </trkpt>
      <trkpt lat="48.87622" lon="-0.3983">
        <ele>174.39999389648</ele>
        <time>2014-11-23T15:24:08.000Z</time>
      </trkpt>
      <trkpt lat="48.87622" lon="-0.39833">
        <ele>174.19999694824</ele>
        <time>2014-11-23T15:24:10.000Z</time>
      </trkpt>
      <trkpt lat="48.87622" lon="-0.39837">
        <ele>173.60000610352</ele>
        <time>2014-11-23T15:24:13.000Z</time>
      </trkpt>
      <trkpt lat="48.87621" lon="-0.39841">
        <ele>172.60000610352</ele>
        <time>2014-11-23T15:24:15.000Z</time>
      </trkpt>
      <trkpt lat="48.87617" lon="-0.39852">
        <ele>172.60000610352</ele>
        <time>2014-11-23T15:24:20.000Z</time>
      </trkpt>
      <trkpt lat="48.87616" lon="-0.39855">
        <ele>172.39999389648</ele>
        <time>2014-11-23T15:24:23.000Z</time>
      </trkpt>
      <trkpt lat="48.87616" lon="-0.39858">
        <ele>172.19999694824</ele>
        <time>2014-11-23T15:24:25.000Z</time>
      </trkpt>
      <trkpt lat="48.87615" lon="-0.39863">
        <ele>172.60000610352</ele>
        <time>2014-11-23T15:24:28.000Z</time>
      </trkpt>
      <trkpt lat="48.87615" lon="-0.39869">
        <ele>171.80000305176</ele>
        <time>2014-11-23T15:24:31.000Z</time>
      </trkpt>
      <trkpt lat="48.87614" lon="-0.39871">
        <ele>170.80000305176</ele>
        <time>2014-11-23T15:24:33.000Z</time>
      </trkpt>
      <trkpt lat="48.87613" lon="-0.39875">
        <ele>170</ele>
        <time>2014-11-23T15:24:36.000Z</time>
      </trkpt>
      <trkpt lat="48.87612" lon="-0.39879">
        <ele>169.39999389648</ele>
        <time>2014-11-23T15:24:39.000Z</time>
      </trkpt>
      <trkpt lat="48.87611" lon="-0.39881">
        <ele>168.80000305176</ele>
        <time>2014-11-23T15:24:41.000Z</time>
      </trkpt>
      <trkpt lat="48.8761" lon="-0.39886">
        <ele>168.19999694824</ele>
        <time>2014-11-23T15:24:44.000Z</time>
      </trkpt>
      <trkpt lat="48.87609" lon="-0.3989">
        <ele>167.39999389648</ele>
        <time>2014-11-23T15:24:47.000Z</time>
      </trkpt>
      <trkpt lat="48.87607" lon="-0.39896">
        <ele>166.60000610352</ele>
        <time>2014-11-23T15:24:50.000Z</time>
      </trkpt>
      <trkpt lat="48.87605" lon="-0.399">
        <ele>165.60000610352</ele>
        <time>2014-11-23T15:24:52.000Z</time>
      </trkpt>
      <trkpt lat="48.87603" lon="-0.39907">
        <ele>164.39999389648</ele>
        <time>2014-11-23T15:24:55.000Z</time>
      </trkpt>
      <trkpt lat="48.87603" lon="-0.39909">
        <ele>163.39999389648</ele>
        <time>2014-11-23T15:24:57.000Z</time>
      </trkpt>
      <trkpt lat="48.87603" lon="-0.39913">
        <ele>162.60000610352</ele>
        <time>2014-11-23T15:25:00.000Z</time>
      </trkpt>
      <trkpt lat="48.87604" lon="-0.39916">
        <ele>161.80000305176</ele>
        <time>2014-11-23T15:25:03.000Z</time>
      </trkpt>
      <trkpt lat="48.87604" lon="-0.39919">
        <ele>161.19999694824</ele>
        <time>2014-11-23T15:25:05.000Z</time>
      </trkpt>
      <trkpt lat="48.87603" lon="-0.3992">
        <ele>160.39999389648</ele>
        <time>2014-11-23T15:25:10.000Z</time>
      </trkpt>
      <trkpt lat="48.87602" lon="-0.39922">
        <ele>159.60000610352</ele>
        <time>2014-11-23T15:25:12.000Z</time>
      </trkpt>
      <trkpt lat="48.87601" lon="-0.39926">
        <ele>159</ele>
        <time>2014-11-23T15:25:15.000Z</time>
      </trkpt>
      <trkpt lat="48.87599" lon="-0.3993">
        <ele>158.60000610352</ele>
        <time>2014-11-23T15:25:28.000Z</time>
      </trkpt>
      <trkpt lat="48.87598" lon="-0.39932">
        <ele>158.19999694824</ele>
        <time>2014-11-23T15:25:30.000Z</time>
      </trkpt>
      <trkpt lat="48.87597" lon="-0.39933">
        <ele>157.60000610352</ele>
        <time>2014-11-23T15:25:33.000Z</time>
      </trkpt>
      <trkpt lat="48.87596" lon="-0.39935">
        <ele>157.19999694824</ele>
        <time>2014-11-23T15:25:35.000Z</time>
      </trkpt>
      <trkpt lat="48.87595" lon="-0.39936">
        <ele>156.80000305176</ele>
        <time>2014-11-23T15:25:37.000Z</time>
      </trkpt>
      <trkpt lat="48.87592" lon="-0.39944">
        <ele>156.80000305176</ele>
        <time>2014-11-23T15:25:40.000Z</time>
      </trkpt>
      <trkpt lat="48.8759" lon="-0.39949">
        <ele>156.80000305176</ele>
        <time>2014-11-23T15:25:42.000Z</time>
      </trkpt>
      <trkpt lat="48.8759" lon="-0.39952">
        <ele>157.19999694824</ele>
        <time>2014-11-23T15:25:45.000Z</time>
      </trkpt>
      <trkpt lat="48.87588" lon="-0.39958">
        <ele>157.60000610352</ele>
        <time>2014-11-23T15:25:48.000Z</time>
      </trkpt>
      <trkpt lat="48.87586" lon="-0.39962">
        <ele>157.80000305176</ele>
        <time>2014-11-23T15:25:50.000Z</time>
      </trkpt>
      <trkpt lat="48.87585" lon="-0.39965">
        <ele>157.60000610352</ele>
        <time>2014-11-23T15:25:52.000Z</time>
      </trkpt>
      <trkpt lat="48.87583" lon="-0.39968">
        <ele>157.39999389648</ele>
        <time>2014-11-23T15:25:54.000Z</time>
      </trkpt>
      <trkpt lat="48.87581" lon="-0.39972">
        <ele>157.19999694824</ele>
        <time>2014-11-23T15:25:57.000Z</time>
      </trkpt>
      <trkpt lat="48.87576" lon="-0.39988">
        <ele>157</ele>
        <time>2014-11-23T15:26:06.000Z</time>
      </trkpt>
      <trkpt lat="48.87574" lon="-0.39995">
        <ele>156.80000305176</ele>
        <time>2014-11-23T15:26:09.000Z</time>
      </trkpt>
      <trkpt lat="48.87573" lon="-0.39999">
        <ele>156.39999389648</ele>
        <time>2014-11-23T15:26:11.000Z</time>
      </trkpt>
      <trkpt lat="48.87571" lon="-0.40006">
        <ele>155.39999389648</ele>
        <time>2014-11-23T15:26:14.000Z</time>
      </trkpt>
      <trkpt lat="48.87569" lon="-0.4001">
        <ele>154.60000610352</ele>
        <time>2014-11-23T15:26:16.000Z</time>
      </trkpt>
      <trkpt lat="48.87568" lon="-0.40013">
        <ele>153.60000610352</ele>
        <time>2014-11-23T15:26:18.000Z</time>
      </trkpt>
      <trkpt lat="48.87567" lon="-0.40018">
        <ele>152.39999389648</ele>
        <time>2014-11-23T15:26:21.000Z</time>
      </trkpt>
      <trkpt lat="48.87566" lon="-0.40023">
        <ele>151.39999389648</ele>
        <time>2014-11-23T15:26:24.000Z</time>
      </trkpt>
      <trkpt lat="48.87566" lon="-0.40025">
        <ele>150.80000305176</ele>
        <time>2014-11-23T15:26:26.000Z</time>
      </trkpt>
      <trkpt lat="48.87565" lon="-0.40032">
        <ele>150</ele>
        <time>2014-11-23T15:26:29.000Z</time>
      </trkpt>
      <trkpt lat="48.87564" lon="-0.4004">
        <ele>149.39999389648</ele>
        <time>2014-11-23T15:26:32.000Z</time>
      </trkpt>
      <trkpt lat="48.87563" lon="-0.40044">
        <ele>149</ele>
        <time>2014-11-23T15:26:34.000Z</time>
      </trkpt>
      <trkpt lat="48.87562" lon="-0.40048">
        <ele>148.60000610352</ele>
        <time>2014-11-23T15:26:36.000Z</time>
      </trkpt>
      <trkpt lat="48.87561" lon="-0.40052">
        <ele>147.80000305176</ele>
        <time>2014-11-23T15:26:39.000Z</time>
      </trkpt>
      <trkpt lat="48.8756" lon="-0.40057">
        <ele>147.39999389648</ele>
        <time>2014-11-23T15:26:41.000Z</time>
      </trkpt>
      <trkpt lat="48.87559" lon="-0.40062">
        <ele>147</ele>
        <time>2014-11-23T15:26:44.000Z</time>
      </trkpt>
      <trkpt lat="48.87558" lon="-0.40068">
        <ele>146.39999389648</ele>
        <time>2014-11-23T15:26:47.000Z</time>
      </trkpt>
      <trkpt lat="48.87556" lon="-0.40073">
        <ele>145.60000610352</ele>
        <time>2014-11-23T15:26:49.000Z</time>
      </trkpt>
      <trkpt lat="48.87555" lon="-0.40078">
        <ele>145</ele>
        <time>2014-11-23T15:26:51.000Z</time>
      </trkpt>
      <trkpt lat="48.87553" lon="-0.40084">
        <ele>144.19999694824</ele>
        <time>2014-11-23T15:26:54.000Z</time>
      </trkpt>
      <trkpt lat="48.87553" lon="-0.40088">
        <ele>143.60000610352</ele>
        <time>2014-11-23T15:26:56.000Z</time>
      </trkpt>
      <trkpt lat="48.87553" lon="-0.4009">
        <ele>143.19999694824</ele>
        <time>2014-11-23T15:26:59.000Z</time>
      </trkpt>
      <trkpt lat="48.87552" lon="-0.40092">
        <ele>142.80000305176</ele>
        <time>2014-11-23T15:27:01.000Z</time>
      </trkpt>
      <trkpt lat="48.8755" lon="-0.40099">
        <ele>142.19999694824</ele>
        <time>2014-11-23T15:27:04.000Z</time>
      </trkpt>
      <trkpt lat="48.8755" lon="-0.40102">
        <ele>141.39999389648</ele>
        <time>2014-11-23T15:27:07.000Z</time>
      </trkpt>
      <trkpt lat="48.87549" lon="-0.40108">
        <ele>140.19999694824</ele>
        <time>2014-11-23T15:27:10.000Z</time>
      </trkpt>
      <trkpt lat="48.87549" lon="-0.40112">
        <ele>139.19999694824</ele>
        <time>2014-11-23T15:27:12.000Z</time>
      </trkpt>
      <trkpt lat="48.87549" lon="-0.40115">
        <ele>138.39999389648</ele>
        <time>2014-11-23T15:27:14.000Z</time>
      </trkpt>
      <trkpt lat="48.87549" lon="-0.40121">
        <ele>137.60000610352</ele>
        <time>2014-11-23T15:27:17.000Z</time>
      </trkpt>
      <trkpt lat="48.87548" lon="-0.40126">
        <ele>136.80000305176</ele>
        <time>2014-11-23T15:27:19.000Z</time>
      </trkpt>
      <trkpt lat="48.87547" lon="-0.40132">
        <ele>136.19999694824</ele>
        <time>2014-11-23T15:27:21.000Z</time>
      </trkpt>
      <trkpt lat="48.87547" lon="-0.40137">
        <ele>135.39999389648</ele>
        <time>2014-11-23T15:27:24.000Z</time>
      </trkpt>
      <trkpt lat="48.87545" lon="-0.4014">
        <ele>134.60000610352</ele>
        <time>2014-11-23T15:27:27.000Z</time>
      </trkpt>
      <trkpt lat="48.87544" lon="-0.40143">
        <ele>134.19999694824</ele>
        <time>2014-11-23T15:27:29.000Z</time>
      </trkpt>
      <trkpt lat="48.87541" lon="-0.40148">
        <ele>133.80000305176</ele>
        <time>2014-11-23T15:27:32.000Z</time>
      </trkpt>
      <trkpt lat="48.87541" lon="-0.40151">
        <ele>133.80000305176</ele>
        <time>2014-11-23T15:27:34.000Z</time>
      </trkpt>
      <trkpt lat="48.87541" lon="-0.40154">
        <ele>133.80000305176</ele>
        <time>2014-11-23T15:27:36.000Z</time>
      </trkpt>
      <trkpt lat="48.87539" lon="-0.40158">
        <ele>134</ele>
        <time>2014-11-23T15:27:38.000Z</time>
      </trkpt>
      <trkpt lat="48.87538" lon="-0.40163">
        <ele>133.80000305176</ele>
        <time>2014-11-23T15:27:41.000Z</time>
      </trkpt>
      <trkpt lat="48.87538" lon="-0.40167">
        <ele>134</ele>
        <time>2014-11-23T15:27:43.000Z</time>
      </trkpt>
      <trkpt lat="48.87538" lon="-0.40172">
        <ele>133.80000305176</ele>
        <time>2014-11-23T15:27:45.000Z</time>
      </trkpt>
      <trkpt lat="48.87539" lon="-0.40182">
        <ele>133.39999389648</ele>
        <time>2014-11-23T15:27:51.000Z</time>
      </trkpt>
      <trkpt lat="48.8754" lon="-0.40207">
        <ele>133.80000305176</ele>
        <time>2014-11-23T15:28:04.000Z</time>
      </trkpt>
      <trkpt lat="48.87539" lon="-0.40215">
        <ele>134</ele>
        <time>2014-11-23T15:28:07.000Z</time>
      </trkpt>
      <trkpt lat="48.87538" lon="-0.40219">
        <ele>134.39999389648</ele>
        <time>2014-11-23T15:28:09.000Z</time>
      </trkpt>
      <trkpt lat="48.87537" lon="-0.40229">
        <ele>134.60000610352</ele>
        <time>2014-11-23T15:28:14.000Z</time>
      </trkpt>
      <trkpt lat="48.87537" lon="-0.40234">
        <ele>134.39999389648</ele>
        <time>2014-11-23T15:28:16.000Z</time>
      </trkpt>
      <trkpt lat="48.87536" lon="-0.40239">
        <ele>134.19999694824</ele>
        <time>2014-11-23T15:28:18.000Z</time>
      </trkpt>
      <trkpt lat="48.87536" lon="-0.40242">
        <ele>134</ele>
        <time>2014-11-23T15:28:21.000Z</time>
      </trkpt>
      <trkpt lat="48.87535" lon="-0.40244">
        <ele>133.80000305176</ele>
        <time>2014-11-23T15:28:24.000Z</time>
      </trkpt>
      <trkpt lat="48.87536" lon="-0.40249">
        <ele>133.39999389648</ele>
        <time>2014-11-23T15:28:27.000Z</time>
      </trkpt>
      <trkpt lat="48.87537" lon="-0.40252">
        <ele>132.80000305176</ele>
        <time>2014-11-23T15:28:30.000Z</time>
      </trkpt>
      <trkpt lat="48.87536" lon="-0.40254">
        <ele>132.19999694824</ele>
        <time>2014-11-23T15:28:32.000Z</time>
      </trkpt>
      <trkpt lat="48.87536" lon="-0.40255">
        <ele>132</ele>
        <time>2014-11-23T15:28:35.000Z</time>
      </trkpt>
      <trkpt lat="48.87535" lon="-0.40256">
        <ele>132</ele>
        <time>2014-11-23T15:28:38.000Z</time>
      </trkpt>
      <trkpt lat="48.87535" lon="-0.40259">
        <ele>132</ele>
        <time>2014-11-23T15:28:40.000Z</time>
      </trkpt>
      <trkpt lat="48.87534" lon="-0.4027">
        <ele>131.80000305176</ele>
        <time>2014-11-23T15:28:46.000Z</time>
      </trkpt>
      <trkpt lat="48.87534" lon="-0.40275">
        <ele>130.80000305176</ele>
        <time>2014-11-23T15:28:48.000Z</time>
      </trkpt>
      <trkpt lat="48.87535" lon="-0.40279">
        <ele>129</ele>
        <time>2014-11-23T15:28:50.000Z</time>
      </trkpt>
      <trkpt lat="48.87537" lon="-0.40282">
        <ele>127.19999694824</ele>
        <time>2014-11-23T15:28:53.000Z</time>
      </trkpt>
      <trkpt lat="48.87538" lon="-0.40285">
        <ele>125.59999847412</ele>
        <time>2014-11-23T15:28:56.000Z</time>
      </trkpt>
      <trkpt lat="48.87538" lon="-0.40289">
        <ele>124.40000152588</ele>
        <time>2014-11-23T15:28:59.000Z</time>
      </trkpt>
      <trkpt lat="48.87538" lon="-0.40292">
        <ele>123.59999847412</ele>
        <time>2014-11-23T15:29:01.000Z</time>
      </trkpt>
      <trkpt lat="48.87538" lon="-0.40294">
        <ele>123.80000305176</ele>
        <time>2014-11-23T15:29:03.000Z</time>
      </trkpt>
      <trkpt lat="48.87538" lon="-0.40298">
        <ele>124.19999694824</ele>
        <time>2014-11-23T15:29:05.000Z</time>
      </trkpt>
      <trkpt lat="48.87537" lon="-0.40302">
        <ele>124.19999694824</ele>
        <time>2014-11-23T15:29:08.000Z</time>
      </trkpt>
      <trkpt lat="48.87537" lon="-0.40309">
        <ele>123.80000305176</ele>
        <time>2014-11-23T15:29:11.000Z</time>
      </trkpt>
      <trkpt lat="48.87537" lon="-0.40315">
        <ele>123.19999694824</ele>
        <time>2014-11-23T15:29:14.000Z</time>
      </trkpt>
      <trkpt lat="48.87535" lon="-0.40323">
        <ele>122.40000152588</ele>
        <time>2014-11-23T15:29:17.000Z</time>
      </trkpt>
      <trkpt lat="48.87534" lon="-0.40329">
        <ele>121.19999694824</ele>
        <time>2014-11-23T15:29:20.000Z</time>
      </trkpt>
      <trkpt lat="48.87533" lon="-0.40336">
        <ele>120.40000152588</ele>
        <time>2014-11-23T15:29:23.000Z</time>
      </trkpt>
      <trkpt lat="48.87533" lon="-0.4034">
        <ele>119.40000152588</ele>
        <time>2014-11-23T15:29:25.000Z</time>
      </trkpt>
      <trkpt lat="48.87534" lon="-0.40345">
        <ele>118.40000152588</ele>
        <time>2014-11-23T15:29:28.000Z</time>
      </trkpt>
      <trkpt lat="48.87534" lon="-0.4035">
        <ele>117.40000152588</ele>
        <time>2014-11-23T15:29:31.000Z</time>
      </trkpt>
      <trkpt lat="48.87533" lon="-0.40352">
        <ele>116.80000305176</ele>
        <time>2014-11-23T15:29:33.000Z</time>
      </trkpt>
      <trkpt lat="48.87531" lon="-0.40357">
        <ele>116.19999694824</ele>
        <time>2014-11-23T15:29:35.000Z</time>
      </trkpt>
      <trkpt lat="48.87529" lon="-0.40361">
        <ele>116</ele>
        <time>2014-11-23T15:29:37.000Z</time>
      </trkpt>
      <trkpt lat="48.87528" lon="-0.40367">
        <ele>115.59999847412</ele>
        <time>2014-11-23T15:29:40.000Z</time>
      </trkpt>
      <trkpt lat="48.87526" lon="-0.40371">
        <ele>115.40000152588</ele>
        <time>2014-11-23T15:29:42.000Z</time>
      </trkpt>
      <trkpt lat="48.87525" lon="-0.40375">
        <ele>115.19999694824</ele>
        <time>2014-11-23T15:29:44.000Z</time>
      </trkpt>
      <trkpt lat="48.87523" lon="-0.40382">
        <ele>114.80000305176</ele>
        <time>2014-11-23T15:29:47.000Z</time>
      </trkpt>
      <trkpt lat="48.87521" lon="-0.40388">
        <ele>114.19999694824</ele>
        <time>2014-11-23T15:29:50.000Z</time>
      </trkpt>
      <trkpt lat="48.87521" lon="-0.40391">
        <ele>114.19999694824</ele>
        <time>2014-11-23T15:29:52.000Z</time>
      </trkpt>
      <trkpt lat="48.87521" lon="-0.40392">
        <ele>113.80000305176</ele>
        <time>2014-11-23T15:29:54.000Z</time>
      </trkpt>
      <trkpt lat="48.8752" lon="-0.40395">
        <ele>113.40000152588</ele>
        <time>2014-11-23T15:29:57.000Z</time>
      </trkpt>
      <trkpt lat="48.87519" lon="-0.40398">
        <ele>113.19999694824</ele>
        <time>2014-11-23T15:29:59.000Z</time>
      </trkpt>
      <trkpt lat="48.87515" lon="-0.40408">
        <ele>112.59999847412</ele>
        <time>2014-11-23T15:30:04.000Z</time>
      </trkpt>
      <trkpt lat="48.87514" lon="-0.40414">
        <ele>112</ele>
        <time>2014-11-23T15:30:06.000Z</time>
      </trkpt>
      <trkpt lat="48.87513" lon="-0.40417">
        <ele>111.40000152588</ele>
        <time>2014-11-23T15:30:08.000Z</time>
      </trkpt>
      <trkpt lat="48.87512" lon="-0.4042">
        <ele>110.59999847412</ele>
        <time>2014-11-23T15:30:10.000Z</time>
      </trkpt>
      <trkpt lat="48.8751" lon="-0.40425">
        <ele>109.59999847412</ele>
        <time>2014-11-23T15:30:13.000Z</time>
      </trkpt>
      <trkpt lat="48.8751" lon="-0.40429">
        <ele>109.19999694824</ele>
        <time>2014-11-23T15:30:15.000Z</time>
      </trkpt>
      <trkpt lat="48.87508" lon="-0.40433">
        <ele>108.80000305176</ele>
        <time>2014-11-23T15:30:17.000Z</time>
      </trkpt>
      <trkpt lat="48.87505" lon="-0.40436">
        <ele>108.40000152588</ele>
        <time>2014-11-23T15:30:20.000Z</time>
      </trkpt>
      <trkpt lat="48.87503" lon="-0.40439">
        <ele>108</ele>
        <time>2014-11-23T15:30:23.000Z</time>
      </trkpt>
      <trkpt lat="48.87502" lon="-0.40443">
        <ele>107.59999847412</ele>
        <time>2014-11-23T15:30:25.000Z</time>
      </trkpt>
      <trkpt lat="48.87502" lon="-0.40447">
        <ele>106.80000305176</ele>
        <time>2014-11-23T15:30:28.000Z</time>
      </trkpt>
      <trkpt lat="48.87501" lon="-0.4045">
        <ele>105.80000305176</ele>
        <time>2014-11-23T15:30:31.000Z</time>
      </trkpt>
      <trkpt lat="48.87501" lon="-0.40453">
        <ele>104.80000305176</ele>
        <time>2014-11-23T15:30:33.000Z</time>
      </trkpt>
      <trkpt lat="48.87501" lon="-0.40458">
        <ele>104</ele>
        <time>2014-11-23T15:30:36.000Z</time>
      </trkpt>
      <trkpt lat="48.87503" lon="-0.40462">
        <ele>103.19999694824</ele>
        <time>2014-11-23T15:30:39.000Z</time>
      </trkpt>
      <trkpt lat="48.87502" lon="-0.40465">
        <ele>102.59999847412</ele>
        <time>2014-11-23T15:30:41.000Z</time>
      </trkpt>
      <trkpt lat="48.87501" lon="-0.40469">
        <ele>102.19999694824</ele>
        <time>2014-11-23T15:30:44.000Z</time>
      </trkpt>
      <trkpt lat="48.87498" lon="-0.40474">
        <ele>101.80000305176</ele>
        <time>2014-11-23T15:30:47.000Z</time>
      </trkpt>
      <trkpt lat="48.87497" lon="-0.40477">
        <ele>101.19999694824</ele>
        <time>2014-11-23T15:30:49.000Z</time>
      </trkpt>
      <trkpt lat="48.87495" lon="-0.40483">
        <ele>100.80000305176</ele>
        <time>2014-11-23T15:30:52.000Z</time>
      </trkpt>
      <trkpt lat="48.87494" lon="-0.40489">
        <ele>100</ele>
        <time>2014-11-23T15:30:55.000Z</time>
      </trkpt>
      <trkpt lat="48.87493" lon="-0.40493">
        <ele>99.400001525879</ele>
        <time>2014-11-23T15:30:57.000Z</time>
      </trkpt>
      <trkpt lat="48.87492" lon="-0.40498">
        <ele>98.599998474121</ele>
        <time>2014-11-23T15:31:00.000Z</time>
      </trkpt>
      <trkpt lat="48.87491" lon="-0.40504">
        <ele>98</ele>
        <time>2014-11-23T15:31:03.000Z</time>
      </trkpt>
      <trkpt lat="48.87489" lon="-0.40508">
        <ele>97.199996948242</ele>
        <time>2014-11-23T15:31:05.000Z</time>
      </trkpt>
      <trkpt lat="48.87487" lon="-0.40517">
        <ele>96.800003051758</ele>
        <time>2014-11-23T15:31:08.000Z</time>
      </trkpt>
      <trkpt lat="48.87487" lon="-0.40523">
        <ele>96</ele>
        <time>2014-11-23T15:31:10.000Z</time>
      </trkpt>
      <trkpt lat="48.87486" lon="-0.40533">
        <ele>95.400001525879</ele>
        <time>2014-11-23T15:31:13.000Z</time>
      </trkpt>
      <trkpt lat="48.87484" lon="-0.4054">
        <ele>94.800003051758</ele>
        <time>2014-11-23T15:31:16.000Z</time>
      </trkpt>
      <trkpt lat="48.87482" lon="-0.40546">
        <ele>94.400001525879</ele>
        <time>2014-11-23T15:31:19.000Z</time>
      </trkpt>
      <trkpt lat="48.87481" lon="-0.40551">
        <ele>94</ele>
        <time>2014-11-23T15:31:21.000Z</time>
      </trkpt>
      <trkpt lat="48.87481" lon="-0.40558">
        <ele>94</ele>
        <time>2014-11-23T15:31:24.000Z</time>
      </trkpt>
      <trkpt lat="48.8748" lon="-0.40564">
        <ele>94.199996948242</ele>
        <time>2014-11-23T15:31:27.000Z</time>
      </trkpt>
      <trkpt lat="48.87478" lon="-0.40566">
        <ele>93.800003051758</ele>
        <time>2014-11-23T15:31:29.000Z</time>
      </trkpt>
      <trkpt lat="48.87475" lon="-0.40568">
        <ele>93.400001525879</ele>
        <time>2014-11-23T15:31:32.000Z</time>
      </trkpt>
      <trkpt lat="48.87473" lon="-0.4057">
        <ele>92.599998474121</ele>
        <time>2014-11-23T15:31:35.000Z</time>
      </trkpt>
      <trkpt lat="48.87471" lon="-0.40573">
        <ele>91.800003051758</ele>
        <time>2014-11-23T15:31:37.000Z</time>
      </trkpt>
      <trkpt lat="48.8747" lon="-0.40579">
        <ele>90.800003051758</ele>
        <time>2014-11-23T15:31:40.000Z</time>
      </trkpt>
      <trkpt lat="48.87468" lon="-0.40585">
        <ele>90.400001525879</ele>
        <time>2014-11-23T15:31:43.000Z</time>
      </trkpt>
      <trkpt lat="48.87466" lon="-0.40591">
        <ele>90</ele>
        <time>2014-11-23T15:31:46.000Z</time>
      </trkpt>
      <trkpt lat="48.87464" lon="-0.40593">
        <ele>89.800003051758</ele>
        <time>2014-11-23T15:31:48.000Z</time>
      </trkpt>
      <trkpt lat="48.87463" lon="-0.40595">
        <ele>89.199996948242</ele>
        <time>2014-11-23T15:31:50.000Z</time>
      </trkpt>
      <trkpt lat="48.87461" lon="-0.40601">
        <ele>88</ele>
        <time>2014-11-23T15:31:53.000Z</time>
      </trkpt>
      <trkpt lat="48.87461" lon="-0.40606">
        <ele>86.800003051758</ele>
        <time>2014-11-23T15:31:56.000Z</time>
      </trkpt>
      <trkpt lat="48.8746" lon="-0.4061">
        <ele>85.599998474121</ele>
        <time>2014-11-23T15:31:59.000Z</time>
      </trkpt>
      <trkpt lat="48.8746" lon="-0.40613">
        <ele>84.800003051758</ele>
        <time>2014-11-23T15:32:01.000Z</time>
      </trkpt>
      <trkpt lat="48.87459" lon="-0.40618">
        <ele>84.199996948242</ele>
        <time>2014-11-23T15:32:04.000Z</time>
      </trkpt>
      <trkpt lat="48.87457" lon="-0.40627">
        <ele>84.400001525879</ele>
        <time>2014-11-23T15:32:08.000Z</time>
      </trkpt>
      <trkpt lat="48.87455" lon="-0.40636">
        <ele>84.199996948242</ele>
        <time>2014-11-23T15:32:11.000Z</time>
      </trkpt>
      <trkpt lat="48.87453" lon="-0.40644">
        <ele>83.800003051758</ele>
        <time>2014-11-23T15:32:14.000Z</time>
      </trkpt>
      <trkpt lat="48.87452" lon="-0.40648">
        <ele>83.599998474121</ele>
        <time>2014-11-23T15:32:16.000Z</time>
      </trkpt>
      <trkpt lat="48.87451" lon="-0.40653">
        <ele>82.800003051758</ele>
        <time>2014-11-23T15:32:19.000Z</time>
      </trkpt>
      <trkpt lat="48.8745" lon="-0.40659">
        <ele>81.800003051758</ele>
        <time>2014-11-23T15:32:22.000Z</time>
      </trkpt>
      <trkpt lat="48.8745" lon="-0.40663">
        <ele>81</ele>
        <time>2014-11-23T15:32:25.000Z</time>
      </trkpt>
      <trkpt lat="48.87449" lon="-0.40667">
        <ele>80</ele>
        <time>2014-11-23T15:32:27.000Z</time>
      </trkpt>
      <trkpt lat="48.87449" lon="-0.40672">
        <ele>78.800003051758</ele>
        <time>2014-11-23T15:32:30.000Z</time>
      </trkpt>
      <trkpt lat="48.87449" lon="-0.40676">
        <ele>78.199996948242</ele>
        <time>2014-11-23T15:32:32.000Z</time>
      </trkpt>
      <trkpt lat="48.87449" lon="-0.40681">
        <ele>77.400001525879</ele>
        <time>2014-11-23T15:32:35.000Z</time>
      </trkpt>
      <trkpt lat="48.87449" lon="-0.40686">
        <ele>76.599998474121</ele>
        <time>2014-11-23T15:32:38.000Z</time>
      </trkpt>
      <trkpt lat="48.87449" lon="-0.40692">
        <ele>76</ele>
        <time>2014-11-23T15:32:40.000Z</time>
      </trkpt>
      <trkpt lat="48.87449" lon="-0.40699">
        <ele>75.599998474121</ele>
        <time>2014-11-23T15:32:43.000Z</time>
      </trkpt>
      <trkpt lat="48.8745" lon="-0.40707">
        <ele>75.199996948242</ele>
        <time>2014-11-23T15:32:46.000Z</time>
      </trkpt>
      <trkpt lat="48.87451" lon="-0.40712">
        <ele>75</ele>
        <time>2014-11-23T15:32:49.000Z</time>
      </trkpt>
      <trkpt lat="48.87452" lon="-0.40718">
        <ele>74.800003051758</ele>
        <time>2014-11-23T15:32:52.000Z</time>
      </trkpt>
      <trkpt lat="48.87455" lon="-0.40722">
        <ele>74.400001525879</ele>
        <time>2014-11-23T15:32:55.000Z</time>
      </trkpt>
      <trkpt lat="48.87458" lon="-0.40724">
        <ele>74.199996948242</ele>
        <time>2014-11-23T15:32:57.000Z</time>
      </trkpt>
      <trkpt lat="48.87461" lon="-0.40725">
        <ele>73.800003051758</ele>
        <time>2014-11-23T15:33:00.000Z</time>
      </trkpt>
      <trkpt lat="48.87463" lon="-0.40726">
        <ele>73.400001525879</ele>
        <time>2014-11-23T15:33:03.000Z</time>
      </trkpt>
      <trkpt lat="48.87466" lon="-0.40727">
        <ele>73.199996948242</ele>
        <time>2014-11-23T15:33:05.000Z</time>
      </trkpt>
      <trkpt lat="48.8747" lon="-0.40727">
        <ele>73.199996948242</ele>
        <time>2014-11-23T15:33:08.000Z</time>
      </trkpt>
      <trkpt lat="48.87479" lon="-0.40726">
        <ele>73.400001525879</ele>
        <time>2014-11-23T15:33:13.000Z</time>
      </trkpt>
      <trkpt lat="48.87482" lon="-0.40724">
        <ele>73.599998474121</ele>
        <time>2014-11-23T15:33:15.000Z</time>
      </trkpt>
      <trkpt lat="48.87487" lon="-0.40723">
        <ele>73.800003051758</ele>
        <time>2014-11-23T15:33:18.000Z</time>
      </trkpt>
      <trkpt lat="48.87489" lon="-0.40723">
        <ele>74</ele>
        <time>2014-11-23T15:33:20.000Z</time>
      </trkpt>
      <trkpt lat="48.87489" lon="-0.40725">
        <ele>73</ele>
        <time>2014-11-23T15:33:23.000Z</time>
      </trkpt>
      <trkpt lat="48.87485" lon="-0.40729">
        <ele>71.400001525879</ele>
        <time>2014-11-23T15:33:26.000Z</time>
      </trkpt>
      <trkpt lat="48.87481" lon="-0.40731">
        <ele>69.599998474121</ele>
        <time>2014-11-23T15:33:29.000Z</time>
      </trkpt>
      <trkpt lat="48.87479" lon="-0.40733">
        <ele>67.800003051758</ele>
        <time>2014-11-23T15:33:31.000Z</time>
      </trkpt>
      <trkpt lat="48.87477" lon="-0.40734">
        <ele>65.800003051758</ele>
        <time>2014-11-23T15:33:33.000Z</time>
      </trkpt>
      <trkpt lat="48.87474" lon="-0.40739">
        <ele>64.800003051758</ele>
        <time>2014-11-23T15:33:36.000Z</time>
      </trkpt>
      <trkpt lat="48.87471" lon="-0.40743">
        <ele>64.199996948242</ele>
        <time>2014-11-23T15:33:39.000Z</time>
      </trkpt>
      <trkpt lat="48.87469" lon="-0.40746">
        <ele>63.599998474121</ele>
        <time>2014-11-23T15:33:41.000Z</time>
      </trkpt>
      <trkpt lat="48.87467" lon="-0.40748">
        <ele>63</ele>
        <time>2014-11-23T15:33:43.000Z</time>
      </trkpt>
      <trkpt lat="48.87464" lon="-0.40753">
        <ele>62.599998474121</ele>
        <time>2014-11-23T15:33:46.000Z</time>
      </trkpt>
      <trkpt lat="48.87461" lon="-0.40756">
        <ele>62</ele>
        <time>2014-11-23T15:33:49.000Z</time>
      </trkpt>
      <trkpt lat="48.87458" lon="-0.40758">
        <ele>61.599998474121</ele>
        <time>2014-11-23T15:33:52.000Z</time>
      </trkpt>
      <trkpt lat="48.87456" lon="-0.4076">
        <ele>61.200000762939</ele>
        <time>2014-11-23T15:33:55.000Z</time>
      </trkpt>
      <trkpt lat="48.87455" lon="-0.40764">
        <ele>60.799999237061</ele>
        <time>2014-11-23T15:33:57.000Z</time>
      </trkpt>
      <trkpt lat="48.87453" lon="-0.40771">
        <ele>60.400001525879</ele>
        <time>2014-11-23T15:34:00.000Z</time>
      </trkpt>
      <trkpt lat="48.87452" lon="-0.40773">
        <ele>60</ele>
        <time>2014-11-23T15:34:02.000Z</time>
      </trkpt>
      <trkpt lat="48.87449" lon="-0.40774">
        <ele>59.599998474121</ele>
        <time>2014-11-23T15:34:04.000Z</time>
      </trkpt>
      <trkpt lat="48.87447" lon="-0.40775">
        <ele>59.400001525879</ele>
        <time>2014-11-23T15:34:06.000Z</time>
      </trkpt>
      <trkpt lat="48.87444" lon="-0.40777">
        <ele>59</ele>
        <time>2014-11-23T15:34:09.000Z</time>
      </trkpt>
      <trkpt lat="48.8744" lon="-0.40782">
        <ele>58.799999237061</ele>
        <time>2014-11-23T15:34:12.000Z</time>
      </trkpt>
      <trkpt lat="48.87437" lon="-0.40786">
        <ele>58.400001525879</ele>
        <time>2014-11-23T15:34:15.000Z</time>
      </trkpt>
      <trkpt lat="48.87436" lon="-0.40787">
        <ele>58</ele>
        <time>2014-11-23T15:34:17.000Z</time>
      </trkpt>
      <trkpt lat="48.87431" lon="-0.40789">
        <ele>57.599998474121</ele>
        <time>2014-11-23T15:34:20.000Z</time>
      </trkpt>
      <trkpt lat="48.87427" lon="-0.40787">
        <ele>57.200000762939</ele>
        <time>2014-11-23T15:34:23.000Z</time>
      </trkpt>
      <trkpt lat="48.87423" lon="-0.40785">
        <ele>56.400001525879</ele>
        <time>2014-11-23T15:34:26.000Z</time>
      </trkpt>
      <trkpt lat="48.87421" lon="-0.40783">
        <ele>56.200000762939</ele>
        <time>2014-11-23T15:34:28.000Z</time>
      </trkpt>
      <trkpt lat="48.87419" lon="-0.40781">
        <ele>56</ele>
        <time>2014-11-23T15:34:31.000Z</time>
      </trkpt>
      <trkpt lat="48.87415" lon="-0.40782">
        <ele>55.799999237061</ele>
        <time>2014-11-23T15:34:33.000Z</time>
      </trkpt>
      <trkpt lat="48.87412" lon="-0.40781">
        <ele>55.599998474121</ele>
        <time>2014-11-23T15:34:36.000Z</time>
      </trkpt>
      <trkpt lat="48.87411" lon="-0.40779">
        <ele>55.599998474121</ele>
        <time>2014-11-23T15:34:38.000Z</time>
      </trkpt>
      <trkpt lat="48.87408" lon="-0.40779">
        <ele>55.400001525879</ele>
        <time>2014-11-23T15:34:40.000Z</time>
      </trkpt>
      <trkpt lat="48.87403" lon="-0.4078">
        <ele>55</ele>
        <time>2014-11-23T15:34:43.000Z</time>
      </trkpt>
      <trkpt lat="48.87401" lon="-0.40779">
        <ele>54.599998474121</ele>
        <time>2014-11-23T15:34:45.000Z</time>
      </trkpt>
      <trkpt lat="48.87397" lon="-0.40777">
        <ele>54.599998474121</ele>
        <time>2014-11-23T15:34:48.000Z</time>
      </trkpt>
      <trkpt lat="48.87392" lon="-0.40776">
        <ele>54.599998474121</ele>
        <time>2014-11-23T15:34:51.000Z</time>
      </trkpt>
      <trkpt lat="48.8739" lon="-0.40774">
        <ele>54.599998474121</ele>
        <time>2014-11-23T15:34:53.000Z</time>
      </trkpt>
      <trkpt lat="48.87388" lon="-0.40773">
        <ele>54.599998474121</ele>
        <time>2014-11-23T15:34:55.000Z</time>
      </trkpt>
      <trkpt lat="48.87387" lon="-0.40772">
        <ele>54.400001525879</ele>
        <time>2014-11-23T15:34:57.000Z</time>
      </trkpt>
      <trkpt lat="48.87386" lon="-0.40772">
        <ele>54</ele>
        <time>2014-11-23T15:34:59.000Z</time>
      </trkpt>
      <trkpt lat="48.87383" lon="-0.40775">
        <ele>53.400001525879</ele>
        <time>2014-11-23T15:35:02.000Z</time>
      </trkpt>
      <trkpt lat="48.87381" lon="-0.40779">
        <ele>52.799999237061</ele>
        <time>2014-11-23T15:35:04.000Z</time>
      </trkpt>
      <trkpt lat="48.87379" lon="-0.40783">
        <ele>52.200000762939</ele>
        <time>2014-11-23T15:35:06.000Z</time>
      </trkpt>
      <trkpt lat="48.87378" lon="-0.40787">
        <ele>52</ele>
        <time>2014-11-23T15:35:08.000Z</time>
      </trkpt>
      <trkpt lat="48.87375" lon="-0.40794">
        <ele>51.599998474121</ele>
        <time>2014-11-23T15:35:11.000Z</time>
      </trkpt>
      <trkpt lat="48.87373" lon="-0.40798">
        <ele>51.400001525879</ele>
        <time>2014-11-23T15:35:13.000Z</time>
      </trkpt>
      <trkpt lat="48.87372" lon="-0.408">
        <ele>51</ele>
        <time>2014-11-23T15:35:16.000Z</time>
      </trkpt>
      <trkpt lat="48.87371" lon="-0.40803">
        <ele>50.799999237061</ele>
        <time>2014-11-23T15:35:18.000Z</time>
      </trkpt>
      <trkpt lat="48.87375" lon="-0.408">
        <ele>50</ele>
        <time>2014-11-23T15:35:26.000Z</time>
      </trkpt>
      <trkpt lat="48.87374" lon="-0.408">
        <ele>49.200000762939</ele>
        <time>2014-11-23T15:35:40.000Z</time>
      </trkpt>
      <trkpt lat="48.87374" lon="-0.408">
        <ele>49.200000762939</ele>
        <time>2014-11-23T15:36:00.000Z</time>
      </trkpt>
      <trkpt lat="48.87373" lon="-0.40799">
        <ele>48.200000762939</ele>
        <time>2014-11-23T15:36:17.000Z</time>
      </trkpt>
      <trkpt lat="48.87371" lon="-0.40799">
        <ele>47.599998474121</ele>
        <time>2014-11-23T15:36:31.000Z</time>
      </trkpt>
      <trkpt lat="48.87371" lon="-0.40799">
        <ele>47</ele>
        <time>2014-11-23T15:36:34.000Z</time>
      </trkpt>
      <trkpt lat="48.87369" lon="-0.40801">
        <ele>47.200000762939</ele>
        <time>2014-11-23T15:36:44.000Z</time>
      </trkpt>
      <trkpt lat="48.87368" lon="-0.40802">
        <ele>47.599998474121</ele>
        <time>2014-11-23T15:36:47.000Z</time>
      </trkpt>
      <trkpt lat="48.8737" lon="-0.40801">
        <ele>48.200000762939</ele>
        <time>2014-11-23T15:37:06.000Z</time>
      </trkpt>
      <trkpt lat="48.87371" lon="-0.40799">
        <ele>48.799999237061</ele>
        <time>2014-11-23T15:37:18.000Z</time>
      </trkpt>
      <trkpt lat="48.87371" lon="-0.40799">
        <ele>48.799999237061</ele>
        <time>2014-11-23T15:37:38.000Z</time>
      </trkpt>
      <trkpt lat="48.87372" lon="-0.40799">
        <ele>49.799999237061</ele>
        <time>2014-11-23T15:37:54.000Z</time>
      </trkpt>
      <trkpt lat="48.87372" lon="-0.40801">
        <ele>50.200000762939</ele>
        <time>2014-11-23T15:37:57.000Z</time>
      </trkpt>
      <trkpt lat="48.87373" lon="-0.40803">
        <ele>50.599998474121</ele>
        <time>2014-11-23T15:37:59.000Z</time>
      </trkpt>
      <trkpt lat="48.87373" lon="-0.40801">
        <ele>51.599998474121</ele>
        <time>2014-11-23T15:38:03.000Z</time>
      </trkpt>
      <trkpt lat="48.87376" lon="-0.40799">
        <ele>52.599998474121</ele>
        <time>2014-11-23T15:38:21.000Z</time>
      </trkpt>
      <trkpt lat="48.87377" lon="-0.40798">
        <ele>53.400001525879</ele>
        <time>2014-11-23T15:38:27.000Z</time>
      </trkpt>
      <trkpt lat="48.87378" lon="-0.40798">
        <ele>54.400001525879</ele>
        <time>2014-11-23T15:38:43.000Z</time>
      </trkpt>
      <trkpt lat="48.87377" lon="-0.408">
        <ele>55.400001525879</ele>
        <time>2014-11-23T15:38:45.000Z</time>
      </trkpt>
      <trkpt lat="48.87376" lon="-0.40801">
        <ele>55.599998474121</ele>
        <time>2014-11-23T15:38:48.000Z</time>
      </trkpt>
      <trkpt lat="48.87374" lon="-0.40803">
        <ele>55.400001525879</ele>
        <time>2014-11-23T15:38:51.000Z</time>
      </trkpt>
      <trkpt lat="48.87373" lon="-0.40805">
        <ele>55.200000762939</ele>
        <time>2014-11-23T15:38:53.000Z</time>
      </trkpt>
      <trkpt lat="48.87372" lon="-0.40808">
        <ele>54.599998474121</ele>
        <time>2014-11-23T15:38:56.000Z</time>
      </trkpt>
      <trkpt lat="48.87371" lon="-0.4081">
        <ele>54</ele>
        <time>2014-11-23T15:38:58.000Z</time>
      </trkpt>
      <trkpt lat="48.87371" lon="-0.40811">
        <ele>53</ele>
        <time>2014-11-23T15:39:00.000Z</time>
      </trkpt>
      <trkpt lat="48.87371" lon="-0.40813">
        <ele>52.200000762939</ele>
        <time>2014-11-23T15:39:02.000Z</time>
      </trkpt>
      <trkpt lat="48.8737" lon="-0.40818">
        <ele>51.200000762939</ele>
        <time>2014-11-23T15:39:05.000Z</time>
      </trkpt>
      <trkpt lat="48.8737" lon="-0.4082">
        <ele>50.799999237061</ele>
        <time>2014-11-23T15:39:07.000Z</time>
      </trkpt>
      <trkpt lat="48.87371" lon="-0.40822">
        <ele>50.599998474121</ele>
        <time>2014-11-23T15:39:09.000Z</time>
      </trkpt>
      <trkpt lat="48.87371" lon="-0.40824">
        <ele>50.799999237061</ele>
        <time>2014-11-23T15:39:12.000Z</time>
      </trkpt>
      <trkpt lat="48.8737" lon="-0.40828">
        <ele>51</ele>
        <time>2014-11-23T15:39:14.000Z</time>
      </trkpt>
      <trkpt lat="48.8737" lon="-0.40831">
        <ele>51.200000762939</ele>
        <time>2014-11-23T15:39:16.000Z</time>
      </trkpt>
      <trkpt lat="48.8737" lon="-0.40835">
        <ele>50.799999237061</ele>
        <time>2014-11-23T15:39:19.000Z</time>
      </trkpt>
      <trkpt lat="48.87369" lon="-0.40839">
        <ele>50.400001525879</ele>
        <time>2014-11-23T15:39:22.000Z</time>
      </trkpt>
      <trkpt lat="48.8737" lon="-0.40843">
        <ele>50.200000762939</ele>
        <time>2014-11-23T15:39:24.000Z</time>
      </trkpt>
      <trkpt lat="48.8737" lon="-0.40847">
        <ele>50</ele>
        <time>2014-11-23T15:39:26.000Z</time>
      </trkpt>
      <trkpt lat="48.87371" lon="-0.40857">
        <ele>50.400001525879</ele>
        <time>2014-11-23T15:39:31.000Z</time>
      </trkpt>
      <trkpt lat="48.87371" lon="-0.40864">
        <ele>50.799999237061</ele>
        <time>2014-11-23T15:39:34.000Z</time>
      </trkpt>
      <trkpt lat="48.8737" lon="-0.40871">
        <ele>51.200000762939</ele>
        <time>2014-11-23T15:39:37.000Z</time>
      </trkpt>
      <trkpt lat="48.8737" lon="-0.40875">
        <ele>51.599998474121</ele>
        <time>2014-11-23T15:39:39.000Z</time>
      </trkpt>
      <trkpt lat="48.8737" lon="-0.40879">
        <ele>51.799999237061</ele>
        <time>2014-11-23T15:39:41.000Z</time>
      </trkpt>
      <trkpt lat="48.87371" lon="-0.40884">
        <ele>52.200000762939</ele>
        <time>2014-11-23T15:39:44.000Z</time>
      </trkpt>
      <trkpt lat="48.8737" lon="-0.40892">
        <ele>52.400001525879</ele>
        <time>2014-11-23T15:39:47.000Z</time>
      </trkpt>
      <trkpt lat="48.8737" lon="-0.40895">
        <ele>52.599998474121</ele>
        <time>2014-11-23T15:39:49.000Z</time>
      </trkpt>
      <trkpt lat="48.87373" lon="-0.40898">
        <ele>53</ele>
        <time>2014-11-23T15:39:52.000Z</time>
      </trkpt>
      <trkpt lat="48.87374" lon="-0.40902">
        <ele>53.400001525879</ele>
        <time>2014-11-23T15:39:54.000Z</time>
      </trkpt>
      <trkpt lat="48.87375" lon="-0.40905">
        <ele>53.599998474121</ele>
        <time>2014-11-23T15:39:56.000Z</time>
      </trkpt>
      <trkpt lat="48.87376" lon="-0.40909">
        <ele>54</ele>
        <time>2014-11-23T15:39:58.000Z</time>
      </trkpt>
      <trkpt lat="48.87377" lon="-0.40912">
        <ele>54.400001525879</ele>
        <time>2014-11-23T15:40:00.000Z</time>
      </trkpt>
      <trkpt lat="48.87378" lon="-0.40918">
        <ele>54.799999237061</ele>
        <time>2014-11-23T15:40:03.000Z</time>
      </trkpt>
      <trkpt lat="48.87378" lon="-0.40924">
        <ele>55.200000762939</ele>
        <time>2014-11-23T15:40:06.000Z</time>
      </trkpt>
      <trkpt lat="48.87378" lon="-0.40928">
        <ele>55.799999237061</ele>
        <time>2014-11-23T15:40:08.000Z</time>
      </trkpt>
      <trkpt lat="48.87379" lon="-0.40931">
        <ele>56.200000762939</ele>
        <time>2014-11-23T15:40:10.000Z</time>
      </trkpt>
      <trkpt lat="48.8738" lon="-0.40937">
        <ele>56.599998474121</ele>
        <time>2014-11-23T15:40:13.000Z</time>
      </trkpt>
      <trkpt lat="48.8738" lon="-0.40941">
        <ele>56.400001525879</ele>
        <time>2014-11-23T15:40:16.000Z</time>
      </trkpt>
      <trkpt lat="48.87383" lon="-0.4095">
        <ele>56</ele>
        <time>2014-11-23T15:40:21.000Z</time>
      </trkpt>
      <trkpt lat="48.87384" lon="-0.40953">
        <ele>55.599998474121</ele>
        <time>2014-11-23T15:40:23.000Z</time>
      </trkpt>
      <trkpt lat="48.87384" lon="-0.40957">
        <ele>55</ele>
        <time>2014-11-23T15:40:25.000Z</time>
      </trkpt>
      <trkpt lat="48.87386" lon="-0.40961">
        <ele>54.799999237061</ele>
        <time>2014-11-23T15:40:28.000Z</time>
      </trkpt>
      <trkpt lat="48.87386" lon="-0.40964">
        <ele>54.400001525879</ele>
        <time>2014-11-23T15:40:30.000Z</time>
      </trkpt>
      <trkpt lat="48.87387" lon="-0.40969">
        <ele>54</ele>
        <time>2014-11-23T15:40:33.000Z</time>
      </trkpt>
      <trkpt lat="48.87387" lon="-0.4097">
        <ele>53.799999237061</ele>
        <time>2014-11-23T15:40:35.000Z</time>
      </trkpt>
      <trkpt lat="48.87388" lon="-0.40974">
        <ele>53.599998474121</ele>
        <time>2014-11-23T15:40:38.000Z</time>
      </trkpt>
      <trkpt lat="48.87389" lon="-0.40977">
        <ele>53.400001525879</ele>
        <time>2014-11-23T15:40:40.000Z</time>
      </trkpt>
      <trkpt lat="48.8739" lon="-0.40982">
        <ele>53.200000762939</ele>
        <time>2014-11-23T15:40:43.000Z</time>
      </trkpt>
      <trkpt lat="48.8739" lon="-0.40989">
        <ele>52.799999237061</ele>
        <time>2014-11-23T15:40:48.000Z</time>
      </trkpt>
      <trkpt lat="48.87389" lon="-0.40996">
        <ele>52.400001525879</ele>
        <time>2014-11-23T15:40:51.000Z</time>
      </trkpt>
      <trkpt lat="48.87387" lon="-0.41003">
        <ele>51.400001525879</ele>
        <time>2014-11-23T15:40:54.000Z</time>
      </trkpt>
      <trkpt lat="48.87384" lon="-0.41007">
        <ele>50.400001525879</ele>
        <time>2014-11-23T15:40:57.000Z</time>
      </trkpt>
      <trkpt lat="48.87383" lon="-0.41012">
        <ele>49.200000762939</ele>
        <time>2014-11-23T15:40:59.000Z</time>
      </trkpt>
      <trkpt lat="48.87381" lon="-0.41018">
        <ele>48.400001525879</ele>
        <time>2014-11-23T15:41:02.000Z</time>
      </trkpt>
      <trkpt lat="48.8738" lon="-0.41022">
        <ele>47.799999237061</ele>
        <time>2014-11-23T15:41:04.000Z</time>
      </trkpt>
      <trkpt lat="48.87377" lon="-0.41034">
        <ele>48</ele>
        <time>2014-11-23T15:41:12.000Z</time>
      </trkpt>
      <trkpt lat="48.87376" lon="-0.4104">
        <ele>48.200000762939</ele>
        <time>2014-11-23T15:41:15.000Z</time>
      </trkpt>
      <trkpt lat="48.87375" lon="-0.41043">
        <ele>48</ele>
        <time>2014-11-23T15:41:17.000Z</time>
      </trkpt>
      <trkpt lat="48.87374" lon="-0.41049">
        <ele>48.200000762939</ele>
        <time>2014-11-23T15:41:20.000Z</time>
      </trkpt>
      <trkpt lat="48.87373" lon="-0.41055">
        <ele>48.400001525879</ele>
        <time>2014-11-23T15:41:24.000Z</time>
      </trkpt>
      <trkpt lat="48.87373" lon="-0.41058">
        <ele>48.400001525879</ele>
        <time>2014-11-23T15:41:27.000Z</time>
      </trkpt>
      <trkpt lat="48.87373" lon="-0.41061">
        <ele>48.799999237061</ele>
        <time>2014-11-23T15:41:29.000Z</time>
      </trkpt>
      <trkpt lat="48.87372" lon="-0.41067">
        <ele>49.200000762939</ele>
        <time>2014-11-23T15:41:32.000Z</time>
      </trkpt>
      <trkpt lat="48.87371" lon="-0.41069">
        <ele>49.200000762939</ele>
        <time>2014-11-23T15:41:35.000Z</time>
      </trkpt>
      <trkpt lat="48.8737" lon="-0.41071">
        <ele>48.799999237061</ele>
        <time>2014-11-23T15:41:37.000Z</time>
      </trkpt>
      <trkpt lat="48.87369" lon="-0.41074">
        <ele>48.599998474121</ele>
        <time>2014-11-23T15:41:39.000Z</time>
      </trkpt>
      <trkpt lat="48.87367" lon="-0.41079">
        <ele>48.400001525879</ele>
        <time>2014-11-23T15:41:42.000Z</time>
      </trkpt>
      <trkpt lat="48.87366" lon="-0.41083">
        <ele>47.799999237061</ele>
        <time>2014-11-23T15:41:44.000Z</time>
      </trkpt>
      <trkpt lat="48.87365" lon="-0.41087">
        <ele>47.599998474121</ele>
        <time>2014-11-23T15:41:46.000Z</time>
      </trkpt>
      <trkpt lat="48.87364" lon="-0.41091">
        <ele>47.799999237061</ele>
        <time>2014-11-23T15:41:48.000Z</time>
      </trkpt>
      <trkpt lat="48.87363" lon="-0.41095">
        <ele>47.799999237061</ele>
        <time>2014-11-23T15:41:51.000Z</time>
      </trkpt>
      <trkpt lat="48.87362" lon="-0.41098">
        <ele>47.799999237061</ele>
        <time>2014-11-23T15:41:54.000Z</time>
      </trkpt>
      <trkpt lat="48.87361" lon="-0.41102">
        <ele>47.599998474121</ele>
        <time>2014-11-23T15:41:56.000Z</time>
      </trkpt>
      <trkpt lat="48.87359" lon="-0.41108">
        <ele>47.799999237061</ele>
        <time>2014-11-23T15:41:59.000Z</time>
      </trkpt>
      <trkpt lat="48.87357" lon="-0.41114">
        <ele>47.799999237061</ele>
        <time>2014-11-23T15:42:02.000Z</time>
      </trkpt>
      <trkpt lat="48.87354" lon="-0.41119">
        <ele>47.200000762939</ele>
        <time>2014-11-23T15:42:05.000Z</time>
      </trkpt>
      <trkpt lat="48.87352" lon="-0.41118">
        <ele>46.400001525879</ele>
        <time>2014-11-23T15:42:07.000Z</time>
      </trkpt>
      <trkpt lat="48.8735" lon="-0.41117">
        <ele>46.200000762939</ele>
        <time>2014-11-23T15:42:09.000Z</time>
      </trkpt>
      <trkpt lat="48.87349" lon="-0.41117">
        <ele>46</ele>
        <time>2014-11-23T15:42:11.000Z</time>
      </trkpt>
      <trkpt lat="48.87346" lon="-0.41118">
        <ele>45.599998474121</ele>
        <time>2014-11-23T15:42:14.000Z</time>
      </trkpt>
      <trkpt lat="48.87344" lon="-0.4112">
        <ele>45.799999237061</ele>
        <time>2014-11-23T15:42:17.000Z</time>
      </trkpt>
      <trkpt lat="48.87342" lon="-0.41122">
        <ele>46.200000762939</ele>
        <time>2014-11-23T15:42:19.000Z</time>
      </trkpt>
      <trkpt lat="48.87341" lon="-0.41123">
        <ele>46.400001525879</ele>
        <time>2014-11-23T15:42:21.000Z</time>
      </trkpt>
      <trkpt lat="48.87338" lon="-0.41127">
        <ele>46.599998474121</ele>
        <time>2014-11-23T15:42:24.000Z</time>
      </trkpt>
      <trkpt lat="48.87335" lon="-0.41134">
        <ele>46.200000762939</ele>
        <time>2014-11-23T15:42:30.000Z</time>
      </trkpt>
      <trkpt lat="48.87334" lon="-0.41136">
        <ele>46</ele>
        <time>2014-11-23T15:42:33.000Z</time>
      </trkpt>
      <trkpt lat="48.87332" lon="-0.41141">
        <ele>45.599998474121</ele>
        <time>2014-11-23T15:42:36.000Z</time>
      </trkpt>
      <trkpt lat="48.8733" lon="-0.41143">
        <ele>44.599998474121</ele>
        <time>2014-11-23T15:42:38.000Z</time>
      </trkpt>
      <trkpt lat="48.87326" lon="-0.41146">
        <ele>44</ele>
        <time>2014-11-23T15:42:41.000Z</time>
      </trkpt>
      <trkpt lat="48.87325" lon="-0.41149">
        <ele>43.799999237061</ele>
        <time>2014-11-23T15:42:43.000Z</time>
      </trkpt>
      <trkpt lat="48.87321" lon="-0.41153">
        <ele>43</ele>
        <time>2014-11-23T15:42:46.000Z</time>
      </trkpt>
      <trkpt lat="48.8732" lon="-0.41156">
        <ele>42.599998474121</ele>
        <time>2014-11-23T15:42:48.000Z</time>
      </trkpt>
      <trkpt lat="48.87318" lon="-0.41158">
        <ele>42.200000762939</ele>
        <time>2014-11-23T15:42:51.000Z</time>
      </trkpt>
      <trkpt lat="48.87315" lon="-0.41158">
        <ele>41.400001525879</ele>
        <time>2014-11-23T15:42:54.000Z</time>
      </trkpt>
      <trkpt lat="48.87312" lon="-0.41158">
        <ele>40.799999237061</ele>
        <time>2014-11-23T15:42:56.000Z</time>
      </trkpt>
      <trkpt lat="48.87308" lon="-0.41161">
        <ele>40.400001525879</ele>
        <time>2014-11-23T15:42:59.000Z</time>
      </trkpt>
      <trkpt lat="48.87305" lon="-0.41163">
        <ele>39.799999237061</ele>
        <time>2014-11-23T15:43:01.000Z</time>
      </trkpt>
      <trkpt lat="48.87302" lon="-0.41165">
        <ele>39.599998474121</ele>
        <time>2014-11-23T15:43:04.000Z</time>
      </trkpt>
      <trkpt lat="48.87299" lon="-0.41166">
        <ele>39.799999237061</ele>
        <time>2014-11-23T15:43:06.000Z</time>
      </trkpt>
      <trkpt lat="48.87296" lon="-0.41165">
        <ele>39.599998474121</ele>
        <time>2014-11-23T15:43:09.000Z</time>
      </trkpt>
      <trkpt lat="48.87295" lon="-0.41164">
        <ele>39.400001525879</ele>
        <time>2014-11-23T15:43:12.000Z</time>
      </trkpt>
      <trkpt lat="48.87294" lon="-0.41163">
        <ele>39</ele>
        <time>2014-11-23T15:43:14.000Z</time>
      </trkpt>
      <trkpt lat="48.87293" lon="-0.41161">
        <ele>39</ele>
        <time>2014-11-23T15:43:17.000Z</time>
      </trkpt>
      <trkpt lat="48.87293" lon="-0.4116">
        <ele>39</ele>
        <time>2014-11-23T15:43:19.000Z</time>
      </trkpt>
      <trkpt lat="48.87293" lon="-0.41156">
        <ele>39.599998474121</ele>
        <time>2014-11-23T15:43:22.000Z</time>
      </trkpt>
      <trkpt lat="48.87293" lon="-0.41154">
        <ele>40.400001525879</ele>
        <time>2014-11-23T15:43:25.000Z</time>
      </trkpt>
      <trkpt lat="48.87293" lon="-0.41154">
        <ele>40.400001525879</ele>
        <time>2014-11-23T15:43:45.000Z</time>
      </trkpt>
      <trkpt lat="48.87294" lon="-0.41153">
        <ele>41.200000762939</ele>
        <time>2014-11-23T15:43:50.000Z</time>
      </trkpt>
      <trkpt lat="48.87294" lon="-0.41153">
        <ele>41.200000762939</ele>
        <time>2014-11-23T15:44:10.000Z</time>
      </trkpt>
      <trkpt lat="48.87296" lon="-0.41152">
        <ele>41.799999237061</ele>
        <time>2014-11-23T15:44:12.000Z</time>
      </trkpt>
      <trkpt lat="48.87296" lon="-0.41153">
        <ele>42</ele>
        <time>2014-11-23T15:44:17.000Z</time>
      </trkpt>
      <trkpt lat="48.87295" lon="-0.41152">
        <ele>41.400001525879</ele>
        <time>2014-11-23T15:44:24.000Z</time>
      </trkpt>
      <trkpt lat="48.87296" lon="-0.41151">
        <ele>40.799999237061</ele>
        <time>2014-11-23T15:44:36.000Z</time>
      </trkpt>
      <trkpt lat="48.87296" lon="-0.41149">
        <ele>40.200000762939</ele>
        <time>2014-11-23T15:44:44.000Z</time>
      </trkpt>
      <trkpt lat="48.87295" lon="-0.41148">
        <ele>39.599998474121</ele>
        <time>2014-11-23T15:44:47.000Z</time>
      </trkpt>
      <trkpt lat="48.87294" lon="-0.41149">
        <ele>39.400001525879</ele>
        <time>2014-11-23T15:44:56.000Z</time>
      </trkpt>
      <trkpt lat="48.87292" lon="-0.41148">
        <ele>38.799999237061</ele>
        <time>2014-11-23T15:45:16.000Z</time>
      </trkpt>
      <trkpt lat="48.87291" lon="-0.41147">
        <ele>38.200000762939</ele>
        <time>2014-11-23T15:45:30.000Z</time>
      </trkpt>
      <trkpt lat="48.8729" lon="-0.41143">
        <ele>37.599998474121</ele>
        <time>2014-11-23T15:45:33.000Z</time>
      </trkpt>
      <trkpt lat="48.87289" lon="-0.41141">
        <ele>36.599998474121</ele>
        <time>2014-11-23T15:45:35.000Z</time>
      </trkpt>
      <trkpt lat="48.87291" lon="-0.4114">
        <ele>35.799999237061</ele>
        <time>2014-11-23T15:45:38.000Z</time>
      </trkpt>
      <trkpt lat="48.87292" lon="-0.4114">
        <ele>35.599998474121</ele>
        <time>2014-11-23T15:45:40.000Z</time>
      </trkpt>
      <trkpt lat="48.87294" lon="-0.4114">
        <ele>35.599998474121</ele>
        <time>2014-11-23T15:45:43.000Z</time>
      </trkpt>
      <trkpt lat="48.87298" lon="-0.4114">
        <ele>35.200000762939</ele>
        <time>2014-11-23T15:45:46.000Z</time>
      </trkpt>
      <trkpt lat="48.87295" lon="-0.41149">
        <ele>35.200000762939</ele>
        <time>2014-11-23T15:45:48.000Z</time>
      </trkpt>
      <trkpt lat="48.87292" lon="-0.41156">
        <ele>34.799999237061</ele>
        <time>2014-11-23T15:45:50.000Z</time>
      </trkpt>
      <trkpt lat="48.87289" lon="-0.4116">
        <ele>34.599998474121</ele>
        <time>2014-11-23T15:45:52.000Z</time>
      </trkpt>
      <trkpt lat="48.87286" lon="-0.41162">
        <ele>33.599998474121</ele>
        <time>2014-11-23T15:45:55.000Z</time>
      </trkpt>
      <trkpt lat="48.87284" lon="-0.41156">
        <ele>33</ele>
        <time>2014-11-23T15:45:57.000Z</time>
      </trkpt>
      <trkpt lat="48.87284" lon="-0.41154">
        <ele>32.200000762939</ele>
        <time>2014-11-23T15:45:59.000Z</time>
      </trkpt>
      <trkpt lat="48.87286" lon="-0.41152">
        <ele>31.799999237061</ele>
        <time>2014-11-23T15:46:02.000Z</time>
      </trkpt>
      <trkpt lat="48.87286" lon="-0.41149">
        <ele>31.60000038147</ele>
        <time>2014-11-23T15:46:05.000Z</time>
      </trkpt>
      <trkpt lat="48.87285" lon="-0.41148">
        <ele>32</ele>
        <time>2014-11-23T15:46:08.000Z</time>
      </trkpt>
      <trkpt lat="48.87283" lon="-0.41152">
        <ele>32.400001525879</ele>
        <time>2014-11-23T15:46:11.000Z</time>
      </trkpt>
      <trkpt lat="48.87287" lon="-0.41148">
        <ele>33.599998474121</ele>
        <time>2014-11-23T15:46:19.000Z</time>
      </trkpt>
      <trkpt lat="48.87288" lon="-0.41149">
        <ele>34.200000762939</ele>
        <time>2014-11-23T15:46:22.000Z</time>
      </trkpt>
      <trkpt lat="48.87288" lon="-0.41149">
        <ele>34.200000762939</ele>
        <time>2014-11-23T15:46:42.000Z</time>
      </trkpt>
      <trkpt lat="48.8729" lon="-0.41148">
        <ele>34.400001525879</ele>
        <time>2014-11-23T15:46:48.000Z</time>
      </trkpt>
      <trkpt lat="48.87291" lon="-0.41149">
        <ele>34.799999237061</ele>
        <time>2014-11-23T15:47:00.000Z</time>
      </trkpt>
      <trkpt lat="48.87292" lon="-0.41148">
        <ele>35.400001525879</ele>
        <time>2014-11-23T15:47:08.000Z</time>
      </trkpt>
      <trkpt lat="48.87293" lon="-0.41149">
        <ele>35</ele>
        <time>2014-11-23T15:47:14.000Z</time>
      </trkpt>
      <trkpt lat="48.87292" lon="-0.41151">
        <ele>35.599998474121</ele>
        <time>2014-11-23T15:47:18.000Z</time>
      </trkpt>
      <trkpt lat="48.87292" lon="-0.41149">
        <ele>36.599998474121</ele>
        <time>2014-11-23T15:47:22.000Z</time>
      </trkpt>
      <trkpt lat="48.87293" lon="-0.41148">
        <ele>37</ele>
        <time>2014-11-23T15:47:24.000Z</time>
      </trkpt>
      <trkpt lat="48.87293" lon="-0.41149">
        <ele>37.200000762939</ele>
        <time>2014-11-23T15:47:26.000Z</time>
      </trkpt>
      <trkpt lat="48.87291" lon="-0.41152">
        <ele>37.799999237061</ele>
        <time>2014-11-23T15:47:28.000Z</time>
      </trkpt>
      <trkpt lat="48.87291" lon="-0.41153">
        <ele>38</ele>
        <time>2014-11-23T15:47:31.000Z</time>
      </trkpt>
      <trkpt lat="48.8729" lon="-0.41153">
        <ele>38.200000762939</ele>
        <time>2014-11-23T15:47:56.000Z</time>
      </trkpt>
      <trkpt lat="48.87289" lon="-0.41151">
        <ele>38.799999237061</ele>
        <time>2014-11-23T15:48:08.000Z</time>
      </trkpt>
      <trkpt lat="48.87288" lon="-0.41151">
        <ele>39.200000762939</ele>
        <time>2014-11-23T15:48:14.000Z</time>
      </trkpt>
      <trkpt lat="48.87287" lon="-0.41153">
        <ele>39.599998474121</ele>
        <time>2014-11-23T15:48:20.000Z</time>
      </trkpt>
      <trkpt lat="48.87286" lon="-0.41155">
        <ele>39.799999237061</ele>
        <time>2014-11-23T15:48:23.000Z</time>
      </trkpt>
      <trkpt lat="48.87286" lon="-0.41155">
        <ele>39.799999237061</ele>
        <time>2014-11-23T15:48:43.000Z</time>
      </trkpt>
      <trkpt lat="48.87287" lon="-0.41153">
        <ele>40.599998474121</ele>
        <time>2014-11-23T15:48:50.000Z</time>
      </trkpt>
      <trkpt lat="48.87287" lon="-0.41153">
        <ele>40.599998474121</ele>
        <time>2014-11-23T15:49:10.000Z</time>
      </trkpt>
      <trkpt lat="48.87288" lon="-0.41154">
        <ele>40.799999237061</ele>
        <time>2014-11-23T15:49:18.000Z</time>
      </trkpt>
      <trkpt lat="48.87289" lon="-0.41154">
        <ele>40.799999237061</ele>
        <time>2014-11-23T15:49:31.000Z</time>
      </trkpt>
      <trkpt lat="48.87289" lon="-0.41153">
        <ele>40.599998474121</ele>
        <time>2014-11-23T15:49:34.000Z</time>
      </trkpt>
      <trkpt lat="48.87289" lon="-0.41153">
        <ele>40.599998474121</ele>
        <time>2014-11-23T15:49:44.000Z</time>
      </trkpt>
    </trkseg>
  </trk>
</gpx>